<?xml version="1.0" encoding="UTF-8" standalone="no" ?>
<gpx xmlns="http://www.topografix.com/GPX/1/1" xmlns:xsi="http://www.w3.org/2001/XMLSchema-instance" xsi:schemaLocation="http://www.topografix.com/GPX/1/1 http://www.topografix.com/GPX/1/1/gpx.xsd" version="1.1" creator="VisuGPX - https://www.visugpx.com">
  <metadata>
    <name>seycheuse  peyre gari le lioran</name>
    <desc><![CDATA[sortie pedestre sympa sauf le temps tres maussade voir pluvieux]]></desc>
  </metadata>
  <wpt lat="45.08966" lon="2.73345">
    <ele>1222</ele>
    <name><![CDATA[Pause à 2/9 11:36]]></name>
    <desc><![CDATA[Pause de 3min 5s]]></desc>
  </wpt>
  <wpt lat="45.0903" lon="2.7284">
    <ele>1251</ele>
    <name><![CDATA[Pause à 2/9 11:45]]></name>
    <desc><![CDATA[Pause de 2min 26s]]></desc>
  </wpt>
  <wpt lat="45.09084" lon="2.71822">
    <ele>1440</ele>
    <name><![CDATA[Pause à 2/9 11:54]]></name>
    <desc><![CDATA[Pause de 3min 1s]]></desc>
  </wpt>
  <wpt lat="45.10519" lon="2.73631">
    <ele>1669</ele>
    <name><![CDATA[Pause à 2/9 12:42]]></name>
    <desc><![CDATA[Pause de 2min 59s]]></desc>
  </wpt>
  <wpt lat="45.1173" lon="2.75402">
    <ele>1611</ele>
    <name><![CDATA[Pause à 2/9 13:12]]></name>
    <desc><![CDATA[Pause de 2min 37s]]></desc>
  </wpt>
  <wpt lat="45.11884" lon="2.75509">
    <ele>1643</ele>
    <name><![CDATA[Pause à 2/9 13:18]]></name>
    <desc><![CDATA[Pause de 2min 28s]]></desc>
  </wpt>
  <wpt lat="45.11806" lon="2.77308">
    <ele>1416</ele>
    <name><![CDATA[Pause à 2/9 13:51]]></name>
    <desc><![CDATA[Pause de 21min 50s]]></desc>
  </wpt>
  <wpt lat="45.11718" lon="2.76157">
    <ele>1388</ele>
    <name><![CDATA[Pause à 2/9 14:27]]></name>
    <desc><![CDATA[Pause de 2min 25s]]></desc>
  </wpt>
  <wpt lat="45.09956" lon="2.74013">
    <ele>1676</ele>
    <name><![CDATA[Pause à 2/9 15:10]]></name>
    <desc><![CDATA[Pause de 4min 53s]]></desc>
  </wpt>
  <trk>
    <name><![CDATA[Seycheuse lioran bec aigle ]]></name>
    <trkseg>
      <trkpt lat="45.08302" lon="2.7467">
        <ele>1308</ele>
        <time>2017-09-02T09:15:34Z</time>
      </trkpt>
      <trkpt lat="45.08289" lon="2.74672">
        <ele>1311</ele>
        <time>2017-09-02T09:15:35Z</time>
      </trkpt>
      <trkpt lat="45.08296" lon="2.74672">
        <ele>1312</ele>
        <time>2017-09-02T09:15:36Z</time>
      </trkpt>
      <trkpt lat="45.08301" lon="2.74672">
        <ele>1314</ele>
        <time>2017-09-02T09:15:38Z</time>
      </trkpt>
      <trkpt lat="45.08302" lon="2.74672">
        <ele>1315</ele>
        <time>2017-09-02T09:15:59Z</time>
      </trkpt>
      <trkpt lat="45.08318" lon="2.74665">
        <ele>1314</ele>
        <time>2017-09-02T09:16:04Z</time>
      </trkpt>
      <trkpt lat="45.08321" lon="2.74659">
        <ele>1312</ele>
        <time>2017-09-02T09:16:14Z</time>
      </trkpt>
      <trkpt lat="45.08326" lon="2.74656">
        <ele>1311</ele>
        <time>2017-09-02T09:16:19Z</time>
      </trkpt>
      <trkpt lat="45.08331" lon="2.74653">
        <ele>1311</ele>
        <time>2017-09-02T09:16:23Z</time>
      </trkpt>
      <trkpt lat="45.08336" lon="2.7465">
        <ele>1310</ele>
        <time>2017-09-02T09:16:28Z</time>
      </trkpt>
      <trkpt lat="45.0834" lon="2.74647">
        <ele>1313</ele>
        <time>2017-09-02T09:16:31Z</time>
      </trkpt>
      <trkpt lat="45.08345" lon="2.74643">
        <ele>1315</ele>
        <time>2017-09-02T09:16:35Z</time>
      </trkpt>
      <trkpt lat="45.08349" lon="2.7464">
        <ele>1316</ele>
        <time>2017-09-02T09:16:39Z</time>
      </trkpt>
      <trkpt lat="45.08354" lon="2.74636">
        <ele>1317</ele>
        <time>2017-09-02T09:16:43Z</time>
      </trkpt>
      <trkpt lat="45.08358" lon="2.74632">
        <ele>1318</ele>
        <time>2017-09-02T09:16:48Z</time>
      </trkpt>
      <trkpt lat="45.08363" lon="2.74627">
        <ele>1318</ele>
        <time>2017-09-02T09:16:52Z</time>
      </trkpt>
      <trkpt lat="45.08367" lon="2.74624">
        <ele>1317</ele>
        <time>2017-09-02T09:16:56Z</time>
      </trkpt>
      <trkpt lat="45.08371" lon="2.74619">
        <ele>1317</ele>
        <time>2017-09-02T09:17:01Z</time>
      </trkpt>
      <trkpt lat="45.08375" lon="2.74616">
        <ele>1317</ele>
        <time>2017-09-02T09:17:06Z</time>
      </trkpt>
      <trkpt lat="45.0838" lon="2.74612">
        <ele>1318</ele>
        <time>2017-09-02T09:17:11Z</time>
      </trkpt>
      <trkpt lat="45.08384" lon="2.74608">
        <ele>1318</ele>
        <time>2017-09-02T09:17:16Z</time>
      </trkpt>
      <trkpt lat="45.0839" lon="2.74607">
        <ele>1318</ele>
        <time>2017-09-02T09:17:20Z</time>
      </trkpt>
      <trkpt lat="45.08395" lon="2.74607">
        <ele>1318</ele>
        <time>2017-09-02T09:17:25Z</time>
      </trkpt>
      <trkpt lat="45.08399" lon="2.74609">
        <ele>1318</ele>
        <time>2017-09-02T09:17:30Z</time>
      </trkpt>
      <trkpt lat="45.08403" lon="2.74612">
        <ele>1318</ele>
        <time>2017-09-02T09:17:33Z</time>
      </trkpt>
      <trkpt lat="45.08408" lon="2.74615">
        <ele>1318</ele>
        <time>2017-09-02T09:17:36Z</time>
      </trkpt>
      <trkpt lat="45.08413" lon="2.74618">
        <ele>1319</ele>
        <time>2017-09-02T09:17:41Z</time>
      </trkpt>
      <trkpt lat="45.08418" lon="2.74621">
        <ele>1319</ele>
        <time>2017-09-02T09:17:44Z</time>
      </trkpt>
      <trkpt lat="45.08423" lon="2.74624">
        <ele>1320</ele>
        <time>2017-09-02T09:17:48Z</time>
      </trkpt>
      <trkpt lat="45.08428" lon="2.74626">
        <ele>1320</ele>
        <time>2017-09-02T09:17:53Z</time>
      </trkpt>
      <trkpt lat="45.08434" lon="2.74628">
        <ele>1321</ele>
        <time>2017-09-02T09:17:57Z</time>
      </trkpt>
      <trkpt lat="45.08439" lon="2.74628">
        <ele>1321</ele>
        <time>2017-09-02T09:18:02Z</time>
      </trkpt>
      <trkpt lat="45.08444" lon="2.74632">
        <ele>1321</ele>
        <time>2017-09-02T09:18:07Z</time>
      </trkpt>
      <trkpt lat="45.08449" lon="2.74632">
        <ele>1321</ele>
        <time>2017-09-02T09:18:10Z</time>
      </trkpt>
      <trkpt lat="45.08453" lon="2.74635">
        <ele>1321</ele>
        <time>2017-09-02T09:18:14Z</time>
      </trkpt>
      <trkpt lat="45.08459" lon="2.74636">
        <ele>1320</ele>
        <time>2017-09-02T09:18:17Z</time>
      </trkpt>
      <trkpt lat="45.08465" lon="2.74634">
        <ele>1320</ele>
        <time>2017-09-02T09:18:20Z</time>
      </trkpt>
      <trkpt lat="45.0847" lon="2.74634">
        <ele>1319</ele>
        <time>2017-09-02T09:18:24Z</time>
      </trkpt>
      <trkpt lat="45.08475" lon="2.74636">
        <ele>1319</ele>
        <time>2017-09-02T09:18:28Z</time>
      </trkpt>
      <trkpt lat="45.08478" lon="2.7464">
        <ele>1319</ele>
        <time>2017-09-02T09:18:33Z</time>
      </trkpt>
      <trkpt lat="45.08484" lon="2.74637">
        <ele>1319</ele>
        <time>2017-09-02T09:18:36Z</time>
      </trkpt>
      <trkpt lat="45.08489" lon="2.74631">
        <ele>1319</ele>
        <time>2017-09-02T09:18:39Z</time>
      </trkpt>
      <trkpt lat="45.08493" lon="2.74625">
        <ele>1319</ele>
        <time>2017-09-02T09:18:42Z</time>
      </trkpt>
      <trkpt lat="45.08496" lon="2.74619">
        <ele>1319</ele>
        <time>2017-09-02T09:18:47Z</time>
      </trkpt>
      <trkpt lat="45.08498" lon="2.74612">
        <ele>1319</ele>
        <time>2017-09-02T09:18:53Z</time>
      </trkpt>
      <trkpt lat="45.08501" lon="2.74606">
        <ele>1319</ele>
        <time>2017-09-02T09:18:56Z</time>
      </trkpt>
      <trkpt lat="45.08504" lon="2.746">
        <ele>1318</ele>
        <time>2017-09-02T09:19:01Z</time>
      </trkpt>
      <trkpt lat="45.08506" lon="2.74594">
        <ele>1318</ele>
        <time>2017-09-02T09:19:04Z</time>
      </trkpt>
      <trkpt lat="45.08509" lon="2.74588">
        <ele>1317</ele>
        <time>2017-09-02T09:19:08Z</time>
      </trkpt>
      <trkpt lat="45.0851" lon="2.74581">
        <ele>1316</ele>
        <time>2017-09-02T09:19:11Z</time>
      </trkpt>
      <trkpt lat="45.08513" lon="2.74575">
        <ele>1315</ele>
        <time>2017-09-02T09:19:15Z</time>
      </trkpt>
      <trkpt lat="45.08516" lon="2.7457">
        <ele>1315</ele>
        <time>2017-09-02T09:19:19Z</time>
      </trkpt>
      <trkpt lat="45.08511" lon="2.74566">
        <ele>1314</ele>
        <time>2017-09-02T09:19:22Z</time>
      </trkpt>
      <trkpt lat="45.0851" lon="2.74559">
        <ele>1314</ele>
        <time>2017-09-02T09:19:26Z</time>
      </trkpt>
      <trkpt lat="45.08511" lon="2.74552">
        <ele>1313</ele>
        <time>2017-09-02T09:19:29Z</time>
      </trkpt>
      <trkpt lat="45.08511" lon="2.74544">
        <ele>1313</ele>
        <time>2017-09-02T09:19:33Z</time>
      </trkpt>
      <trkpt lat="45.08507" lon="2.74539">
        <ele>1313</ele>
        <time>2017-09-02T09:19:36Z</time>
      </trkpt>
      <trkpt lat="45.08509" lon="2.74533">
        <ele>1313</ele>
        <time>2017-09-02T09:19:38Z</time>
      </trkpt>
      <trkpt lat="45.08506" lon="2.74526">
        <ele>1313</ele>
        <time>2017-09-02T09:19:42Z</time>
      </trkpt>
      <trkpt lat="45.08503" lon="2.74519">
        <ele>1313</ele>
        <time>2017-09-02T09:19:47Z</time>
      </trkpt>
      <trkpt lat="45.08504" lon="2.74511">
        <ele>1313</ele>
        <time>2017-09-02T09:19:50Z</time>
      </trkpt>
      <trkpt lat="45.08505" lon="2.74503">
        <ele>1312</ele>
        <time>2017-09-02T09:19:53Z</time>
      </trkpt>
      <trkpt lat="45.08504" lon="2.74496">
        <ele>1312</ele>
        <time>2017-09-02T09:19:56Z</time>
      </trkpt>
      <trkpt lat="45.08504" lon="2.74488">
        <ele>1311</ele>
        <time>2017-09-02T09:20:00Z</time>
      </trkpt>
      <trkpt lat="45.08505" lon="2.74481">
        <ele>1311</ele>
        <time>2017-09-02T09:20:03Z</time>
      </trkpt>
      <trkpt lat="45.08504" lon="2.74475">
        <ele>1311</ele>
        <time>2017-09-02T09:20:07Z</time>
      </trkpt>
      <trkpt lat="45.08504" lon="2.74468">
        <ele>1311</ele>
        <time>2017-09-02T09:20:11Z</time>
      </trkpt>
      <trkpt lat="45.08501" lon="2.74462">
        <ele>1311</ele>
        <time>2017-09-02T09:20:15Z</time>
      </trkpt>
      <trkpt lat="45.08501" lon="2.74456">
        <ele>1310</ele>
        <time>2017-09-02T09:20:18Z</time>
      </trkpt>
      <trkpt lat="45.08505" lon="2.7445">
        <ele>1310</ele>
        <time>2017-09-02T09:20:20Z</time>
      </trkpt>
      <trkpt lat="45.08503" lon="2.74443">
        <ele>1310</ele>
        <time>2017-09-02T09:20:24Z</time>
      </trkpt>
      <trkpt lat="45.08503" lon="2.74435">
        <ele>1311</ele>
        <time>2017-09-02T09:20:29Z</time>
      </trkpt>
      <trkpt lat="45.08506" lon="2.74429">
        <ele>1311</ele>
        <time>2017-09-02T09:20:32Z</time>
      </trkpt>
      <trkpt lat="45.08503" lon="2.74423">
        <ele>1311</ele>
        <time>2017-09-02T09:20:36Z</time>
      </trkpt>
      <trkpt lat="45.08504" lon="2.74416">
        <ele>1312</ele>
        <time>2017-09-02T09:20:42Z</time>
      </trkpt>
      <trkpt lat="45.08506" lon="2.7441">
        <ele>1312</ele>
        <time>2017-09-02T09:20:45Z</time>
      </trkpt>
      <trkpt lat="45.08508" lon="2.74403">
        <ele>1312</ele>
        <time>2017-09-02T09:20:47Z</time>
      </trkpt>
      <trkpt lat="45.0851" lon="2.74396">
        <ele>1313</ele>
        <time>2017-09-02T09:20:50Z</time>
      </trkpt>
      <trkpt lat="45.0851" lon="2.74388">
        <ele>1313</ele>
        <time>2017-09-02T09:20:54Z</time>
      </trkpt>
      <trkpt lat="45.08506" lon="2.74383">
        <ele>1313</ele>
        <time>2017-09-02T09:20:58Z</time>
      </trkpt>
      <trkpt lat="45.08509" lon="2.74376">
        <ele>1313</ele>
        <time>2017-09-02T09:21:08Z</time>
      </trkpt>
      <trkpt lat="45.08514" lon="2.74368">
        <ele>1313</ele>
        <time>2017-09-02T09:21:10Z</time>
      </trkpt>
      <trkpt lat="45.08516" lon="2.7436">
        <ele>1313</ele>
        <time>2017-09-02T09:21:13Z</time>
      </trkpt>
      <trkpt lat="45.08517" lon="2.74352">
        <ele>1313</ele>
        <time>2017-09-02T09:21:17Z</time>
      </trkpt>
      <trkpt lat="45.0852" lon="2.74346">
        <ele>1313</ele>
        <time>2017-09-02T09:21:20Z</time>
      </trkpt>
      <trkpt lat="45.0852" lon="2.74338">
        <ele>1313</ele>
        <time>2017-09-02T09:21:24Z</time>
      </trkpt>
      <trkpt lat="45.0852" lon="2.74331">
        <ele>1313</ele>
        <time>2017-09-02T09:21:26Z</time>
      </trkpt>
      <trkpt lat="45.08519" lon="2.74323">
        <ele>1313</ele>
        <time>2017-09-02T09:21:30Z</time>
      </trkpt>
      <trkpt lat="45.08522" lon="2.74317">
        <ele>1313</ele>
        <time>2017-09-02T09:21:34Z</time>
      </trkpt>
      <trkpt lat="45.08523" lon="2.7431">
        <ele>1313</ele>
        <time>2017-09-02T09:21:38Z</time>
      </trkpt>
      <trkpt lat="45.08525" lon="2.74302">
        <ele>1313</ele>
        <time>2017-09-02T09:21:42Z</time>
      </trkpt>
      <trkpt lat="45.08527" lon="2.74294">
        <ele>1313</ele>
        <time>2017-09-02T09:21:45Z</time>
      </trkpt>
      <trkpt lat="45.08528" lon="2.74286">
        <ele>1313</ele>
        <time>2017-09-02T09:21:49Z</time>
      </trkpt>
      <trkpt lat="45.08529" lon="2.74279">
        <ele>1313</ele>
        <time>2017-09-02T09:21:53Z</time>
      </trkpt>
      <trkpt lat="45.08528" lon="2.74273">
        <ele>1313</ele>
        <time>2017-09-02T09:21:57Z</time>
      </trkpt>
      <trkpt lat="45.08531" lon="2.74267">
        <ele>1313</ele>
        <time>2017-09-02T09:22:02Z</time>
      </trkpt>
      <trkpt lat="45.08535" lon="2.74261">
        <ele>1313</ele>
        <time>2017-09-02T09:22:05Z</time>
      </trkpt>
      <trkpt lat="45.08539" lon="2.74253">
        <ele>1313</ele>
        <time>2017-09-02T09:22:08Z</time>
      </trkpt>
      <trkpt lat="45.08542" lon="2.74246">
        <ele>1313</ele>
        <time>2017-09-02T09:22:11Z</time>
      </trkpt>
      <trkpt lat="45.0854" lon="2.74238">
        <ele>1313</ele>
        <time>2017-09-02T09:22:15Z</time>
      </trkpt>
      <trkpt lat="45.08541" lon="2.74231">
        <ele>1313</ele>
        <time>2017-09-02T09:22:18Z</time>
      </trkpt>
      <trkpt lat="45.08543" lon="2.74224">
        <ele>1313</ele>
        <time>2017-09-02T09:22:22Z</time>
      </trkpt>
      <trkpt lat="45.08544" lon="2.74217">
        <ele>1312</ele>
        <time>2017-09-02T09:22:28Z</time>
      </trkpt>
      <trkpt lat="45.08543" lon="2.7421">
        <ele>1312</ele>
        <time>2017-09-02T09:22:33Z</time>
      </trkpt>
      <trkpt lat="45.08544" lon="2.74203">
        <ele>1312</ele>
        <time>2017-09-02T09:22:36Z</time>
      </trkpt>
      <trkpt lat="45.08546" lon="2.74197">
        <ele>1312</ele>
        <time>2017-09-02T09:22:39Z</time>
      </trkpt>
      <trkpt lat="45.08546" lon="2.74189">
        <ele>1312</ele>
        <time>2017-09-02T09:22:42Z</time>
      </trkpt>
      <trkpt lat="45.08546" lon="2.74181">
        <ele>1312</ele>
        <time>2017-09-02T09:22:46Z</time>
      </trkpt>
      <trkpt lat="45.08546" lon="2.74174">
        <ele>1312</ele>
        <time>2017-09-02T09:22:49Z</time>
      </trkpt>
      <trkpt lat="45.08548" lon="2.74167">
        <ele>1312</ele>
        <time>2017-09-02T09:22:52Z</time>
      </trkpt>
      <trkpt lat="45.0855" lon="2.74159">
        <ele>1312</ele>
        <time>2017-09-02T09:22:57Z</time>
      </trkpt>
      <trkpt lat="45.08551" lon="2.74154">
        <ele>1312</ele>
        <time>2017-09-02T09:23:00Z</time>
      </trkpt>
      <trkpt lat="45.08552" lon="2.74146">
        <ele>1311</ele>
        <time>2017-09-02T09:23:04Z</time>
      </trkpt>
      <trkpt lat="45.08551" lon="2.74139">
        <ele>1311</ele>
        <time>2017-09-02T09:23:09Z</time>
      </trkpt>
      <trkpt lat="45.08551" lon="2.74133">
        <ele>1311</ele>
        <time>2017-09-02T09:23:13Z</time>
      </trkpt>
      <trkpt lat="45.08547" lon="2.74126">
        <ele>1310</ele>
        <time>2017-09-02T09:23:18Z</time>
      </trkpt>
      <trkpt lat="45.08549" lon="2.7412">
        <ele>1310</ele>
        <time>2017-09-02T09:23:21Z</time>
      </trkpt>
      <trkpt lat="45.08549" lon="2.74111">
        <ele>1310</ele>
        <time>2017-09-02T09:23:26Z</time>
      </trkpt>
      <trkpt lat="45.08552" lon="2.74106">
        <ele>1310</ele>
        <time>2017-09-02T09:23:27Z</time>
      </trkpt>
      <trkpt lat="45.08555" lon="2.74099">
        <ele>1310</ele>
        <time>2017-09-02T09:23:29Z</time>
      </trkpt>
      <trkpt lat="45.08556" lon="2.74092">
        <ele>1310</ele>
        <time>2017-09-02T09:23:33Z</time>
      </trkpt>
      <trkpt lat="45.08554" lon="2.74086">
        <ele>1310</ele>
        <time>2017-09-02T09:23:39Z</time>
      </trkpt>
      <trkpt lat="45.08551" lon="2.74081">
        <ele>1310</ele>
        <time>2017-09-02T09:23:43Z</time>
      </trkpt>
      <trkpt lat="45.08554" lon="2.74074">
        <ele>1310</ele>
        <time>2017-09-02T09:23:45Z</time>
      </trkpt>
      <trkpt lat="45.08556" lon="2.74068">
        <ele>1310</ele>
        <time>2017-09-02T09:23:47Z</time>
      </trkpt>
      <trkpt lat="45.08558" lon="2.7406">
        <ele>1310</ele>
        <time>2017-09-02T09:23:50Z</time>
      </trkpt>
      <trkpt lat="45.08559" lon="2.74053">
        <ele>1310</ele>
        <time>2017-09-02T09:23:54Z</time>
      </trkpt>
      <trkpt lat="45.08554" lon="2.74049">
        <ele>1309</ele>
        <time>2017-09-02T09:23:57Z</time>
      </trkpt>
      <trkpt lat="45.08551" lon="2.74043">
        <ele>1309</ele>
        <time>2017-09-02T09:24:00Z</time>
      </trkpt>
      <trkpt lat="45.08547" lon="2.74037">
        <ele>1309</ele>
        <time>2017-09-02T09:24:04Z</time>
      </trkpt>
      <trkpt lat="45.08546" lon="2.7403">
        <ele>1309</ele>
        <time>2017-09-02T09:24:11Z</time>
      </trkpt>
      <trkpt lat="45.08549" lon="2.74022">
        <ele>1309</ele>
        <time>2017-09-02T09:24:15Z</time>
      </trkpt>
      <trkpt lat="45.08554" lon="2.74013">
        <ele>1308</ele>
        <time>2017-09-02T09:24:18Z</time>
      </trkpt>
      <trkpt lat="45.08559" lon="2.74008">
        <ele>1308</ele>
        <time>2017-09-02T09:24:21Z</time>
      </trkpt>
      <trkpt lat="45.08562" lon="2.74004">
        <ele>1307</ele>
        <time>2017-09-02T09:24:24Z</time>
      </trkpt>
      <trkpt lat="45.08567" lon="2.73999">
        <ele>1307</ele>
        <time>2017-09-02T09:24:27Z</time>
      </trkpt>
      <trkpt lat="45.08572" lon="2.73994">
        <ele>1307</ele>
        <time>2017-09-02T09:24:31Z</time>
      </trkpt>
      <trkpt lat="45.08575" lon="2.73987">
        <ele>1307</ele>
        <time>2017-09-02T09:24:37Z</time>
      </trkpt>
      <trkpt lat="45.08574" lon="2.7398">
        <ele>1307</ele>
        <time>2017-09-02T09:24:39Z</time>
      </trkpt>
      <trkpt lat="45.08575" lon="2.73972">
        <ele>1307</ele>
        <time>2017-09-02T09:24:43Z</time>
      </trkpt>
      <trkpt lat="45.08577" lon="2.73964">
        <ele>1307</ele>
        <time>2017-09-02T09:24:48Z</time>
      </trkpt>
      <trkpt lat="45.0858" lon="2.7396">
        <ele>1308</ele>
        <time>2017-09-02T09:24:50Z</time>
      </trkpt>
      <trkpt lat="45.08585" lon="2.7395">
        <ele>1308</ele>
        <time>2017-09-02T09:24:56Z</time>
      </trkpt>
      <trkpt lat="45.08583" lon="2.73944">
        <ele>1308</ele>
        <time>2017-09-02T09:24:59Z</time>
      </trkpt>
      <trkpt lat="45.08581" lon="2.73937">
        <ele>1308</ele>
        <time>2017-09-02T09:25:02Z</time>
      </trkpt>
      <trkpt lat="45.08578" lon="2.73933">
        <ele>1309</ele>
        <time>2017-09-02T09:25:04Z</time>
      </trkpt>
      <trkpt lat="45.08577" lon="2.73926">
        <ele>1309</ele>
        <time>2017-09-02T09:25:08Z</time>
      </trkpt>
      <trkpt lat="45.08574" lon="2.73921">
        <ele>1310</ele>
        <time>2017-09-02T09:25:11Z</time>
      </trkpt>
      <trkpt lat="45.08571" lon="2.73915">
        <ele>1311</ele>
        <time>2017-09-02T09:25:15Z</time>
      </trkpt>
      <trkpt lat="45.08571" lon="2.73908">
        <ele>1311</ele>
        <time>2017-09-02T09:25:18Z</time>
      </trkpt>
      <trkpt lat="45.08574" lon="2.739">
        <ele>1311</ele>
        <time>2017-09-02T09:25:21Z</time>
      </trkpt>
      <trkpt lat="45.08577" lon="2.73896">
        <ele>1312</ele>
        <time>2017-09-02T09:25:23Z</time>
      </trkpt>
      <trkpt lat="45.08575" lon="2.73888">
        <ele>1312</ele>
        <time>2017-09-02T09:25:27Z</time>
      </trkpt>
      <trkpt lat="45.08573" lon="2.73882">
        <ele>1312</ele>
        <time>2017-09-02T09:25:31Z</time>
      </trkpt>
      <trkpt lat="45.08575" lon="2.73875">
        <ele>1311</ele>
        <time>2017-09-02T09:25:35Z</time>
      </trkpt>
      <trkpt lat="45.08578" lon="2.73871">
        <ele>1311</ele>
        <time>2017-09-02T09:25:37Z</time>
      </trkpt>
      <trkpt lat="45.08576" lon="2.73864">
        <ele>1311</ele>
        <time>2017-09-02T09:25:41Z</time>
      </trkpt>
      <trkpt lat="45.08572" lon="2.73859">
        <ele>1311</ele>
        <time>2017-09-02T09:25:44Z</time>
      </trkpt>
      <trkpt lat="45.0857" lon="2.73852">
        <ele>1312</ele>
        <time>2017-09-02T09:25:47Z</time>
      </trkpt>
      <trkpt lat="45.08569" lon="2.73845">
        <ele>1312</ele>
        <time>2017-09-02T09:25:50Z</time>
      </trkpt>
      <trkpt lat="45.08566" lon="2.73839">
        <ele>1312</ele>
        <time>2017-09-02T09:25:55Z</time>
      </trkpt>
      <trkpt lat="45.0856" lon="2.73834">
        <ele>1313</ele>
        <time>2017-09-02T09:25:59Z</time>
      </trkpt>
      <trkpt lat="45.08556" lon="2.73829">
        <ele>1313</ele>
        <time>2017-09-02T09:26:03Z</time>
      </trkpt>
      <trkpt lat="45.08553" lon="2.73822">
        <ele>1314</ele>
        <time>2017-09-02T09:26:07Z</time>
      </trkpt>
      <trkpt lat="45.0855" lon="2.73816">
        <ele>1314</ele>
        <time>2017-09-02T09:26:10Z</time>
      </trkpt>
      <trkpt lat="45.08547" lon="2.7381">
        <ele>1314</ele>
        <time>2017-09-02T09:26:14Z</time>
      </trkpt>
      <trkpt lat="45.08544" lon="2.73804">
        <ele>1315</ele>
        <time>2017-09-02T09:26:18Z</time>
      </trkpt>
      <trkpt lat="45.08542" lon="2.73797">
        <ele>1315</ele>
        <time>2017-09-02T09:26:21Z</time>
      </trkpt>
      <trkpt lat="45.08543" lon="2.7379">
        <ele>1315</ele>
        <time>2017-09-02T09:26:26Z</time>
      </trkpt>
      <trkpt lat="45.08546" lon="2.73784">
        <ele>1315</ele>
        <time>2017-09-02T09:26:29Z</time>
      </trkpt>
      <trkpt lat="45.08546" lon="2.73777">
        <ele>1315</ele>
        <time>2017-09-02T09:26:34Z</time>
      </trkpt>
      <trkpt lat="45.08543" lon="2.73771">
        <ele>1316</ele>
        <time>2017-09-02T09:26:37Z</time>
      </trkpt>
      <trkpt lat="45.08543" lon="2.73763">
        <ele>1316</ele>
        <time>2017-09-02T09:26:41Z</time>
      </trkpt>
      <trkpt lat="45.08545" lon="2.73756">
        <ele>1316</ele>
        <time>2017-09-02T09:26:43Z</time>
      </trkpt>
      <trkpt lat="45.08545" lon="2.73749">
        <ele>1316</ele>
        <time>2017-09-02T09:26:47Z</time>
      </trkpt>
      <trkpt lat="45.08544" lon="2.73742">
        <ele>1316</ele>
        <time>2017-09-02T09:26:51Z</time>
      </trkpt>
      <trkpt lat="45.08545" lon="2.73735">
        <ele>1316</ele>
        <time>2017-09-02T09:26:55Z</time>
      </trkpt>
      <trkpt lat="45.08543" lon="2.73727">
        <ele>1315</ele>
        <time>2017-09-02T09:26:58Z</time>
      </trkpt>
      <trkpt lat="45.08543" lon="2.7372">
        <ele>1315</ele>
        <time>2017-09-02T09:27:00Z</time>
      </trkpt>
      <trkpt lat="45.08542" lon="2.73713">
        <ele>1315</ele>
        <time>2017-09-02T09:27:03Z</time>
      </trkpt>
      <trkpt lat="45.0854" lon="2.73705">
        <ele>1315</ele>
        <time>2017-09-02T09:27:07Z</time>
      </trkpt>
      <trkpt lat="45.08542" lon="2.73698">
        <ele>1315</ele>
        <time>2017-09-02T09:27:12Z</time>
      </trkpt>
      <trkpt lat="45.0854" lon="2.73691">
        <ele>1316</ele>
        <time>2017-09-02T09:27:15Z</time>
      </trkpt>
      <trkpt lat="45.0854" lon="2.73684">
        <ele>1317</ele>
        <time>2017-09-02T09:27:20Z</time>
      </trkpt>
      <trkpt lat="45.08539" lon="2.73677">
        <ele>1317</ele>
        <time>2017-09-02T09:27:25Z</time>
      </trkpt>
      <trkpt lat="45.08537" lon="2.73669">
        <ele>1318</ele>
        <time>2017-09-02T09:27:29Z</time>
      </trkpt>
      <trkpt lat="45.08539" lon="2.73661">
        <ele>1270</ele>
        <time>2017-09-02T09:27:33Z</time>
      </trkpt>
      <trkpt lat="45.08542" lon="2.73655">
        <ele>1270</ele>
        <time>2017-09-02T09:27:37Z</time>
      </trkpt>
      <trkpt lat="45.08544" lon="2.73649">
        <ele>1271</ele>
        <time>2017-09-02T09:27:42Z</time>
      </trkpt>
      <trkpt lat="45.08547" lon="2.73644">
        <ele>1271</ele>
        <time>2017-09-02T09:27:45Z</time>
      </trkpt>
      <trkpt lat="45.08553" lon="2.7364">
        <ele>1272</ele>
        <time>2017-09-02T09:27:50Z</time>
      </trkpt>
      <trkpt lat="45.08557" lon="2.73639">
        <ele>1272</ele>
        <time>2017-09-02T09:27:57Z</time>
      </trkpt>
      <trkpt lat="45.08561" lon="2.73634">
        <ele>1272</ele>
        <time>2017-09-02T09:28:00Z</time>
      </trkpt>
      <trkpt lat="45.08566" lon="2.73637">
        <ele>1272</ele>
        <time>2017-09-02T09:28:06Z</time>
      </trkpt>
      <trkpt lat="45.0857" lon="2.73637">
        <ele>1273</ele>
        <time>2017-09-02T09:28:10Z</time>
      </trkpt>
      <trkpt lat="45.08575" lon="2.73636">
        <ele>1273</ele>
        <time>2017-09-02T09:28:14Z</time>
      </trkpt>
      <trkpt lat="45.0858" lon="2.73633">
        <ele>1273</ele>
        <time>2017-09-02T09:28:17Z</time>
      </trkpt>
      <trkpt lat="45.08584" lon="2.73631">
        <ele>1273</ele>
        <time>2017-09-02T09:28:20Z</time>
      </trkpt>
      <trkpt lat="45.08589" lon="2.73633">
        <ele>1272</ele>
        <time>2017-09-02T09:28:23Z</time>
      </trkpt>
      <trkpt lat="45.08595" lon="2.73633">
        <ele>1272</ele>
        <time>2017-09-02T09:28:27Z</time>
      </trkpt>
      <trkpt lat="45.08599" lon="2.73635">
        <ele>1271</ele>
        <time>2017-09-02T09:28:31Z</time>
      </trkpt>
      <trkpt lat="45.08604" lon="2.73636">
        <ele>1271</ele>
        <time>2017-09-02T09:28:36Z</time>
      </trkpt>
      <trkpt lat="45.08609" lon="2.73637">
        <ele>1270</ele>
        <time>2017-09-02T09:28:40Z</time>
      </trkpt>
      <trkpt lat="45.08614" lon="2.73638">
        <ele>1270</ele>
        <time>2017-09-02T09:28:45Z</time>
      </trkpt>
      <trkpt lat="45.08619" lon="2.73639">
        <ele>1269</ele>
        <time>2017-09-02T09:28:49Z</time>
      </trkpt>
      <trkpt lat="45.08624" lon="2.7364">
        <ele>1269</ele>
        <time>2017-09-02T09:28:54Z</time>
      </trkpt>
      <trkpt lat="45.08629" lon="2.73644">
        <ele>1269</ele>
        <time>2017-09-02T09:28:59Z</time>
      </trkpt>
      <trkpt lat="45.08634" lon="2.73646">
        <ele>1268</ele>
        <time>2017-09-02T09:29:02Z</time>
      </trkpt>
      <trkpt lat="45.08638" lon="2.7365">
        <ele>1269</ele>
        <time>2017-09-02T09:29:06Z</time>
      </trkpt>
      <trkpt lat="45.08644" lon="2.73648">
        <ele>1269</ele>
        <time>2017-09-02T09:29:09Z</time>
      </trkpt>
      <trkpt lat="45.08647" lon="2.73652">
        <ele>1269</ele>
        <time>2017-09-02T09:29:12Z</time>
      </trkpt>
      <trkpt lat="45.08652" lon="2.73657">
        <ele>1269</ele>
        <time>2017-09-02T09:29:16Z</time>
      </trkpt>
      <trkpt lat="45.08657" lon="2.73657">
        <ele>1269</ele>
        <time>2017-09-02T09:29:20Z</time>
      </trkpt>
      <trkpt lat="45.08662" lon="2.73659">
        <ele>1268</ele>
        <time>2017-09-02T09:29:24Z</time>
      </trkpt>
      <trkpt lat="45.08666" lon="2.73664">
        <ele>1268</ele>
        <time>2017-09-02T09:29:27Z</time>
      </trkpt>
      <trkpt lat="45.08669" lon="2.73669">
        <ele>1267</ele>
        <time>2017-09-02T09:29:30Z</time>
      </trkpt>
      <trkpt lat="45.08674" lon="2.73673">
        <ele>1267</ele>
        <time>2017-09-02T09:29:35Z</time>
      </trkpt>
      <trkpt lat="45.08679" lon="2.73673">
        <ele>1266</ele>
        <time>2017-09-02T09:29:39Z</time>
      </trkpt>
      <trkpt lat="45.08686" lon="2.73672">
        <ele>1266</ele>
        <time>2017-09-02T09:29:43Z</time>
      </trkpt>
      <trkpt lat="45.08691" lon="2.73671">
        <ele>1265</ele>
        <time>2017-09-02T09:29:46Z</time>
      </trkpt>
      <trkpt lat="45.08695" lon="2.73668">
        <ele>1264</ele>
        <time>2017-09-02T09:29:49Z</time>
      </trkpt>
      <trkpt lat="45.087" lon="2.73665">
        <ele>1263</ele>
        <time>2017-09-02T09:29:54Z</time>
      </trkpt>
      <trkpt lat="45.08704" lon="2.73661">
        <ele>1262</ele>
        <time>2017-09-02T09:29:58Z</time>
      </trkpt>
      <trkpt lat="45.08709" lon="2.73658">
        <ele>1260</ele>
        <time>2017-09-02T09:30:03Z</time>
      </trkpt>
      <trkpt lat="45.08713" lon="2.73656">
        <ele>1259</ele>
        <time>2017-09-02T09:30:06Z</time>
      </trkpt>
      <trkpt lat="45.08717" lon="2.73651">
        <ele>1258</ele>
        <time>2017-09-02T09:30:09Z</time>
      </trkpt>
      <trkpt lat="45.08721" lon="2.73645">
        <ele>1258</ele>
        <time>2017-09-02T09:30:14Z</time>
      </trkpt>
      <trkpt lat="45.08726" lon="2.7364">
        <ele>1257</ele>
        <time>2017-09-02T09:30:18Z</time>
      </trkpt>
      <trkpt lat="45.08731" lon="2.73636">
        <ele>1256</ele>
        <time>2017-09-02T09:30:22Z</time>
      </trkpt>
      <trkpt lat="45.08734" lon="2.73629">
        <ele>1255</ele>
        <time>2017-09-02T09:30:26Z</time>
      </trkpt>
      <trkpt lat="45.08738" lon="2.73626">
        <ele>1255</ele>
        <time>2017-09-02T09:30:30Z</time>
      </trkpt>
      <trkpt lat="45.08743" lon="2.73621">
        <ele>1254</ele>
        <time>2017-09-02T09:30:35Z</time>
      </trkpt>
      <trkpt lat="45.08747" lon="2.7362">
        <ele>1254</ele>
        <time>2017-09-02T09:30:38Z</time>
      </trkpt>
      <trkpt lat="45.0875" lon="2.73614">
        <ele>1254</ele>
        <time>2017-09-02T09:30:42Z</time>
      </trkpt>
      <trkpt lat="45.08753" lon="2.73608">
        <ele>1253</ele>
        <time>2017-09-02T09:30:45Z</time>
      </trkpt>
      <trkpt lat="45.08757" lon="2.73602">
        <ele>1253</ele>
        <time>2017-09-02T09:30:48Z</time>
      </trkpt>
      <trkpt lat="45.08761" lon="2.73594">
        <ele>1252</ele>
        <time>2017-09-02T09:30:51Z</time>
      </trkpt>
      <trkpt lat="45.08763" lon="2.73588">
        <ele>1251</ele>
        <time>2017-09-02T09:30:55Z</time>
      </trkpt>
      <trkpt lat="45.08767" lon="2.73582">
        <ele>1249</ele>
        <time>2017-09-02T09:31:00Z</time>
      </trkpt>
      <trkpt lat="45.0877" lon="2.73577">
        <ele>1248</ele>
        <time>2017-09-02T09:31:03Z</time>
      </trkpt>
      <trkpt lat="45.08772" lon="2.73571">
        <ele>1247</ele>
        <time>2017-09-02T09:31:06Z</time>
      </trkpt>
      <trkpt lat="45.08775" lon="2.73564">
        <ele>1246</ele>
        <time>2017-09-02T09:31:10Z</time>
      </trkpt>
      <trkpt lat="45.08779" lon="2.7356">
        <ele>1246</ele>
        <time>2017-09-02T09:31:14Z</time>
      </trkpt>
      <trkpt lat="45.08783" lon="2.73556">
        <ele>1246</ele>
        <time>2017-09-02T09:31:17Z</time>
      </trkpt>
      <trkpt lat="45.08786" lon="2.7355">
        <ele>1245</ele>
        <time>2017-09-02T09:31:21Z</time>
      </trkpt>
      <trkpt lat="45.08789" lon="2.73543">
        <ele>1245</ele>
        <time>2017-09-02T09:31:25Z</time>
      </trkpt>
      <trkpt lat="45.08793" lon="2.73537">
        <ele>1245</ele>
        <time>2017-09-02T09:31:28Z</time>
      </trkpt>
      <trkpt lat="45.08796" lon="2.73532">
        <ele>1244</ele>
        <time>2017-09-02T09:31:31Z</time>
      </trkpt>
      <trkpt lat="45.08801" lon="2.73529">
        <ele>1244</ele>
        <time>2017-09-02T09:31:34Z</time>
      </trkpt>
      <trkpt lat="45.08806" lon="2.73525">
        <ele>1243</ele>
        <time>2017-09-02T09:31:38Z</time>
      </trkpt>
      <trkpt lat="45.08809" lon="2.73519">
        <ele>1242</ele>
        <time>2017-09-02T09:31:42Z</time>
      </trkpt>
      <trkpt lat="45.08813" lon="2.73514">
        <ele>1242</ele>
        <time>2017-09-02T09:31:46Z</time>
      </trkpt>
      <trkpt lat="45.08816" lon="2.73509">
        <ele>1241</ele>
        <time>2017-09-02T09:31:50Z</time>
      </trkpt>
      <trkpt lat="45.0882" lon="2.73504">
        <ele>1240</ele>
        <time>2017-09-02T09:31:54Z</time>
      </trkpt>
      <trkpt lat="45.08824" lon="2.735">
        <ele>1240</ele>
        <time>2017-09-02T09:31:57Z</time>
      </trkpt>
      <trkpt lat="45.08829" lon="2.73497">
        <ele>1240</ele>
        <time>2017-09-02T09:32:00Z</time>
      </trkpt>
      <trkpt lat="45.08834" lon="2.73491">
        <ele>1239</ele>
        <time>2017-09-02T09:32:04Z</time>
      </trkpt>
      <trkpt lat="45.08837" lon="2.73486">
        <ele>1239</ele>
        <time>2017-09-02T09:32:07Z</time>
      </trkpt>
      <trkpt lat="45.08838" lon="2.7348">
        <ele>1239</ele>
        <time>2017-09-02T09:32:11Z</time>
      </trkpt>
      <trkpt lat="45.08843" lon="2.73475">
        <ele>1239</ele>
        <time>2017-09-02T09:32:15Z</time>
      </trkpt>
      <trkpt lat="45.08846" lon="2.7347">
        <ele>1238</ele>
        <time>2017-09-02T09:32:19Z</time>
      </trkpt>
      <trkpt lat="45.08851" lon="2.73465">
        <ele>1238</ele>
        <time>2017-09-02T09:32:22Z</time>
      </trkpt>
      <trkpt lat="45.08855" lon="2.73463">
        <ele>1237</ele>
        <time>2017-09-02T09:32:25Z</time>
      </trkpt>
      <trkpt lat="45.0886" lon="2.73459">
        <ele>1237</ele>
        <time>2017-09-02T09:32:28Z</time>
      </trkpt>
      <trkpt lat="45.08861" lon="2.73452">
        <ele>1236</ele>
        <time>2017-09-02T09:32:32Z</time>
      </trkpt>
      <trkpt lat="45.08865" lon="2.73445">
        <ele>1235</ele>
        <time>2017-09-02T09:32:36Z</time>
      </trkpt>
      <trkpt lat="45.08865" lon="2.73438">
        <ele>1235</ele>
        <time>2017-09-02T09:32:41Z</time>
      </trkpt>
      <trkpt lat="45.08868" lon="2.73432">
        <ele>1234</ele>
        <time>2017-09-02T09:32:45Z</time>
      </trkpt>
      <trkpt lat="45.08873" lon="2.73428">
        <ele>1234</ele>
        <time>2017-09-02T09:32:48Z</time>
      </trkpt>
      <trkpt lat="45.08878" lon="2.73422">
        <ele>1233</ele>
        <time>2017-09-02T09:32:52Z</time>
      </trkpt>
      <trkpt lat="45.08881" lon="2.73417">
        <ele>1233</ele>
        <time>2017-09-02T09:32:55Z</time>
      </trkpt>
      <trkpt lat="45.08884" lon="2.73412">
        <ele>1233</ele>
        <time>2017-09-02T09:32:57Z</time>
      </trkpt>
      <trkpt lat="45.08886" lon="2.73406">
        <ele>1232</ele>
        <time>2017-09-02T09:33:01Z</time>
      </trkpt>
      <trkpt lat="45.08889" lon="2.73399">
        <ele>1232</ele>
        <time>2017-09-02T09:33:04Z</time>
      </trkpt>
      <trkpt lat="45.08893" lon="2.73395">
        <ele>1231</ele>
        <time>2017-09-02T09:33:08Z</time>
      </trkpt>
      <trkpt lat="45.08896" lon="2.73388">
        <ele>1231</ele>
        <time>2017-09-02T09:33:11Z</time>
      </trkpt>
      <trkpt lat="45.08899" lon="2.73382">
        <ele>1231</ele>
        <time>2017-09-02T09:33:15Z</time>
      </trkpt>
      <trkpt lat="45.08903" lon="2.73378">
        <ele>1230</ele>
        <time>2017-09-02T09:33:18Z</time>
      </trkpt>
      <trkpt lat="45.08906" lon="2.73373">
        <ele>1229</ele>
        <time>2017-09-02T09:33:22Z</time>
      </trkpt>
      <trkpt lat="45.08911" lon="2.73369">
        <ele>1229</ele>
        <time>2017-09-02T09:33:25Z</time>
      </trkpt>
      <trkpt lat="45.08915" lon="2.73365">
        <ele>1228</ele>
        <time>2017-09-02T09:33:28Z</time>
      </trkpt>
      <trkpt lat="45.0892" lon="2.73362">
        <ele>1227</ele>
        <time>2017-09-02T09:33:32Z</time>
      </trkpt>
      <trkpt lat="45.08924" lon="2.73358">
        <ele>1227</ele>
        <time>2017-09-02T09:33:36Z</time>
      </trkpt>
      <trkpt lat="45.08929" lon="2.73356">
        <ele>1227</ele>
        <time>2017-09-02T09:33:40Z</time>
      </trkpt>
      <trkpt lat="45.08934" lon="2.73354">
        <ele>1226</ele>
        <time>2017-09-02T09:33:45Z</time>
      </trkpt>
      <trkpt lat="45.08939" lon="2.73351">
        <ele>1225</ele>
        <time>2017-09-02T09:33:50Z</time>
      </trkpt>
      <trkpt lat="45.08944" lon="2.73349">
        <ele>1225</ele>
        <time>2017-09-02T09:33:53Z</time>
      </trkpt>
      <trkpt lat="45.08949" lon="2.7335">
        <ele>1224</ele>
        <time>2017-09-02T09:33:57Z</time>
      </trkpt>
      <trkpt lat="45.08955" lon="2.73348">
        <ele>1223</ele>
        <time>2017-09-02T09:34:00Z</time>
      </trkpt>
      <trkpt lat="45.08961" lon="2.73348">
        <ele>1223</ele>
        <time>2017-09-02T09:34:04Z</time>
      </trkpt>
      <trkpt lat="45.08966" lon="2.73345">
        <ele>1222</ele>
        <time>2017-09-02T09:34:07Z</time>
      </trkpt>
      <trkpt lat="45.08971" lon="2.73344">
        <ele>1221</ele>
        <time>2017-09-02T09:34:11Z</time>
      </trkpt>
      <trkpt lat="45.08976" lon="2.73342">
        <ele>1221</ele>
        <time>2017-09-02T09:34:15Z</time>
      </trkpt>
      <trkpt lat="45.08981" lon="2.7334">
        <ele>1219</ele>
        <time>2017-09-02T09:34:19Z</time>
      </trkpt>
      <trkpt lat="45.08986" lon="2.73341">
        <ele>1219</ele>
        <time>2017-09-02T09:34:22Z</time>
      </trkpt>
      <trkpt lat="45.08991" lon="2.73342">
        <ele>1218</ele>
        <time>2017-09-02T09:34:27Z</time>
      </trkpt>
      <trkpt lat="45.08993" lon="2.73342">
        <ele>1217</ele>
        <time>2017-09-02T09:34:44Z</time>
      </trkpt>
      <trkpt lat="45.08989" lon="2.73344">
        <ele>1219</ele>
        <time>2017-09-02T09:34:52Z</time>
      </trkpt>
      <trkpt lat="45.08986" lon="2.73321">
        <ele>1215</ele>
        <time>2017-09-02T09:34:53Z</time>
      </trkpt>
      <trkpt lat="45.08988" lon="2.7334">
        <ele>1214</ele>
        <time>2017-09-02T09:34:54Z</time>
      </trkpt>
      <trkpt lat="45.08992" lon="2.73338">
        <ele>1213</ele>
        <time>2017-09-02T09:35:19Z</time>
      </trkpt>
      <trkpt lat="45.08989" lon="2.73335">
        <ele>1212</ele>
        <time>2017-09-02T09:35:25Z</time>
      </trkpt>
      <trkpt lat="45.08994" lon="2.73341">
        <ele>1210</ele>
        <time>2017-09-02T09:35:27Z</time>
      </trkpt>
      <trkpt lat="45.08994" lon="2.73342">
        <ele>1214</ele>
        <time>2017-09-02T09:35:50Z</time>
      </trkpt>
      <trkpt lat="45.08994" lon="2.73338">
        <ele>1215</ele>
        <time>2017-09-02T09:35:54Z</time>
      </trkpt>
      <trkpt lat="45.0901" lon="2.7335">
        <ele>1218</ele>
        <time>2017-09-02T09:35:55Z</time>
      </trkpt>
      <trkpt lat="45.09004" lon="2.73346">
        <ele>1218</ele>
        <time>2017-09-02T09:35:56Z</time>
      </trkpt>
      <trkpt lat="45.09002" lon="2.73354">
        <ele>1219</ele>
        <time>2017-09-02T09:35:58Z</time>
      </trkpt>
      <trkpt lat="45.08999" lon="2.73302">
        <ele>1217</ele>
        <time>2017-09-02T09:37:12Z</time>
      </trkpt>
      <trkpt lat="45.09" lon="2.73295">
        <ele>1217</ele>
        <time>2017-09-02T09:37:21Z</time>
      </trkpt>
      <trkpt lat="45.09" lon="2.73288">
        <ele>1218</ele>
        <time>2017-09-02T09:37:27Z</time>
      </trkpt>
      <trkpt lat="45.09001" lon="2.73281">
        <ele>1219</ele>
        <time>2017-09-02T09:37:32Z</time>
      </trkpt>
      <trkpt lat="45.09001" lon="2.73275">
        <ele>1220</ele>
        <time>2017-09-02T09:37:37Z</time>
      </trkpt>
      <trkpt lat="45.09002" lon="2.73268">
        <ele>1221</ele>
        <time>2017-09-02T09:37:42Z</time>
      </trkpt>
      <trkpt lat="45.09003" lon="2.73261">
        <ele>1222</ele>
        <time>2017-09-02T09:37:48Z</time>
      </trkpt>
      <trkpt lat="45.09005" lon="2.73255">
        <ele>1222</ele>
        <time>2017-09-02T09:37:54Z</time>
      </trkpt>
      <trkpt lat="45.09005" lon="2.73247">
        <ele>1223</ele>
        <time>2017-09-02T09:38:00Z</time>
      </trkpt>
      <trkpt lat="45.09007" lon="2.73241">
        <ele>1224</ele>
        <time>2017-09-02T09:38:06Z</time>
      </trkpt>
      <trkpt lat="45.09009" lon="2.73234">
        <ele>1225</ele>
        <time>2017-09-02T09:38:11Z</time>
      </trkpt>
      <trkpt lat="45.09009" lon="2.73227">
        <ele>1226</ele>
        <time>2017-09-02T09:38:17Z</time>
      </trkpt>
      <trkpt lat="45.09009" lon="2.7322">
        <ele>1226</ele>
        <time>2017-09-02T09:38:22Z</time>
      </trkpt>
      <trkpt lat="45.09008" lon="2.73212">
        <ele>1227</ele>
        <time>2017-09-02T09:38:27Z</time>
      </trkpt>
      <trkpt lat="45.09008" lon="2.73205">
        <ele>1227</ele>
        <time>2017-09-02T09:38:30Z</time>
      </trkpt>
      <trkpt lat="45.09007" lon="2.73196">
        <ele>1227</ele>
        <time>2017-09-02T09:38:33Z</time>
      </trkpt>
      <trkpt lat="45.09008" lon="2.73189">
        <ele>1228</ele>
        <time>2017-09-02T09:38:38Z</time>
      </trkpt>
      <trkpt lat="45.09008" lon="2.73183">
        <ele>1229</ele>
        <time>2017-09-02T09:38:43Z</time>
      </trkpt>
      <trkpt lat="45.09007" lon="2.73175">
        <ele>1231</ele>
        <time>2017-09-02T09:38:48Z</time>
      </trkpt>
      <trkpt lat="45.09008" lon="2.73168">
        <ele>1233</ele>
        <time>2017-09-02T09:38:53Z</time>
      </trkpt>
      <trkpt lat="45.09008" lon="2.73161">
        <ele>1234</ele>
        <time>2017-09-02T09:38:59Z</time>
      </trkpt>
      <trkpt lat="45.09008" lon="2.73154">
        <ele>1235</ele>
        <time>2017-09-02T09:39:03Z</time>
      </trkpt>
      <trkpt lat="45.09008" lon="2.73148">
        <ele>1236</ele>
        <time>2017-09-02T09:39:09Z</time>
      </trkpt>
      <trkpt lat="45.09009" lon="2.73141">
        <ele>1237</ele>
        <time>2017-09-02T09:39:14Z</time>
      </trkpt>
      <trkpt lat="45.09009" lon="2.73135">
        <ele>1237</ele>
        <time>2017-09-02T09:39:26Z</time>
      </trkpt>
      <trkpt lat="45.09011" lon="2.73128">
        <ele>1237</ele>
        <time>2017-09-02T09:39:35Z</time>
      </trkpt>
      <trkpt lat="45.09012" lon="2.73122">
        <ele>1237</ele>
        <time>2017-09-02T09:39:40Z</time>
      </trkpt>
      <trkpt lat="45.09014" lon="2.73115">
        <ele>1237</ele>
        <time>2017-09-02T09:39:45Z</time>
      </trkpt>
      <trkpt lat="45.09015" lon="2.73108">
        <ele>1236</ele>
        <time>2017-09-02T09:39:51Z</time>
      </trkpt>
      <trkpt lat="45.09015" lon="2.73101">
        <ele>1236</ele>
        <time>2017-09-02T09:39:56Z</time>
      </trkpt>
      <trkpt lat="45.09015" lon="2.73095">
        <ele>1236</ele>
        <time>2017-09-02T09:40:03Z</time>
      </trkpt>
      <trkpt lat="45.09017" lon="2.73088">
        <ele>1236</ele>
        <time>2017-09-02T09:40:08Z</time>
      </trkpt>
      <trkpt lat="45.09017" lon="2.73082">
        <ele>1236</ele>
        <time>2017-09-02T09:40:12Z</time>
      </trkpt>
      <trkpt lat="45.09018" lon="2.73074">
        <ele>1237</ele>
        <time>2017-09-02T09:40:18Z</time>
      </trkpt>
      <trkpt lat="45.09017" lon="2.73068">
        <ele>1237</ele>
        <time>2017-09-02T09:40:23Z</time>
      </trkpt>
      <trkpt lat="45.09019" lon="2.73061">
        <ele>1237</ele>
        <time>2017-09-02T09:40:28Z</time>
      </trkpt>
      <trkpt lat="45.09016" lon="2.73055">
        <ele>1237</ele>
        <time>2017-09-02T09:40:33Z</time>
      </trkpt>
      <trkpt lat="45.09019" lon="2.73048">
        <ele>1237</ele>
        <time>2017-09-02T09:40:38Z</time>
      </trkpt>
      <trkpt lat="45.09017" lon="2.73042">
        <ele>1237</ele>
        <time>2017-09-02T09:40:44Z</time>
      </trkpt>
      <trkpt lat="45.09018" lon="2.73035">
        <ele>1237</ele>
        <time>2017-09-02T09:40:51Z</time>
      </trkpt>
      <trkpt lat="45.0902" lon="2.73029">
        <ele>1237</ele>
        <time>2017-09-02T09:40:56Z</time>
      </trkpt>
      <trkpt lat="45.09021" lon="2.73021">
        <ele>1237</ele>
        <time>2017-09-02T09:41:02Z</time>
      </trkpt>
      <trkpt lat="45.09023" lon="2.73014">
        <ele>1238</ele>
        <time>2017-09-02T09:41:07Z</time>
      </trkpt>
      <trkpt lat="45.09024" lon="2.73008">
        <ele>1238</ele>
        <time>2017-09-02T09:41:12Z</time>
      </trkpt>
      <trkpt lat="45.09024" lon="2.73001">
        <ele>1238</ele>
        <time>2017-09-02T09:41:17Z</time>
      </trkpt>
      <trkpt lat="45.09024" lon="2.72994">
        <ele>1239</ele>
        <time>2017-09-02T09:41:23Z</time>
      </trkpt>
      <trkpt lat="45.09025" lon="2.72987">
        <ele>1239</ele>
        <time>2017-09-02T09:41:28Z</time>
      </trkpt>
      <trkpt lat="45.09024" lon="2.7298">
        <ele>1239</ele>
        <time>2017-09-02T09:41:34Z</time>
      </trkpt>
      <trkpt lat="45.09023" lon="2.72973">
        <ele>1239</ele>
        <time>2017-09-02T09:41:38Z</time>
      </trkpt>
      <trkpt lat="45.09024" lon="2.72965">
        <ele>1239</ele>
        <time>2017-09-02T09:41:44Z</time>
      </trkpt>
      <trkpt lat="45.09024" lon="2.72958">
        <ele>1238</ele>
        <time>2017-09-02T09:41:50Z</time>
      </trkpt>
      <trkpt lat="45.09025" lon="2.72951">
        <ele>1238</ele>
        <time>2017-09-02T09:41:55Z</time>
      </trkpt>
      <trkpt lat="45.09025" lon="2.72943">
        <ele>1238</ele>
        <time>2017-09-02T09:42:02Z</time>
      </trkpt>
      <trkpt lat="45.09025" lon="2.72936">
        <ele>1238</ele>
        <time>2017-09-02T09:42:10Z</time>
      </trkpt>
      <trkpt lat="45.09024" lon="2.72929">
        <ele>1239</ele>
        <time>2017-09-02T09:42:17Z</time>
      </trkpt>
      <trkpt lat="45.09023" lon="2.72922">
        <ele>1239</ele>
        <time>2017-09-02T09:42:22Z</time>
      </trkpt>
      <trkpt lat="45.09026" lon="2.72916">
        <ele>1240</ele>
        <time>2017-09-02T09:42:26Z</time>
      </trkpt>
      <trkpt lat="45.09027" lon="2.7291">
        <ele>1241</ele>
        <time>2017-09-02T09:42:31Z</time>
      </trkpt>
      <trkpt lat="45.09028" lon="2.72902">
        <ele>1242</ele>
        <time>2017-09-02T09:42:35Z</time>
      </trkpt>
      <trkpt lat="45.09028" lon="2.72896">
        <ele>1242</ele>
        <time>2017-09-02T09:42:40Z</time>
      </trkpt>
      <trkpt lat="45.09028" lon="2.72889">
        <ele>1243</ele>
        <time>2017-09-02T09:42:45Z</time>
      </trkpt>
      <trkpt lat="45.09028" lon="2.72882">
        <ele>1243</ele>
        <time>2017-09-02T09:42:51Z</time>
      </trkpt>
      <trkpt lat="45.09028" lon="2.72875">
        <ele>1244</ele>
        <time>2017-09-02T09:42:56Z</time>
      </trkpt>
      <trkpt lat="45.09028" lon="2.72868">
        <ele>1245</ele>
        <time>2017-09-02T09:43:01Z</time>
      </trkpt>
      <trkpt lat="45.09029" lon="2.72861">
        <ele>1246</ele>
        <time>2017-09-02T09:43:07Z</time>
      </trkpt>
      <trkpt lat="45.0903" lon="2.72854">
        <ele>1248</ele>
        <time>2017-09-02T09:43:13Z</time>
      </trkpt>
      <trkpt lat="45.0903" lon="2.72847">
        <ele>1249</ele>
        <time>2017-09-02T09:43:18Z</time>
      </trkpt>
      <trkpt lat="45.0903" lon="2.7284">
        <ele>1251</ele>
        <time>2017-09-02T09:43:23Z</time>
      </trkpt>
      <trkpt lat="45.09031" lon="2.72833">
        <ele>1253</ele>
        <time>2017-09-02T09:43:28Z</time>
      </trkpt>
      <trkpt lat="45.09031" lon="2.72826">
        <ele>1254</ele>
        <time>2017-09-02T09:43:34Z</time>
      </trkpt>
      <trkpt lat="45.09032" lon="2.7282">
        <ele>1255</ele>
        <time>2017-09-02T09:43:43Z</time>
      </trkpt>
      <trkpt lat="45.09032" lon="2.72814">
        <ele>1256</ele>
        <time>2017-09-02T09:43:56Z</time>
      </trkpt>
      <trkpt lat="45.09029" lon="2.7281">
        <ele>1257</ele>
        <time>2017-09-02T09:44:13Z</time>
      </trkpt>
      <trkpt lat="45.09033" lon="2.7282">
        <ele>1259</ele>
        <time>2017-09-02T09:44:16Z</time>
      </trkpt>
      <trkpt lat="45.0903" lon="2.72812">
        <ele>1261</ele>
        <time>2017-09-02T09:44:19Z</time>
      </trkpt>
      <trkpt lat="45.09025" lon="2.7281">
        <ele>1261</ele>
        <time>2017-09-02T09:44:30Z</time>
      </trkpt>
      <trkpt lat="45.09028" lon="2.72804">
        <ele>1261</ele>
        <time>2017-09-02T09:44:47Z</time>
      </trkpt>
      <trkpt lat="45.0903" lon="2.72799">
        <ele>1263</ele>
        <time>2017-09-02T09:45:01Z</time>
      </trkpt>
      <trkpt lat="45.0903" lon="2.72792">
        <ele>1263</ele>
        <time>2017-09-02T09:45:13Z</time>
      </trkpt>
      <trkpt lat="45.09031" lon="2.72772">
        <ele>1266</ele>
        <time>2017-09-02T09:45:49Z</time>
      </trkpt>
      <trkpt lat="45.09032" lon="2.72765">
        <ele>1266</ele>
        <time>2017-09-02T09:45:54Z</time>
      </trkpt>
      <trkpt lat="45.09032" lon="2.72758">
        <ele>1266</ele>
        <time>2017-09-02T09:45:58Z</time>
      </trkpt>
      <trkpt lat="45.09032" lon="2.72752">
        <ele>1266</ele>
        <time>2017-09-02T09:46:02Z</time>
      </trkpt>
      <trkpt lat="45.09033" lon="2.72744">
        <ele>1266</ele>
        <time>2017-09-02T09:46:08Z</time>
      </trkpt>
      <trkpt lat="45.09034" lon="2.72736">
        <ele>1266</ele>
        <time>2017-09-02T09:46:15Z</time>
      </trkpt>
      <trkpt lat="45.09033" lon="2.7273">
        <ele>1267</ele>
        <time>2017-09-02T09:46:19Z</time>
      </trkpt>
      <trkpt lat="45.09034" lon="2.72723">
        <ele>1267</ele>
        <time>2017-09-02T09:46:24Z</time>
      </trkpt>
      <trkpt lat="45.09035" lon="2.72715">
        <ele>1268</ele>
        <time>2017-09-02T09:46:30Z</time>
      </trkpt>
      <trkpt lat="45.09034" lon="2.72708">
        <ele>1268</ele>
        <time>2017-09-02T09:46:36Z</time>
      </trkpt>
      <trkpt lat="45.09036" lon="2.72701">
        <ele>1269</ele>
        <time>2017-09-02T09:46:43Z</time>
      </trkpt>
      <trkpt lat="45.09035" lon="2.72693">
        <ele>1270</ele>
        <time>2017-09-02T09:46:50Z</time>
      </trkpt>
      <trkpt lat="45.09036" lon="2.72686">
        <ele>1271</ele>
        <time>2017-09-02T09:46:56Z</time>
      </trkpt>
      <trkpt lat="45.09036" lon="2.72678">
        <ele>1272</ele>
        <time>2017-09-02T09:47:03Z</time>
      </trkpt>
      <trkpt lat="45.09038" lon="2.72672">
        <ele>1272</ele>
        <time>2017-09-02T09:47:09Z</time>
      </trkpt>
      <trkpt lat="45.09038" lon="2.72665">
        <ele>1272</ele>
        <time>2017-09-02T09:47:15Z</time>
      </trkpt>
      <trkpt lat="45.09038" lon="2.72659">
        <ele>1272</ele>
        <time>2017-09-02T09:47:21Z</time>
      </trkpt>
      <trkpt lat="45.0904" lon="2.72652">
        <ele>1271</ele>
        <time>2017-09-02T09:47:27Z</time>
      </trkpt>
      <trkpt lat="45.0904" lon="2.72644">
        <ele>1270</ele>
        <time>2017-09-02T09:47:32Z</time>
      </trkpt>
      <trkpt lat="45.09041" lon="2.72637">
        <ele>1271</ele>
        <time>2017-09-02T09:47:35Z</time>
      </trkpt>
      <trkpt lat="45.09041" lon="2.72629">
        <ele>1271</ele>
        <time>2017-09-02T09:47:38Z</time>
      </trkpt>
      <trkpt lat="45.0904" lon="2.72621">
        <ele>1272</ele>
        <time>2017-09-02T09:47:41Z</time>
      </trkpt>
      <trkpt lat="45.0904" lon="2.72613">
        <ele>1273</ele>
        <time>2017-09-02T09:47:44Z</time>
      </trkpt>
      <trkpt lat="45.09041" lon="2.72606">
        <ele>1275</ele>
        <time>2017-09-02T09:47:47Z</time>
      </trkpt>
      <trkpt lat="45.09041" lon="2.72598">
        <ele>1276</ele>
        <time>2017-09-02T09:47:50Z</time>
      </trkpt>
      <trkpt lat="45.0904" lon="2.7259">
        <ele>1277</ele>
        <time>2017-09-02T09:47:53Z</time>
      </trkpt>
      <trkpt lat="45.09041" lon="2.72582">
        <ele>1278</ele>
        <time>2017-09-02T09:47:56Z</time>
      </trkpt>
      <trkpt lat="45.09041" lon="2.72574">
        <ele>1279</ele>
        <time>2017-09-02T09:47:59Z</time>
      </trkpt>
      <trkpt lat="45.09041" lon="2.72567">
        <ele>1280</ele>
        <time>2017-09-02T09:48:02Z</time>
      </trkpt>
      <trkpt lat="45.09041" lon="2.7256">
        <ele>1281</ele>
        <time>2017-09-02T09:48:05Z</time>
      </trkpt>
      <trkpt lat="45.09042" lon="2.72552">
        <ele>1282</ele>
        <time>2017-09-02T09:48:08Z</time>
      </trkpt>
      <trkpt lat="45.09042" lon="2.72545">
        <ele>1284</ele>
        <time>2017-09-02T09:48:11Z</time>
      </trkpt>
      <trkpt lat="45.09042" lon="2.72538">
        <ele>1286</ele>
        <time>2017-09-02T09:48:14Z</time>
      </trkpt>
      <trkpt lat="45.09042" lon="2.7253">
        <ele>1287</ele>
        <time>2017-09-02T09:48:17Z</time>
      </trkpt>
      <trkpt lat="45.09042" lon="2.72521">
        <ele>1289</ele>
        <time>2017-09-02T09:48:20Z</time>
      </trkpt>
      <trkpt lat="45.09043" lon="2.72513">
        <ele>1290</ele>
        <time>2017-09-02T09:48:23Z</time>
      </trkpt>
      <trkpt lat="45.09043" lon="2.72505">
        <ele>1292</ele>
        <time>2017-09-02T09:48:26Z</time>
      </trkpt>
      <trkpt lat="45.09043" lon="2.72497">
        <ele>1293</ele>
        <time>2017-09-02T09:48:29Z</time>
      </trkpt>
      <trkpt lat="45.09043" lon="2.72489">
        <ele>1294</ele>
        <time>2017-09-02T09:48:32Z</time>
      </trkpt>
      <trkpt lat="45.09044" lon="2.72481">
        <ele>1296</ele>
        <time>2017-09-02T09:48:35Z</time>
      </trkpt>
      <trkpt lat="45.09046" lon="2.72474">
        <ele>1297</ele>
        <time>2017-09-02T09:48:38Z</time>
      </trkpt>
      <trkpt lat="45.09047" lon="2.72466">
        <ele>1298</ele>
        <time>2017-09-02T09:48:41Z</time>
      </trkpt>
      <trkpt lat="45.09048" lon="2.72457">
        <ele>1299</ele>
        <time>2017-09-02T09:48:44Z</time>
      </trkpt>
      <trkpt lat="45.09047" lon="2.72448">
        <ele>1300</ele>
        <time>2017-09-02T09:48:47Z</time>
      </trkpt>
      <trkpt lat="45.09048" lon="2.7244">
        <ele>1301</ele>
        <time>2017-09-02T09:48:50Z</time>
      </trkpt>
      <trkpt lat="45.09049" lon="2.72432">
        <ele>1302</ele>
        <time>2017-09-02T09:48:53Z</time>
      </trkpt>
      <trkpt lat="45.09049" lon="2.72424">
        <ele>1303</ele>
        <time>2017-09-02T09:48:56Z</time>
      </trkpt>
      <trkpt lat="45.09049" lon="2.72415">
        <ele>1305</ele>
        <time>2017-09-02T09:48:59Z</time>
      </trkpt>
      <trkpt lat="45.09047" lon="2.72408">
        <ele>1307</ele>
        <time>2017-09-02T09:49:02Z</time>
      </trkpt>
      <trkpt lat="45.09048" lon="2.72401">
        <ele>1309</ele>
        <time>2017-09-02T09:49:05Z</time>
      </trkpt>
      <trkpt lat="45.09048" lon="2.72393">
        <ele>1311</ele>
        <time>2017-09-02T09:49:08Z</time>
      </trkpt>
      <trkpt lat="45.09049" lon="2.72384">
        <ele>1313</ele>
        <time>2017-09-02T09:49:11Z</time>
      </trkpt>
      <trkpt lat="45.09049" lon="2.72375">
        <ele>1315</ele>
        <time>2017-09-02T09:49:14Z</time>
      </trkpt>
      <trkpt lat="45.0905" lon="2.72367">
        <ele>1317</ele>
        <time>2017-09-02T09:49:17Z</time>
      </trkpt>
      <trkpt lat="45.0905" lon="2.72359">
        <ele>1319</ele>
        <time>2017-09-02T09:49:20Z</time>
      </trkpt>
      <trkpt lat="45.0905" lon="2.7235">
        <ele>1321</ele>
        <time>2017-09-02T09:49:23Z</time>
      </trkpt>
      <trkpt lat="45.09051" lon="2.72342">
        <ele>1322</ele>
        <time>2017-09-02T09:49:26Z</time>
      </trkpt>
      <trkpt lat="45.09052" lon="2.72334">
        <ele>1324</ele>
        <time>2017-09-02T09:49:29Z</time>
      </trkpt>
      <trkpt lat="45.09053" lon="2.72325">
        <ele>1326</ele>
        <time>2017-09-02T09:49:32Z</time>
      </trkpt>
      <trkpt lat="45.09055" lon="2.72316">
        <ele>1328</ele>
        <time>2017-09-02T09:49:35Z</time>
      </trkpt>
      <trkpt lat="45.09055" lon="2.72309">
        <ele>1330</ele>
        <time>2017-09-02T09:49:38Z</time>
      </trkpt>
      <trkpt lat="45.09055" lon="2.72302">
        <ele>1332</ele>
        <time>2017-09-02T09:49:41Z</time>
      </trkpt>
      <trkpt lat="45.09057" lon="2.72294">
        <ele>1334</ele>
        <time>2017-09-02T09:49:44Z</time>
      </trkpt>
      <trkpt lat="45.09057" lon="2.72286">
        <ele>1335</ele>
        <time>2017-09-02T09:49:47Z</time>
      </trkpt>
      <trkpt lat="45.09059" lon="2.72278">
        <ele>1337</ele>
        <time>2017-09-02T09:49:50Z</time>
      </trkpt>
      <trkpt lat="45.09059" lon="2.72269">
        <ele>1338</ele>
        <time>2017-09-02T09:49:53Z</time>
      </trkpt>
      <trkpt lat="45.09059" lon="2.7226">
        <ele>1340</ele>
        <time>2017-09-02T09:49:56Z</time>
      </trkpt>
      <trkpt lat="45.09059" lon="2.72251">
        <ele>1342</ele>
        <time>2017-09-02T09:49:59Z</time>
      </trkpt>
      <trkpt lat="45.09058" lon="2.72242">
        <ele>1343</ele>
        <time>2017-09-02T09:50:02Z</time>
      </trkpt>
      <trkpt lat="45.09059" lon="2.72234">
        <ele>1345</ele>
        <time>2017-09-02T09:50:05Z</time>
      </trkpt>
      <trkpt lat="45.0906" lon="2.72227">
        <ele>1347</ele>
        <time>2017-09-02T09:50:07Z</time>
      </trkpt>
      <trkpt lat="45.09061" lon="2.72218">
        <ele>1349</ele>
        <time>2017-09-02T09:50:10Z</time>
      </trkpt>
      <trkpt lat="45.09061" lon="2.72209">
        <ele>1350</ele>
        <time>2017-09-02T09:50:13Z</time>
      </trkpt>
      <trkpt lat="45.09061" lon="2.72201">
        <ele>1352</ele>
        <time>2017-09-02T09:50:16Z</time>
      </trkpt>
      <trkpt lat="45.09062" lon="2.72194">
        <ele>1354</ele>
        <time>2017-09-02T09:50:18Z</time>
      </trkpt>
      <trkpt lat="45.09062" lon="2.72185">
        <ele>1355</ele>
        <time>2017-09-02T09:50:21Z</time>
      </trkpt>
      <trkpt lat="45.09062" lon="2.72178">
        <ele>1357</ele>
        <time>2017-09-02T09:50:24Z</time>
      </trkpt>
      <trkpt lat="45.09063" lon="2.72169">
        <ele>1359</ele>
        <time>2017-09-02T09:50:27Z</time>
      </trkpt>
      <trkpt lat="45.09063" lon="2.72162">
        <ele>1360</ele>
        <time>2017-09-02T09:50:29Z</time>
      </trkpt>
      <trkpt lat="45.09065" lon="2.72156">
        <ele>1362</ele>
        <time>2017-09-02T09:50:31Z</time>
      </trkpt>
      <trkpt lat="45.09065" lon="2.72146">
        <ele>1363</ele>
        <time>2017-09-02T09:50:34Z</time>
      </trkpt>
      <trkpt lat="45.09066" lon="2.72137">
        <ele>1365</ele>
        <time>2017-09-02T09:50:37Z</time>
      </trkpt>
      <trkpt lat="45.09066" lon="2.72128">
        <ele>1366</ele>
        <time>2017-09-02T09:50:40Z</time>
      </trkpt>
      <trkpt lat="45.09067" lon="2.72119">
        <ele>1367</ele>
        <time>2017-09-02T09:50:43Z</time>
      </trkpt>
      <trkpt lat="45.09068" lon="2.72111">
        <ele>1369</ele>
        <time>2017-09-02T09:50:46Z</time>
      </trkpt>
      <trkpt lat="45.09069" lon="2.72103">
        <ele>1371</ele>
        <time>2017-09-02T09:50:49Z</time>
      </trkpt>
      <trkpt lat="45.0907" lon="2.72095">
        <ele>1372</ele>
        <time>2017-09-02T09:50:52Z</time>
      </trkpt>
      <trkpt lat="45.09071" lon="2.72088">
        <ele>1374</ele>
        <time>2017-09-02T09:50:54Z</time>
      </trkpt>
      <trkpt lat="45.09072" lon="2.7208">
        <ele>1376</ele>
        <time>2017-09-02T09:50:57Z</time>
      </trkpt>
      <trkpt lat="45.09073" lon="2.72071">
        <ele>1378</ele>
        <time>2017-09-02T09:51:00Z</time>
      </trkpt>
      <trkpt lat="45.09074" lon="2.72063">
        <ele>1381</ele>
        <time>2017-09-02T09:51:03Z</time>
      </trkpt>
      <trkpt lat="45.09074" lon="2.72054">
        <ele>1383</ele>
        <time>2017-09-02T09:51:06Z</time>
      </trkpt>
      <trkpt lat="45.09074" lon="2.72046">
        <ele>1386</ele>
        <time>2017-09-02T09:51:09Z</time>
      </trkpt>
      <trkpt lat="45.09074" lon="2.72038">
        <ele>1388</ele>
        <time>2017-09-02T09:51:12Z</time>
      </trkpt>
      <trkpt lat="45.09075" lon="2.72029">
        <ele>1391</ele>
        <time>2017-09-02T09:51:15Z</time>
      </trkpt>
      <trkpt lat="45.09075" lon="2.7202">
        <ele>1393</ele>
        <time>2017-09-02T09:51:18Z</time>
      </trkpt>
      <trkpt lat="45.09075" lon="2.72014">
        <ele>1395</ele>
        <time>2017-09-02T09:51:20Z</time>
      </trkpt>
      <trkpt lat="45.09075" lon="2.72005">
        <ele>1397</ele>
        <time>2017-09-02T09:51:23Z</time>
      </trkpt>
      <trkpt lat="45.09075" lon="2.71999">
        <ele>1399</ele>
        <time>2017-09-02T09:51:25Z</time>
      </trkpt>
      <trkpt lat="45.09075" lon="2.7199">
        <ele>1401</ele>
        <time>2017-09-02T09:51:28Z</time>
      </trkpt>
      <trkpt lat="45.09074" lon="2.71981">
        <ele>1403</ele>
        <time>2017-09-02T09:51:31Z</time>
      </trkpt>
      <trkpt lat="45.09074" lon="2.71972">
        <ele>1405</ele>
        <time>2017-09-02T09:51:34Z</time>
      </trkpt>
      <trkpt lat="45.09074" lon="2.71963">
        <ele>1406</ele>
        <time>2017-09-02T09:51:37Z</time>
      </trkpt>
      <trkpt lat="45.09074" lon="2.71955">
        <ele>1407</ele>
        <time>2017-09-02T09:51:40Z</time>
      </trkpt>
      <trkpt lat="45.09074" lon="2.71947">
        <ele>1409</ele>
        <time>2017-09-02T09:51:43Z</time>
      </trkpt>
      <trkpt lat="45.09074" lon="2.71938">
        <ele>1411</ele>
        <time>2017-09-02T09:51:46Z</time>
      </trkpt>
      <trkpt lat="45.09075" lon="2.71929">
        <ele>1413</ele>
        <time>2017-09-02T09:51:49Z</time>
      </trkpt>
      <trkpt lat="45.09076" lon="2.7192">
        <ele>1416</ele>
        <time>2017-09-02T09:51:52Z</time>
      </trkpt>
      <trkpt lat="45.09076" lon="2.71911">
        <ele>1418</ele>
        <time>2017-09-02T09:51:55Z</time>
      </trkpt>
      <trkpt lat="45.09076" lon="2.71904">
        <ele>1421</ele>
        <time>2017-09-02T09:51:58Z</time>
      </trkpt>
      <trkpt lat="45.09077" lon="2.71895">
        <ele>1423</ele>
        <time>2017-09-02T09:52:01Z</time>
      </trkpt>
      <trkpt lat="45.09078" lon="2.71886">
        <ele>1425</ele>
        <time>2017-09-02T09:52:04Z</time>
      </trkpt>
      <trkpt lat="45.09078" lon="2.71878">
        <ele>1427</ele>
        <time>2017-09-02T09:52:07Z</time>
      </trkpt>
      <trkpt lat="45.09079" lon="2.7187">
        <ele>1429</ele>
        <time>2017-09-02T09:52:10Z</time>
      </trkpt>
      <trkpt lat="45.0908" lon="2.71864">
        <ele>1430</ele>
        <time>2017-09-02T09:52:13Z</time>
      </trkpt>
      <trkpt lat="45.09081" lon="2.71857">
        <ele>1432</ele>
        <time>2017-09-02T09:52:15Z</time>
      </trkpt>
      <trkpt lat="45.09081" lon="2.71849">
        <ele>1434</ele>
        <time>2017-09-02T09:52:18Z</time>
      </trkpt>
      <trkpt lat="45.09082" lon="2.71842">
        <ele>1436</ele>
        <time>2017-09-02T09:52:21Z</time>
      </trkpt>
      <trkpt lat="45.09083" lon="2.71835">
        <ele>1437</ele>
        <time>2017-09-02T09:52:24Z</time>
      </trkpt>
      <trkpt lat="45.09084" lon="2.71828">
        <ele>1439</ele>
        <time>2017-09-02T09:52:26Z</time>
      </trkpt>
      <trkpt lat="45.09084" lon="2.71822">
        <ele>1440</ele>
        <time>2017-09-02T09:52:28Z</time>
      </trkpt>
      <trkpt lat="45.09085" lon="2.71815">
        <ele>1441</ele>
        <time>2017-09-02T09:52:31Z</time>
      </trkpt>
      <trkpt lat="45.09086" lon="2.71809">
        <ele>1442</ele>
        <time>2017-09-02T09:52:34Z</time>
      </trkpt>
      <trkpt lat="45.09086" lon="2.71801">
        <ele>1443</ele>
        <time>2017-09-02T09:52:39Z</time>
      </trkpt>
      <trkpt lat="45.09086" lon="2.71794">
        <ele>1445</ele>
        <time>2017-09-02T09:52:45Z</time>
      </trkpt>
      <trkpt lat="45.09086" lon="2.71787">
        <ele>1448</ele>
        <time>2017-09-02T09:52:50Z</time>
      </trkpt>
      <trkpt lat="45.09088" lon="2.7178">
        <ele>1451</ele>
        <time>2017-09-02T09:52:55Z</time>
      </trkpt>
      <trkpt lat="45.09088" lon="2.71774">
        <ele>1455</ele>
        <time>2017-09-02T09:53:00Z</time>
      </trkpt>
      <trkpt lat="45.09085" lon="2.71768">
        <ele>1459</ele>
        <time>2017-09-02T09:53:09Z</time>
      </trkpt>
      <trkpt lat="45.09087" lon="2.7176">
        <ele>1464</ele>
        <time>2017-09-02T09:53:16Z</time>
      </trkpt>
      <trkpt lat="45.0909" lon="2.71758">
        <ele>1471</ele>
        <time>2017-09-02T09:53:36Z</time>
      </trkpt>
      <trkpt lat="45.09079" lon="2.71801">
        <ele>1489</ele>
        <time>2017-09-02T09:53:40Z</time>
      </trkpt>
      <trkpt lat="45.09089" lon="2.71759">
        <ele>1499</ele>
        <time>2017-09-02T09:53:41Z</time>
      </trkpt>
      <trkpt lat="45.09092" lon="2.71755">
        <ele>1507</ele>
        <time>2017-09-02T09:54:03Z</time>
      </trkpt>
      <trkpt lat="45.09088" lon="2.71749">
        <ele>1513</ele>
        <time>2017-09-02T09:54:08Z</time>
      </trkpt>
      <trkpt lat="45.09084" lon="2.7175">
        <ele>1516</ele>
        <time>2017-09-02T09:54:12Z</time>
      </trkpt>
      <trkpt lat="45.09082" lon="2.71756">
        <ele>1508</ele>
        <time>2017-09-02T09:54:17Z</time>
      </trkpt>
      <trkpt lat="45.09078" lon="2.71759">
        <ele>1507</ele>
        <time>2017-09-02T09:54:22Z</time>
      </trkpt>
      <trkpt lat="45.09057" lon="2.71769">
        <ele>1506</ele>
        <time>2017-09-02T09:55:29Z</time>
      </trkpt>
      <trkpt lat="45.09052" lon="2.7177">
        <ele>1507</ele>
        <time>2017-09-02T09:55:50Z</time>
      </trkpt>
      <trkpt lat="45.09053" lon="2.71762">
        <ele>1507</ele>
        <time>2017-09-02T09:56:04Z</time>
      </trkpt>
      <trkpt lat="45.09058" lon="2.7176">
        <ele>1508</ele>
        <time>2017-09-02T09:56:09Z</time>
      </trkpt>
      <trkpt lat="45.09063" lon="2.71756">
        <ele>1508</ele>
        <time>2017-09-02T09:56:15Z</time>
      </trkpt>
      <trkpt lat="45.09066" lon="2.7175">
        <ele>1509</ele>
        <time>2017-09-02T09:56:20Z</time>
      </trkpt>
      <trkpt lat="45.09068" lon="2.71744">
        <ele>1509</ele>
        <time>2017-09-02T09:56:26Z</time>
      </trkpt>
      <trkpt lat="45.09071" lon="2.71738">
        <ele>1510</ele>
        <time>2017-09-02T09:56:37Z</time>
      </trkpt>
      <trkpt lat="45.09074" lon="2.71735">
        <ele>1511</ele>
        <time>2017-09-02T09:56:44Z</time>
      </trkpt>
      <trkpt lat="45.09079" lon="2.7173">
        <ele>1512</ele>
        <time>2017-09-02T09:56:54Z</time>
      </trkpt>
      <trkpt lat="45.09082" lon="2.71725">
        <ele>1513</ele>
        <time>2017-09-02T09:57:01Z</time>
      </trkpt>
      <trkpt lat="45.09086" lon="2.71721">
        <ele>1514</ele>
        <time>2017-09-02T09:57:13Z</time>
      </trkpt>
      <trkpt lat="45.09091" lon="2.71719">
        <ele>1515</ele>
        <time>2017-09-02T09:57:18Z</time>
      </trkpt>
      <trkpt lat="45.09094" lon="2.71713">
        <ele>1516</ele>
        <time>2017-09-02T09:57:24Z</time>
      </trkpt>
      <trkpt lat="45.09098" lon="2.71713">
        <ele>1517</ele>
        <time>2017-09-02T09:57:35Z</time>
      </trkpt>
      <trkpt lat="45.09103" lon="2.71711">
        <ele>1518</ele>
        <time>2017-09-02T09:57:40Z</time>
      </trkpt>
      <trkpt lat="45.09108" lon="2.71709">
        <ele>1519</ele>
        <time>2017-09-02T09:57:47Z</time>
      </trkpt>
      <trkpt lat="45.09113" lon="2.71709">
        <ele>1520</ele>
        <time>2017-09-02T09:57:54Z</time>
      </trkpt>
      <trkpt lat="45.09117" lon="2.71705">
        <ele>1521</ele>
        <time>2017-09-02T09:57:59Z</time>
      </trkpt>
      <trkpt lat="45.09121" lon="2.71708">
        <ele>1521</ele>
        <time>2017-09-02T09:58:05Z</time>
      </trkpt>
      <trkpt lat="45.09126" lon="2.71708">
        <ele>1521</ele>
        <time>2017-09-02T09:58:11Z</time>
      </trkpt>
      <trkpt lat="45.09131" lon="2.71706">
        <ele>1522</ele>
        <time>2017-09-02T09:58:18Z</time>
      </trkpt>
      <trkpt lat="45.09136" lon="2.71707">
        <ele>1523</ele>
        <time>2017-09-02T09:58:23Z</time>
      </trkpt>
      <trkpt lat="45.09141" lon="2.71708">
        <ele>1523</ele>
        <time>2017-09-02T09:58:28Z</time>
      </trkpt>
      <trkpt lat="45.09146" lon="2.71707">
        <ele>1524</ele>
        <time>2017-09-02T09:58:33Z</time>
      </trkpt>
      <trkpt lat="45.0915" lon="2.71705">
        <ele>1525</ele>
        <time>2017-09-02T09:58:37Z</time>
      </trkpt>
      <trkpt lat="45.09155" lon="2.71703">
        <ele>1526</ele>
        <time>2017-09-02T09:58:43Z</time>
      </trkpt>
      <trkpt lat="45.09161" lon="2.71702">
        <ele>1527</ele>
        <time>2017-09-02T09:58:49Z</time>
      </trkpt>
      <trkpt lat="45.09165" lon="2.71701">
        <ele>1528</ele>
        <time>2017-09-02T09:58:54Z</time>
      </trkpt>
      <trkpt lat="45.09171" lon="2.71699">
        <ele>1529</ele>
        <time>2017-09-02T09:59:00Z</time>
      </trkpt>
      <trkpt lat="45.09176" lon="2.71696">
        <ele>1530</ele>
        <time>2017-09-02T09:59:06Z</time>
      </trkpt>
      <trkpt lat="45.09181" lon="2.71696">
        <ele>1531</ele>
        <time>2017-09-02T09:59:12Z</time>
      </trkpt>
      <trkpt lat="45.09185" lon="2.71695">
        <ele>1532</ele>
        <time>2017-09-02T09:59:16Z</time>
      </trkpt>
      <trkpt lat="45.0919" lon="2.71691">
        <ele>1533</ele>
        <time>2017-09-02T09:59:22Z</time>
      </trkpt>
      <trkpt lat="45.09194" lon="2.71687">
        <ele>1534</ele>
        <time>2017-09-02T09:59:26Z</time>
      </trkpt>
      <trkpt lat="45.09198" lon="2.71685">
        <ele>1534</ele>
        <time>2017-09-02T09:59:30Z</time>
      </trkpt>
      <trkpt lat="45.09204" lon="2.71683">
        <ele>1534</ele>
        <time>2017-09-02T09:59:35Z</time>
      </trkpt>
      <trkpt lat="45.09208" lon="2.71681">
        <ele>1534</ele>
        <time>2017-09-02T09:59:39Z</time>
      </trkpt>
      <trkpt lat="45.09213" lon="2.71679">
        <ele>1534</ele>
        <time>2017-09-02T09:59:44Z</time>
      </trkpt>
      <trkpt lat="45.09218" lon="2.71679">
        <ele>1534</ele>
        <time>2017-09-02T09:59:50Z</time>
      </trkpt>
      <trkpt lat="45.09223" lon="2.71676">
        <ele>1534</ele>
        <time>2017-09-02T09:59:54Z</time>
      </trkpt>
      <trkpt lat="45.09227" lon="2.71671">
        <ele>1534</ele>
        <time>2017-09-02T09:59:58Z</time>
      </trkpt>
      <trkpt lat="45.09231" lon="2.71669">
        <ele>1534</ele>
        <time>2017-09-02T10:00:03Z</time>
      </trkpt>
      <trkpt lat="45.09236" lon="2.71667">
        <ele>1535</ele>
        <time>2017-09-02T10:00:09Z</time>
      </trkpt>
      <trkpt lat="45.09241" lon="2.71667">
        <ele>1535</ele>
        <time>2017-09-02T10:00:14Z</time>
      </trkpt>
      <trkpt lat="45.09246" lon="2.71669">
        <ele>1536</ele>
        <time>2017-09-02T10:00:19Z</time>
      </trkpt>
      <trkpt lat="45.09251" lon="2.7167">
        <ele>1537</ele>
        <time>2017-09-02T10:00:24Z</time>
      </trkpt>
      <trkpt lat="45.09256" lon="2.71673">
        <ele>1537</ele>
        <time>2017-09-02T10:00:29Z</time>
      </trkpt>
      <trkpt lat="45.09261" lon="2.71675">
        <ele>1537</ele>
        <time>2017-09-02T10:00:34Z</time>
      </trkpt>
      <trkpt lat="45.09266" lon="2.71677">
        <ele>1537</ele>
        <time>2017-09-02T10:00:40Z</time>
      </trkpt>
      <trkpt lat="45.09271" lon="2.71677">
        <ele>1537</ele>
        <time>2017-09-02T10:00:46Z</time>
      </trkpt>
      <trkpt lat="45.09276" lon="2.71677">
        <ele>1538</ele>
        <time>2017-09-02T10:00:51Z</time>
      </trkpt>
      <trkpt lat="45.09281" lon="2.71677">
        <ele>1538</ele>
        <time>2017-09-02T10:00:57Z</time>
      </trkpt>
      <trkpt lat="45.09286" lon="2.71678">
        <ele>1539</ele>
        <time>2017-09-02T10:01:03Z</time>
      </trkpt>
      <trkpt lat="45.09291" lon="2.71679">
        <ele>1540</ele>
        <time>2017-09-02T10:01:09Z</time>
      </trkpt>
      <trkpt lat="45.09296" lon="2.71678">
        <ele>1541</ele>
        <time>2017-09-02T10:01:26Z</time>
      </trkpt>
      <trkpt lat="45.09301" lon="2.71677">
        <ele>1541</ele>
        <time>2017-09-02T10:01:35Z</time>
      </trkpt>
      <trkpt lat="45.09306" lon="2.7168">
        <ele>1542</ele>
        <time>2017-09-02T10:01:39Z</time>
      </trkpt>
      <trkpt lat="45.09309" lon="2.71685">
        <ele>1542</ele>
        <time>2017-09-02T10:01:45Z</time>
      </trkpt>
      <trkpt lat="45.09312" lon="2.7169">
        <ele>1542</ele>
        <time>2017-09-02T10:01:50Z</time>
      </trkpt>
      <trkpt lat="45.09316" lon="2.71694">
        <ele>1543</ele>
        <time>2017-09-02T10:01:55Z</time>
      </trkpt>
      <trkpt lat="45.09321" lon="2.71697">
        <ele>1543</ele>
        <time>2017-09-02T10:02:01Z</time>
      </trkpt>
      <trkpt lat="45.09326" lon="2.71699">
        <ele>1544</ele>
        <time>2017-09-02T10:02:06Z</time>
      </trkpt>
      <trkpt lat="45.0933" lon="2.71703">
        <ele>1545</ele>
        <time>2017-09-02T10:02:10Z</time>
      </trkpt>
      <trkpt lat="45.09334" lon="2.71707">
        <ele>1545</ele>
        <time>2017-09-02T10:02:14Z</time>
      </trkpt>
      <trkpt lat="45.09339" lon="2.7171">
        <ele>1546</ele>
        <time>2017-09-02T10:02:18Z</time>
      </trkpt>
      <trkpt lat="45.09344" lon="2.71714">
        <ele>1546</ele>
        <time>2017-09-02T10:02:23Z</time>
      </trkpt>
      <trkpt lat="45.09348" lon="2.71716">
        <ele>1546</ele>
        <time>2017-09-02T10:02:27Z</time>
      </trkpt>
      <trkpt lat="45.09353" lon="2.71717">
        <ele>1546</ele>
        <time>2017-09-02T10:02:31Z</time>
      </trkpt>
      <trkpt lat="45.09358" lon="2.71719">
        <ele>1546</ele>
        <time>2017-09-02T10:02:35Z</time>
      </trkpt>
      <trkpt lat="45.09363" lon="2.7172">
        <ele>1546</ele>
        <time>2017-09-02T10:02:39Z</time>
      </trkpt>
      <trkpt lat="45.09368" lon="2.7172">
        <ele>1546</ele>
        <time>2017-09-02T10:02:43Z</time>
      </trkpt>
      <trkpt lat="45.09373" lon="2.71721">
        <ele>1546</ele>
        <time>2017-09-02T10:02:47Z</time>
      </trkpt>
      <trkpt lat="45.09377" lon="2.71722">
        <ele>1546</ele>
        <time>2017-09-02T10:02:52Z</time>
      </trkpt>
      <trkpt lat="45.09382" lon="2.71724">
        <ele>1546</ele>
        <time>2017-09-02T10:02:57Z</time>
      </trkpt>
      <trkpt lat="45.09387" lon="2.71728">
        <ele>1545</ele>
        <time>2017-09-02T10:03:01Z</time>
      </trkpt>
      <trkpt lat="45.09391" lon="2.71731">
        <ele>1545</ele>
        <time>2017-09-02T10:03:06Z</time>
      </trkpt>
      <trkpt lat="45.09396" lon="2.71734">
        <ele>1545</ele>
        <time>2017-09-02T10:03:11Z</time>
      </trkpt>
      <trkpt lat="45.09401" lon="2.71737">
        <ele>1545</ele>
        <time>2017-09-02T10:03:16Z</time>
      </trkpt>
      <trkpt lat="45.09406" lon="2.71739">
        <ele>1545</ele>
        <time>2017-09-02T10:03:21Z</time>
      </trkpt>
      <trkpt lat="45.09411" lon="2.71742">
        <ele>1545</ele>
        <time>2017-09-02T10:03:25Z</time>
      </trkpt>
      <trkpt lat="45.09415" lon="2.71743">
        <ele>1544</ele>
        <time>2017-09-02T10:03:29Z</time>
      </trkpt>
      <trkpt lat="45.0942" lon="2.71744">
        <ele>1544</ele>
        <time>2017-09-02T10:03:34Z</time>
      </trkpt>
      <trkpt lat="45.09425" lon="2.71747">
        <ele>1544</ele>
        <time>2017-09-02T10:03:38Z</time>
      </trkpt>
      <trkpt lat="45.0943" lon="2.71746">
        <ele>1544</ele>
        <time>2017-09-02T10:03:43Z</time>
      </trkpt>
      <trkpt lat="45.09435" lon="2.71748">
        <ele>1543</ele>
        <time>2017-09-02T10:03:48Z</time>
      </trkpt>
      <trkpt lat="45.0944" lon="2.7175">
        <ele>1544</ele>
        <time>2017-09-02T10:03:53Z</time>
      </trkpt>
      <trkpt lat="45.09446" lon="2.71752">
        <ele>1544</ele>
        <time>2017-09-02T10:03:58Z</time>
      </trkpt>
      <trkpt lat="45.09451" lon="2.71754">
        <ele>1544</ele>
        <time>2017-09-02T10:04:03Z</time>
      </trkpt>
      <trkpt lat="45.09456" lon="2.71756">
        <ele>1544</ele>
        <time>2017-09-02T10:04:08Z</time>
      </trkpt>
      <trkpt lat="45.0946" lon="2.71759">
        <ele>1544</ele>
        <time>2017-09-02T10:04:14Z</time>
      </trkpt>
      <trkpt lat="45.09465" lon="2.71761">
        <ele>1544</ele>
        <time>2017-09-02T10:04:21Z</time>
      </trkpt>
      <trkpt lat="45.0947" lon="2.71762">
        <ele>1544</ele>
        <time>2017-09-02T10:04:28Z</time>
      </trkpt>
      <trkpt lat="45.09475" lon="2.71763">
        <ele>1544</ele>
        <time>2017-09-02T10:04:34Z</time>
      </trkpt>
      <trkpt lat="45.0948" lon="2.71764">
        <ele>1544</ele>
        <time>2017-09-02T10:04:39Z</time>
      </trkpt>
      <trkpt lat="45.09485" lon="2.71763">
        <ele>1544</ele>
        <time>2017-09-02T10:04:44Z</time>
      </trkpt>
      <trkpt lat="45.09489" lon="2.71765">
        <ele>1544</ele>
        <time>2017-09-02T10:04:49Z</time>
      </trkpt>
      <trkpt lat="45.09494" lon="2.71768">
        <ele>1544</ele>
        <time>2017-09-02T10:04:53Z</time>
      </trkpt>
      <trkpt lat="45.095" lon="2.71767">
        <ele>1544</ele>
        <time>2017-09-02T10:04:58Z</time>
      </trkpt>
      <trkpt lat="45.09505" lon="2.71769">
        <ele>1544</ele>
        <time>2017-09-02T10:05:03Z</time>
      </trkpt>
      <trkpt lat="45.0951" lon="2.71769">
        <ele>1544</ele>
        <time>2017-09-02T10:05:07Z</time>
      </trkpt>
      <trkpt lat="45.09515" lon="2.71768">
        <ele>1544</ele>
        <time>2017-09-02T10:05:12Z</time>
      </trkpt>
      <trkpt lat="45.0952" lon="2.71766">
        <ele>1544</ele>
        <time>2017-09-02T10:05:17Z</time>
      </trkpt>
      <trkpt lat="45.09525" lon="2.71765">
        <ele>1544</ele>
        <time>2017-09-02T10:05:21Z</time>
      </trkpt>
      <trkpt lat="45.0953" lon="2.71767">
        <ele>1544</ele>
        <time>2017-09-02T10:05:25Z</time>
      </trkpt>
      <trkpt lat="45.09535" lon="2.71767">
        <ele>1544</ele>
        <time>2017-09-02T10:05:30Z</time>
      </trkpt>
      <trkpt lat="45.0954" lon="2.71769">
        <ele>1544</ele>
        <time>2017-09-02T10:05:34Z</time>
      </trkpt>
      <trkpt lat="45.09545" lon="2.71767">
        <ele>1545</ele>
        <time>2017-09-02T10:05:39Z</time>
      </trkpt>
      <trkpt lat="45.09549" lon="2.71769">
        <ele>1545</ele>
        <time>2017-09-02T10:05:45Z</time>
      </trkpt>
      <trkpt lat="45.09555" lon="2.71772">
        <ele>1545</ele>
        <time>2017-09-02T10:05:50Z</time>
      </trkpt>
      <trkpt lat="45.09559" lon="2.71775">
        <ele>1545</ele>
        <time>2017-09-02T10:05:55Z</time>
      </trkpt>
      <trkpt lat="45.09563" lon="2.71777">
        <ele>1546</ele>
        <time>2017-09-02T10:06:01Z</time>
      </trkpt>
      <trkpt lat="45.09568" lon="2.71778">
        <ele>1546</ele>
        <time>2017-09-02T10:06:06Z</time>
      </trkpt>
      <trkpt lat="45.09573" lon="2.7178">
        <ele>1546</ele>
        <time>2017-09-02T10:06:11Z</time>
      </trkpt>
      <trkpt lat="45.09578" lon="2.71783">
        <ele>1547</ele>
        <time>2017-09-02T10:06:16Z</time>
      </trkpt>
      <trkpt lat="45.09581" lon="2.7179">
        <ele>1547</ele>
        <time>2017-09-02T10:06:22Z</time>
      </trkpt>
      <trkpt lat="45.09584" lon="2.71795">
        <ele>1547</ele>
        <time>2017-09-02T10:06:27Z</time>
      </trkpt>
      <trkpt lat="45.09588" lon="2.71801">
        <ele>1547</ele>
        <time>2017-09-02T10:06:31Z</time>
      </trkpt>
      <trkpt lat="45.09591" lon="2.71806">
        <ele>1547</ele>
        <time>2017-09-02T10:06:36Z</time>
      </trkpt>
      <trkpt lat="45.09592" lon="2.71813">
        <ele>1547</ele>
        <time>2017-09-02T10:06:46Z</time>
      </trkpt>
      <trkpt lat="45.09593" lon="2.71819">
        <ele>1548</ele>
        <time>2017-09-02T10:06:51Z</time>
      </trkpt>
      <trkpt lat="45.09595" lon="2.71826">
        <ele>1549</ele>
        <time>2017-09-02T10:06:56Z</time>
      </trkpt>
      <trkpt lat="45.09598" lon="2.71831">
        <ele>1550</ele>
        <time>2017-09-02T10:07:01Z</time>
      </trkpt>
      <trkpt lat="45.09602" lon="2.71837">
        <ele>1551</ele>
        <time>2017-09-02T10:07:06Z</time>
      </trkpt>
      <trkpt lat="45.09606" lon="2.71841">
        <ele>1551</ele>
        <time>2017-09-02T10:07:11Z</time>
      </trkpt>
      <trkpt lat="45.0961" lon="2.71844">
        <ele>1552</ele>
        <time>2017-09-02T10:07:16Z</time>
      </trkpt>
      <trkpt lat="45.09613" lon="2.71851">
        <ele>1552</ele>
        <time>2017-09-02T10:07:22Z</time>
      </trkpt>
      <trkpt lat="45.09616" lon="2.71856">
        <ele>1552</ele>
        <time>2017-09-02T10:07:26Z</time>
      </trkpt>
      <trkpt lat="45.09621" lon="2.71859">
        <ele>1552</ele>
        <time>2017-09-02T10:07:30Z</time>
      </trkpt>
      <trkpt lat="45.09626" lon="2.71862">
        <ele>1552</ele>
        <time>2017-09-02T10:07:35Z</time>
      </trkpt>
      <trkpt lat="45.09631" lon="2.71864">
        <ele>1552</ele>
        <time>2017-09-02T10:07:41Z</time>
      </trkpt>
      <trkpt lat="45.09636" lon="2.71868">
        <ele>1552</ele>
        <time>2017-09-02T10:07:45Z</time>
      </trkpt>
      <trkpt lat="45.09641" lon="2.71871">
        <ele>1552</ele>
        <time>2017-09-02T10:07:49Z</time>
      </trkpt>
      <trkpt lat="45.09645" lon="2.71876">
        <ele>1552</ele>
        <time>2017-09-02T10:07:54Z</time>
      </trkpt>
      <trkpt lat="45.09649" lon="2.71879">
        <ele>1552</ele>
        <time>2017-09-02T10:07:59Z</time>
      </trkpt>
      <trkpt lat="45.09654" lon="2.71881">
        <ele>1552</ele>
        <time>2017-09-02T10:08:04Z</time>
      </trkpt>
      <trkpt lat="45.09659" lon="2.71882">
        <ele>1551</ele>
        <time>2017-09-02T10:08:09Z</time>
      </trkpt>
      <trkpt lat="45.09663" lon="2.71885">
        <ele>1551</ele>
        <time>2017-09-02T10:08:14Z</time>
      </trkpt>
      <trkpt lat="45.09669" lon="2.71885">
        <ele>1550</ele>
        <time>2017-09-02T10:08:20Z</time>
      </trkpt>
      <trkpt lat="45.09671" lon="2.71892">
        <ele>1549</ele>
        <time>2017-09-02T10:08:28Z</time>
      </trkpt>
      <trkpt lat="45.09676" lon="2.71894">
        <ele>1548</ele>
        <time>2017-09-02T10:08:32Z</time>
      </trkpt>
      <trkpt lat="45.09681" lon="2.71895">
        <ele>1548</ele>
        <time>2017-09-02T10:08:38Z</time>
      </trkpt>
      <trkpt lat="45.09685" lon="2.71899">
        <ele>1547</ele>
        <time>2017-09-02T10:08:43Z</time>
      </trkpt>
      <trkpt lat="45.09687" lon="2.71905">
        <ele>1546</ele>
        <time>2017-09-02T10:08:48Z</time>
      </trkpt>
      <trkpt lat="45.09691" lon="2.71908">
        <ele>1546</ele>
        <time>2017-09-02T10:08:53Z</time>
      </trkpt>
      <trkpt lat="45.09695" lon="2.71912">
        <ele>1545</ele>
        <time>2017-09-02T10:08:58Z</time>
      </trkpt>
      <trkpt lat="45.09699" lon="2.71916">
        <ele>1545</ele>
        <time>2017-09-02T10:09:02Z</time>
      </trkpt>
      <trkpt lat="45.09702" lon="2.71921">
        <ele>1544</ele>
        <time>2017-09-02T10:09:07Z</time>
      </trkpt>
      <trkpt lat="45.09706" lon="2.71927">
        <ele>1543</ele>
        <time>2017-09-02T10:09:13Z</time>
      </trkpt>
      <trkpt lat="45.0971" lon="2.7193">
        <ele>1543</ele>
        <time>2017-09-02T10:09:18Z</time>
      </trkpt>
      <trkpt lat="45.09714" lon="2.71934">
        <ele>1542</ele>
        <time>2017-09-02T10:09:23Z</time>
      </trkpt>
      <trkpt lat="45.09716" lon="2.71941">
        <ele>1541</ele>
        <time>2017-09-02T10:09:28Z</time>
      </trkpt>
      <trkpt lat="45.0972" lon="2.71945">
        <ele>1541</ele>
        <time>2017-09-02T10:09:32Z</time>
      </trkpt>
      <trkpt lat="45.09724" lon="2.71946">
        <ele>1540</ele>
        <time>2017-09-02T10:09:37Z</time>
      </trkpt>
      <trkpt lat="45.09729" lon="2.71948">
        <ele>1540</ele>
        <time>2017-09-02T10:09:41Z</time>
      </trkpt>
      <trkpt lat="45.09734" lon="2.71951">
        <ele>1539</ele>
        <time>2017-09-02T10:09:46Z</time>
      </trkpt>
      <trkpt lat="45.09738" lon="2.71954">
        <ele>1539</ele>
        <time>2017-09-02T10:09:51Z</time>
      </trkpt>
      <trkpt lat="45.09741" lon="2.71959">
        <ele>1538</ele>
        <time>2017-09-02T10:09:57Z</time>
      </trkpt>
      <trkpt lat="45.09745" lon="2.71964">
        <ele>1537</ele>
        <time>2017-09-02T10:10:02Z</time>
      </trkpt>
      <trkpt lat="45.09749" lon="2.71967">
        <ele>1537</ele>
        <time>2017-09-02T10:10:10Z</time>
      </trkpt>
      <trkpt lat="45.09754" lon="2.71971">
        <ele>1536</ele>
        <time>2017-09-02T10:10:15Z</time>
      </trkpt>
      <trkpt lat="45.09758" lon="2.71975">
        <ele>1536</ele>
        <time>2017-09-02T10:10:20Z</time>
      </trkpt>
      <trkpt lat="45.09763" lon="2.71978">
        <ele>1536</ele>
        <time>2017-09-02T10:10:27Z</time>
      </trkpt>
      <trkpt lat="45.09767" lon="2.7198">
        <ele>1535</ele>
        <time>2017-09-02T10:10:32Z</time>
      </trkpt>
      <trkpt lat="45.09773" lon="2.71982">
        <ele>1535</ele>
        <time>2017-09-02T10:10:38Z</time>
      </trkpt>
      <trkpt lat="45.09778" lon="2.71984">
        <ele>1535</ele>
        <time>2017-09-02T10:10:43Z</time>
      </trkpt>
      <trkpt lat="45.09782" lon="2.71987">
        <ele>1534</ele>
        <time>2017-09-02T10:10:48Z</time>
      </trkpt>
      <trkpt lat="45.09787" lon="2.71989">
        <ele>1534</ele>
        <time>2017-09-02T10:10:54Z</time>
      </trkpt>
      <trkpt lat="45.09792" lon="2.71992">
        <ele>1534</ele>
        <time>2017-09-02T10:10:59Z</time>
      </trkpt>
      <trkpt lat="45.09797" lon="2.71995">
        <ele>1534</ele>
        <time>2017-09-02T10:11:03Z</time>
      </trkpt>
      <trkpt lat="45.09802" lon="2.71994">
        <ele>1534</ele>
        <time>2017-09-02T10:11:09Z</time>
      </trkpt>
      <trkpt lat="45.09806" lon="2.71998">
        <ele>1534</ele>
        <time>2017-09-02T10:11:15Z</time>
      </trkpt>
      <trkpt lat="45.09807" lon="2.72005">
        <ele>1534</ele>
        <time>2017-09-02T10:11:20Z</time>
      </trkpt>
      <trkpt lat="45.09808" lon="2.72013">
        <ele>1534</ele>
        <time>2017-09-02T10:11:27Z</time>
      </trkpt>
      <trkpt lat="45.09809" lon="2.7202">
        <ele>1534</ele>
        <time>2017-09-02T10:11:34Z</time>
      </trkpt>
      <trkpt lat="45.09809" lon="2.72026">
        <ele>1534</ele>
        <time>2017-09-02T10:11:42Z</time>
      </trkpt>
      <trkpt lat="45.09809" lon="2.72033">
        <ele>1534</ele>
        <time>2017-09-02T10:11:49Z</time>
      </trkpt>
      <trkpt lat="45.09808" lon="2.72041">
        <ele>1534</ele>
        <time>2017-09-02T10:11:55Z</time>
      </trkpt>
      <trkpt lat="45.09806" lon="2.72047">
        <ele>1534</ele>
        <time>2017-09-02T10:12:01Z</time>
      </trkpt>
      <trkpt lat="45.09806" lon="2.72055">
        <ele>1534</ele>
        <time>2017-09-02T10:12:06Z</time>
      </trkpt>
      <trkpt lat="45.09806" lon="2.72062">
        <ele>1534</ele>
        <time>2017-09-02T10:12:13Z</time>
      </trkpt>
      <trkpt lat="45.09809" lon="2.72067">
        <ele>1534</ele>
        <time>2017-09-02T10:12:18Z</time>
      </trkpt>
      <trkpt lat="45.09811" lon="2.72073">
        <ele>1535</ele>
        <time>2017-09-02T10:12:22Z</time>
      </trkpt>
      <trkpt lat="45.09812" lon="2.7208">
        <ele>1535</ele>
        <time>2017-09-02T10:12:27Z</time>
      </trkpt>
      <trkpt lat="45.09813" lon="2.72088">
        <ele>1536</ele>
        <time>2017-09-02T10:12:33Z</time>
      </trkpt>
      <trkpt lat="45.09816" lon="2.72095">
        <ele>1537</ele>
        <time>2017-09-02T10:12:37Z</time>
      </trkpt>
      <trkpt lat="45.09819" lon="2.72101">
        <ele>1538</ele>
        <time>2017-09-02T10:12:41Z</time>
      </trkpt>
      <trkpt lat="45.09823" lon="2.72106">
        <ele>1538</ele>
        <time>2017-09-02T10:12:47Z</time>
      </trkpt>
      <trkpt lat="45.09828" lon="2.72109">
        <ele>1539</ele>
        <time>2017-09-02T10:12:53Z</time>
      </trkpt>
      <trkpt lat="45.09831" lon="2.72114">
        <ele>1539</ele>
        <time>2017-09-02T10:12:58Z</time>
      </trkpt>
      <trkpt lat="45.09834" lon="2.72119">
        <ele>1539</ele>
        <time>2017-09-02T10:13:03Z</time>
      </trkpt>
      <trkpt lat="45.09837" lon="2.72126">
        <ele>1539</ele>
        <time>2017-09-02T10:13:07Z</time>
      </trkpt>
      <trkpt lat="45.0984" lon="2.72132">
        <ele>1539</ele>
        <time>2017-09-02T10:13:11Z</time>
      </trkpt>
      <trkpt lat="45.09844" lon="2.72138">
        <ele>1539</ele>
        <time>2017-09-02T10:13:15Z</time>
      </trkpt>
      <trkpt lat="45.09845" lon="2.72145">
        <ele>1539</ele>
        <time>2017-09-02T10:13:23Z</time>
      </trkpt>
      <trkpt lat="45.09847" lon="2.72152">
        <ele>1539</ele>
        <time>2017-09-02T10:13:31Z</time>
      </trkpt>
      <trkpt lat="45.09845" lon="2.72159">
        <ele>1539</ele>
        <time>2017-09-02T10:13:36Z</time>
      </trkpt>
      <trkpt lat="45.09844" lon="2.72167">
        <ele>1538</ele>
        <time>2017-09-02T10:13:42Z</time>
      </trkpt>
      <trkpt lat="45.09845" lon="2.72174">
        <ele>1538</ele>
        <time>2017-09-02T10:13:47Z</time>
      </trkpt>
      <trkpt lat="45.09848" lon="2.72179">
        <ele>1538</ele>
        <time>2017-09-02T10:13:52Z</time>
      </trkpt>
      <trkpt lat="45.09851" lon="2.72185">
        <ele>1539</ele>
        <time>2017-09-02T10:13:59Z</time>
      </trkpt>
      <trkpt lat="45.09853" lon="2.72192">
        <ele>1539</ele>
        <time>2017-09-02T10:14:07Z</time>
      </trkpt>
      <trkpt lat="45.09852" lon="2.72198">
        <ele>1540</ele>
        <time>2017-09-02T10:14:11Z</time>
      </trkpt>
      <trkpt lat="45.09852" lon="2.72205">
        <ele>1541</ele>
        <time>2017-09-02T10:14:15Z</time>
      </trkpt>
      <trkpt lat="45.09853" lon="2.72213">
        <ele>1542</ele>
        <time>2017-09-02T10:14:20Z</time>
      </trkpt>
      <trkpt lat="45.09855" lon="2.72219">
        <ele>1543</ele>
        <time>2017-09-02T10:14:25Z</time>
      </trkpt>
      <trkpt lat="45.09856" lon="2.72225">
        <ele>1544</ele>
        <time>2017-09-02T10:14:29Z</time>
      </trkpt>
      <trkpt lat="45.09859" lon="2.72231">
        <ele>1545</ele>
        <time>2017-09-02T10:14:34Z</time>
      </trkpt>
      <trkpt lat="45.09863" lon="2.72238">
        <ele>1546</ele>
        <time>2017-09-02T10:14:39Z</time>
      </trkpt>
      <trkpt lat="45.09867" lon="2.72244">
        <ele>1546</ele>
        <time>2017-09-02T10:14:44Z</time>
      </trkpt>
      <trkpt lat="45.09872" lon="2.72249">
        <ele>1547</ele>
        <time>2017-09-02T10:14:49Z</time>
      </trkpt>
      <trkpt lat="45.09876" lon="2.72251">
        <ele>1547</ele>
        <time>2017-09-02T10:14:53Z</time>
      </trkpt>
      <trkpt lat="45.09879" lon="2.72255">
        <ele>1548</ele>
        <time>2017-09-02T10:14:57Z</time>
      </trkpt>
      <trkpt lat="45.09882" lon="2.72262">
        <ele>1548</ele>
        <time>2017-09-02T10:15:02Z</time>
      </trkpt>
      <trkpt lat="45.09887" lon="2.72267">
        <ele>1547</ele>
        <time>2017-09-02T10:15:16Z</time>
      </trkpt>
      <trkpt lat="45.09891" lon="2.72271">
        <ele>1547</ele>
        <time>2017-09-02T10:15:21Z</time>
      </trkpt>
      <trkpt lat="45.09895" lon="2.72274">
        <ele>1547</ele>
        <time>2017-09-02T10:15:25Z</time>
      </trkpt>
      <trkpt lat="45.09899" lon="2.72281">
        <ele>1547</ele>
        <time>2017-09-02T10:15:29Z</time>
      </trkpt>
      <trkpt lat="45.099" lon="2.72287">
        <ele>1547</ele>
        <time>2017-09-02T10:15:34Z</time>
      </trkpt>
      <trkpt lat="45.09903" lon="2.72293">
        <ele>1548</ele>
        <time>2017-09-02T10:15:39Z</time>
      </trkpt>
      <trkpt lat="45.09908" lon="2.72295">
        <ele>1548</ele>
        <time>2017-09-02T10:15:43Z</time>
      </trkpt>
      <trkpt lat="45.0991" lon="2.72302">
        <ele>1549</ele>
        <time>2017-09-02T10:15:48Z</time>
      </trkpt>
      <trkpt lat="45.09911" lon="2.72309">
        <ele>1549</ele>
        <time>2017-09-02T10:15:54Z</time>
      </trkpt>
      <trkpt lat="45.09913" lon="2.72316">
        <ele>1550</ele>
        <time>2017-09-02T10:15:59Z</time>
      </trkpt>
      <trkpt lat="45.09916" lon="2.72321">
        <ele>1550</ele>
        <time>2017-09-02T10:16:05Z</time>
      </trkpt>
      <trkpt lat="45.09917" lon="2.72328">
        <ele>1550</ele>
        <time>2017-09-02T10:16:11Z</time>
      </trkpt>
      <trkpt lat="45.0992" lon="2.72335">
        <ele>1550</ele>
        <time>2017-09-02T10:16:15Z</time>
      </trkpt>
      <trkpt lat="45.09924" lon="2.72341">
        <ele>1550</ele>
        <time>2017-09-02T10:16:21Z</time>
      </trkpt>
      <trkpt lat="45.09927" lon="2.72346">
        <ele>1550</ele>
        <time>2017-09-02T10:16:27Z</time>
      </trkpt>
      <trkpt lat="45.09928" lon="2.72352">
        <ele>1550</ele>
        <time>2017-09-02T10:16:32Z</time>
      </trkpt>
      <trkpt lat="45.09932" lon="2.72358">
        <ele>1550</ele>
        <time>2017-09-02T10:16:36Z</time>
      </trkpt>
      <trkpt lat="45.09934" lon="2.72364">
        <ele>1551</ele>
        <time>2017-09-02T10:16:41Z</time>
      </trkpt>
      <trkpt lat="45.09936" lon="2.7237">
        <ele>1552</ele>
        <time>2017-09-02T10:16:45Z</time>
      </trkpt>
      <trkpt lat="45.09938" lon="2.72377">
        <ele>1553</ele>
        <time>2017-09-02T10:16:52Z</time>
      </trkpt>
      <trkpt lat="45.0994" lon="2.72385">
        <ele>1554</ele>
        <time>2017-09-02T10:17:01Z</time>
      </trkpt>
      <trkpt lat="45.09939" lon="2.72391">
        <ele>1554</ele>
        <time>2017-09-02T10:17:04Z</time>
      </trkpt>
      <trkpt lat="45.0994" lon="2.72398">
        <ele>1555</ele>
        <time>2017-09-02T10:17:09Z</time>
      </trkpt>
      <trkpt lat="45.09943" lon="2.72404">
        <ele>1556</ele>
        <time>2017-09-02T10:17:15Z</time>
      </trkpt>
      <trkpt lat="45.09941" lon="2.7241">
        <ele>1557</ele>
        <time>2017-09-02T10:17:21Z</time>
      </trkpt>
      <trkpt lat="45.09941" lon="2.72418">
        <ele>1559</ele>
        <time>2017-09-02T10:17:26Z</time>
      </trkpt>
      <trkpt lat="45.09945" lon="2.72424">
        <ele>1560</ele>
        <time>2017-09-02T10:17:32Z</time>
      </trkpt>
      <trkpt lat="45.09948" lon="2.72429">
        <ele>1562</ele>
        <time>2017-09-02T10:17:37Z</time>
      </trkpt>
      <trkpt lat="45.09951" lon="2.72435">
        <ele>1563</ele>
        <time>2017-09-02T10:17:42Z</time>
      </trkpt>
      <trkpt lat="45.09954" lon="2.7244">
        <ele>1565</ele>
        <time>2017-09-02T10:17:48Z</time>
      </trkpt>
      <trkpt lat="45.09957" lon="2.72445">
        <ele>1566</ele>
        <time>2017-09-02T10:17:53Z</time>
      </trkpt>
      <trkpt lat="45.09959" lon="2.72452">
        <ele>1567</ele>
        <time>2017-09-02T10:17:58Z</time>
      </trkpt>
      <trkpt lat="45.09962" lon="2.72458">
        <ele>1568</ele>
        <time>2017-09-02T10:18:02Z</time>
      </trkpt>
      <trkpt lat="45.09963" lon="2.72464">
        <ele>1569</ele>
        <time>2017-09-02T10:18:06Z</time>
      </trkpt>
      <trkpt lat="45.09965" lon="2.72471">
        <ele>1569</ele>
        <time>2017-09-02T10:18:11Z</time>
      </trkpt>
      <trkpt lat="45.09968" lon="2.72476">
        <ele>1570</ele>
        <time>2017-09-02T10:18:16Z</time>
      </trkpt>
      <trkpt lat="45.09972" lon="2.7248">
        <ele>1571</ele>
        <time>2017-09-02T10:18:22Z</time>
      </trkpt>
      <trkpt lat="45.09974" lon="2.72486">
        <ele>1572</ele>
        <time>2017-09-02T10:18:29Z</time>
      </trkpt>
      <trkpt lat="45.09977" lon="2.72491">
        <ele>1573</ele>
        <time>2017-09-02T10:18:35Z</time>
      </trkpt>
      <trkpt lat="45.09979" lon="2.72498">
        <ele>1574</ele>
        <time>2017-09-02T10:18:39Z</time>
      </trkpt>
      <trkpt lat="45.0998" lon="2.72504">
        <ele>1574</ele>
        <time>2017-09-02T10:18:44Z</time>
      </trkpt>
      <trkpt lat="45.09983" lon="2.72511">
        <ele>1575</ele>
        <time>2017-09-02T10:18:50Z</time>
      </trkpt>
      <trkpt lat="45.09986" lon="2.72516">
        <ele>1576</ele>
        <time>2017-09-02T10:18:55Z</time>
      </trkpt>
      <trkpt lat="45.09988" lon="2.72522">
        <ele>1577</ele>
        <time>2017-09-02T10:19:01Z</time>
      </trkpt>
      <trkpt lat="45.0999" lon="2.72528">
        <ele>1578</ele>
        <time>2017-09-02T10:19:05Z</time>
      </trkpt>
      <trkpt lat="45.09994" lon="2.72532">
        <ele>1579</ele>
        <time>2017-09-02T10:19:09Z</time>
      </trkpt>
      <trkpt lat="45.09997" lon="2.72537">
        <ele>1579</ele>
        <time>2017-09-02T10:19:16Z</time>
      </trkpt>
      <trkpt lat="45.1" lon="2.72542">
        <ele>1580</ele>
        <time>2017-09-02T10:19:23Z</time>
      </trkpt>
      <trkpt lat="45.10003" lon="2.72549">
        <ele>1580</ele>
        <time>2017-09-02T10:19:29Z</time>
      </trkpt>
      <trkpt lat="45.10003" lon="2.72557">
        <ele>1581</ele>
        <time>2017-09-02T10:19:34Z</time>
      </trkpt>
      <trkpt lat="45.10005" lon="2.72564">
        <ele>1582</ele>
        <time>2017-09-02T10:19:38Z</time>
      </trkpt>
      <trkpt lat="45.10005" lon="2.72571">
        <ele>1582</ele>
        <time>2017-09-02T10:19:43Z</time>
      </trkpt>
      <trkpt lat="45.10004" lon="2.72577">
        <ele>1583</ele>
        <time>2017-09-02T10:19:47Z</time>
      </trkpt>
      <trkpt lat="45.10003" lon="2.72584">
        <ele>1584</ele>
        <time>2017-09-02T10:19:51Z</time>
      </trkpt>
      <trkpt lat="45.10002" lon="2.72592">
        <ele>1585</ele>
        <time>2017-09-02T10:19:56Z</time>
      </trkpt>
      <trkpt lat="45.10005" lon="2.72597">
        <ele>1586</ele>
        <time>2017-09-02T10:20:00Z</time>
      </trkpt>
      <trkpt lat="45.10005" lon="2.72607">
        <ele>1586</ele>
        <time>2017-09-02T10:20:06Z</time>
      </trkpt>
      <trkpt lat="45.10002" lon="2.72613">
        <ele>1587</ele>
        <time>2017-09-02T10:20:10Z</time>
      </trkpt>
      <trkpt lat="45.09999" lon="2.72618">
        <ele>1588</ele>
        <time>2017-09-02T10:20:15Z</time>
      </trkpt>
      <trkpt lat="45.09996" lon="2.72624">
        <ele>1589</ele>
        <time>2017-09-02T10:20:20Z</time>
      </trkpt>
      <trkpt lat="45.09995" lon="2.72631">
        <ele>1590</ele>
        <time>2017-09-02T10:20:25Z</time>
      </trkpt>
      <trkpt lat="45.09992" lon="2.72636">
        <ele>1590</ele>
        <time>2017-09-02T10:20:31Z</time>
      </trkpt>
      <trkpt lat="45.09989" lon="2.72641">
        <ele>1591</ele>
        <time>2017-09-02T10:20:35Z</time>
      </trkpt>
      <trkpt lat="45.09988" lon="2.72649">
        <ele>1591</ele>
        <time>2017-09-02T10:20:39Z</time>
      </trkpt>
      <trkpt lat="45.09987" lon="2.72655">
        <ele>1592</ele>
        <time>2017-09-02T10:20:47Z</time>
      </trkpt>
      <trkpt lat="45.09986" lon="2.72662">
        <ele>1592</ele>
        <time>2017-09-02T10:20:51Z</time>
      </trkpt>
      <trkpt lat="45.09987" lon="2.72668">
        <ele>1593</ele>
        <time>2017-09-02T10:20:55Z</time>
      </trkpt>
      <trkpt lat="45.09984" lon="2.72673">
        <ele>1594</ele>
        <time>2017-09-02T10:21:00Z</time>
      </trkpt>
      <trkpt lat="45.09979" lon="2.72677">
        <ele>1595</ele>
        <time>2017-09-02T10:21:07Z</time>
      </trkpt>
      <trkpt lat="45.09976" lon="2.72681">
        <ele>1596</ele>
        <time>2017-09-02T10:21:11Z</time>
      </trkpt>
      <trkpt lat="45.09974" lon="2.72688">
        <ele>1597</ele>
        <time>2017-09-02T10:21:17Z</time>
      </trkpt>
      <trkpt lat="45.09973" lon="2.72695">
        <ele>1598</ele>
        <time>2017-09-02T10:21:23Z</time>
      </trkpt>
      <trkpt lat="45.0997" lon="2.727">
        <ele>1599</ele>
        <time>2017-09-02T10:21:29Z</time>
      </trkpt>
      <trkpt lat="45.09968" lon="2.72707">
        <ele>1600</ele>
        <time>2017-09-02T10:21:35Z</time>
      </trkpt>
      <trkpt lat="45.09965" lon="2.72713">
        <ele>1601</ele>
        <time>2017-09-02T10:21:40Z</time>
      </trkpt>
      <trkpt lat="45.09963" lon="2.72718">
        <ele>1602</ele>
        <time>2017-09-02T10:21:48Z</time>
      </trkpt>
      <trkpt lat="45.09961" lon="2.72725">
        <ele>1604</ele>
        <time>2017-09-02T10:21:54Z</time>
      </trkpt>
      <trkpt lat="45.09956" lon="2.72729">
        <ele>1604</ele>
        <time>2017-09-02T10:21:59Z</time>
      </trkpt>
      <trkpt lat="45.09959" lon="2.72736">
        <ele>1605</ele>
        <time>2017-09-02T10:22:05Z</time>
      </trkpt>
      <trkpt lat="45.09955" lon="2.7274">
        <ele>1606</ele>
        <time>2017-09-02T10:22:11Z</time>
      </trkpt>
      <trkpt lat="45.09952" lon="2.72747">
        <ele>1607</ele>
        <time>2017-09-02T10:22:17Z</time>
      </trkpt>
      <trkpt lat="45.09949" lon="2.72752">
        <ele>1608</ele>
        <time>2017-09-02T10:22:21Z</time>
      </trkpt>
      <trkpt lat="45.09946" lon="2.72759">
        <ele>1609</ele>
        <time>2017-09-02T10:22:28Z</time>
      </trkpt>
      <trkpt lat="45.09942" lon="2.72762">
        <ele>1610</ele>
        <time>2017-09-02T10:22:32Z</time>
      </trkpt>
      <trkpt lat="45.09937" lon="2.72765">
        <ele>1612</ele>
        <time>2017-09-02T10:22:38Z</time>
      </trkpt>
      <trkpt lat="45.09934" lon="2.7277">
        <ele>1613</ele>
        <time>2017-09-02T10:22:43Z</time>
      </trkpt>
      <trkpt lat="45.0993" lon="2.72775">
        <ele>1614</ele>
        <time>2017-09-02T10:22:48Z</time>
      </trkpt>
      <trkpt lat="45.0993" lon="2.72781">
        <ele>1615</ele>
        <time>2017-09-02T10:22:52Z</time>
      </trkpt>
      <trkpt lat="45.0993" lon="2.72788">
        <ele>1616</ele>
        <time>2017-09-02T10:22:58Z</time>
      </trkpt>
      <trkpt lat="45.09935" lon="2.72792">
        <ele>1618</ele>
        <time>2017-09-02T10:23:04Z</time>
      </trkpt>
      <trkpt lat="45.09937" lon="2.72798">
        <ele>1619</ele>
        <time>2017-09-02T10:23:09Z</time>
      </trkpt>
      <trkpt lat="45.0994" lon="2.72805">
        <ele>1621</ele>
        <time>2017-09-02T10:23:14Z</time>
      </trkpt>
      <trkpt lat="45.09941" lon="2.72812">
        <ele>1622</ele>
        <time>2017-09-02T10:23:18Z</time>
      </trkpt>
      <trkpt lat="45.09941" lon="2.72818">
        <ele>1624</ele>
        <time>2017-09-02T10:23:24Z</time>
      </trkpt>
      <trkpt lat="45.09945" lon="2.7282">
        <ele>1625</ele>
        <time>2017-09-02T10:23:41Z</time>
      </trkpt>
      <trkpt lat="45.09945" lon="2.72827">
        <ele>1627</ele>
        <time>2017-09-02T10:23:44Z</time>
      </trkpt>
      <trkpt lat="45.09945" lon="2.72833">
        <ele>1629</ele>
        <time>2017-09-02T10:23:56Z</time>
      </trkpt>
      <trkpt lat="45.09947" lon="2.72839">
        <ele>1631</ele>
        <time>2017-09-02T10:24:02Z</time>
      </trkpt>
      <trkpt lat="45.0995" lon="2.72845">
        <ele>1632</ele>
        <time>2017-09-02T10:24:08Z</time>
      </trkpt>
      <trkpt lat="45.09951" lon="2.72851">
        <ele>1633</ele>
        <time>2017-09-02T10:24:11Z</time>
      </trkpt>
      <trkpt lat="45.09955" lon="2.72855">
        <ele>1634</ele>
        <time>2017-09-02T10:24:15Z</time>
      </trkpt>
      <trkpt lat="45.09958" lon="2.7286">
        <ele>1633</ele>
        <time>2017-09-02T10:24:19Z</time>
      </trkpt>
      <trkpt lat="45.09961" lon="2.72866">
        <ele>1633</ele>
        <time>2017-09-02T10:24:24Z</time>
      </trkpt>
      <trkpt lat="45.09963" lon="2.72873">
        <ele>1632</ele>
        <time>2017-09-02T10:24:28Z</time>
      </trkpt>
      <trkpt lat="45.09964" lon="2.72879">
        <ele>1632</ele>
        <time>2017-09-02T10:24:32Z</time>
      </trkpt>
      <trkpt lat="45.09967" lon="2.72884">
        <ele>1631</ele>
        <time>2017-09-02T10:24:37Z</time>
      </trkpt>
      <trkpt lat="45.09971" lon="2.72889">
        <ele>1631</ele>
        <time>2017-09-02T10:24:43Z</time>
      </trkpt>
      <trkpt lat="45.09974" lon="2.72894">
        <ele>1631</ele>
        <time>2017-09-02T10:24:47Z</time>
      </trkpt>
      <trkpt lat="45.09977" lon="2.72901">
        <ele>1631</ele>
        <time>2017-09-02T10:24:58Z</time>
      </trkpt>
      <trkpt lat="45.0998" lon="2.72905">
        <ele>1630</ele>
        <time>2017-09-02T10:25:02Z</time>
      </trkpt>
      <trkpt lat="45.09985" lon="2.72909">
        <ele>1630</ele>
        <time>2017-09-02T10:25:07Z</time>
      </trkpt>
      <trkpt lat="45.0999" lon="2.72912">
        <ele>1630</ele>
        <time>2017-09-02T10:25:11Z</time>
      </trkpt>
      <trkpt lat="45.09993" lon="2.72916">
        <ele>1630</ele>
        <time>2017-09-02T10:25:15Z</time>
      </trkpt>
      <trkpt lat="45.09996" lon="2.72921">
        <ele>1629</ele>
        <time>2017-09-02T10:25:21Z</time>
      </trkpt>
      <trkpt lat="45.1" lon="2.72927">
        <ele>1628</ele>
        <time>2017-09-02T10:25:25Z</time>
      </trkpt>
      <trkpt lat="45.10004" lon="2.72931">
        <ele>1628</ele>
        <time>2017-09-02T10:25:30Z</time>
      </trkpt>
      <trkpt lat="45.10008" lon="2.72936">
        <ele>1628</ele>
        <time>2017-09-02T10:25:34Z</time>
      </trkpt>
      <trkpt lat="45.10012" lon="2.7294">
        <ele>1627</ele>
        <time>2017-09-02T10:25:38Z</time>
      </trkpt>
      <trkpt lat="45.10016" lon="2.72945">
        <ele>1627</ele>
        <time>2017-09-02T10:25:43Z</time>
      </trkpt>
      <trkpt lat="45.10019" lon="2.72949">
        <ele>1626</ele>
        <time>2017-09-02T10:25:47Z</time>
      </trkpt>
      <trkpt lat="45.10023" lon="2.72954">
        <ele>1625</ele>
        <time>2017-09-02T10:25:52Z</time>
      </trkpt>
      <trkpt lat="45.10028" lon="2.72957">
        <ele>1624</ele>
        <time>2017-09-02T10:25:56Z</time>
      </trkpt>
      <trkpt lat="45.10032" lon="2.72962">
        <ele>1623</ele>
        <time>2017-09-02T10:26:00Z</time>
      </trkpt>
      <trkpt lat="45.10035" lon="2.72965">
        <ele>1622</ele>
        <time>2017-09-02T10:26:05Z</time>
      </trkpt>
      <trkpt lat="45.10039" lon="2.72969">
        <ele>1621</ele>
        <time>2017-09-02T10:26:11Z</time>
      </trkpt>
      <trkpt lat="45.10043" lon="2.72974">
        <ele>1620</ele>
        <time>2017-09-02T10:26:16Z</time>
      </trkpt>
      <trkpt lat="45.10046" lon="2.7298">
        <ele>1620</ele>
        <time>2017-09-02T10:26:20Z</time>
      </trkpt>
      <trkpt lat="45.1005" lon="2.72984">
        <ele>1619</ele>
        <time>2017-09-02T10:26:25Z</time>
      </trkpt>
      <trkpt lat="45.10053" lon="2.7299">
        <ele>1618</ele>
        <time>2017-09-02T10:26:29Z</time>
      </trkpt>
      <trkpt lat="45.10057" lon="2.72994">
        <ele>1617</ele>
        <time>2017-09-02T10:26:33Z</time>
      </trkpt>
      <trkpt lat="45.1006" lon="2.73001">
        <ele>1617</ele>
        <time>2017-09-02T10:26:38Z</time>
      </trkpt>
      <trkpt lat="45.10064" lon="2.73006">
        <ele>1616</ele>
        <time>2017-09-02T10:26:43Z</time>
      </trkpt>
      <trkpt lat="45.10069" lon="2.7301">
        <ele>1616</ele>
        <time>2017-09-02T10:26:48Z</time>
      </trkpt>
      <trkpt lat="45.10072" lon="2.73015">
        <ele>1616</ele>
        <time>2017-09-02T10:26:51Z</time>
      </trkpt>
      <trkpt lat="45.10076" lon="2.73021">
        <ele>1616</ele>
        <time>2017-09-02T10:26:57Z</time>
      </trkpt>
      <trkpt lat="45.10079" lon="2.73026">
        <ele>1616</ele>
        <time>2017-09-02T10:27:03Z</time>
      </trkpt>
      <trkpt lat="45.10082" lon="2.73033">
        <ele>1616</ele>
        <time>2017-09-02T10:27:12Z</time>
      </trkpt>
      <trkpt lat="45.10084" lon="2.73039">
        <ele>1616</ele>
        <time>2017-09-02T10:27:19Z</time>
      </trkpt>
      <trkpt lat="45.10085" lon="2.73046">
        <ele>1617</ele>
        <time>2017-09-02T10:27:30Z</time>
      </trkpt>
      <trkpt lat="45.10085" lon="2.73052">
        <ele>1617</ele>
        <time>2017-09-02T10:27:37Z</time>
      </trkpt>
      <trkpt lat="45.10085" lon="2.7306">
        <ele>1618</ele>
        <time>2017-09-02T10:27:42Z</time>
      </trkpt>
      <trkpt lat="45.10085" lon="2.73067">
        <ele>1619</ele>
        <time>2017-09-02T10:27:49Z</time>
      </trkpt>
      <trkpt lat="45.10085" lon="2.73074">
        <ele>1619</ele>
        <time>2017-09-02T10:27:54Z</time>
      </trkpt>
      <trkpt lat="45.10085" lon="2.73081">
        <ele>1618</ele>
        <time>2017-09-02T10:28:00Z</time>
      </trkpt>
      <trkpt lat="45.10084" lon="2.73088">
        <ele>1618</ele>
        <time>2017-09-02T10:28:06Z</time>
      </trkpt>
      <trkpt lat="45.10083" lon="2.73095">
        <ele>1618</ele>
        <time>2017-09-02T10:28:12Z</time>
      </trkpt>
      <trkpt lat="45.10083" lon="2.73103">
        <ele>1618</ele>
        <time>2017-09-02T10:28:19Z</time>
      </trkpt>
      <trkpt lat="45.10085" lon="2.73109">
        <ele>1618</ele>
        <time>2017-09-02T10:28:24Z</time>
      </trkpt>
      <trkpt lat="45.10088" lon="2.73115">
        <ele>1618</ele>
        <time>2017-09-02T10:28:30Z</time>
      </trkpt>
      <trkpt lat="45.10088" lon="2.73121">
        <ele>1618</ele>
        <time>2017-09-02T10:28:35Z</time>
      </trkpt>
      <trkpt lat="45.10087" lon="2.73129">
        <ele>1618</ele>
        <time>2017-09-02T10:28:42Z</time>
      </trkpt>
      <trkpt lat="45.10091" lon="2.73134">
        <ele>1618</ele>
        <time>2017-09-02T10:28:49Z</time>
      </trkpt>
      <trkpt lat="45.10095" lon="2.73138">
        <ele>1619</ele>
        <time>2017-09-02T10:28:54Z</time>
      </trkpt>
      <trkpt lat="45.10097" lon="2.73143">
        <ele>1619</ele>
        <time>2017-09-02T10:29:00Z</time>
      </trkpt>
      <trkpt lat="45.10099" lon="2.7315">
        <ele>1619</ele>
        <time>2017-09-02T10:29:05Z</time>
      </trkpt>
      <trkpt lat="45.10103" lon="2.73154">
        <ele>1619</ele>
        <time>2017-09-02T10:29:10Z</time>
      </trkpt>
      <trkpt lat="45.10106" lon="2.73159">
        <ele>1620</ele>
        <time>2017-09-02T10:29:16Z</time>
      </trkpt>
      <trkpt lat="45.10107" lon="2.73165">
        <ele>1620</ele>
        <time>2017-09-02T10:29:21Z</time>
      </trkpt>
      <trkpt lat="45.1011" lon="2.73171">
        <ele>1620</ele>
        <time>2017-09-02T10:29:26Z</time>
      </trkpt>
      <trkpt lat="45.10109" lon="2.73178">
        <ele>1620</ele>
        <time>2017-09-02T10:29:31Z</time>
      </trkpt>
      <trkpt lat="45.10111" lon="2.73183">
        <ele>1621</ele>
        <time>2017-09-02T10:29:37Z</time>
      </trkpt>
      <trkpt lat="45.10114" lon="2.73189">
        <ele>1621</ele>
        <time>2017-09-02T10:29:41Z</time>
      </trkpt>
      <trkpt lat="45.10115" lon="2.73195">
        <ele>1622</ele>
        <time>2017-09-02T10:29:48Z</time>
      </trkpt>
      <trkpt lat="45.10115" lon="2.73202">
        <ele>1623</ele>
        <time>2017-09-02T10:29:55Z</time>
      </trkpt>
      <trkpt lat="45.10117" lon="2.73208">
        <ele>1623</ele>
        <time>2017-09-02T10:30:00Z</time>
      </trkpt>
      <trkpt lat="45.10117" lon="2.73215">
        <ele>1623</ele>
        <time>2017-09-02T10:30:07Z</time>
      </trkpt>
      <trkpt lat="45.10115" lon="2.73221">
        <ele>1623</ele>
        <time>2017-09-02T10:30:13Z</time>
      </trkpt>
      <trkpt lat="45.10118" lon="2.73226">
        <ele>1623</ele>
        <time>2017-09-02T10:30:19Z</time>
      </trkpt>
      <trkpt lat="45.10122" lon="2.7323">
        <ele>1624</ele>
        <time>2017-09-02T10:30:25Z</time>
      </trkpt>
      <trkpt lat="45.10123" lon="2.73237">
        <ele>1625</ele>
        <time>2017-09-02T10:30:32Z</time>
      </trkpt>
      <trkpt lat="45.10127" lon="2.73241">
        <ele>1626</ele>
        <time>2017-09-02T10:30:41Z</time>
      </trkpt>
      <trkpt lat="45.10126" lon="2.73247">
        <ele>1628</ele>
        <time>2017-09-02T10:30:59Z</time>
      </trkpt>
      <trkpt lat="45.10128" lon="2.73254">
        <ele>1631</ele>
        <time>2017-09-02T10:31:05Z</time>
      </trkpt>
      <trkpt lat="45.1013" lon="2.7326">
        <ele>1633</ele>
        <time>2017-09-02T10:31:14Z</time>
      </trkpt>
      <trkpt lat="45.1013" lon="2.73267">
        <ele>1634</ele>
        <time>2017-09-02T10:31:21Z</time>
      </trkpt>
      <trkpt lat="45.10133" lon="2.73272">
        <ele>1636</ele>
        <time>2017-09-02T10:31:27Z</time>
      </trkpt>
      <trkpt lat="45.10135" lon="2.73278">
        <ele>1636</ele>
        <time>2017-09-02T10:31:35Z</time>
      </trkpt>
      <trkpt lat="45.10137" lon="2.73284">
        <ele>1636</ele>
        <time>2017-09-02T10:31:43Z</time>
      </trkpt>
      <trkpt lat="45.10139" lon="2.73293">
        <ele>1637</ele>
        <time>2017-09-02T10:31:54Z</time>
      </trkpt>
      <trkpt lat="45.1014" lon="2.733">
        <ele>1637</ele>
        <time>2017-09-02T10:31:59Z</time>
      </trkpt>
      <trkpt lat="45.10143" lon="2.73305">
        <ele>1638</ele>
        <time>2017-09-02T10:32:05Z</time>
      </trkpt>
      <trkpt lat="45.10143" lon="2.73312">
        <ele>1638</ele>
        <time>2017-09-02T10:32:11Z</time>
      </trkpt>
      <trkpt lat="45.10145" lon="2.73319">
        <ele>1639</ele>
        <time>2017-09-02T10:32:20Z</time>
      </trkpt>
      <trkpt lat="45.10148" lon="2.73326">
        <ele>1640</ele>
        <time>2017-09-02T10:32:26Z</time>
      </trkpt>
      <trkpt lat="45.1015" lon="2.73332">
        <ele>1642</ele>
        <time>2017-09-02T10:32:30Z</time>
      </trkpt>
      <trkpt lat="45.10154" lon="2.73336">
        <ele>1643</ele>
        <time>2017-09-02T10:32:35Z</time>
      </trkpt>
      <trkpt lat="45.10155" lon="2.73342">
        <ele>1644</ele>
        <time>2017-09-02T10:32:41Z</time>
      </trkpt>
      <trkpt lat="45.10157" lon="2.73349">
        <ele>1645</ele>
        <time>2017-09-02T10:32:49Z</time>
      </trkpt>
      <trkpt lat="45.10159" lon="2.73355">
        <ele>1646</ele>
        <time>2017-09-02T10:32:55Z</time>
      </trkpt>
      <trkpt lat="45.10161" lon="2.73361">
        <ele>1647</ele>
        <time>2017-09-02T10:33:02Z</time>
      </trkpt>
      <trkpt lat="45.10163" lon="2.73368">
        <ele>1647</ele>
        <time>2017-09-02T10:33:09Z</time>
      </trkpt>
      <trkpt lat="45.10165" lon="2.73374">
        <ele>1649</ele>
        <time>2017-09-02T10:33:14Z</time>
      </trkpt>
      <trkpt lat="45.10168" lon="2.7338">
        <ele>1649</ele>
        <time>2017-09-02T10:33:20Z</time>
      </trkpt>
      <trkpt lat="45.10171" lon="2.73386">
        <ele>1650</ele>
        <time>2017-09-02T10:33:26Z</time>
      </trkpt>
      <trkpt lat="45.10175" lon="2.73392">
        <ele>1652</ele>
        <time>2017-09-02T10:33:31Z</time>
      </trkpt>
      <trkpt lat="45.1018" lon="2.73395">
        <ele>1653</ele>
        <time>2017-09-02T10:33:37Z</time>
      </trkpt>
      <trkpt lat="45.10184" lon="2.73399">
        <ele>1655</ele>
        <time>2017-09-02T10:33:43Z</time>
      </trkpt>
      <trkpt lat="45.10188" lon="2.73403">
        <ele>1656</ele>
        <time>2017-09-02T10:33:48Z</time>
      </trkpt>
      <trkpt lat="45.10193" lon="2.73405">
        <ele>1658</ele>
        <time>2017-09-02T10:33:53Z</time>
      </trkpt>
      <trkpt lat="45.10197" lon="2.7341">
        <ele>1660</ele>
        <time>2017-09-02T10:33:58Z</time>
      </trkpt>
      <trkpt lat="45.10199" lon="2.73415">
        <ele>1661</ele>
        <time>2017-09-02T10:34:03Z</time>
      </trkpt>
      <trkpt lat="45.10204" lon="2.73419">
        <ele>1662</ele>
        <time>2017-09-02T10:34:08Z</time>
      </trkpt>
      <trkpt lat="45.10208" lon="2.73423">
        <ele>1663</ele>
        <time>2017-09-02T10:34:12Z</time>
      </trkpt>
      <trkpt lat="45.10212" lon="2.73427">
        <ele>1664</ele>
        <time>2017-09-02T10:34:17Z</time>
      </trkpt>
      <trkpt lat="45.10217" lon="2.7343">
        <ele>1665</ele>
        <time>2017-09-02T10:34:23Z</time>
      </trkpt>
      <trkpt lat="45.10221" lon="2.73433">
        <ele>1666</ele>
        <time>2017-09-02T10:34:28Z</time>
      </trkpt>
      <trkpt lat="45.10225" lon="2.73436">
        <ele>1667</ele>
        <time>2017-09-02T10:34:33Z</time>
      </trkpt>
      <trkpt lat="45.1023" lon="2.73439">
        <ele>1668</ele>
        <time>2017-09-02T10:34:39Z</time>
      </trkpt>
      <trkpt lat="45.10233" lon="2.73443">
        <ele>1669</ele>
        <time>2017-09-02T10:34:44Z</time>
      </trkpt>
      <trkpt lat="45.10238" lon="2.73447">
        <ele>1670</ele>
        <time>2017-09-02T10:34:49Z</time>
      </trkpt>
      <trkpt lat="45.10243" lon="2.73449">
        <ele>1670</ele>
        <time>2017-09-02T10:34:54Z</time>
      </trkpt>
      <trkpt lat="45.10247" lon="2.73451">
        <ele>1671</ele>
        <time>2017-09-02T10:34:59Z</time>
      </trkpt>
      <trkpt lat="45.10252" lon="2.73454">
        <ele>1672</ele>
        <time>2017-09-02T10:35:04Z</time>
      </trkpt>
      <trkpt lat="45.10257" lon="2.73457">
        <ele>1672</ele>
        <time>2017-09-02T10:35:10Z</time>
      </trkpt>
      <trkpt lat="45.10262" lon="2.7346">
        <ele>1673</ele>
        <time>2017-09-02T10:35:16Z</time>
      </trkpt>
      <trkpt lat="45.10266" lon="2.73464">
        <ele>1674</ele>
        <time>2017-09-02T10:35:21Z</time>
      </trkpt>
      <trkpt lat="45.10271" lon="2.73467">
        <ele>1675</ele>
        <time>2017-09-02T10:35:26Z</time>
      </trkpt>
      <trkpt lat="45.10276" lon="2.7347">
        <ele>1676</ele>
        <time>2017-09-02T10:35:32Z</time>
      </trkpt>
      <trkpt lat="45.10281" lon="2.73472">
        <ele>1677</ele>
        <time>2017-09-02T10:35:37Z</time>
      </trkpt>
      <trkpt lat="45.10285" lon="2.73476">
        <ele>1678</ele>
        <time>2017-09-02T10:35:43Z</time>
      </trkpt>
      <trkpt lat="45.10289" lon="2.7348">
        <ele>1679</ele>
        <time>2017-09-02T10:35:49Z</time>
      </trkpt>
      <trkpt lat="45.10294" lon="2.73483">
        <ele>1679</ele>
        <time>2017-09-02T10:35:54Z</time>
      </trkpt>
      <trkpt lat="45.10298" lon="2.73485">
        <ele>1679</ele>
        <time>2017-09-02T10:35:59Z</time>
      </trkpt>
      <trkpt lat="45.10302" lon="2.73489">
        <ele>1680</ele>
        <time>2017-09-02T10:36:04Z</time>
      </trkpt>
      <trkpt lat="45.10305" lon="2.73494">
        <ele>1680</ele>
        <time>2017-09-02T10:36:09Z</time>
      </trkpt>
      <trkpt lat="45.10309" lon="2.735">
        <ele>1680</ele>
        <time>2017-09-02T10:36:14Z</time>
      </trkpt>
      <trkpt lat="45.10313" lon="2.73505">
        <ele>1680</ele>
        <time>2017-09-02T10:36:19Z</time>
      </trkpt>
      <trkpt lat="45.10318" lon="2.73509">
        <ele>1680</ele>
        <time>2017-09-02T10:36:24Z</time>
      </trkpt>
      <trkpt lat="45.10322" lon="2.73513">
        <ele>1680</ele>
        <time>2017-09-02T10:36:29Z</time>
      </trkpt>
      <trkpt lat="45.10326" lon="2.73519">
        <ele>1680</ele>
        <time>2017-09-02T10:36:34Z</time>
      </trkpt>
      <trkpt lat="45.10331" lon="2.73523">
        <ele>1680</ele>
        <time>2017-09-02T10:36:39Z</time>
      </trkpt>
      <trkpt lat="45.10335" lon="2.73526">
        <ele>1680</ele>
        <time>2017-09-02T10:36:43Z</time>
      </trkpt>
      <trkpt lat="45.1034" lon="2.7353">
        <ele>1680</ele>
        <time>2017-09-02T10:36:48Z</time>
      </trkpt>
      <trkpt lat="45.10344" lon="2.73535">
        <ele>1680</ele>
        <time>2017-09-02T10:36:53Z</time>
      </trkpt>
      <trkpt lat="45.10348" lon="2.73538">
        <ele>1680</ele>
        <time>2017-09-02T10:36:58Z</time>
      </trkpt>
      <trkpt lat="45.10353" lon="2.7354">
        <ele>1680</ele>
        <time>2017-09-02T10:37:03Z</time>
      </trkpt>
      <trkpt lat="45.10357" lon="2.73542">
        <ele>1680</ele>
        <time>2017-09-02T10:37:08Z</time>
      </trkpt>
      <trkpt lat="45.10362" lon="2.73544">
        <ele>1680</ele>
        <time>2017-09-02T10:37:13Z</time>
      </trkpt>
      <trkpt lat="45.10367" lon="2.73546">
        <ele>1680</ele>
        <time>2017-09-02T10:37:19Z</time>
      </trkpt>
      <trkpt lat="45.10371" lon="2.73547">
        <ele>1680</ele>
        <time>2017-09-02T10:37:23Z</time>
      </trkpt>
      <trkpt lat="45.10377" lon="2.7355">
        <ele>1680</ele>
        <time>2017-09-02T10:37:28Z</time>
      </trkpt>
      <trkpt lat="45.10383" lon="2.73551">
        <ele>1680</ele>
        <time>2017-09-02T10:37:34Z</time>
      </trkpt>
      <trkpt lat="45.10387" lon="2.73552">
        <ele>1679</ele>
        <time>2017-09-02T10:37:39Z</time>
      </trkpt>
      <trkpt lat="45.10392" lon="2.73553">
        <ele>1679</ele>
        <time>2017-09-02T10:37:43Z</time>
      </trkpt>
      <trkpt lat="45.10397" lon="2.73555">
        <ele>1679</ele>
        <time>2017-09-02T10:37:47Z</time>
      </trkpt>
      <trkpt lat="45.10401" lon="2.73556">
        <ele>1679</ele>
        <time>2017-09-02T10:37:51Z</time>
      </trkpt>
      <trkpt lat="45.10406" lon="2.73559">
        <ele>1679</ele>
        <time>2017-09-02T10:37:56Z</time>
      </trkpt>
      <trkpt lat="45.10409" lon="2.73564">
        <ele>1679</ele>
        <time>2017-09-02T10:38:02Z</time>
      </trkpt>
      <trkpt lat="45.10413" lon="2.73566">
        <ele>1679</ele>
        <time>2017-09-02T10:38:08Z</time>
      </trkpt>
      <trkpt lat="45.10417" lon="2.73571">
        <ele>1678</ele>
        <time>2017-09-02T10:38:14Z</time>
      </trkpt>
      <trkpt lat="45.10422" lon="2.73573">
        <ele>1677</ele>
        <time>2017-09-02T10:38:19Z</time>
      </trkpt>
      <trkpt lat="45.10427" lon="2.73575">
        <ele>1677</ele>
        <time>2017-09-02T10:38:23Z</time>
      </trkpt>
      <trkpt lat="45.10431" lon="2.73578">
        <ele>1676</ele>
        <time>2017-09-02T10:38:27Z</time>
      </trkpt>
      <trkpt lat="45.10435" lon="2.73582">
        <ele>1676</ele>
        <time>2017-09-02T10:38:32Z</time>
      </trkpt>
      <trkpt lat="45.1044" lon="2.73585">
        <ele>1675</ele>
        <time>2017-09-02T10:38:37Z</time>
      </trkpt>
      <trkpt lat="45.10444" lon="2.73589">
        <ele>1674</ele>
        <time>2017-09-02T10:38:42Z</time>
      </trkpt>
      <trkpt lat="45.10449" lon="2.73593">
        <ele>1673</ele>
        <time>2017-09-02T10:38:47Z</time>
      </trkpt>
      <trkpt lat="45.10453" lon="2.73597">
        <ele>1673</ele>
        <time>2017-09-02T10:38:52Z</time>
      </trkpt>
      <trkpt lat="45.10458" lon="2.736">
        <ele>1672</ele>
        <time>2017-09-02T10:38:56Z</time>
      </trkpt>
      <trkpt lat="45.10463" lon="2.73603">
        <ele>1672</ele>
        <time>2017-09-02T10:39:01Z</time>
      </trkpt>
      <trkpt lat="45.10468" lon="2.73606">
        <ele>1671</ele>
        <time>2017-09-02T10:39:06Z</time>
      </trkpt>
      <trkpt lat="45.10473" lon="2.73611">
        <ele>1671</ele>
        <time>2017-09-02T10:39:11Z</time>
      </trkpt>
      <trkpt lat="45.10477" lon="2.73611">
        <ele>1671</ele>
        <time>2017-09-02T10:39:16Z</time>
      </trkpt>
      <trkpt lat="45.10482" lon="2.73612">
        <ele>1670</ele>
        <time>2017-09-02T10:39:20Z</time>
      </trkpt>
      <trkpt lat="45.10487" lon="2.73612">
        <ele>1670</ele>
        <time>2017-09-02T10:39:25Z</time>
      </trkpt>
      <trkpt lat="45.10492" lon="2.73614">
        <ele>1670</ele>
        <time>2017-09-02T10:39:31Z</time>
      </trkpt>
      <trkpt lat="45.10497" lon="2.73617">
        <ele>1670</ele>
        <time>2017-09-02T10:39:38Z</time>
      </trkpt>
      <trkpt lat="45.10501" lon="2.7362">
        <ele>1669</ele>
        <time>2017-09-02T10:39:43Z</time>
      </trkpt>
      <trkpt lat="45.10505" lon="2.73624">
        <ele>1669</ele>
        <time>2017-09-02T10:39:47Z</time>
      </trkpt>
      <trkpt lat="45.1051" lon="2.73628">
        <ele>1669</ele>
        <time>2017-09-02T10:39:52Z</time>
      </trkpt>
      <trkpt lat="45.10515" lon="2.73629">
        <ele>1669</ele>
        <time>2017-09-02T10:39:57Z</time>
      </trkpt>
      <trkpt lat="45.10519" lon="2.73631">
        <ele>1669</ele>
        <time>2017-09-02T10:40:01Z</time>
      </trkpt>
      <trkpt lat="45.10524" lon="2.73633">
        <ele>1669</ele>
        <time>2017-09-02T10:40:05Z</time>
      </trkpt>
      <trkpt lat="45.10529" lon="2.73635">
        <ele>1668</ele>
        <time>2017-09-02T10:40:09Z</time>
      </trkpt>
      <trkpt lat="45.10534" lon="2.73635">
        <ele>1668</ele>
        <time>2017-09-02T10:40:14Z</time>
      </trkpt>
      <trkpt lat="45.10539" lon="2.73636">
        <ele>1668</ele>
        <time>2017-09-02T10:40:19Z</time>
      </trkpt>
      <trkpt lat="45.10544" lon="2.73639">
        <ele>1668</ele>
        <time>2017-09-02T10:40:24Z</time>
      </trkpt>
      <trkpt lat="45.10548" lon="2.73644">
        <ele>1668</ele>
        <time>2017-09-02T10:40:29Z</time>
      </trkpt>
      <trkpt lat="45.10552" lon="2.73646">
        <ele>1668</ele>
        <time>2017-09-02T10:40:33Z</time>
      </trkpt>
      <trkpt lat="45.10556" lon="2.7365">
        <ele>1668</ele>
        <time>2017-09-02T10:40:38Z</time>
      </trkpt>
      <trkpt lat="45.10561" lon="2.73654">
        <ele>1668</ele>
        <time>2017-09-02T10:40:43Z</time>
      </trkpt>
      <trkpt lat="45.10566" lon="2.73657">
        <ele>1668</ele>
        <time>2017-09-02T10:40:49Z</time>
      </trkpt>
      <trkpt lat="45.10569" lon="2.73661">
        <ele>1667</ele>
        <time>2017-09-02T10:41:14Z</time>
      </trkpt>
      <trkpt lat="45.10549" lon="2.73662">
        <ele>1665</ele>
        <time>2017-09-02T10:41:36Z</time>
      </trkpt>
      <trkpt lat="45.10562" lon="2.73658">
        <ele>1664</ele>
        <time>2017-09-02T10:43:00Z</time>
      </trkpt>
      <trkpt lat="45.10567" lon="2.73662">
        <ele>1665</ele>
        <time>2017-09-02T10:43:05Z</time>
      </trkpt>
      <trkpt lat="45.10571" lon="2.73667">
        <ele>1666</ele>
        <time>2017-09-02T10:43:09Z</time>
      </trkpt>
      <trkpt lat="45.10575" lon="2.73671">
        <ele>1664</ele>
        <time>2017-09-02T10:43:13Z</time>
      </trkpt>
      <trkpt lat="45.1058" lon="2.73675">
        <ele>1664</ele>
        <time>2017-09-02T10:43:17Z</time>
      </trkpt>
      <trkpt lat="45.10584" lon="2.73678">
        <ele>1665</ele>
        <time>2017-09-02T10:43:25Z</time>
      </trkpt>
      <trkpt lat="45.10588" lon="2.73681">
        <ele>1665</ele>
        <time>2017-09-02T10:43:31Z</time>
      </trkpt>
      <trkpt lat="45.10593" lon="2.73683">
        <ele>1665</ele>
        <time>2017-09-02T10:43:36Z</time>
      </trkpt>
      <trkpt lat="45.10596" lon="2.73679">
        <ele>1664</ele>
        <time>2017-09-02T10:43:42Z</time>
      </trkpt>
      <trkpt lat="45.10599" lon="2.73685">
        <ele>1663</ele>
        <time>2017-09-02T10:43:51Z</time>
      </trkpt>
      <trkpt lat="45.10601" lon="2.73692">
        <ele>1662</ele>
        <time>2017-09-02T10:43:56Z</time>
      </trkpt>
      <trkpt lat="45.10605" lon="2.73698">
        <ele>1661</ele>
        <time>2017-09-02T10:44:00Z</time>
      </trkpt>
      <trkpt lat="45.10608" lon="2.73702">
        <ele>1660</ele>
        <time>2017-09-02T10:44:04Z</time>
      </trkpt>
      <trkpt lat="45.10612" lon="2.73706">
        <ele>1660</ele>
        <time>2017-09-02T10:44:08Z</time>
      </trkpt>
      <trkpt lat="45.10617" lon="2.73709">
        <ele>1660</ele>
        <time>2017-09-02T10:44:12Z</time>
      </trkpt>
      <trkpt lat="45.10622" lon="2.73713">
        <ele>1660</ele>
        <time>2017-09-02T10:44:17Z</time>
      </trkpt>
      <trkpt lat="45.10627" lon="2.73716">
        <ele>1659</ele>
        <time>2017-09-02T10:44:21Z</time>
      </trkpt>
      <trkpt lat="45.10631" lon="2.7372">
        <ele>1659</ele>
        <time>2017-09-02T10:44:24Z</time>
      </trkpt>
      <trkpt lat="45.10637" lon="2.73723">
        <ele>1658</ele>
        <time>2017-09-02T10:44:28Z</time>
      </trkpt>
      <trkpt lat="45.10642" lon="2.73727">
        <ele>1658</ele>
        <time>2017-09-02T10:44:32Z</time>
      </trkpt>
      <trkpt lat="45.10648" lon="2.7373">
        <ele>1658</ele>
        <time>2017-09-02T10:44:35Z</time>
      </trkpt>
      <trkpt lat="45.10653" lon="2.73732">
        <ele>1658</ele>
        <time>2017-09-02T10:44:38Z</time>
      </trkpt>
      <trkpt lat="45.10658" lon="2.73734">
        <ele>1658</ele>
        <time>2017-09-02T10:44:41Z</time>
      </trkpt>
      <trkpt lat="45.10663" lon="2.73736">
        <ele>1658</ele>
        <time>2017-09-02T10:44:44Z</time>
      </trkpt>
      <trkpt lat="45.10667" lon="2.73737">
        <ele>1658</ele>
        <time>2017-09-02T10:44:47Z</time>
      </trkpt>
      <trkpt lat="45.10673" lon="2.73738">
        <ele>1658</ele>
        <time>2017-09-02T10:44:50Z</time>
      </trkpt>
      <trkpt lat="45.10678" lon="2.7374">
        <ele>1658</ele>
        <time>2017-09-02T10:44:53Z</time>
      </trkpt>
      <trkpt lat="45.10683" lon="2.73743">
        <ele>1658</ele>
        <time>2017-09-02T10:44:56Z</time>
      </trkpt>
      <trkpt lat="45.10687" lon="2.73745">
        <ele>1658</ele>
        <time>2017-09-02T10:44:58Z</time>
      </trkpt>
      <trkpt lat="45.10692" lon="2.73749">
        <ele>1658</ele>
        <time>2017-09-02T10:45:02Z</time>
      </trkpt>
      <trkpt lat="45.10697" lon="2.7375">
        <ele>1658</ele>
        <time>2017-09-02T10:45:06Z</time>
      </trkpt>
      <trkpt lat="45.10703" lon="2.73752">
        <ele>1657</ele>
        <time>2017-09-02T10:45:10Z</time>
      </trkpt>
      <trkpt lat="45.10708" lon="2.73751">
        <ele>1656</ele>
        <time>2017-09-02T10:45:13Z</time>
      </trkpt>
      <trkpt lat="45.10714" lon="2.73751">
        <ele>1656</ele>
        <time>2017-09-02T10:45:17Z</time>
      </trkpt>
      <trkpt lat="45.10719" lon="2.73751">
        <ele>1655</ele>
        <time>2017-09-02T10:45:21Z</time>
      </trkpt>
      <trkpt lat="45.10723" lon="2.73754">
        <ele>1654</ele>
        <time>2017-09-02T10:45:25Z</time>
      </trkpt>
      <trkpt lat="45.10728" lon="2.73754">
        <ele>1654</ele>
        <time>2017-09-02T10:45:29Z</time>
      </trkpt>
      <trkpt lat="45.10732" lon="2.73759">
        <ele>1653</ele>
        <time>2017-09-02T10:45:32Z</time>
      </trkpt>
      <trkpt lat="45.10736" lon="2.73763">
        <ele>1653</ele>
        <time>2017-09-02T10:45:35Z</time>
      </trkpt>
      <trkpt lat="45.10741" lon="2.73766">
        <ele>1652</ele>
        <time>2017-09-02T10:45:38Z</time>
      </trkpt>
      <trkpt lat="45.10746" lon="2.73769">
        <ele>1652</ele>
        <time>2017-09-02T10:45:42Z</time>
      </trkpt>
      <trkpt lat="45.1075" lon="2.73772">
        <ele>1652</ele>
        <time>2017-09-02T10:45:46Z</time>
      </trkpt>
      <trkpt lat="45.10755" lon="2.73774">
        <ele>1651</ele>
        <time>2017-09-02T10:45:50Z</time>
      </trkpt>
      <trkpt lat="45.10759" lon="2.73779">
        <ele>1650</ele>
        <time>2017-09-02T10:45:54Z</time>
      </trkpt>
      <trkpt lat="45.10764" lon="2.73781">
        <ele>1650</ele>
        <time>2017-09-02T10:45:59Z</time>
      </trkpt>
      <trkpt lat="45.10768" lon="2.73785">
        <ele>1649</ele>
        <time>2017-09-02T10:46:03Z</time>
      </trkpt>
      <trkpt lat="45.10773" lon="2.73788">
        <ele>1649</ele>
        <time>2017-09-02T10:46:07Z</time>
      </trkpt>
      <trkpt lat="45.10778" lon="2.7379">
        <ele>1648</ele>
        <time>2017-09-02T10:46:11Z</time>
      </trkpt>
      <trkpt lat="45.10783" lon="2.73793">
        <ele>1648</ele>
        <time>2017-09-02T10:46:15Z</time>
      </trkpt>
      <trkpt lat="45.10788" lon="2.73798">
        <ele>1648</ele>
        <time>2017-09-02T10:46:19Z</time>
      </trkpt>
      <trkpt lat="45.10793" lon="2.738">
        <ele>1648</ele>
        <time>2017-09-02T10:46:23Z</time>
      </trkpt>
      <trkpt lat="45.10798" lon="2.73802">
        <ele>1647</ele>
        <time>2017-09-02T10:46:27Z</time>
      </trkpt>
      <trkpt lat="45.10803" lon="2.73805">
        <ele>1646</ele>
        <time>2017-09-02T10:46:32Z</time>
      </trkpt>
      <trkpt lat="45.10807" lon="2.73807">
        <ele>1645</ele>
        <time>2017-09-02T10:46:37Z</time>
      </trkpt>
      <trkpt lat="45.10812" lon="2.73809">
        <ele>1644</ele>
        <time>2017-09-02T10:46:41Z</time>
      </trkpt>
      <trkpt lat="45.10816" lon="2.73812">
        <ele>1643</ele>
        <time>2017-09-02T10:46:46Z</time>
      </trkpt>
      <trkpt lat="45.1082" lon="2.73817">
        <ele>1641</ele>
        <time>2017-09-02T10:46:51Z</time>
      </trkpt>
      <trkpt lat="45.10826" lon="2.73818">
        <ele>1640</ele>
        <time>2017-09-02T10:46:55Z</time>
      </trkpt>
      <trkpt lat="45.10831" lon="2.7382">
        <ele>1640</ele>
        <time>2017-09-02T10:46:59Z</time>
      </trkpt>
      <trkpt lat="45.10835" lon="2.73823">
        <ele>1639</ele>
        <time>2017-09-02T10:47:03Z</time>
      </trkpt>
      <trkpt lat="45.1084" lon="2.73825">
        <ele>1637</ele>
        <time>2017-09-02T10:47:07Z</time>
      </trkpt>
      <trkpt lat="45.10844" lon="2.7383">
        <ele>1636</ele>
        <time>2017-09-02T10:47:11Z</time>
      </trkpt>
      <trkpt lat="45.10848" lon="2.73834">
        <ele>1635</ele>
        <time>2017-09-02T10:47:14Z</time>
      </trkpt>
      <trkpt lat="45.10853" lon="2.73835">
        <ele>1634</ele>
        <time>2017-09-02T10:47:18Z</time>
      </trkpt>
      <trkpt lat="45.10858" lon="2.73838">
        <ele>1633</ele>
        <time>2017-09-02T10:47:23Z</time>
      </trkpt>
      <trkpt lat="45.10864" lon="2.7384">
        <ele>1632</ele>
        <time>2017-09-02T10:47:28Z</time>
      </trkpt>
      <trkpt lat="45.10868" lon="2.73842">
        <ele>1630</ele>
        <time>2017-09-02T10:47:33Z</time>
      </trkpt>
      <trkpt lat="45.10873" lon="2.73844">
        <ele>1629</ele>
        <time>2017-09-02T10:47:39Z</time>
      </trkpt>
      <trkpt lat="45.10877" lon="2.73847">
        <ele>1628</ele>
        <time>2017-09-02T10:47:44Z</time>
      </trkpt>
      <trkpt lat="45.1088" lon="2.73851">
        <ele>1627</ele>
        <time>2017-09-02T10:47:49Z</time>
      </trkpt>
      <trkpt lat="45.10884" lon="2.73858">
        <ele>1625</ele>
        <time>2017-09-02T10:47:54Z</time>
      </trkpt>
      <trkpt lat="45.10887" lon="2.73863">
        <ele>1624</ele>
        <time>2017-09-02T10:47:59Z</time>
      </trkpt>
      <trkpt lat="45.10891" lon="2.73869">
        <ele>1623</ele>
        <time>2017-09-02T10:48:03Z</time>
      </trkpt>
      <trkpt lat="45.10893" lon="2.73875">
        <ele>1621</ele>
        <time>2017-09-02T10:48:06Z</time>
      </trkpt>
      <trkpt lat="45.10896" lon="2.73881">
        <ele>1619</ele>
        <time>2017-09-02T10:48:10Z</time>
      </trkpt>
      <trkpt lat="45.10899" lon="2.73886">
        <ele>1618</ele>
        <time>2017-09-02T10:48:14Z</time>
      </trkpt>
      <trkpt lat="45.10902" lon="2.73892">
        <ele>1616</ele>
        <time>2017-09-02T10:48:18Z</time>
      </trkpt>
      <trkpt lat="45.10904" lon="2.73899">
        <ele>1614</ele>
        <time>2017-09-02T10:48:36Z</time>
      </trkpt>
      <trkpt lat="45.10907" lon="2.73905">
        <ele>1613</ele>
        <time>2017-09-02T10:48:42Z</time>
      </trkpt>
      <trkpt lat="45.10909" lon="2.73911">
        <ele>1611</ele>
        <time>2017-09-02T10:48:46Z</time>
      </trkpt>
      <trkpt lat="45.1091" lon="2.73918">
        <ele>1610</ele>
        <time>2017-09-02T10:48:51Z</time>
      </trkpt>
      <trkpt lat="45.10913" lon="2.73924">
        <ele>1608</ele>
        <time>2017-09-02T10:48:57Z</time>
      </trkpt>
      <trkpt lat="45.10916" lon="2.7393">
        <ele>1607</ele>
        <time>2017-09-02T10:49:03Z</time>
      </trkpt>
      <trkpt lat="45.10919" lon="2.73936">
        <ele>1606</ele>
        <time>2017-09-02T10:49:08Z</time>
      </trkpt>
      <trkpt lat="45.10923" lon="2.7394">
        <ele>1605</ele>
        <time>2017-09-02T10:49:12Z</time>
      </trkpt>
      <trkpt lat="45.10925" lon="2.73945">
        <ele>1604</ele>
        <time>2017-09-02T10:49:16Z</time>
      </trkpt>
      <trkpt lat="45.10928" lon="2.73952">
        <ele>1602</ele>
        <time>2017-09-02T10:49:21Z</time>
      </trkpt>
      <trkpt lat="45.1093" lon="2.73958">
        <ele>1601</ele>
        <time>2017-09-02T10:49:26Z</time>
      </trkpt>
      <trkpt lat="45.10932" lon="2.73965">
        <ele>1600</ele>
        <time>2017-09-02T10:49:30Z</time>
      </trkpt>
      <trkpt lat="45.10936" lon="2.73969">
        <ele>1599</ele>
        <time>2017-09-02T10:49:34Z</time>
      </trkpt>
      <trkpt lat="45.10939" lon="2.73974">
        <ele>1598</ele>
        <time>2017-09-02T10:49:39Z</time>
      </trkpt>
      <trkpt lat="45.10942" lon="2.7398">
        <ele>1597</ele>
        <time>2017-09-02T10:49:48Z</time>
      </trkpt>
      <trkpt lat="45.10946" lon="2.73985">
        <ele>1595</ele>
        <time>2017-09-02T10:49:53Z</time>
      </trkpt>
      <trkpt lat="45.10949" lon="2.73992">
        <ele>1593</ele>
        <time>2017-09-02T10:49:58Z</time>
      </trkpt>
      <trkpt lat="45.10953" lon="2.73997">
        <ele>1591</ele>
        <time>2017-09-02T10:50:03Z</time>
      </trkpt>
      <trkpt lat="45.10956" lon="2.74002">
        <ele>1589</ele>
        <time>2017-09-02T10:50:07Z</time>
      </trkpt>
      <trkpt lat="45.10959" lon="2.74008">
        <ele>1587</ele>
        <time>2017-09-02T10:50:12Z</time>
      </trkpt>
      <trkpt lat="45.1096" lon="2.74015">
        <ele>1586</ele>
        <time>2017-09-02T10:50:17Z</time>
      </trkpt>
      <trkpt lat="45.10962" lon="2.74021">
        <ele>1585</ele>
        <time>2017-09-02T10:50:21Z</time>
      </trkpt>
      <trkpt lat="45.10964" lon="2.74029">
        <ele>1584</ele>
        <time>2017-09-02T10:50:25Z</time>
      </trkpt>
      <trkpt lat="45.10967" lon="2.74034">
        <ele>1582</ele>
        <time>2017-09-02T10:50:29Z</time>
      </trkpt>
      <trkpt lat="45.1097" lon="2.74041">
        <ele>1581</ele>
        <time>2017-09-02T10:50:34Z</time>
      </trkpt>
      <trkpt lat="45.10971" lon="2.74047">
        <ele>1579</ele>
        <time>2017-09-02T10:50:39Z</time>
      </trkpt>
      <trkpt lat="45.10973" lon="2.74054">
        <ele>1578</ele>
        <time>2017-09-02T10:50:43Z</time>
      </trkpt>
      <trkpt lat="45.10975" lon="2.74062">
        <ele>1576</ele>
        <time>2017-09-02T10:50:47Z</time>
      </trkpt>
      <trkpt lat="45.10975" lon="2.7407">
        <ele>1575</ele>
        <time>2017-09-02T10:50:52Z</time>
      </trkpt>
      <trkpt lat="45.10976" lon="2.74076">
        <ele>1573</ele>
        <time>2017-09-02T10:50:55Z</time>
      </trkpt>
      <trkpt lat="45.10978" lon="2.74084">
        <ele>1572</ele>
        <time>2017-09-02T10:50:59Z</time>
      </trkpt>
      <trkpt lat="45.10979" lon="2.74092">
        <ele>1571</ele>
        <time>2017-09-02T10:51:04Z</time>
      </trkpt>
      <trkpt lat="45.10983" lon="2.74099">
        <ele>1570</ele>
        <time>2017-09-02T10:51:08Z</time>
      </trkpt>
      <trkpt lat="45.10986" lon="2.74105">
        <ele>1569</ele>
        <time>2017-09-02T10:51:12Z</time>
      </trkpt>
      <trkpt lat="45.10989" lon="2.7411">
        <ele>1568</ele>
        <time>2017-09-02T10:51:16Z</time>
      </trkpt>
      <trkpt lat="45.10992" lon="2.74117">
        <ele>1567</ele>
        <time>2017-09-02T10:51:21Z</time>
      </trkpt>
      <trkpt lat="45.10995" lon="2.74123">
        <ele>1567</ele>
        <time>2017-09-02T10:51:25Z</time>
      </trkpt>
      <trkpt lat="45.10995" lon="2.74131">
        <ele>1566</ele>
        <time>2017-09-02T10:51:30Z</time>
      </trkpt>
      <trkpt lat="45.10997" lon="2.74138">
        <ele>1566</ele>
        <time>2017-09-02T10:51:34Z</time>
      </trkpt>
      <trkpt lat="45.10999" lon="2.74144">
        <ele>1565</ele>
        <time>2017-09-02T10:51:37Z</time>
      </trkpt>
      <trkpt lat="45.11002" lon="2.74151">
        <ele>1565</ele>
        <time>2017-09-02T10:51:41Z</time>
      </trkpt>
      <trkpt lat="45.11003" lon="2.74158">
        <ele>1564</ele>
        <time>2017-09-02T10:51:45Z</time>
      </trkpt>
      <trkpt lat="45.11004" lon="2.74165">
        <ele>1563</ele>
        <time>2017-09-02T10:51:48Z</time>
      </trkpt>
      <trkpt lat="45.11006" lon="2.74171">
        <ele>1563</ele>
        <time>2017-09-02T10:51:52Z</time>
      </trkpt>
      <trkpt lat="45.11007" lon="2.74178">
        <ele>1562</ele>
        <time>2017-09-02T10:51:56Z</time>
      </trkpt>
      <trkpt lat="45.1101" lon="2.74184">
        <ele>1562</ele>
        <time>2017-09-02T10:52:00Z</time>
      </trkpt>
      <trkpt lat="45.11012" lon="2.7419">
        <ele>1562</ele>
        <time>2017-09-02T10:52:04Z</time>
      </trkpt>
      <trkpt lat="45.11013" lon="2.74197">
        <ele>1561</ele>
        <time>2017-09-02T10:52:09Z</time>
      </trkpt>
      <trkpt lat="45.11015" lon="2.74204">
        <ele>1561</ele>
        <time>2017-09-02T10:52:14Z</time>
      </trkpt>
      <trkpt lat="45.11018" lon="2.74211">
        <ele>1561</ele>
        <time>2017-09-02T10:52:20Z</time>
      </trkpt>
      <trkpt lat="45.1102" lon="2.74217">
        <ele>1560</ele>
        <time>2017-09-02T10:52:25Z</time>
      </trkpt>
      <trkpt lat="45.11021" lon="2.74224">
        <ele>1560</ele>
        <time>2017-09-02T10:52:30Z</time>
      </trkpt>
      <trkpt lat="45.11023" lon="2.7423">
        <ele>1559</ele>
        <time>2017-09-02T10:52:39Z</time>
      </trkpt>
      <trkpt lat="45.11025" lon="2.74236">
        <ele>1558</ele>
        <time>2017-09-02T10:52:48Z</time>
      </trkpt>
      <trkpt lat="45.11026" lon="2.74243">
        <ele>1557</ele>
        <time>2017-09-02T10:52:53Z</time>
      </trkpt>
      <trkpt lat="45.11028" lon="2.7425">
        <ele>1556</ele>
        <time>2017-09-02T10:52:58Z</time>
      </trkpt>
      <trkpt lat="45.11029" lon="2.74257">
        <ele>1554</ele>
        <time>2017-09-02T10:53:02Z</time>
      </trkpt>
      <trkpt lat="45.11029" lon="2.74265">
        <ele>1553</ele>
        <time>2017-09-02T10:53:06Z</time>
      </trkpt>
      <trkpt lat="45.11031" lon="2.74272">
        <ele>1552</ele>
        <time>2017-09-02T10:53:09Z</time>
      </trkpt>
      <trkpt lat="45.11031" lon="2.7428">
        <ele>1551</ele>
        <time>2017-09-02T10:53:13Z</time>
      </trkpt>
      <trkpt lat="45.11033" lon="2.74286">
        <ele>1549</ele>
        <time>2017-09-02T10:53:17Z</time>
      </trkpt>
      <trkpt lat="45.11034" lon="2.74293">
        <ele>1548</ele>
        <time>2017-09-02T10:53:21Z</time>
      </trkpt>
      <trkpt lat="45.11035" lon="2.74301">
        <ele>1547</ele>
        <time>2017-09-02T10:53:26Z</time>
      </trkpt>
      <trkpt lat="45.11036" lon="2.74308">
        <ele>1545</ele>
        <time>2017-09-02T10:53:29Z</time>
      </trkpt>
      <trkpt lat="45.11037" lon="2.74315">
        <ele>1544</ele>
        <time>2017-09-02T10:53:33Z</time>
      </trkpt>
      <trkpt lat="45.11037" lon="2.74321">
        <ele>1543</ele>
        <time>2017-09-02T10:53:36Z</time>
      </trkpt>
      <trkpt lat="45.11038" lon="2.74329">
        <ele>1541</ele>
        <time>2017-09-02T10:53:40Z</time>
      </trkpt>
      <trkpt lat="45.11038" lon="2.74336">
        <ele>1541</ele>
        <time>2017-09-02T10:53:44Z</time>
      </trkpt>
      <trkpt lat="45.11039" lon="2.74342">
        <ele>1540</ele>
        <time>2017-09-02T10:53:47Z</time>
      </trkpt>
      <trkpt lat="45.11041" lon="2.7435">
        <ele>1540</ele>
        <time>2017-09-02T10:53:52Z</time>
      </trkpt>
      <trkpt lat="45.11041" lon="2.74357">
        <ele>1540</ele>
        <time>2017-09-02T10:53:56Z</time>
      </trkpt>
      <trkpt lat="45.11042" lon="2.74364">
        <ele>1539</ele>
        <time>2017-09-02T10:54:00Z</time>
      </trkpt>
      <trkpt lat="45.11043" lon="2.74371">
        <ele>1539</ele>
        <time>2017-09-02T10:54:03Z</time>
      </trkpt>
      <trkpt lat="45.11044" lon="2.74379">
        <ele>1538</ele>
        <time>2017-09-02T10:54:07Z</time>
      </trkpt>
      <trkpt lat="45.11044" lon="2.74387">
        <ele>1537</ele>
        <time>2017-09-02T10:54:12Z</time>
      </trkpt>
      <trkpt lat="45.11046" lon="2.74393">
        <ele>1537</ele>
        <time>2017-09-02T10:54:15Z</time>
      </trkpt>
      <trkpt lat="45.11046" lon="2.744">
        <ele>1536</ele>
        <time>2017-09-02T10:54:20Z</time>
      </trkpt>
      <trkpt lat="45.11047" lon="2.74407">
        <ele>1536</ele>
        <time>2017-09-02T10:54:24Z</time>
      </trkpt>
      <trkpt lat="45.1105" lon="2.74414">
        <ele>1535</ele>
        <time>2017-09-02T10:54:29Z</time>
      </trkpt>
      <trkpt lat="45.11054" lon="2.74418">
        <ele>1535</ele>
        <time>2017-09-02T10:54:33Z</time>
      </trkpt>
      <trkpt lat="45.11057" lon="2.74424">
        <ele>1534</ele>
        <time>2017-09-02T10:54:37Z</time>
      </trkpt>
      <trkpt lat="45.11061" lon="2.74429">
        <ele>1533</ele>
        <time>2017-09-02T10:54:41Z</time>
      </trkpt>
      <trkpt lat="45.11065" lon="2.74435">
        <ele>1533</ele>
        <time>2017-09-02T10:54:45Z</time>
      </trkpt>
      <trkpt lat="45.11069" lon="2.74441">
        <ele>1532</ele>
        <time>2017-09-02T10:54:50Z</time>
      </trkpt>
      <trkpt lat="45.11073" lon="2.74446">
        <ele>1531</ele>
        <time>2017-09-02T10:54:54Z</time>
      </trkpt>
      <trkpt lat="45.11077" lon="2.74451">
        <ele>1531</ele>
        <time>2017-09-02T10:54:58Z</time>
      </trkpt>
      <trkpt lat="45.11081" lon="2.74456">
        <ele>1530</ele>
        <time>2017-09-02T10:55:02Z</time>
      </trkpt>
      <trkpt lat="45.11086" lon="2.7446">
        <ele>1529</ele>
        <time>2017-09-02T10:55:06Z</time>
      </trkpt>
      <trkpt lat="45.11089" lon="2.74466">
        <ele>1528</ele>
        <time>2017-09-02T10:55:11Z</time>
      </trkpt>
      <trkpt lat="45.11092" lon="2.74472">
        <ele>1528</ele>
        <time>2017-09-02T10:55:15Z</time>
      </trkpt>
      <trkpt lat="45.11095" lon="2.74479">
        <ele>1527</ele>
        <time>2017-09-02T10:55:19Z</time>
      </trkpt>
      <trkpt lat="45.11098" lon="2.74484">
        <ele>1527</ele>
        <time>2017-09-02T10:55:23Z</time>
      </trkpt>
      <trkpt lat="45.11102" lon="2.74489">
        <ele>1526</ele>
        <time>2017-09-02T10:55:27Z</time>
      </trkpt>
      <trkpt lat="45.11107" lon="2.74494">
        <ele>1525</ele>
        <time>2017-09-02T10:55:31Z</time>
      </trkpt>
      <trkpt lat="45.1111" lon="2.74498">
        <ele>1524</ele>
        <time>2017-09-02T10:55:34Z</time>
      </trkpt>
      <trkpt lat="45.11115" lon="2.745">
        <ele>1523</ele>
        <time>2017-09-02T10:55:37Z</time>
      </trkpt>
      <trkpt lat="45.1112" lon="2.74503">
        <ele>1523</ele>
        <time>2017-09-02T10:55:41Z</time>
      </trkpt>
      <trkpt lat="45.11124" lon="2.74508">
        <ele>1522</ele>
        <time>2017-09-02T10:55:45Z</time>
      </trkpt>
      <trkpt lat="45.11129" lon="2.74512">
        <ele>1521</ele>
        <time>2017-09-02T10:55:49Z</time>
      </trkpt>
      <trkpt lat="45.11133" lon="2.74517">
        <ele>1521</ele>
        <time>2017-09-02T10:55:53Z</time>
      </trkpt>
      <trkpt lat="45.11138" lon="2.74521">
        <ele>1520</ele>
        <time>2017-09-02T10:55:57Z</time>
      </trkpt>
      <trkpt lat="45.11142" lon="2.74525">
        <ele>1520</ele>
        <time>2017-09-02T10:56:01Z</time>
      </trkpt>
      <trkpt lat="45.11146" lon="2.74529">
        <ele>1519</ele>
        <time>2017-09-02T10:56:05Z</time>
      </trkpt>
      <trkpt lat="45.1115" lon="2.74533">
        <ele>1519</ele>
        <time>2017-09-02T10:56:09Z</time>
      </trkpt>
      <trkpt lat="45.11154" lon="2.74538">
        <ele>1518</ele>
        <time>2017-09-02T10:56:13Z</time>
      </trkpt>
      <trkpt lat="45.11158" lon="2.74543">
        <ele>1517</ele>
        <time>2017-09-02T10:56:17Z</time>
      </trkpt>
      <trkpt lat="45.11163" lon="2.74547">
        <ele>1516</ele>
        <time>2017-09-02T10:56:21Z</time>
      </trkpt>
      <trkpt lat="45.11168" lon="2.74552">
        <ele>1516</ele>
        <time>2017-09-02T10:56:25Z</time>
      </trkpt>
      <trkpt lat="45.11171" lon="2.74556">
        <ele>1515</ele>
        <time>2017-09-02T10:56:28Z</time>
      </trkpt>
      <trkpt lat="45.11176" lon="2.7456">
        <ele>1514</ele>
        <time>2017-09-02T10:56:32Z</time>
      </trkpt>
      <trkpt lat="45.11181" lon="2.74564">
        <ele>1514</ele>
        <time>2017-09-02T10:56:36Z</time>
      </trkpt>
      <trkpt lat="45.11186" lon="2.74568">
        <ele>1513</ele>
        <time>2017-09-02T10:56:40Z</time>
      </trkpt>
      <trkpt lat="45.1119" lon="2.74571">
        <ele>1512</ele>
        <time>2017-09-02T10:56:44Z</time>
      </trkpt>
      <trkpt lat="45.11194" lon="2.74576">
        <ele>1511</ele>
        <time>2017-09-02T10:56:48Z</time>
      </trkpt>
      <trkpt lat="45.11198" lon="2.7458">
        <ele>1510</ele>
        <time>2017-09-02T10:56:51Z</time>
      </trkpt>
      <trkpt lat="45.11202" lon="2.74584">
        <ele>1510</ele>
        <time>2017-09-02T10:56:55Z</time>
      </trkpt>
      <trkpt lat="45.11206" lon="2.74587">
        <ele>1509</ele>
        <time>2017-09-02T10:56:58Z</time>
      </trkpt>
      <trkpt lat="45.11211" lon="2.74589">
        <ele>1509</ele>
        <time>2017-09-02T10:57:02Z</time>
      </trkpt>
      <trkpt lat="45.11216" lon="2.74591">
        <ele>1508</ele>
        <time>2017-09-02T10:57:05Z</time>
      </trkpt>
      <trkpt lat="45.11221" lon="2.74593">
        <ele>1508</ele>
        <time>2017-09-02T10:57:09Z</time>
      </trkpt>
      <trkpt lat="45.11226" lon="2.74597">
        <ele>1508</ele>
        <time>2017-09-02T10:57:13Z</time>
      </trkpt>
      <trkpt lat="45.1123" lon="2.74599">
        <ele>1508</ele>
        <time>2017-09-02T10:57:17Z</time>
      </trkpt>
      <trkpt lat="45.11235" lon="2.74603">
        <ele>1508</ele>
        <time>2017-09-02T10:57:21Z</time>
      </trkpt>
      <trkpt lat="45.1124" lon="2.74606">
        <ele>1508</ele>
        <time>2017-09-02T10:57:25Z</time>
      </trkpt>
      <trkpt lat="45.11244" lon="2.74609">
        <ele>1508</ele>
        <time>2017-09-02T10:57:29Z</time>
      </trkpt>
      <trkpt lat="45.11249" lon="2.74612">
        <ele>1508</ele>
        <time>2017-09-02T10:57:33Z</time>
      </trkpt>
      <trkpt lat="45.11253" lon="2.74615">
        <ele>1508</ele>
        <time>2017-09-02T10:57:37Z</time>
      </trkpt>
      <trkpt lat="45.11257" lon="2.74618">
        <ele>1508</ele>
        <time>2017-09-02T10:57:41Z</time>
      </trkpt>
      <trkpt lat="45.11262" lon="2.74622">
        <ele>1508</ele>
        <time>2017-09-02T10:57:44Z</time>
      </trkpt>
      <trkpt lat="45.11266" lon="2.74626">
        <ele>1508</ele>
        <time>2017-09-02T10:57:48Z</time>
      </trkpt>
      <trkpt lat="45.11269" lon="2.74631">
        <ele>1508</ele>
        <time>2017-09-02T10:57:51Z</time>
      </trkpt>
      <trkpt lat="45.11274" lon="2.74634">
        <ele>1508</ele>
        <time>2017-09-02T10:57:55Z</time>
      </trkpt>
      <trkpt lat="45.11277" lon="2.74638">
        <ele>1507</ele>
        <time>2017-09-02T10:57:59Z</time>
      </trkpt>
      <trkpt lat="45.11282" lon="2.74641">
        <ele>1507</ele>
        <time>2017-09-02T10:58:02Z</time>
      </trkpt>
      <trkpt lat="45.11287" lon="2.74646">
        <ele>1507</ele>
        <time>2017-09-02T10:58:06Z</time>
      </trkpt>
      <trkpt lat="45.11291" lon="2.7465">
        <ele>1507</ele>
        <time>2017-09-02T10:58:10Z</time>
      </trkpt>
      <trkpt lat="45.11296" lon="2.74651">
        <ele>1507</ele>
        <time>2017-09-02T10:58:15Z</time>
      </trkpt>
      <trkpt lat="45.113" lon="2.74654">
        <ele>1507</ele>
        <time>2017-09-02T10:58:19Z</time>
      </trkpt>
      <trkpt lat="45.11306" lon="2.74657">
        <ele>1507</ele>
        <time>2017-09-02T10:58:24Z</time>
      </trkpt>
      <trkpt lat="45.11311" lon="2.7466">
        <ele>1507</ele>
        <time>2017-09-02T10:58:28Z</time>
      </trkpt>
      <trkpt lat="45.11315" lon="2.74665">
        <ele>1508</ele>
        <time>2017-09-02T10:58:32Z</time>
      </trkpt>
      <trkpt lat="45.1132" lon="2.74668">
        <ele>1508</ele>
        <time>2017-09-02T10:58:37Z</time>
      </trkpt>
      <trkpt lat="45.11324" lon="2.74673">
        <ele>1508</ele>
        <time>2017-09-02T10:58:42Z</time>
      </trkpt>
      <trkpt lat="45.11329" lon="2.74677">
        <ele>1509</ele>
        <time>2017-09-02T10:58:46Z</time>
      </trkpt>
      <trkpt lat="45.11334" lon="2.7468">
        <ele>1510</ele>
        <time>2017-09-02T10:58:50Z</time>
      </trkpt>
      <trkpt lat="45.11337" lon="2.74685">
        <ele>1510</ele>
        <time>2017-09-02T10:58:54Z</time>
      </trkpt>
      <trkpt lat="45.11342" lon="2.74689">
        <ele>1511</ele>
        <time>2017-09-02T10:59:00Z</time>
      </trkpt>
      <trkpt lat="45.11347" lon="2.74693">
        <ele>1512</ele>
        <time>2017-09-02T10:59:04Z</time>
      </trkpt>
      <trkpt lat="45.11351" lon="2.74698">
        <ele>1512</ele>
        <time>2017-09-02T10:59:08Z</time>
      </trkpt>
      <trkpt lat="45.11355" lon="2.74701">
        <ele>1513</ele>
        <time>2017-09-02T10:59:12Z</time>
      </trkpt>
      <trkpt lat="45.11359" lon="2.74705">
        <ele>1513</ele>
        <time>2017-09-02T10:59:16Z</time>
      </trkpt>
      <trkpt lat="45.11364" lon="2.74708">
        <ele>1514</ele>
        <time>2017-09-02T10:59:20Z</time>
      </trkpt>
      <trkpt lat="45.11368" lon="2.74712">
        <ele>1514</ele>
        <time>2017-09-02T10:59:25Z</time>
      </trkpt>
      <trkpt lat="45.11372" lon="2.74715">
        <ele>1515</ele>
        <time>2017-09-02T10:59:29Z</time>
      </trkpt>
      <trkpt lat="45.11378" lon="2.74717">
        <ele>1515</ele>
        <time>2017-09-02T10:59:35Z</time>
      </trkpt>
      <trkpt lat="45.11382" lon="2.74721">
        <ele>1516</ele>
        <time>2017-09-02T10:59:40Z</time>
      </trkpt>
      <trkpt lat="45.11387" lon="2.74725">
        <ele>1516</ele>
        <time>2017-09-02T10:59:45Z</time>
      </trkpt>
      <trkpt lat="45.11391" lon="2.74728">
        <ele>1517</ele>
        <time>2017-09-02T10:59:49Z</time>
      </trkpt>
      <trkpt lat="45.11395" lon="2.74732">
        <ele>1518</ele>
        <time>2017-09-02T10:59:53Z</time>
      </trkpt>
      <trkpt lat="45.11398" lon="2.74737">
        <ele>1519</ele>
        <time>2017-09-02T10:59:58Z</time>
      </trkpt>
      <trkpt lat="45.11401" lon="2.74744">
        <ele>1520</ele>
        <time>2017-09-02T11:00:04Z</time>
      </trkpt>
      <trkpt lat="45.11404" lon="2.7475">
        <ele>1520</ele>
        <time>2017-09-02T11:00:09Z</time>
      </trkpt>
      <trkpt lat="45.11407" lon="2.74756">
        <ele>1521</ele>
        <time>2017-09-02T11:00:14Z</time>
      </trkpt>
      <trkpt lat="45.11412" lon="2.7476">
        <ele>1521</ele>
        <time>2017-09-02T11:00:20Z</time>
      </trkpt>
      <trkpt lat="45.11417" lon="2.7476">
        <ele>1522</ele>
        <time>2017-09-02T11:00:27Z</time>
      </trkpt>
      <trkpt lat="45.11422" lon="2.74759">
        <ele>1524</ele>
        <time>2017-09-02T11:00:33Z</time>
      </trkpt>
      <trkpt lat="45.11426" lon="2.74763">
        <ele>1525</ele>
        <time>2017-09-02T11:00:40Z</time>
      </trkpt>
      <trkpt lat="45.11431" lon="2.74766">
        <ele>1526</ele>
        <time>2017-09-02T11:00:46Z</time>
      </trkpt>
      <trkpt lat="45.11435" lon="2.7477">
        <ele>1527</ele>
        <time>2017-09-02T11:00:52Z</time>
      </trkpt>
      <trkpt lat="45.11436" lon="2.74776">
        <ele>1529</ele>
        <time>2017-09-02T11:00:58Z</time>
      </trkpt>
      <trkpt lat="45.11432" lon="2.74782">
        <ele>1530</ele>
        <time>2017-09-02T11:01:02Z</time>
      </trkpt>
      <trkpt lat="45.1143" lon="2.74788">
        <ele>1530</ele>
        <time>2017-09-02T11:01:11Z</time>
      </trkpt>
      <trkpt lat="45.1143" lon="2.74794">
        <ele>1532</ele>
        <time>2017-09-02T11:01:16Z</time>
      </trkpt>
      <trkpt lat="45.11432" lon="2.748">
        <ele>1533</ele>
        <time>2017-09-02T11:01:23Z</time>
      </trkpt>
      <trkpt lat="45.11435" lon="2.74805">
        <ele>1534</ele>
        <time>2017-09-02T11:01:30Z</time>
      </trkpt>
      <trkpt lat="45.11435" lon="2.74812">
        <ele>1535</ele>
        <time>2017-09-02T11:01:35Z</time>
      </trkpt>
      <trkpt lat="45.11438" lon="2.74817">
        <ele>1536</ele>
        <time>2017-09-02T11:01:44Z</time>
      </trkpt>
      <trkpt lat="45.11442" lon="2.74823">
        <ele>1537</ele>
        <time>2017-09-02T11:01:50Z</time>
      </trkpt>
      <trkpt lat="45.11446" lon="2.74826">
        <ele>1539</ele>
        <time>2017-09-02T11:01:55Z</time>
      </trkpt>
      <trkpt lat="45.1145" lon="2.7483">
        <ele>1540</ele>
        <time>2017-09-02T11:01:59Z</time>
      </trkpt>
      <trkpt lat="45.11453" lon="2.74836">
        <ele>1542</ele>
        <time>2017-09-02T11:02:04Z</time>
      </trkpt>
      <trkpt lat="45.11454" lon="2.74843">
        <ele>1542</ele>
        <time>2017-09-02T11:02:09Z</time>
      </trkpt>
      <trkpt lat="45.11455" lon="2.74851">
        <ele>1543</ele>
        <time>2017-09-02T11:02:14Z</time>
      </trkpt>
      <trkpt lat="45.11457" lon="2.74858">
        <ele>1543</ele>
        <time>2017-09-02T11:02:19Z</time>
      </trkpt>
      <trkpt lat="45.1146" lon="2.74864">
        <ele>1544</ele>
        <time>2017-09-02T11:02:23Z</time>
      </trkpt>
      <trkpt lat="45.11464" lon="2.74868">
        <ele>1544</ele>
        <time>2017-09-02T11:02:27Z</time>
      </trkpt>
      <trkpt lat="45.11466" lon="2.74874">
        <ele>1545</ele>
        <time>2017-09-02T11:02:32Z</time>
      </trkpt>
      <trkpt lat="45.11469" lon="2.7488">
        <ele>1545</ele>
        <time>2017-09-02T11:02:38Z</time>
      </trkpt>
      <trkpt lat="45.11471" lon="2.74886">
        <ele>1546</ele>
        <time>2017-09-02T11:02:46Z</time>
      </trkpt>
      <trkpt lat="45.11473" lon="2.74892">
        <ele>1547</ele>
        <time>2017-09-02T11:02:52Z</time>
      </trkpt>
      <trkpt lat="45.11476" lon="2.74897">
        <ele>1548</ele>
        <time>2017-09-02T11:02:56Z</time>
      </trkpt>
      <trkpt lat="45.1148" lon="2.74904">
        <ele>1549</ele>
        <time>2017-09-02T11:03:02Z</time>
      </trkpt>
      <trkpt lat="45.11481" lon="2.74911">
        <ele>1550</ele>
        <time>2017-09-02T11:03:07Z</time>
      </trkpt>
      <trkpt lat="45.11483" lon="2.74918">
        <ele>1551</ele>
        <time>2017-09-02T11:03:12Z</time>
      </trkpt>
      <trkpt lat="45.11485" lon="2.74926">
        <ele>1552</ele>
        <time>2017-09-02T11:03:16Z</time>
      </trkpt>
      <trkpt lat="45.11487" lon="2.74933">
        <ele>1553</ele>
        <time>2017-09-02T11:03:22Z</time>
      </trkpt>
      <trkpt lat="45.1149" lon="2.74939">
        <ele>1554</ele>
        <time>2017-09-02T11:03:27Z</time>
      </trkpt>
      <trkpt lat="45.11493" lon="2.74945">
        <ele>1555</ele>
        <time>2017-09-02T11:03:32Z</time>
      </trkpt>
      <trkpt lat="45.11496" lon="2.74951">
        <ele>1556</ele>
        <time>2017-09-02T11:03:37Z</time>
      </trkpt>
      <trkpt lat="45.11501" lon="2.74955">
        <ele>1557</ele>
        <time>2017-09-02T11:03:41Z</time>
      </trkpt>
      <trkpt lat="45.11505" lon="2.7496">
        <ele>1559</ele>
        <time>2017-09-02T11:03:45Z</time>
      </trkpt>
      <trkpt lat="45.11509" lon="2.74964">
        <ele>1560</ele>
        <time>2017-09-02T11:03:49Z</time>
      </trkpt>
      <trkpt lat="45.11512" lon="2.74969">
        <ele>1560</ele>
        <time>2017-09-02T11:03:52Z</time>
      </trkpt>
      <trkpt lat="45.11516" lon="2.74974">
        <ele>1561</ele>
        <time>2017-09-02T11:03:57Z</time>
      </trkpt>
      <trkpt lat="45.11519" lon="2.74981">
        <ele>1562</ele>
        <time>2017-09-02T11:04:02Z</time>
      </trkpt>
      <trkpt lat="45.11523" lon="2.74986">
        <ele>1562</ele>
        <time>2017-09-02T11:04:07Z</time>
      </trkpt>
      <trkpt lat="45.11527" lon="2.7499">
        <ele>1563</ele>
        <time>2017-09-02T11:04:10Z</time>
      </trkpt>
      <trkpt lat="45.1153" lon="2.74997">
        <ele>1563</ele>
        <time>2017-09-02T11:04:15Z</time>
      </trkpt>
      <trkpt lat="45.11532" lon="2.75003">
        <ele>1564</ele>
        <time>2017-09-02T11:04:20Z</time>
      </trkpt>
      <trkpt lat="45.11534" lon="2.75009">
        <ele>1564</ele>
        <time>2017-09-02T11:04:24Z</time>
      </trkpt>
      <trkpt lat="45.11537" lon="2.75014">
        <ele>1564</ele>
        <time>2017-09-02T11:04:28Z</time>
      </trkpt>
      <trkpt lat="45.11539" lon="2.7502">
        <ele>1565</ele>
        <time>2017-09-02T11:04:33Z</time>
      </trkpt>
      <trkpt lat="45.11544" lon="2.75023">
        <ele>1565</ele>
        <time>2017-09-02T11:04:37Z</time>
      </trkpt>
      <trkpt lat="45.11549" lon="2.75025">
        <ele>1565</ele>
        <time>2017-09-02T11:04:52Z</time>
      </trkpt>
      <trkpt lat="45.11553" lon="2.75028">
        <ele>1566</ele>
        <time>2017-09-02T11:04:56Z</time>
      </trkpt>
      <trkpt lat="45.11558" lon="2.75029">
        <ele>1566</ele>
        <time>2017-09-02T11:05:01Z</time>
      </trkpt>
      <trkpt lat="45.11562" lon="2.75032">
        <ele>1567</ele>
        <time>2017-09-02T11:05:06Z</time>
      </trkpt>
      <trkpt lat="45.11565" lon="2.75039">
        <ele>1568</ele>
        <time>2017-09-02T11:05:12Z</time>
      </trkpt>
      <trkpt lat="45.11566" lon="2.75045">
        <ele>1569</ele>
        <time>2017-09-02T11:05:18Z</time>
      </trkpt>
      <trkpt lat="45.1157" lon="2.7505">
        <ele>1569</ele>
        <time>2017-09-02T11:05:23Z</time>
      </trkpt>
      <trkpt lat="45.11574" lon="2.75056">
        <ele>1570</ele>
        <time>2017-09-02T11:05:27Z</time>
      </trkpt>
      <trkpt lat="45.11578" lon="2.75062">
        <ele>1570</ele>
        <time>2017-09-02T11:05:31Z</time>
      </trkpt>
      <trkpt lat="45.11581" lon="2.75068">
        <ele>1571</ele>
        <time>2017-09-02T11:05:35Z</time>
      </trkpt>
      <trkpt lat="45.11585" lon="2.75073">
        <ele>1572</ele>
        <time>2017-09-02T11:05:39Z</time>
      </trkpt>
      <trkpt lat="45.11589" lon="2.75079">
        <ele>1573</ele>
        <time>2017-09-02T11:05:43Z</time>
      </trkpt>
      <trkpt lat="45.11594" lon="2.75082">
        <ele>1573</ele>
        <time>2017-09-02T11:05:47Z</time>
      </trkpt>
      <trkpt lat="45.11599" lon="2.75087">
        <ele>1574</ele>
        <time>2017-09-02T11:05:52Z</time>
      </trkpt>
      <trkpt lat="45.11604" lon="2.75089">
        <ele>1575</ele>
        <time>2017-09-02T11:05:57Z</time>
      </trkpt>
      <trkpt lat="45.11608" lon="2.75091">
        <ele>1575</ele>
        <time>2017-09-02T11:06:01Z</time>
      </trkpt>
      <trkpt lat="45.11612" lon="2.75093">
        <ele>1576</ele>
        <time>2017-09-02T11:06:07Z</time>
      </trkpt>
      <trkpt lat="45.11616" lon="2.75096">
        <ele>1577</ele>
        <time>2017-09-02T11:06:14Z</time>
      </trkpt>
      <trkpt lat="45.11621" lon="2.751">
        <ele>1578</ele>
        <time>2017-09-02T11:06:21Z</time>
      </trkpt>
      <trkpt lat="45.11626" lon="2.751">
        <ele>1579</ele>
        <time>2017-09-02T11:06:28Z</time>
      </trkpt>
      <trkpt lat="45.1163" lon="2.75102">
        <ele>1580</ele>
        <time>2017-09-02T11:06:34Z</time>
      </trkpt>
      <trkpt lat="45.11634" lon="2.75105">
        <ele>1581</ele>
        <time>2017-09-02T11:06:39Z</time>
      </trkpt>
      <trkpt lat="45.1164" lon="2.75107">
        <ele>1583</ele>
        <time>2017-09-02T11:06:45Z</time>
      </trkpt>
      <trkpt lat="45.11645" lon="2.75108">
        <ele>1584</ele>
        <time>2017-09-02T11:06:51Z</time>
      </trkpt>
      <trkpt lat="45.11649" lon="2.75112">
        <ele>1585</ele>
        <time>2017-09-02T11:06:58Z</time>
      </trkpt>
      <trkpt lat="45.11651" lon="2.75118">
        <ele>1585</ele>
        <time>2017-09-02T11:07:05Z</time>
      </trkpt>
      <trkpt lat="45.11653" lon="2.75125">
        <ele>1586</ele>
        <time>2017-09-02T11:07:11Z</time>
      </trkpt>
      <trkpt lat="45.11655" lon="2.7513">
        <ele>1587</ele>
        <time>2017-09-02T11:07:17Z</time>
      </trkpt>
      <trkpt lat="45.1166" lon="2.75134">
        <ele>1587</ele>
        <time>2017-09-02T11:07:21Z</time>
      </trkpt>
      <trkpt lat="45.11663" lon="2.75137">
        <ele>1588</ele>
        <time>2017-09-02T11:07:26Z</time>
      </trkpt>
      <trkpt lat="45.11666" lon="2.75143">
        <ele>1589</ele>
        <time>2017-09-02T11:07:32Z</time>
      </trkpt>
      <trkpt lat="45.1167" lon="2.75148">
        <ele>1589</ele>
        <time>2017-09-02T11:07:36Z</time>
      </trkpt>
      <trkpt lat="45.11674" lon="2.75152">
        <ele>1590</ele>
        <time>2017-09-02T11:07:41Z</time>
      </trkpt>
      <trkpt lat="45.11676" lon="2.75159">
        <ele>1591</ele>
        <time>2017-09-02T11:07:47Z</time>
      </trkpt>
      <trkpt lat="45.11678" lon="2.75165">
        <ele>1592</ele>
        <time>2017-09-02T11:07:51Z</time>
      </trkpt>
      <trkpt lat="45.1168" lon="2.75171">
        <ele>1593</ele>
        <time>2017-09-02T11:07:55Z</time>
      </trkpt>
      <trkpt lat="45.11683" lon="2.75177">
        <ele>1594</ele>
        <time>2017-09-02T11:08:00Z</time>
      </trkpt>
      <trkpt lat="45.11685" lon="2.75184">
        <ele>1594</ele>
        <time>2017-09-02T11:08:05Z</time>
      </trkpt>
      <trkpt lat="45.11686" lon="2.75191">
        <ele>1595</ele>
        <time>2017-09-02T11:08:11Z</time>
      </trkpt>
      <trkpt lat="45.1169" lon="2.75195">
        <ele>1596</ele>
        <time>2017-09-02T11:08:16Z</time>
      </trkpt>
      <trkpt lat="45.11693" lon="2.75201">
        <ele>1596</ele>
        <time>2017-09-02T11:08:21Z</time>
      </trkpt>
      <trkpt lat="45.11695" lon="2.75207">
        <ele>1597</ele>
        <time>2017-09-02T11:08:26Z</time>
      </trkpt>
      <trkpt lat="45.11697" lon="2.75213">
        <ele>1598</ele>
        <time>2017-09-02T11:08:31Z</time>
      </trkpt>
      <trkpt lat="45.11698" lon="2.75219">
        <ele>1599</ele>
        <time>2017-09-02T11:08:36Z</time>
      </trkpt>
      <trkpt lat="45.11702" lon="2.75225">
        <ele>1600</ele>
        <time>2017-09-02T11:08:44Z</time>
      </trkpt>
      <trkpt lat="45.11704" lon="2.7523">
        <ele>1601</ele>
        <time>2017-09-02T11:08:49Z</time>
      </trkpt>
      <trkpt lat="45.11705" lon="2.75237">
        <ele>1602</ele>
        <time>2017-09-02T11:08:54Z</time>
      </trkpt>
      <trkpt lat="45.11707" lon="2.75242">
        <ele>1604</ele>
        <time>2017-09-02T11:09:00Z</time>
      </trkpt>
      <trkpt lat="45.11708" lon="2.75249">
        <ele>1605</ele>
        <time>2017-09-02T11:09:06Z</time>
      </trkpt>
      <trkpt lat="45.11705" lon="2.75254">
        <ele>1606</ele>
        <time>2017-09-02T11:09:11Z</time>
      </trkpt>
      <trkpt lat="45.11702" lon="2.7526">
        <ele>1607</ele>
        <time>2017-09-02T11:09:16Z</time>
      </trkpt>
      <trkpt lat="45.117" lon="2.75267">
        <ele>1607</ele>
        <time>2017-09-02T11:09:21Z</time>
      </trkpt>
      <trkpt lat="45.117" lon="2.75274">
        <ele>1608</ele>
        <time>2017-09-02T11:09:25Z</time>
      </trkpt>
      <trkpt lat="45.11702" lon="2.75281">
        <ele>1607</ele>
        <time>2017-09-02T11:09:29Z</time>
      </trkpt>
      <trkpt lat="45.11702" lon="2.75289">
        <ele>1607</ele>
        <time>2017-09-02T11:09:33Z</time>
      </trkpt>
      <trkpt lat="45.11705" lon="2.75296">
        <ele>1607</ele>
        <time>2017-09-02T11:09:38Z</time>
      </trkpt>
      <trkpt lat="45.11706" lon="2.75303">
        <ele>1607</ele>
        <time>2017-09-02T11:09:41Z</time>
      </trkpt>
      <trkpt lat="45.11707" lon="2.7531">
        <ele>1607</ele>
        <time>2017-09-02T11:09:45Z</time>
      </trkpt>
      <trkpt lat="45.11708" lon="2.75317">
        <ele>1607</ele>
        <time>2017-09-02T11:09:48Z</time>
      </trkpt>
      <trkpt lat="45.1171" lon="2.75323">
        <ele>1608</ele>
        <time>2017-09-02T11:09:52Z</time>
      </trkpt>
      <trkpt lat="45.11713" lon="2.7533">
        <ele>1608</ele>
        <time>2017-09-02T11:09:56Z</time>
      </trkpt>
      <trkpt lat="45.11713" lon="2.75336">
        <ele>1608</ele>
        <time>2017-09-02T11:10:00Z</time>
      </trkpt>
      <trkpt lat="45.11717" lon="2.75342">
        <ele>1608</ele>
        <time>2017-09-02T11:10:04Z</time>
      </trkpt>
      <trkpt lat="45.11721" lon="2.75348">
        <ele>1608</ele>
        <time>2017-09-02T11:10:09Z</time>
      </trkpt>
      <trkpt lat="45.11724" lon="2.75353">
        <ele>1608</ele>
        <time>2017-09-02T11:10:13Z</time>
      </trkpt>
      <trkpt lat="45.11725" lon="2.7536">
        <ele>1608</ele>
        <time>2017-09-02T11:10:17Z</time>
      </trkpt>
      <trkpt lat="45.11725" lon="2.75367">
        <ele>1608</ele>
        <time>2017-09-02T11:10:23Z</time>
      </trkpt>
      <trkpt lat="45.11726" lon="2.75374">
        <ele>1608</ele>
        <time>2017-09-02T11:10:28Z</time>
      </trkpt>
      <trkpt lat="45.11727" lon="2.75381">
        <ele>1609</ele>
        <time>2017-09-02T11:10:34Z</time>
      </trkpt>
      <trkpt lat="45.11727" lon="2.75388">
        <ele>1609</ele>
        <time>2017-09-02T11:10:39Z</time>
      </trkpt>
      <trkpt lat="45.11729" lon="2.75395">
        <ele>1610</ele>
        <time>2017-09-02T11:10:44Z</time>
      </trkpt>
      <trkpt lat="45.1173" lon="2.75402">
        <ele>1611</ele>
        <time>2017-09-02T11:10:51Z</time>
      </trkpt>
      <trkpt lat="45.11732" lon="2.75408">
        <ele>1612</ele>
        <time>2017-09-02T11:10:56Z</time>
      </trkpt>
      <trkpt lat="45.11733" lon="2.75416">
        <ele>1612</ele>
        <time>2017-09-02T11:11:01Z</time>
      </trkpt>
      <trkpt lat="45.11737" lon="2.75419">
        <ele>1613</ele>
        <time>2017-09-02T11:11:07Z</time>
      </trkpt>
      <trkpt lat="45.11742" lon="2.75422">
        <ele>1615</ele>
        <time>2017-09-02T11:11:14Z</time>
      </trkpt>
      <trkpt lat="45.11746" lon="2.75423">
        <ele>1616</ele>
        <time>2017-09-02T11:11:22Z</time>
      </trkpt>
      <trkpt lat="45.11751" lon="2.75427">
        <ele>1618</ele>
        <time>2017-09-02T11:11:30Z</time>
      </trkpt>
      <trkpt lat="45.11756" lon="2.75428">
        <ele>1620</ele>
        <time>2017-09-02T11:11:36Z</time>
      </trkpt>
      <trkpt lat="45.1176" lon="2.75433">
        <ele>1622</ele>
        <time>2017-09-02T11:11:43Z</time>
      </trkpt>
      <trkpt lat="45.11765" lon="2.75435">
        <ele>1623</ele>
        <time>2017-09-02T11:11:48Z</time>
      </trkpt>
      <trkpt lat="45.11763" lon="2.75436">
        <ele>1625</ele>
        <time>2017-09-02T11:12:15Z</time>
      </trkpt>
      <trkpt lat="45.11762" lon="2.75435">
        <ele>1627</ele>
        <time>2017-09-02T11:12:27Z</time>
      </trkpt>
      <trkpt lat="45.11759" lon="2.75441">
        <ele>1628</ele>
        <time>2017-09-02T11:12:29Z</time>
      </trkpt>
      <trkpt lat="45.11767" lon="2.75448">
        <ele>1627</ele>
        <time>2017-09-02T11:13:28Z</time>
      </trkpt>
      <trkpt lat="45.11772" lon="2.75448">
        <ele>1626</ele>
        <time>2017-09-02T11:13:46Z</time>
      </trkpt>
      <trkpt lat="45.11777" lon="2.7545">
        <ele>1626</ele>
        <time>2017-09-02T11:13:54Z</time>
      </trkpt>
      <trkpt lat="45.11781" lon="2.75451">
        <ele>1624</ele>
        <time>2017-09-02T11:13:58Z</time>
      </trkpt>
      <trkpt lat="45.11786" lon="2.75454">
        <ele>1622</ele>
        <time>2017-09-02T11:14:04Z</time>
      </trkpt>
      <trkpt lat="45.1179" lon="2.75456">
        <ele>1625</ele>
        <time>2017-09-02T11:14:09Z</time>
      </trkpt>
      <trkpt lat="45.11794" lon="2.75459">
        <ele>1626</ele>
        <time>2017-09-02T11:14:14Z</time>
      </trkpt>
      <trkpt lat="45.11799" lon="2.75463">
        <ele>1627</ele>
        <time>2017-09-02T11:14:22Z</time>
      </trkpt>
      <trkpt lat="45.11802" lon="2.75467">
        <ele>1629</ele>
        <time>2017-09-02T11:14:27Z</time>
      </trkpt>
      <trkpt lat="45.11807" lon="2.75471">
        <ele>1630</ele>
        <time>2017-09-02T11:14:32Z</time>
      </trkpt>
      <trkpt lat="45.11811" lon="2.75474">
        <ele>1631</ele>
        <time>2017-09-02T11:14:39Z</time>
      </trkpt>
      <trkpt lat="45.11816" lon="2.75477">
        <ele>1633</ele>
        <time>2017-09-02T11:14:46Z</time>
      </trkpt>
      <trkpt lat="45.11819" lon="2.75483">
        <ele>1635</ele>
        <time>2017-09-02T11:14:55Z</time>
      </trkpt>
      <trkpt lat="45.11822" lon="2.75487">
        <ele>1637</ele>
        <time>2017-09-02T11:15:01Z</time>
      </trkpt>
      <trkpt lat="45.11826" lon="2.75491">
        <ele>1639</ele>
        <time>2017-09-02T11:15:07Z</time>
      </trkpt>
      <trkpt lat="45.1183" lon="2.75493">
        <ele>1641</ele>
        <time>2017-09-02T11:15:12Z</time>
      </trkpt>
      <trkpt lat="45.11835" lon="2.75495">
        <ele>1642</ele>
        <time>2017-09-02T11:15:18Z</time>
      </trkpt>
      <trkpt lat="45.1184" lon="2.75497">
        <ele>1642</ele>
        <time>2017-09-02T11:15:23Z</time>
      </trkpt>
      <trkpt lat="45.11845" lon="2.75497">
        <ele>1643</ele>
        <time>2017-09-02T11:15:29Z</time>
      </trkpt>
      <trkpt lat="45.1185" lon="2.75498">
        <ele>1643</ele>
        <time>2017-09-02T11:15:34Z</time>
      </trkpt>
      <trkpt lat="45.11855" lon="2.755">
        <ele>1643</ele>
        <time>2017-09-02T11:15:39Z</time>
      </trkpt>
      <trkpt lat="45.1186" lon="2.75502">
        <ele>1643</ele>
        <time>2017-09-02T11:15:43Z</time>
      </trkpt>
      <trkpt lat="45.11865" lon="2.75504">
        <ele>1643</ele>
        <time>2017-09-02T11:15:48Z</time>
      </trkpt>
      <trkpt lat="45.1187" lon="2.75505">
        <ele>1643</ele>
        <time>2017-09-02T11:15:53Z</time>
      </trkpt>
      <trkpt lat="45.11875" lon="2.75508">
        <ele>1643</ele>
        <time>2017-09-02T11:15:59Z</time>
      </trkpt>
      <trkpt lat="45.11879" lon="2.75508">
        <ele>1643</ele>
        <time>2017-09-02T11:16:04Z</time>
      </trkpt>
      <trkpt lat="45.11884" lon="2.75509">
        <ele>1643</ele>
        <time>2017-09-02T11:16:10Z</time>
      </trkpt>
      <trkpt lat="45.1189" lon="2.7551">
        <ele>1644</ele>
        <time>2017-09-02T11:16:16Z</time>
      </trkpt>
      <trkpt lat="45.11895" lon="2.75511">
        <ele>1645</ele>
        <time>2017-09-02T11:16:22Z</time>
      </trkpt>
      <trkpt lat="45.11899" lon="2.75512">
        <ele>1645</ele>
        <time>2017-09-02T11:16:28Z</time>
      </trkpt>
      <trkpt lat="45.11904" lon="2.75514">
        <ele>1646</ele>
        <time>2017-09-02T11:16:33Z</time>
      </trkpt>
      <trkpt lat="45.11908" lon="2.75517">
        <ele>1647</ele>
        <time>2017-09-02T11:16:38Z</time>
      </trkpt>
      <trkpt lat="45.11912" lon="2.75522">
        <ele>1648</ele>
        <time>2017-09-02T11:16:43Z</time>
      </trkpt>
      <trkpt lat="45.11916" lon="2.75526">
        <ele>1649</ele>
        <time>2017-09-02T11:16:49Z</time>
      </trkpt>
      <trkpt lat="45.11919" lon="2.75531">
        <ele>1650</ele>
        <time>2017-09-02T11:16:55Z</time>
      </trkpt>
      <trkpt lat="45.11921" lon="2.75533">
        <ele>1650</ele>
        <time>2017-09-02T11:17:21Z</time>
      </trkpt>
      <trkpt lat="45.11921" lon="2.75535">
        <ele>1650</ele>
        <time>2017-09-02T11:17:29Z</time>
      </trkpt>
      <trkpt lat="45.11921" lon="2.75522">
        <ele>1653</ele>
        <time>2017-09-02T11:17:30Z</time>
      </trkpt>
      <trkpt lat="45.11923" lon="2.75536">
        <ele>1653</ele>
        <time>2017-09-02T11:17:31Z</time>
      </trkpt>
      <trkpt lat="45.11921" lon="2.75535">
        <ele>1653</ele>
        <time>2017-09-02T11:17:56Z</time>
      </trkpt>
      <trkpt lat="45.11923" lon="2.75548">
        <ele>1649</ele>
        <time>2017-09-02T11:18:38Z</time>
      </trkpt>
      <trkpt lat="45.11881" lon="2.75523">
        <ele>1646</ele>
        <time>2017-09-02T11:18:51Z</time>
      </trkpt>
      <trkpt lat="45.11918" lon="2.75554">
        <ele>1646</ele>
        <time>2017-09-02T11:18:52Z</time>
      </trkpt>
      <trkpt lat="45.11923" lon="2.75557">
        <ele>1645</ele>
        <time>2017-09-02T11:18:59Z</time>
      </trkpt>
      <trkpt lat="45.11926" lon="2.75562">
        <ele>1644</ele>
        <time>2017-09-02T11:19:05Z</time>
      </trkpt>
      <trkpt lat="45.1193" lon="2.75566">
        <ele>1643</ele>
        <time>2017-09-02T11:19:12Z</time>
      </trkpt>
      <trkpt lat="45.11934" lon="2.7557">
        <ele>1643</ele>
        <time>2017-09-02T11:19:17Z</time>
      </trkpt>
      <trkpt lat="45.11937" lon="2.75575">
        <ele>1643</ele>
        <time>2017-09-02T11:19:23Z</time>
      </trkpt>
      <trkpt lat="45.11939" lon="2.75581">
        <ele>1642</ele>
        <time>2017-09-02T11:19:30Z</time>
      </trkpt>
      <trkpt lat="45.11941" lon="2.75587">
        <ele>1642</ele>
        <time>2017-09-02T11:19:35Z</time>
      </trkpt>
      <trkpt lat="45.11944" lon="2.75593">
        <ele>1641</ele>
        <time>2017-09-02T11:19:44Z</time>
      </trkpt>
      <trkpt lat="45.11947" lon="2.75599">
        <ele>1641</ele>
        <time>2017-09-02T11:19:50Z</time>
      </trkpt>
      <trkpt lat="45.11951" lon="2.75603">
        <ele>1641</ele>
        <time>2017-09-02T11:19:56Z</time>
      </trkpt>
      <trkpt lat="45.11954" lon="2.75609">
        <ele>1640</ele>
        <time>2017-09-02T11:20:01Z</time>
      </trkpt>
      <trkpt lat="45.11956" lon="2.75614">
        <ele>1639</ele>
        <time>2017-09-02T11:20:05Z</time>
      </trkpt>
      <trkpt lat="45.11959" lon="2.7562">
        <ele>1638</ele>
        <time>2017-09-02T11:20:12Z</time>
      </trkpt>
      <trkpt lat="45.11961" lon="2.75626">
        <ele>1637</ele>
        <time>2017-09-02T11:20:17Z</time>
      </trkpt>
      <trkpt lat="45.11965" lon="2.75631">
        <ele>1637</ele>
        <time>2017-09-02T11:20:22Z</time>
      </trkpt>
      <trkpt lat="45.11969" lon="2.75635">
        <ele>1637</ele>
        <time>2017-09-02T11:20:26Z</time>
      </trkpt>
      <trkpt lat="45.11972" lon="2.75642">
        <ele>1636</ele>
        <time>2017-09-02T11:20:31Z</time>
      </trkpt>
      <trkpt lat="45.11976" lon="2.75647">
        <ele>1636</ele>
        <time>2017-09-02T11:20:36Z</time>
      </trkpt>
      <trkpt lat="45.11978" lon="2.75652">
        <ele>1635</ele>
        <time>2017-09-02T11:20:41Z</time>
      </trkpt>
      <trkpt lat="45.11981" lon="2.75658">
        <ele>1635</ele>
        <time>2017-09-02T11:20:46Z</time>
      </trkpt>
      <trkpt lat="45.11983" lon="2.75664">
        <ele>1633</ele>
        <time>2017-09-02T11:20:55Z</time>
      </trkpt>
      <trkpt lat="45.11987" lon="2.75668">
        <ele>1632</ele>
        <time>2017-09-02T11:21:09Z</time>
      </trkpt>
      <trkpt lat="45.1199" lon="2.75673">
        <ele>1630</ele>
        <time>2017-09-02T11:21:13Z</time>
      </trkpt>
      <trkpt lat="45.11992" lon="2.75679">
        <ele>1628</ele>
        <time>2017-09-02T11:21:17Z</time>
      </trkpt>
      <trkpt lat="45.11992" lon="2.75685">
        <ele>1626</ele>
        <time>2017-09-02T11:21:22Z</time>
      </trkpt>
      <trkpt lat="45.1199" lon="2.75692">
        <ele>1624</ele>
        <time>2017-09-02T11:21:33Z</time>
      </trkpt>
      <trkpt lat="45.11986" lon="2.75697">
        <ele>1622</ele>
        <time>2017-09-02T11:21:36Z</time>
      </trkpt>
      <trkpt lat="45.11983" lon="2.75702">
        <ele>1621</ele>
        <time>2017-09-02T11:21:40Z</time>
      </trkpt>
      <trkpt lat="45.11979" lon="2.75707">
        <ele>1619</ele>
        <time>2017-09-02T11:21:44Z</time>
      </trkpt>
      <trkpt lat="45.11977" lon="2.75713">
        <ele>1617</ele>
        <time>2017-09-02T11:21:50Z</time>
      </trkpt>
      <trkpt lat="45.1198" lon="2.7572">
        <ele>1615</ele>
        <time>2017-09-02T11:21:55Z</time>
      </trkpt>
      <trkpt lat="45.11982" lon="2.75726">
        <ele>1614</ele>
        <time>2017-09-02T11:21:59Z</time>
      </trkpt>
      <trkpt lat="45.11985" lon="2.75732">
        <ele>1613</ele>
        <time>2017-09-02T11:22:06Z</time>
      </trkpt>
      <trkpt lat="45.1199" lon="2.75736">
        <ele>1612</ele>
        <time>2017-09-02T11:22:11Z</time>
      </trkpt>
      <trkpt lat="45.11992" lon="2.75743">
        <ele>1611</ele>
        <time>2017-09-02T11:22:17Z</time>
      </trkpt>
      <trkpt lat="45.11994" lon="2.75749">
        <ele>1610</ele>
        <time>2017-09-02T11:22:23Z</time>
      </trkpt>
      <trkpt lat="45.11998" lon="2.75754">
        <ele>1609</ele>
        <time>2017-09-02T11:22:29Z</time>
      </trkpt>
      <trkpt lat="45.12003" lon="2.75757">
        <ele>1607</ele>
        <time>2017-09-02T11:22:35Z</time>
      </trkpt>
      <trkpt lat="45.12006" lon="2.7576">
        <ele>1605</ele>
        <time>2017-09-02T11:22:40Z</time>
      </trkpt>
      <trkpt lat="45.12011" lon="2.75764">
        <ele>1604</ele>
        <time>2017-09-02T11:22:44Z</time>
      </trkpt>
      <trkpt lat="45.12014" lon="2.75769">
        <ele>1602</ele>
        <time>2017-09-02T11:22:49Z</time>
      </trkpt>
      <trkpt lat="45.12018" lon="2.75772">
        <ele>1600</ele>
        <time>2017-09-02T11:22:54Z</time>
      </trkpt>
      <trkpt lat="45.12024" lon="2.75774">
        <ele>1599</ele>
        <time>2017-09-02T11:22:58Z</time>
      </trkpt>
      <trkpt lat="45.12026" lon="2.75782">
        <ele>1598</ele>
        <time>2017-09-02T11:23:03Z</time>
      </trkpt>
      <trkpt lat="45.12028" lon="2.75787">
        <ele>1597</ele>
        <time>2017-09-02T11:23:07Z</time>
      </trkpt>
      <trkpt lat="45.12029" lon="2.75794">
        <ele>1596</ele>
        <time>2017-09-02T11:23:11Z</time>
      </trkpt>
      <trkpt lat="45.12031" lon="2.75801">
        <ele>1595</ele>
        <time>2017-09-02T11:23:15Z</time>
      </trkpt>
      <trkpt lat="45.1203" lon="2.75807">
        <ele>1594</ele>
        <time>2017-09-02T11:23:20Z</time>
      </trkpt>
      <trkpt lat="45.12029" lon="2.75815">
        <ele>1593</ele>
        <time>2017-09-02T11:23:26Z</time>
      </trkpt>
      <trkpt lat="45.12029" lon="2.75821">
        <ele>1591</ele>
        <time>2017-09-02T11:23:29Z</time>
      </trkpt>
      <trkpt lat="45.12029" lon="2.75829">
        <ele>1590</ele>
        <time>2017-09-02T11:23:33Z</time>
      </trkpt>
      <trkpt lat="45.12028" lon="2.75835">
        <ele>1588</ele>
        <time>2017-09-02T11:23:40Z</time>
      </trkpt>
      <trkpt lat="45.12029" lon="2.75838">
        <ele>1586</ele>
        <time>2017-09-02T11:23:59Z</time>
      </trkpt>
      <trkpt lat="45.12028" lon="2.75862">
        <ele>1584</ele>
        <time>2017-09-02T11:24:12Z</time>
      </trkpt>
      <trkpt lat="45.12032" lon="2.75868">
        <ele>1582</ele>
        <time>2017-09-02T11:24:18Z</time>
      </trkpt>
      <trkpt lat="45.12034" lon="2.75876">
        <ele>1581</ele>
        <time>2017-09-02T11:24:21Z</time>
      </trkpt>
      <trkpt lat="45.12036" lon="2.75884">
        <ele>1580</ele>
        <time>2017-09-02T11:24:24Z</time>
      </trkpt>
      <trkpt lat="45.12037" lon="2.75891">
        <ele>1578</ele>
        <time>2017-09-02T11:24:28Z</time>
      </trkpt>
      <trkpt lat="45.12038" lon="2.75898">
        <ele>1578</ele>
        <time>2017-09-02T11:24:32Z</time>
      </trkpt>
      <trkpt lat="45.12041" lon="2.75905">
        <ele>1577</ele>
        <time>2017-09-02T11:24:37Z</time>
      </trkpt>
      <trkpt lat="45.12043" lon="2.75911">
        <ele>1576</ele>
        <time>2017-09-02T11:24:42Z</time>
      </trkpt>
      <trkpt lat="45.12046" lon="2.75916">
        <ele>1575</ele>
        <time>2017-09-02T11:24:47Z</time>
      </trkpt>
      <trkpt lat="45.12049" lon="2.75921">
        <ele>1575</ele>
        <time>2017-09-02T11:24:52Z</time>
      </trkpt>
      <trkpt lat="45.12052" lon="2.75927">
        <ele>1575</ele>
        <time>2017-09-02T11:24:57Z</time>
      </trkpt>
      <trkpt lat="45.12055" lon="2.75932">
        <ele>1575</ele>
        <time>2017-09-02T11:25:02Z</time>
      </trkpt>
      <trkpt lat="45.1206" lon="2.75935">
        <ele>1575</ele>
        <time>2017-09-02T11:25:08Z</time>
      </trkpt>
      <trkpt lat="45.12064" lon="2.75938">
        <ele>1575</ele>
        <time>2017-09-02T11:25:12Z</time>
      </trkpt>
      <trkpt lat="45.12069" lon="2.75939">
        <ele>1574</ele>
        <time>2017-09-02T11:25:16Z</time>
      </trkpt>
      <trkpt lat="45.12073" lon="2.75942">
        <ele>1574</ele>
        <time>2017-09-02T11:25:20Z</time>
      </trkpt>
      <trkpt lat="45.12077" lon="2.75946">
        <ele>1573</ele>
        <time>2017-09-02T11:25:24Z</time>
      </trkpt>
      <trkpt lat="45.12082" lon="2.75949">
        <ele>1573</ele>
        <time>2017-09-02T11:25:28Z</time>
      </trkpt>
      <trkpt lat="45.12087" lon="2.75954">
        <ele>1572</ele>
        <time>2017-09-02T11:25:33Z</time>
      </trkpt>
      <trkpt lat="45.1209" lon="2.75958">
        <ele>1571</ele>
        <time>2017-09-02T11:25:37Z</time>
      </trkpt>
      <trkpt lat="45.12094" lon="2.75963">
        <ele>1570</ele>
        <time>2017-09-02T11:25:41Z</time>
      </trkpt>
      <trkpt lat="45.12097" lon="2.75968">
        <ele>1570</ele>
        <time>2017-09-02T11:25:45Z</time>
      </trkpt>
      <trkpt lat="45.12101" lon="2.75974">
        <ele>1569</ele>
        <time>2017-09-02T11:25:50Z</time>
      </trkpt>
      <trkpt lat="45.12103" lon="2.75979">
        <ele>1568</ele>
        <time>2017-09-02T11:25:54Z</time>
      </trkpt>
      <trkpt lat="45.12106" lon="2.75984">
        <ele>1568</ele>
        <time>2017-09-02T11:25:59Z</time>
      </trkpt>
      <trkpt lat="45.12109" lon="2.75991">
        <ele>1567</ele>
        <time>2017-09-02T11:26:04Z</time>
      </trkpt>
      <trkpt lat="45.12112" lon="2.75996">
        <ele>1567</ele>
        <time>2017-09-02T11:26:08Z</time>
      </trkpt>
      <trkpt lat="45.12116" lon="2.76002">
        <ele>1566</ele>
        <time>2017-09-02T11:26:12Z</time>
      </trkpt>
      <trkpt lat="45.12119" lon="2.76007">
        <ele>1565</ele>
        <time>2017-09-02T11:26:17Z</time>
      </trkpt>
      <trkpt lat="45.12121" lon="2.76014">
        <ele>1564</ele>
        <time>2017-09-02T11:26:28Z</time>
      </trkpt>
      <trkpt lat="45.12126" lon="2.76016">
        <ele>1563</ele>
        <time>2017-09-02T11:26:33Z</time>
      </trkpt>
      <trkpt lat="45.12131" lon="2.76019">
        <ele>1562</ele>
        <time>2017-09-02T11:26:39Z</time>
      </trkpt>
      <trkpt lat="45.12136" lon="2.76022">
        <ele>1560</ele>
        <time>2017-09-02T11:26:44Z</time>
      </trkpt>
      <trkpt lat="45.12141" lon="2.76026">
        <ele>1559</ele>
        <time>2017-09-02T11:26:49Z</time>
      </trkpt>
      <trkpt lat="45.12145" lon="2.7603">
        <ele>1558</ele>
        <time>2017-09-02T11:26:53Z</time>
      </trkpt>
      <trkpt lat="45.12149" lon="2.76035">
        <ele>1557</ele>
        <time>2017-09-02T11:26:59Z</time>
      </trkpt>
      <trkpt lat="45.12153" lon="2.7604">
        <ele>1556</ele>
        <time>2017-09-02T11:27:03Z</time>
      </trkpt>
      <trkpt lat="45.12158" lon="2.7604">
        <ele>1555</ele>
        <time>2017-09-02T11:27:09Z</time>
      </trkpt>
      <trkpt lat="45.12163" lon="2.76039">
        <ele>1553</ele>
        <time>2017-09-02T11:27:15Z</time>
      </trkpt>
      <trkpt lat="45.12167" lon="2.7604">
        <ele>1551</ele>
        <time>2017-09-02T11:27:21Z</time>
      </trkpt>
      <trkpt lat="45.12173" lon="2.76041">
        <ele>1549</ele>
        <time>2017-09-02T11:27:28Z</time>
      </trkpt>
      <trkpt lat="45.12177" lon="2.76043">
        <ele>1547</ele>
        <time>2017-09-02T11:27:33Z</time>
      </trkpt>
      <trkpt lat="45.12182" lon="2.76046">
        <ele>1545</ele>
        <time>2017-09-02T11:27:37Z</time>
      </trkpt>
      <trkpt lat="45.12186" lon="2.76048">
        <ele>1543</ele>
        <time>2017-09-02T11:27:41Z</time>
      </trkpt>
      <trkpt lat="45.12191" lon="2.7605">
        <ele>1542</ele>
        <time>2017-09-02T11:27:44Z</time>
      </trkpt>
      <trkpt lat="45.12196" lon="2.76052">
        <ele>1541</ele>
        <time>2017-09-02T11:27:48Z</time>
      </trkpt>
      <trkpt lat="45.122" lon="2.76055">
        <ele>1540</ele>
        <time>2017-09-02T11:27:51Z</time>
      </trkpt>
      <trkpt lat="45.12204" lon="2.76057">
        <ele>1539</ele>
        <time>2017-09-02T11:27:55Z</time>
      </trkpt>
      <trkpt lat="45.12209" lon="2.76058">
        <ele>1538</ele>
        <time>2017-09-02T11:28:00Z</time>
      </trkpt>
      <trkpt lat="45.12214" lon="2.76057">
        <ele>1537</ele>
        <time>2017-09-02T11:28:06Z</time>
      </trkpt>
      <trkpt lat="45.12219" lon="2.76056">
        <ele>1536</ele>
        <time>2017-09-02T11:28:11Z</time>
      </trkpt>
      <trkpt lat="45.12223" lon="2.76058">
        <ele>1534</ele>
        <time>2017-09-02T11:28:14Z</time>
      </trkpt>
      <trkpt lat="45.12228" lon="2.76059">
        <ele>1533</ele>
        <time>2017-09-02T11:28:20Z</time>
      </trkpt>
      <trkpt lat="45.12234" lon="2.76061">
        <ele>1532</ele>
        <time>2017-09-02T11:28:26Z</time>
      </trkpt>
      <trkpt lat="45.12239" lon="2.76061">
        <ele>1531</ele>
        <time>2017-09-02T11:28:32Z</time>
      </trkpt>
      <trkpt lat="45.12244" lon="2.76061">
        <ele>1530</ele>
        <time>2017-09-02T11:28:36Z</time>
      </trkpt>
      <trkpt lat="45.1225" lon="2.76059">
        <ele>1529</ele>
        <time>2017-09-02T11:28:40Z</time>
      </trkpt>
      <trkpt lat="45.12254" lon="2.76057">
        <ele>1528</ele>
        <time>2017-09-02T11:28:44Z</time>
      </trkpt>
      <trkpt lat="45.12259" lon="2.76053">
        <ele>1527</ele>
        <time>2017-09-02T11:28:49Z</time>
      </trkpt>
      <trkpt lat="45.12264" lon="2.76052">
        <ele>1526</ele>
        <time>2017-09-02T11:28:55Z</time>
      </trkpt>
      <trkpt lat="45.12269" lon="2.76054">
        <ele>1525</ele>
        <time>2017-09-02T11:28:59Z</time>
      </trkpt>
      <trkpt lat="45.12274" lon="2.76057">
        <ele>1524</ele>
        <time>2017-09-02T11:29:03Z</time>
      </trkpt>
      <trkpt lat="45.1228" lon="2.76059">
        <ele>1523</ele>
        <time>2017-09-02T11:29:08Z</time>
      </trkpt>
      <trkpt lat="45.12283" lon="2.76065">
        <ele>1522</ele>
        <time>2017-09-02T11:29:13Z</time>
      </trkpt>
      <trkpt lat="45.12286" lon="2.76069">
        <ele>1521</ele>
        <time>2017-09-02T11:29:17Z</time>
      </trkpt>
      <trkpt lat="45.1229" lon="2.76074">
        <ele>1520</ele>
        <time>2017-09-02T11:29:21Z</time>
      </trkpt>
      <trkpt lat="45.12294" lon="2.76078">
        <ele>1520</ele>
        <time>2017-09-02T11:29:24Z</time>
      </trkpt>
      <trkpt lat="45.12298" lon="2.76081">
        <ele>1519</ele>
        <time>2017-09-02T11:29:27Z</time>
      </trkpt>
      <trkpt lat="45.12302" lon="2.76086">
        <ele>1518</ele>
        <time>2017-09-02T11:29:31Z</time>
      </trkpt>
      <trkpt lat="45.12304" lon="2.76092">
        <ele>1518</ele>
        <time>2017-09-02T11:29:35Z</time>
      </trkpt>
      <trkpt lat="45.12306" lon="2.76098">
        <ele>1517</ele>
        <time>2017-09-02T11:29:39Z</time>
      </trkpt>
      <trkpt lat="45.12309" lon="2.76103">
        <ele>1516</ele>
        <time>2017-09-02T11:29:43Z</time>
      </trkpt>
      <trkpt lat="45.12308" lon="2.7611">
        <ele>1515</ele>
        <time>2017-09-02T11:29:48Z</time>
      </trkpt>
      <trkpt lat="45.12308" lon="2.76117">
        <ele>1514</ele>
        <time>2017-09-02T11:29:53Z</time>
      </trkpt>
      <trkpt lat="45.12307" lon="2.76124">
        <ele>1513</ele>
        <time>2017-09-02T11:29:57Z</time>
      </trkpt>
      <trkpt lat="45.12305" lon="2.7613">
        <ele>1512</ele>
        <time>2017-09-02T11:30:02Z</time>
      </trkpt>
      <trkpt lat="45.12301" lon="2.76135">
        <ele>1511</ele>
        <time>2017-09-02T11:30:06Z</time>
      </trkpt>
      <trkpt lat="45.12301" lon="2.76141">
        <ele>1510</ele>
        <time>2017-09-02T11:30:10Z</time>
      </trkpt>
      <trkpt lat="45.123" lon="2.76148">
        <ele>1509</ele>
        <time>2017-09-02T11:30:14Z</time>
      </trkpt>
      <trkpt lat="45.12299" lon="2.76155">
        <ele>1507</ele>
        <time>2017-09-02T11:30:18Z</time>
      </trkpt>
      <trkpt lat="45.12298" lon="2.76162">
        <ele>1507</ele>
        <time>2017-09-02T11:30:22Z</time>
      </trkpt>
      <trkpt lat="45.12296" lon="2.7617">
        <ele>1506</ele>
        <time>2017-09-02T11:30:26Z</time>
      </trkpt>
      <trkpt lat="45.12294" lon="2.76175">
        <ele>1505</ele>
        <time>2017-09-02T11:30:29Z</time>
      </trkpt>
      <trkpt lat="45.12291" lon="2.76181">
        <ele>1504</ele>
        <time>2017-09-02T11:30:32Z</time>
      </trkpt>
      <trkpt lat="45.12287" lon="2.76186">
        <ele>1504</ele>
        <time>2017-09-02T11:30:36Z</time>
      </trkpt>
      <trkpt lat="45.12284" lon="2.76192">
        <ele>1503</ele>
        <time>2017-09-02T11:30:41Z</time>
      </trkpt>
      <trkpt lat="45.12281" lon="2.76198">
        <ele>1502</ele>
        <time>2017-09-02T11:30:46Z</time>
      </trkpt>
      <trkpt lat="45.1228" lon="2.76205">
        <ele>1502</ele>
        <time>2017-09-02T11:30:50Z</time>
      </trkpt>
      <trkpt lat="45.1228" lon="2.76212">
        <ele>1501</ele>
        <time>2017-09-02T11:30:54Z</time>
      </trkpt>
      <trkpt lat="45.12279" lon="2.7622">
        <ele>1500</ele>
        <time>2017-09-02T11:30:59Z</time>
      </trkpt>
      <trkpt lat="45.12278" lon="2.76226">
        <ele>1500</ele>
        <time>2017-09-02T11:31:03Z</time>
      </trkpt>
      <trkpt lat="45.1228" lon="2.76233">
        <ele>1499</ele>
        <time>2017-09-02T11:31:07Z</time>
      </trkpt>
      <trkpt lat="45.1228" lon="2.76241">
        <ele>1498</ele>
        <time>2017-09-02T11:31:10Z</time>
      </trkpt>
      <trkpt lat="45.1228" lon="2.76249">
        <ele>1497</ele>
        <time>2017-09-02T11:31:14Z</time>
      </trkpt>
      <trkpt lat="45.1228" lon="2.76255">
        <ele>1496</ele>
        <time>2017-09-02T11:31:17Z</time>
      </trkpt>
      <trkpt lat="45.1228" lon="2.76263">
        <ele>1495</ele>
        <time>2017-09-02T11:31:21Z</time>
      </trkpt>
      <trkpt lat="45.1228" lon="2.7627">
        <ele>1495</ele>
        <time>2017-09-02T11:31:25Z</time>
      </trkpt>
      <trkpt lat="45.12283" lon="2.76277">
        <ele>1494</ele>
        <time>2017-09-02T11:31:29Z</time>
      </trkpt>
      <trkpt lat="45.12285" lon="2.76284">
        <ele>1493</ele>
        <time>2017-09-02T11:31:33Z</time>
      </trkpt>
      <trkpt lat="45.12287" lon="2.76292">
        <ele>1493</ele>
        <time>2017-09-02T11:31:37Z</time>
      </trkpt>
      <trkpt lat="45.12289" lon="2.76299">
        <ele>1493</ele>
        <time>2017-09-02T11:31:41Z</time>
      </trkpt>
      <trkpt lat="45.12292" lon="2.76305">
        <ele>1492</ele>
        <time>2017-09-02T11:31:46Z</time>
      </trkpt>
      <trkpt lat="45.12294" lon="2.76312">
        <ele>1491</ele>
        <time>2017-09-02T11:31:50Z</time>
      </trkpt>
      <trkpt lat="45.12296" lon="2.76319">
        <ele>1491</ele>
        <time>2017-09-02T11:31:54Z</time>
      </trkpt>
      <trkpt lat="45.12297" lon="2.76326">
        <ele>1491</ele>
        <time>2017-09-02T11:31:58Z</time>
      </trkpt>
      <trkpt lat="45.12297" lon="2.76333">
        <ele>1491</ele>
        <time>2017-09-02T11:32:01Z</time>
      </trkpt>
      <trkpt lat="45.12298" lon="2.76339">
        <ele>1491</ele>
        <time>2017-09-02T11:32:04Z</time>
      </trkpt>
      <trkpt lat="45.12299" lon="2.76347">
        <ele>1490</ele>
        <time>2017-09-02T11:32:08Z</time>
      </trkpt>
      <trkpt lat="45.123" lon="2.76355">
        <ele>1490</ele>
        <time>2017-09-02T11:32:12Z</time>
      </trkpt>
      <trkpt lat="45.12303" lon="2.76363">
        <ele>1489</ele>
        <time>2017-09-02T11:32:16Z</time>
      </trkpt>
      <trkpt lat="45.12306" lon="2.7637">
        <ele>1489</ele>
        <time>2017-09-02T11:32:20Z</time>
      </trkpt>
      <trkpt lat="45.12309" lon="2.76375">
        <ele>1489</ele>
        <time>2017-09-02T11:32:24Z</time>
      </trkpt>
      <trkpt lat="45.12312" lon="2.76379">
        <ele>1489</ele>
        <time>2017-09-02T11:32:28Z</time>
      </trkpt>
      <trkpt lat="45.12315" lon="2.76384">
        <ele>1489</ele>
        <time>2017-09-02T11:32:31Z</time>
      </trkpt>
      <trkpt lat="45.12317" lon="2.7639">
        <ele>1489</ele>
        <time>2017-09-02T11:32:34Z</time>
      </trkpt>
      <trkpt lat="45.1232" lon="2.76396">
        <ele>1489</ele>
        <time>2017-09-02T11:32:38Z</time>
      </trkpt>
      <trkpt lat="45.12324" lon="2.76401">
        <ele>1490</ele>
        <time>2017-09-02T11:32:42Z</time>
      </trkpt>
      <trkpt lat="45.12328" lon="2.76405">
        <ele>1490</ele>
        <time>2017-09-02T11:32:45Z</time>
      </trkpt>
      <trkpt lat="45.12333" lon="2.76408">
        <ele>1490</ele>
        <time>2017-09-02T11:32:49Z</time>
      </trkpt>
      <trkpt lat="45.12337" lon="2.7641">
        <ele>1490</ele>
        <time>2017-09-02T11:32:53Z</time>
      </trkpt>
      <trkpt lat="45.12342" lon="2.76414">
        <ele>1489</ele>
        <time>2017-09-02T11:32:57Z</time>
      </trkpt>
      <trkpt lat="45.12346" lon="2.76416">
        <ele>1489</ele>
        <time>2017-09-02T11:33:00Z</time>
      </trkpt>
      <trkpt lat="45.12351" lon="2.76418">
        <ele>1489</ele>
        <time>2017-09-02T11:33:03Z</time>
      </trkpt>
      <trkpt lat="45.12355" lon="2.76423">
        <ele>1488</ele>
        <time>2017-09-02T11:33:07Z</time>
      </trkpt>
      <trkpt lat="45.12359" lon="2.76429">
        <ele>1488</ele>
        <time>2017-09-02T11:33:11Z</time>
      </trkpt>
      <trkpt lat="45.12364" lon="2.76432">
        <ele>1488</ele>
        <time>2017-09-02T11:33:15Z</time>
      </trkpt>
      <trkpt lat="45.12368" lon="2.76436">
        <ele>1488</ele>
        <time>2017-09-02T11:33:19Z</time>
      </trkpt>
      <trkpt lat="45.12372" lon="2.7644">
        <ele>1487</ele>
        <time>2017-09-02T11:33:24Z</time>
      </trkpt>
      <trkpt lat="45.12377" lon="2.76445">
        <ele>1487</ele>
        <time>2017-09-02T11:33:28Z</time>
      </trkpt>
      <trkpt lat="45.12382" lon="2.76449">
        <ele>1486</ele>
        <time>2017-09-02T11:33:33Z</time>
      </trkpt>
      <trkpt lat="45.12386" lon="2.76452">
        <ele>1485</ele>
        <time>2017-09-02T11:33:37Z</time>
      </trkpt>
      <trkpt lat="45.1239" lon="2.76456">
        <ele>1484</ele>
        <time>2017-09-02T11:33:42Z</time>
      </trkpt>
      <trkpt lat="45.12391" lon="2.76459">
        <ele>1483</ele>
        <time>2017-09-02T11:33:59Z</time>
      </trkpt>
      <trkpt lat="45.12388" lon="2.76482">
        <ele>1481</ele>
        <time>2017-09-02T11:34:17Z</time>
      </trkpt>
      <trkpt lat="45.12399" lon="2.76487">
        <ele>1480</ele>
        <time>2017-09-02T11:34:18Z</time>
      </trkpt>
      <trkpt lat="45.12398" lon="2.76494">
        <ele>1477</ele>
        <time>2017-09-02T11:34:26Z</time>
      </trkpt>
      <trkpt lat="45.12399" lon="2.76501">
        <ele>1473</ele>
        <time>2017-09-02T11:34:30Z</time>
      </trkpt>
      <trkpt lat="45.124" lon="2.76507">
        <ele>1470</ele>
        <time>2017-09-02T11:34:35Z</time>
      </trkpt>
      <trkpt lat="45.12399" lon="2.76514">
        <ele>1469</ele>
        <time>2017-09-02T11:34:38Z</time>
      </trkpt>
      <trkpt lat="45.124" lon="2.76521">
        <ele>1466</ele>
        <time>2017-09-02T11:34:42Z</time>
      </trkpt>
      <trkpt lat="45.12403" lon="2.76526">
        <ele>1467</ele>
        <time>2017-09-02T11:34:46Z</time>
      </trkpt>
      <trkpt lat="45.12405" lon="2.76534">
        <ele>1468</ele>
        <time>2017-09-02T11:34:50Z</time>
      </trkpt>
      <trkpt lat="45.12407" lon="2.76541">
        <ele>1468</ele>
        <time>2017-09-02T11:34:54Z</time>
      </trkpt>
      <trkpt lat="45.12407" lon="2.76547">
        <ele>1469</ele>
        <time>2017-09-02T11:34:58Z</time>
      </trkpt>
      <trkpt lat="45.12409" lon="2.76554">
        <ele>1469</ele>
        <time>2017-09-02T11:35:02Z</time>
      </trkpt>
      <trkpt lat="45.12412" lon="2.7656">
        <ele>1469</ele>
        <time>2017-09-02T11:35:06Z</time>
      </trkpt>
      <trkpt lat="45.12415" lon="2.76567">
        <ele>1469</ele>
        <time>2017-09-02T11:35:10Z</time>
      </trkpt>
      <trkpt lat="45.12417" lon="2.76574">
        <ele>1468</ele>
        <time>2017-09-02T11:35:14Z</time>
      </trkpt>
      <trkpt lat="45.12418" lon="2.76581">
        <ele>1468</ele>
        <time>2017-09-02T11:35:17Z</time>
      </trkpt>
      <trkpt lat="45.12418" lon="2.76588">
        <ele>1468</ele>
        <time>2017-09-02T11:35:20Z</time>
      </trkpt>
      <trkpt lat="45.12419" lon="2.76595">
        <ele>1467</ele>
        <time>2017-09-02T11:35:23Z</time>
      </trkpt>
      <trkpt lat="45.1242" lon="2.76601">
        <ele>1466</ele>
        <time>2017-09-02T11:35:26Z</time>
      </trkpt>
      <trkpt lat="45.12421" lon="2.76608">
        <ele>1466</ele>
        <time>2017-09-02T11:35:30Z</time>
      </trkpt>
      <trkpt lat="45.12423" lon="2.76616">
        <ele>1465</ele>
        <time>2017-09-02T11:35:34Z</time>
      </trkpt>
      <trkpt lat="45.12425" lon="2.76624">
        <ele>1463</ele>
        <time>2017-09-02T11:35:38Z</time>
      </trkpt>
      <trkpt lat="45.12426" lon="2.7663">
        <ele>1462</ele>
        <time>2017-09-02T11:35:41Z</time>
      </trkpt>
      <trkpt lat="45.12427" lon="2.76637">
        <ele>1461</ele>
        <time>2017-09-02T11:35:45Z</time>
      </trkpt>
      <trkpt lat="45.12428" lon="2.76644">
        <ele>1461</ele>
        <time>2017-09-02T11:35:49Z</time>
      </trkpt>
      <trkpt lat="45.1243" lon="2.76651">
        <ele>1460</ele>
        <time>2017-09-02T11:35:53Z</time>
      </trkpt>
      <trkpt lat="45.12433" lon="2.76657">
        <ele>1460</ele>
        <time>2017-09-02T11:35:58Z</time>
      </trkpt>
      <trkpt lat="45.12436" lon="2.76663">
        <ele>1460</ele>
        <time>2017-09-02T11:36:05Z</time>
      </trkpt>
      <trkpt lat="45.12437" lon="2.76666">
        <ele>1459</ele>
        <time>2017-09-02T11:36:20Z</time>
      </trkpt>
      <trkpt lat="45.12442" lon="2.76664">
        <ele>1456</ele>
        <time>2017-09-02T11:36:24Z</time>
      </trkpt>
      <trkpt lat="45.1242" lon="2.76675">
        <ele>1451</ele>
        <time>2017-09-02T11:36:25Z</time>
      </trkpt>
      <trkpt lat="45.12426" lon="2.76669">
        <ele>1448</ele>
        <time>2017-09-02T11:36:27Z</time>
      </trkpt>
      <trkpt lat="45.1243" lon="2.76673">
        <ele>1446</ele>
        <time>2017-09-02T11:36:39Z</time>
      </trkpt>
      <trkpt lat="45.12433" lon="2.76678">
        <ele>1446</ele>
        <time>2017-09-02T11:36:46Z</time>
      </trkpt>
      <trkpt lat="45.12432" lon="2.76684">
        <ele>1450</ele>
        <time>2017-09-02T11:36:52Z</time>
      </trkpt>
      <trkpt lat="45.12429" lon="2.7669">
        <ele>1453</ele>
        <time>2017-09-02T11:36:57Z</time>
      </trkpt>
      <trkpt lat="45.12426" lon="2.76695">
        <ele>1455</ele>
        <time>2017-09-02T11:37:04Z</time>
      </trkpt>
      <trkpt lat="45.12426" lon="2.76702">
        <ele>1457</ele>
        <time>2017-09-02T11:37:09Z</time>
      </trkpt>
      <trkpt lat="45.12425" lon="2.7671">
        <ele>1456</ele>
        <time>2017-09-02T11:37:12Z</time>
      </trkpt>
      <trkpt lat="45.12423" lon="2.76717">
        <ele>1455</ele>
        <time>2017-09-02T11:37:16Z</time>
      </trkpt>
      <trkpt lat="45.12418" lon="2.7672">
        <ele>1454</ele>
        <time>2017-09-02T11:37:20Z</time>
      </trkpt>
      <trkpt lat="45.12413" lon="2.76723">
        <ele>1453</ele>
        <time>2017-09-02T11:37:24Z</time>
      </trkpt>
      <trkpt lat="45.12409" lon="2.76728">
        <ele>1452</ele>
        <time>2017-09-02T11:37:28Z</time>
      </trkpt>
      <trkpt lat="45.12407" lon="2.76734">
        <ele>1451</ele>
        <time>2017-09-02T11:37:31Z</time>
      </trkpt>
      <trkpt lat="45.12404" lon="2.76739">
        <ele>1449</ele>
        <time>2017-09-02T11:37:35Z</time>
      </trkpt>
      <trkpt lat="45.12402" lon="2.76745">
        <ele>1449</ele>
        <time>2017-09-02T11:37:40Z</time>
      </trkpt>
      <trkpt lat="45.12396" lon="2.76746">
        <ele>1448</ele>
        <time>2017-09-02T11:37:46Z</time>
      </trkpt>
      <trkpt lat="45.12392" lon="2.76749">
        <ele>1448</ele>
        <time>2017-09-02T11:37:50Z</time>
      </trkpt>
      <trkpt lat="45.12387" lon="2.76749">
        <ele>1448</ele>
        <time>2017-09-02T11:37:55Z</time>
      </trkpt>
      <trkpt lat="45.12382" lon="2.76748">
        <ele>1447</ele>
        <time>2017-09-02T11:37:59Z</time>
      </trkpt>
      <trkpt lat="45.12377" lon="2.76747">
        <ele>1447</ele>
        <time>2017-09-02T11:38:03Z</time>
      </trkpt>
      <trkpt lat="45.12373" lon="2.76747">
        <ele>1447</ele>
        <time>2017-09-02T11:38:07Z</time>
      </trkpt>
      <trkpt lat="45.12368" lon="2.7675">
        <ele>1447</ele>
        <time>2017-09-02T11:38:12Z</time>
      </trkpt>
      <trkpt lat="45.12363" lon="2.76754">
        <ele>1447</ele>
        <time>2017-09-02T11:38:17Z</time>
      </trkpt>
      <trkpt lat="45.12358" lon="2.76757">
        <ele>1447</ele>
        <time>2017-09-02T11:38:22Z</time>
      </trkpt>
      <trkpt lat="45.12353" lon="2.7676">
        <ele>1447</ele>
        <time>2017-09-02T11:38:27Z</time>
      </trkpt>
      <trkpt lat="45.12348" lon="2.76762">
        <ele>1447</ele>
        <time>2017-09-02T11:38:32Z</time>
      </trkpt>
      <trkpt lat="45.12344" lon="2.76765">
        <ele>1447</ele>
        <time>2017-09-02T11:38:36Z</time>
      </trkpt>
      <trkpt lat="45.12339" lon="2.76768">
        <ele>1447</ele>
        <time>2017-09-02T11:38:40Z</time>
      </trkpt>
      <trkpt lat="45.12335" lon="2.76772">
        <ele>1446</ele>
        <time>2017-09-02T11:38:43Z</time>
      </trkpt>
      <trkpt lat="45.12331" lon="2.76776">
        <ele>1446</ele>
        <time>2017-09-02T11:38:47Z</time>
      </trkpt>
      <trkpt lat="45.12328" lon="2.76781">
        <ele>1446</ele>
        <time>2017-09-02T11:38:51Z</time>
      </trkpt>
      <trkpt lat="45.12323" lon="2.76785">
        <ele>1446</ele>
        <time>2017-09-02T11:38:55Z</time>
      </trkpt>
      <trkpt lat="45.12318" lon="2.76787">
        <ele>1445</ele>
        <time>2017-09-02T11:39:02Z</time>
      </trkpt>
      <trkpt lat="45.12316" lon="2.76792">
        <ele>1445</ele>
        <time>2017-09-02T11:39:06Z</time>
      </trkpt>
      <trkpt lat="45.12314" lon="2.76799">
        <ele>1444</ele>
        <time>2017-09-02T11:39:10Z</time>
      </trkpt>
      <trkpt lat="45.12314" lon="2.76806">
        <ele>1443</ele>
        <time>2017-09-02T11:39:14Z</time>
      </trkpt>
      <trkpt lat="45.12312" lon="2.76814">
        <ele>1442</ele>
        <time>2017-09-02T11:39:18Z</time>
      </trkpt>
      <trkpt lat="45.1231" lon="2.76821">
        <ele>1441</ele>
        <time>2017-09-02T11:39:22Z</time>
      </trkpt>
      <trkpt lat="45.12309" lon="2.76828">
        <ele>1441</ele>
        <time>2017-09-02T11:39:26Z</time>
      </trkpt>
      <trkpt lat="45.12307" lon="2.76834">
        <ele>1441</ele>
        <time>2017-09-02T11:39:29Z</time>
      </trkpt>
      <trkpt lat="45.12305" lon="2.7684">
        <ele>1441</ele>
        <time>2017-09-02T11:39:32Z</time>
      </trkpt>
      <trkpt lat="45.12304" lon="2.76847">
        <ele>1441</ele>
        <time>2017-09-02T11:39:36Z</time>
      </trkpt>
      <trkpt lat="45.12302" lon="2.76854">
        <ele>1441</ele>
        <time>2017-09-02T11:39:41Z</time>
      </trkpt>
      <trkpt lat="45.12299" lon="2.76861">
        <ele>1441</ele>
        <time>2017-09-02T11:39:45Z</time>
      </trkpt>
      <trkpt lat="45.12297" lon="2.76868">
        <ele>1440</ele>
        <time>2017-09-02T11:39:50Z</time>
      </trkpt>
      <trkpt lat="45.12294" lon="2.76875">
        <ele>1439</ele>
        <time>2017-09-02T11:39:54Z</time>
      </trkpt>
      <trkpt lat="45.12292" lon="2.76882">
        <ele>1438</ele>
        <time>2017-09-02T11:39:58Z</time>
      </trkpt>
      <trkpt lat="45.12291" lon="2.7689">
        <ele>1437</ele>
        <time>2017-09-02T11:40:02Z</time>
      </trkpt>
      <trkpt lat="45.12289" lon="2.76896">
        <ele>1436</ele>
        <time>2017-09-02T11:40:07Z</time>
      </trkpt>
      <trkpt lat="45.12288" lon="2.76903">
        <ele>1436</ele>
        <time>2017-09-02T11:40:11Z</time>
      </trkpt>
      <trkpt lat="45.12287" lon="2.7691">
        <ele>1435</ele>
        <time>2017-09-02T11:40:15Z</time>
      </trkpt>
      <trkpt lat="45.12286" lon="2.76917">
        <ele>1434</ele>
        <time>2017-09-02T11:40:21Z</time>
      </trkpt>
      <trkpt lat="45.12285" lon="2.76923">
        <ele>1433</ele>
        <time>2017-09-02T11:40:25Z</time>
      </trkpt>
      <trkpt lat="45.12283" lon="2.76928">
        <ele>1431</ele>
        <time>2017-09-02T11:40:29Z</time>
      </trkpt>
      <trkpt lat="45.1228" lon="2.76934">
        <ele>1429</ele>
        <time>2017-09-02T11:40:34Z</time>
      </trkpt>
      <trkpt lat="45.12277" lon="2.7694">
        <ele>1427</ele>
        <time>2017-09-02T11:40:38Z</time>
      </trkpt>
      <trkpt lat="45.12273" lon="2.76945">
        <ele>1426</ele>
        <time>2017-09-02T11:40:43Z</time>
      </trkpt>
      <trkpt lat="45.12269" lon="2.76948">
        <ele>1424</ele>
        <time>2017-09-02T11:40:50Z</time>
      </trkpt>
      <trkpt lat="45.12265" lon="2.76951">
        <ele>1423</ele>
        <time>2017-09-02T11:40:56Z</time>
      </trkpt>
      <trkpt lat="45.1226" lon="2.76955">
        <ele>1421</ele>
        <time>2017-09-02T11:41:01Z</time>
      </trkpt>
      <trkpt lat="45.12256" lon="2.76959">
        <ele>1420</ele>
        <time>2017-09-02T11:41:06Z</time>
      </trkpt>
      <trkpt lat="45.12252" lon="2.76962">
        <ele>1419</ele>
        <time>2017-09-02T11:41:10Z</time>
      </trkpt>
      <trkpt lat="45.12247" lon="2.76965">
        <ele>1417</ele>
        <time>2017-09-02T11:41:15Z</time>
      </trkpt>
      <trkpt lat="45.12241" lon="2.76967">
        <ele>1416</ele>
        <time>2017-09-02T11:41:21Z</time>
      </trkpt>
      <trkpt lat="45.12237" lon="2.76969">
        <ele>1416</ele>
        <time>2017-09-02T11:41:25Z</time>
      </trkpt>
      <trkpt lat="45.12231" lon="2.7697">
        <ele>1415</ele>
        <time>2017-09-02T11:41:29Z</time>
      </trkpt>
      <trkpt lat="45.12226" lon="2.76971">
        <ele>1415</ele>
        <time>2017-09-02T11:41:33Z</time>
      </trkpt>
      <trkpt lat="45.12221" lon="2.76972">
        <ele>1414</ele>
        <time>2017-09-02T11:41:36Z</time>
      </trkpt>
      <trkpt lat="45.12215" lon="2.76974">
        <ele>1413</ele>
        <time>2017-09-02T11:41:40Z</time>
      </trkpt>
      <trkpt lat="45.12211" lon="2.76976">
        <ele>1413</ele>
        <time>2017-09-02T11:41:44Z</time>
      </trkpt>
      <trkpt lat="45.12206" lon="2.76981">
        <ele>1413</ele>
        <time>2017-09-02T11:41:49Z</time>
      </trkpt>
      <trkpt lat="45.12202" lon="2.76986">
        <ele>1412</ele>
        <time>2017-09-02T11:41:53Z</time>
      </trkpt>
      <trkpt lat="45.12199" lon="2.7699">
        <ele>1413</ele>
        <time>2017-09-02T11:41:56Z</time>
      </trkpt>
      <trkpt lat="45.12195" lon="2.76995">
        <ele>1412</ele>
        <time>2017-09-02T11:42:00Z</time>
      </trkpt>
      <trkpt lat="45.12191" lon="2.77001">
        <ele>1412</ele>
        <time>2017-09-02T11:42:05Z</time>
      </trkpt>
      <trkpt lat="45.12187" lon="2.77005">
        <ele>1412</ele>
        <time>2017-09-02T11:42:09Z</time>
      </trkpt>
      <trkpt lat="45.12183" lon="2.77009">
        <ele>1411</ele>
        <time>2017-09-02T11:42:13Z</time>
      </trkpt>
      <trkpt lat="45.12178" lon="2.77012">
        <ele>1411</ele>
        <time>2017-09-02T11:42:18Z</time>
      </trkpt>
      <trkpt lat="45.12173" lon="2.77016">
        <ele>1410</ele>
        <time>2017-09-02T11:42:22Z</time>
      </trkpt>
      <trkpt lat="45.12169" lon="2.77019">
        <ele>1409</ele>
        <time>2017-09-02T11:42:26Z</time>
      </trkpt>
      <trkpt lat="45.12164" lon="2.77022">
        <ele>1409</ele>
        <time>2017-09-02T11:42:30Z</time>
      </trkpt>
      <trkpt lat="45.12158" lon="2.77024">
        <ele>1408</ele>
        <time>2017-09-02T11:42:34Z</time>
      </trkpt>
      <trkpt lat="45.12153" lon="2.77026">
        <ele>1408</ele>
        <time>2017-09-02T11:42:38Z</time>
      </trkpt>
      <trkpt lat="45.12147" lon="2.77028">
        <ele>1408</ele>
        <time>2017-09-02T11:42:42Z</time>
      </trkpt>
      <trkpt lat="45.12143" lon="2.77029">
        <ele>1408</ele>
        <time>2017-09-02T11:42:45Z</time>
      </trkpt>
      <trkpt lat="45.12137" lon="2.77031">
        <ele>1408</ele>
        <time>2017-09-02T11:42:49Z</time>
      </trkpt>
      <trkpt lat="45.12132" lon="2.77032">
        <ele>1408</ele>
        <time>2017-09-02T11:42:53Z</time>
      </trkpt>
      <trkpt lat="45.12126" lon="2.77031">
        <ele>1408</ele>
        <time>2017-09-02T11:42:57Z</time>
      </trkpt>
      <trkpt lat="45.12122" lon="2.77031">
        <ele>1409</ele>
        <time>2017-09-02T11:43:00Z</time>
      </trkpt>
      <trkpt lat="45.12116" lon="2.7703">
        <ele>1409</ele>
        <time>2017-09-02T11:43:04Z</time>
      </trkpt>
      <trkpt lat="45.12111" lon="2.77032">
        <ele>1410</ele>
        <time>2017-09-02T11:43:08Z</time>
      </trkpt>
      <trkpt lat="45.12106" lon="2.77034">
        <ele>1410</ele>
        <time>2017-09-02T11:43:13Z</time>
      </trkpt>
      <trkpt lat="45.12101" lon="2.77037">
        <ele>1410</ele>
        <time>2017-09-02T11:43:17Z</time>
      </trkpt>
      <trkpt lat="45.12096" lon="2.77037">
        <ele>1411</ele>
        <time>2017-09-02T11:43:21Z</time>
      </trkpt>
      <trkpt lat="45.12091" lon="2.77037">
        <ele>1411</ele>
        <time>2017-09-02T11:43:26Z</time>
      </trkpt>
      <trkpt lat="45.12087" lon="2.77038">
        <ele>1411</ele>
        <time>2017-09-02T11:43:31Z</time>
      </trkpt>
      <trkpt lat="45.12082" lon="2.7704">
        <ele>1411</ele>
        <time>2017-09-02T11:43:37Z</time>
      </trkpt>
      <trkpt lat="45.12077" lon="2.77044">
        <ele>1412</ele>
        <time>2017-09-02T11:43:43Z</time>
      </trkpt>
      <trkpt lat="45.12073" lon="2.77047">
        <ele>1412</ele>
        <time>2017-09-02T11:43:50Z</time>
      </trkpt>
      <trkpt lat="45.12067" lon="2.77049">
        <ele>1411</ele>
        <time>2017-09-02T11:44:02Z</time>
      </trkpt>
      <trkpt lat="45.12062" lon="2.77049">
        <ele>1411</ele>
        <time>2017-09-02T11:44:06Z</time>
      </trkpt>
      <trkpt lat="45.12058" lon="2.77055">
        <ele>1410</ele>
        <time>2017-09-02T11:44:11Z</time>
      </trkpt>
      <trkpt lat="45.12052" lon="2.77058">
        <ele>1409</ele>
        <time>2017-09-02T11:44:18Z</time>
      </trkpt>
      <trkpt lat="45.12046" lon="2.77058">
        <ele>1408</ele>
        <time>2017-09-02T11:44:24Z</time>
      </trkpt>
      <trkpt lat="45.12041" lon="2.77059">
        <ele>1406</ele>
        <time>2017-09-02T11:44:31Z</time>
      </trkpt>
      <trkpt lat="45.12036" lon="2.77059">
        <ele>1405</ele>
        <time>2017-09-02T11:44:38Z</time>
      </trkpt>
      <trkpt lat="45.12032" lon="2.77065">
        <ele>1403</ele>
        <time>2017-09-02T11:44:44Z</time>
      </trkpt>
      <trkpt lat="45.12028" lon="2.77069">
        <ele>1402</ele>
        <time>2017-09-02T11:44:47Z</time>
      </trkpt>
      <trkpt lat="45.12022" lon="2.77072">
        <ele>1400</ele>
        <time>2017-09-02T11:44:52Z</time>
      </trkpt>
      <trkpt lat="45.12017" lon="2.77074">
        <ele>1398</ele>
        <time>2017-09-02T11:44:55Z</time>
      </trkpt>
      <trkpt lat="45.12012" lon="2.77076">
        <ele>1396</ele>
        <time>2017-09-02T11:44:59Z</time>
      </trkpt>
      <trkpt lat="45.12008" lon="2.7708">
        <ele>1395</ele>
        <time>2017-09-02T11:45:02Z</time>
      </trkpt>
      <trkpt lat="45.12005" lon="2.77085">
        <ele>1393</ele>
        <time>2017-09-02T11:45:06Z</time>
      </trkpt>
      <trkpt lat="45.12002" lon="2.7709">
        <ele>1392</ele>
        <time>2017-09-02T11:45:10Z</time>
      </trkpt>
      <trkpt lat="45.11998" lon="2.77095">
        <ele>1392</ele>
        <time>2017-09-02T11:45:13Z</time>
      </trkpt>
      <trkpt lat="45.11994" lon="2.77099">
        <ele>1393</ele>
        <time>2017-09-02T11:45:16Z</time>
      </trkpt>
      <trkpt lat="45.1199" lon="2.77103">
        <ele>1394</ele>
        <time>2017-09-02T11:45:19Z</time>
      </trkpt>
      <trkpt lat="45.11987" lon="2.77109">
        <ele>1396</ele>
        <time>2017-09-02T11:45:22Z</time>
      </trkpt>
      <trkpt lat="45.11983" lon="2.77114">
        <ele>1398</ele>
        <time>2017-09-02T11:45:26Z</time>
      </trkpt>
      <trkpt lat="45.11979" lon="2.77119">
        <ele>1399</ele>
        <time>2017-09-02T11:45:32Z</time>
      </trkpt>
      <trkpt lat="45.11976" lon="2.77124">
        <ele>1400</ele>
        <time>2017-09-02T11:45:36Z</time>
      </trkpt>
      <trkpt lat="45.11972" lon="2.77129">
        <ele>1401</ele>
        <time>2017-09-02T11:45:41Z</time>
      </trkpt>
      <trkpt lat="45.11968" lon="2.77134">
        <ele>1401</ele>
        <time>2017-09-02T11:45:45Z</time>
      </trkpt>
      <trkpt lat="45.11963" lon="2.77139">
        <ele>1402</ele>
        <time>2017-09-02T11:45:49Z</time>
      </trkpt>
      <trkpt lat="45.11958" lon="2.77144">
        <ele>1402</ele>
        <time>2017-09-02T11:45:53Z</time>
      </trkpt>
      <trkpt lat="45.11953" lon="2.77149">
        <ele>1402</ele>
        <time>2017-09-02T11:45:57Z</time>
      </trkpt>
      <trkpt lat="45.11948" lon="2.77154">
        <ele>1403</ele>
        <time>2017-09-02T11:46:01Z</time>
      </trkpt>
      <trkpt lat="45.11944" lon="2.77158">
        <ele>1403</ele>
        <time>2017-09-02T11:46:04Z</time>
      </trkpt>
      <trkpt lat="45.11941" lon="2.77163">
        <ele>1404</ele>
        <time>2017-09-02T11:46:07Z</time>
      </trkpt>
      <trkpt lat="45.11937" lon="2.77167">
        <ele>1404</ele>
        <time>2017-09-02T11:46:10Z</time>
      </trkpt>
      <trkpt lat="45.11932" lon="2.77172">
        <ele>1404</ele>
        <time>2017-09-02T11:46:14Z</time>
      </trkpt>
      <trkpt lat="45.11928" lon="2.77176">
        <ele>1405</ele>
        <time>2017-09-02T11:46:18Z</time>
      </trkpt>
      <trkpt lat="45.11924" lon="2.77179">
        <ele>1405</ele>
        <time>2017-09-02T11:46:21Z</time>
      </trkpt>
      <trkpt lat="45.1192" lon="2.77183">
        <ele>1406</ele>
        <time>2017-09-02T11:46:24Z</time>
      </trkpt>
      <trkpt lat="45.11916" lon="2.77187">
        <ele>1406</ele>
        <time>2017-09-02T11:46:27Z</time>
      </trkpt>
      <trkpt lat="45.11911" lon="2.77191">
        <ele>1407</ele>
        <time>2017-09-02T11:46:31Z</time>
      </trkpt>
      <trkpt lat="45.11906" lon="2.77194">
        <ele>1407</ele>
        <time>2017-09-02T11:46:34Z</time>
      </trkpt>
      <trkpt lat="45.11901" lon="2.77198">
        <ele>1408</ele>
        <time>2017-09-02T11:46:38Z</time>
      </trkpt>
      <trkpt lat="45.11897" lon="2.77203">
        <ele>1409</ele>
        <time>2017-09-02T11:46:42Z</time>
      </trkpt>
      <trkpt lat="45.11893" lon="2.77207">
        <ele>1410</ele>
        <time>2017-09-02T11:46:46Z</time>
      </trkpt>
      <trkpt lat="45.11889" lon="2.77212">
        <ele>1411</ele>
        <time>2017-09-02T11:46:50Z</time>
      </trkpt>
      <trkpt lat="45.11886" lon="2.77218">
        <ele>1412</ele>
        <time>2017-09-02T11:46:54Z</time>
      </trkpt>
      <trkpt lat="45.11883" lon="2.77223">
        <ele>1412</ele>
        <time>2017-09-02T11:46:58Z</time>
      </trkpt>
      <trkpt lat="45.11879" lon="2.77229">
        <ele>1413</ele>
        <time>2017-09-02T11:47:03Z</time>
      </trkpt>
      <trkpt lat="45.11876" lon="2.77233">
        <ele>1413</ele>
        <time>2017-09-02T11:47:07Z</time>
      </trkpt>
      <trkpt lat="45.11871" lon="2.77235">
        <ele>1414</ele>
        <time>2017-09-02T11:47:12Z</time>
      </trkpt>
      <trkpt lat="45.11866" lon="2.77238">
        <ele>1415</ele>
        <time>2017-09-02T11:47:17Z</time>
      </trkpt>
      <trkpt lat="45.11861" lon="2.77239">
        <ele>1415</ele>
        <time>2017-09-02T11:47:22Z</time>
      </trkpt>
      <trkpt lat="45.11859" lon="2.77245">
        <ele>1415</ele>
        <time>2017-09-02T11:47:31Z</time>
      </trkpt>
      <trkpt lat="45.11854" lon="2.77248">
        <ele>1415</ele>
        <time>2017-09-02T11:47:40Z</time>
      </trkpt>
      <trkpt lat="45.1185" lon="2.77251">
        <ele>1415</ele>
        <time>2017-09-02T11:47:47Z</time>
      </trkpt>
      <trkpt lat="45.11848" lon="2.77257">
        <ele>1415</ele>
        <time>2017-09-02T11:47:52Z</time>
      </trkpt>
      <trkpt lat="45.11844" lon="2.77262">
        <ele>1415</ele>
        <time>2017-09-02T11:47:56Z</time>
      </trkpt>
      <trkpt lat="45.1184" lon="2.77268">
        <ele>1415</ele>
        <time>2017-09-02T11:48:03Z</time>
      </trkpt>
      <trkpt lat="45.11837" lon="2.77275">
        <ele>1415</ele>
        <time>2017-09-02T11:48:06Z</time>
      </trkpt>
      <trkpt lat="45.11834" lon="2.77281">
        <ele>1414</ele>
        <time>2017-09-02T11:48:09Z</time>
      </trkpt>
      <trkpt lat="45.11831" lon="2.77285">
        <ele>1414</ele>
        <time>2017-09-02T11:48:12Z</time>
      </trkpt>
      <trkpt lat="45.11827" lon="2.77291">
        <ele>1414</ele>
        <time>2017-09-02T11:48:16Z</time>
      </trkpt>
      <trkpt lat="45.11824" lon="2.77296">
        <ele>1414</ele>
        <time>2017-09-02T11:48:20Z</time>
      </trkpt>
      <trkpt lat="45.1182" lon="2.773">
        <ele>1415</ele>
        <time>2017-09-02T11:48:25Z</time>
      </trkpt>
      <trkpt lat="45.11815" lon="2.77303">
        <ele>1415</ele>
        <time>2017-09-02T11:48:31Z</time>
      </trkpt>
      <trkpt lat="45.1181" lon="2.77304">
        <ele>1416</ele>
        <time>2017-09-02T11:48:40Z</time>
      </trkpt>
      <trkpt lat="45.11806" lon="2.77308">
        <ele>1416</ele>
        <time>2017-09-02T11:48:49Z</time>
      </trkpt>
      <trkpt lat="45.118" lon="2.77308">
        <ele>1416</ele>
        <time>2017-09-02T11:49:01Z</time>
      </trkpt>
      <trkpt lat="45.11804" lon="2.77305">
        <ele>1417</ele>
        <time>2017-09-02T11:49:07Z</time>
      </trkpt>
      <trkpt lat="45.11796" lon="2.77311">
        <ele>1417</ele>
        <time>2017-09-02T11:49:31Z</time>
      </trkpt>
      <trkpt lat="45.11756" lon="2.77315">
        <ele>1415</ele>
        <time>2017-09-02T11:50:10Z</time>
      </trkpt>
      <trkpt lat="45.1175" lon="2.77331">
        <ele>1392</ele>
        <time>2017-09-02T11:50:51Z</time>
      </trkpt>
      <trkpt lat="45.11794" lon="2.77372">
        <ele>1416</ele>
        <time>2017-09-02T12:10:39Z</time>
      </trkpt>
      <trkpt lat="45.11791" lon="2.77378">
        <ele>1416</ele>
        <time>2017-09-02T12:10:43Z</time>
      </trkpt>
      <trkpt lat="45.11788" lon="2.77383">
        <ele>1416</ele>
        <time>2017-09-02T12:10:46Z</time>
      </trkpt>
      <trkpt lat="45.11792" lon="2.77378">
        <ele>1416</ele>
        <time>2017-09-02T12:11:00Z</time>
      </trkpt>
      <trkpt lat="45.11794" lon="2.77372">
        <ele>1416</ele>
        <time>2017-09-02T12:11:04Z</time>
      </trkpt>
      <trkpt lat="45.11796" lon="2.77364">
        <ele>1416</ele>
        <time>2017-09-02T12:11:08Z</time>
      </trkpt>
      <trkpt lat="45.118" lon="2.77359">
        <ele>1416</ele>
        <time>2017-09-02T12:11:15Z</time>
      </trkpt>
      <trkpt lat="45.11802" lon="2.77354">
        <ele>1416</ele>
        <time>2017-09-02T12:11:18Z</time>
      </trkpt>
      <trkpt lat="45.11804" lon="2.77348">
        <ele>1416</ele>
        <time>2017-09-02T12:11:22Z</time>
      </trkpt>
      <trkpt lat="45.11802" lon="2.77342">
        <ele>1417</ele>
        <time>2017-09-02T12:11:28Z</time>
      </trkpt>
      <trkpt lat="45.11796" lon="2.7734">
        <ele>1417</ele>
        <time>2017-09-02T12:11:33Z</time>
      </trkpt>
      <trkpt lat="45.11792" lon="2.77336">
        <ele>1418</ele>
        <time>2017-09-02T12:11:37Z</time>
      </trkpt>
      <trkpt lat="45.11788" lon="2.77331">
        <ele>1418</ele>
        <time>2017-09-02T12:11:42Z</time>
      </trkpt>
      <trkpt lat="45.11784" lon="2.77327">
        <ele>1419</ele>
        <time>2017-09-02T12:11:45Z</time>
      </trkpt>
      <trkpt lat="45.1178" lon="2.77324">
        <ele>1419</ele>
        <time>2017-09-02T12:11:49Z</time>
      </trkpt>
      <trkpt lat="45.11781" lon="2.77317">
        <ele>1419</ele>
        <time>2017-09-02T12:11:54Z</time>
      </trkpt>
      <trkpt lat="45.11782" lon="2.7731">
        <ele>1420</ele>
        <time>2017-09-02T12:11:59Z</time>
      </trkpt>
      <trkpt lat="45.11785" lon="2.77304">
        <ele>1421</ele>
        <time>2017-09-02T12:12:04Z</time>
      </trkpt>
      <trkpt lat="45.11789" lon="2.77298">
        <ele>1422</ele>
        <time>2017-09-02T12:12:08Z</time>
      </trkpt>
      <trkpt lat="45.11791" lon="2.77292">
        <ele>1422</ele>
        <time>2017-09-02T12:12:12Z</time>
      </trkpt>
      <trkpt lat="45.11794" lon="2.77287">
        <ele>1422</ele>
        <time>2017-09-02T12:12:15Z</time>
      </trkpt>
      <trkpt lat="45.11796" lon="2.77281">
        <ele>1422</ele>
        <time>2017-09-02T12:12:18Z</time>
      </trkpt>
      <trkpt lat="45.11798" lon="2.77275">
        <ele>1422</ele>
        <time>2017-09-02T12:12:22Z</time>
      </trkpt>
      <trkpt lat="45.118" lon="2.77268">
        <ele>1422</ele>
        <time>2017-09-02T12:12:28Z</time>
      </trkpt>
      <trkpt lat="45.118" lon="2.77261">
        <ele>1422</ele>
        <time>2017-09-02T12:12:36Z</time>
      </trkpt>
      <trkpt lat="45.11798" lon="2.77255">
        <ele>1421</ele>
        <time>2017-09-02T12:12:44Z</time>
      </trkpt>
      <trkpt lat="45.118" lon="2.77248">
        <ele>1421</ele>
        <time>2017-09-02T12:12:48Z</time>
      </trkpt>
      <trkpt lat="45.11803" lon="2.77243">
        <ele>1421</ele>
        <time>2017-09-02T12:12:52Z</time>
      </trkpt>
      <trkpt lat="45.11805" lon="2.77237">
        <ele>1420</ele>
        <time>2017-09-02T12:12:56Z</time>
      </trkpt>
      <trkpt lat="45.11808" lon="2.77231">
        <ele>1419</ele>
        <time>2017-09-02T12:12:59Z</time>
      </trkpt>
      <trkpt lat="45.1181" lon="2.77225">
        <ele>1418</ele>
        <time>2017-09-02T12:13:03Z</time>
      </trkpt>
      <trkpt lat="45.11813" lon="2.7722">
        <ele>1417</ele>
        <time>2017-09-02T12:13:06Z</time>
      </trkpt>
      <trkpt lat="45.11816" lon="2.77214">
        <ele>1417</ele>
        <time>2017-09-02T12:13:10Z</time>
      </trkpt>
      <trkpt lat="45.11819" lon="2.77207">
        <ele>1416</ele>
        <time>2017-09-02T12:13:14Z</time>
      </trkpt>
      <trkpt lat="45.1182" lon="2.772">
        <ele>1416</ele>
        <time>2017-09-02T12:13:18Z</time>
      </trkpt>
      <trkpt lat="45.11823" lon="2.77193">
        <ele>1416</ele>
        <time>2017-09-02T12:13:22Z</time>
      </trkpt>
      <trkpt lat="45.11826" lon="2.77187">
        <ele>1415</ele>
        <time>2017-09-02T12:13:25Z</time>
      </trkpt>
      <trkpt lat="45.11828" lon="2.77181">
        <ele>1414</ele>
        <time>2017-09-02T12:13:28Z</time>
      </trkpt>
      <trkpt lat="45.11828" lon="2.77174">
        <ele>1413</ele>
        <time>2017-09-02T12:13:32Z</time>
      </trkpt>
      <trkpt lat="45.11828" lon="2.77167">
        <ele>1412</ele>
        <time>2017-09-02T12:13:36Z</time>
      </trkpt>
      <trkpt lat="45.11829" lon="2.7716">
        <ele>1412</ele>
        <time>2017-09-02T12:13:41Z</time>
      </trkpt>
      <trkpt lat="45.11829" lon="2.77154">
        <ele>1411</ele>
        <time>2017-09-02T12:13:44Z</time>
      </trkpt>
      <trkpt lat="45.11826" lon="2.77147">
        <ele>1411</ele>
        <time>2017-09-02T12:13:48Z</time>
      </trkpt>
      <trkpt lat="45.11822" lon="2.77142">
        <ele>1411</ele>
        <time>2017-09-02T12:13:52Z</time>
      </trkpt>
      <trkpt lat="45.11824" lon="2.77135">
        <ele>1411</ele>
        <time>2017-09-02T12:13:56Z</time>
      </trkpt>
      <trkpt lat="45.11828" lon="2.77129">
        <ele>1411</ele>
        <time>2017-09-02T12:14:00Z</time>
      </trkpt>
      <trkpt lat="45.11828" lon="2.77121">
        <ele>1411</ele>
        <time>2017-09-02T12:14:05Z</time>
      </trkpt>
      <trkpt lat="45.11829" lon="2.77115">
        <ele>1411</ele>
        <time>2017-09-02T12:14:11Z</time>
      </trkpt>
      <trkpt lat="45.11829" lon="2.77107">
        <ele>1411</ele>
        <time>2017-09-02T12:14:16Z</time>
      </trkpt>
      <trkpt lat="45.11826" lon="2.77101">
        <ele>1412</ele>
        <time>2017-09-02T12:14:21Z</time>
      </trkpt>
      <trkpt lat="45.1183" lon="2.77095">
        <ele>1413</ele>
        <time>2017-09-02T12:14:24Z</time>
      </trkpt>
      <trkpt lat="45.11833" lon="2.7709">
        <ele>1413</ele>
        <time>2017-09-02T12:14:29Z</time>
      </trkpt>
      <trkpt lat="45.11832" lon="2.77084">
        <ele>1414</ele>
        <time>2017-09-02T12:14:35Z</time>
      </trkpt>
      <trkpt lat="45.1183" lon="2.77077">
        <ele>1414</ele>
        <time>2017-09-02T12:14:40Z</time>
      </trkpt>
      <trkpt lat="45.1183" lon="2.7707">
        <ele>1415</ele>
        <time>2017-09-02T12:14:58Z</time>
      </trkpt>
      <trkpt lat="45.11829" lon="2.77063">
        <ele>1415</ele>
        <time>2017-09-02T12:15:03Z</time>
      </trkpt>
      <trkpt lat="45.11828" lon="2.77056">
        <ele>1416</ele>
        <time>2017-09-02T12:15:07Z</time>
      </trkpt>
      <trkpt lat="45.11827" lon="2.7705">
        <ele>1416</ele>
        <time>2017-09-02T12:15:11Z</time>
      </trkpt>
      <trkpt lat="45.11827" lon="2.77041">
        <ele>1416</ele>
        <time>2017-09-02T12:15:15Z</time>
      </trkpt>
      <trkpt lat="45.11827" lon="2.77035">
        <ele>1415</ele>
        <time>2017-09-02T12:15:19Z</time>
      </trkpt>
      <trkpt lat="45.11825" lon="2.77028">
        <ele>1415</ele>
        <time>2017-09-02T12:15:22Z</time>
      </trkpt>
      <trkpt lat="45.11823" lon="2.7702">
        <ele>1415</ele>
        <time>2017-09-02T12:15:26Z</time>
      </trkpt>
      <trkpt lat="45.11821" lon="2.77014">
        <ele>1415</ele>
        <time>2017-09-02T12:15:29Z</time>
      </trkpt>
      <trkpt lat="45.1182" lon="2.77008">
        <ele>1415</ele>
        <time>2017-09-02T12:15:33Z</time>
      </trkpt>
      <trkpt lat="45.11816" lon="2.77001">
        <ele>1415</ele>
        <time>2017-09-02T12:15:38Z</time>
      </trkpt>
      <trkpt lat="45.11813" lon="2.76995">
        <ele>1415</ele>
        <time>2017-09-02T12:15:41Z</time>
      </trkpt>
      <trkpt lat="45.1181" lon="2.76989">
        <ele>1415</ele>
        <time>2017-09-02T12:15:45Z</time>
      </trkpt>
      <trkpt lat="45.11808" lon="2.76981">
        <ele>1415</ele>
        <time>2017-09-02T12:15:49Z</time>
      </trkpt>
      <trkpt lat="45.11806" lon="2.76976">
        <ele>1415</ele>
        <time>2017-09-02T12:15:52Z</time>
      </trkpt>
      <trkpt lat="45.11803" lon="2.76969">
        <ele>1415</ele>
        <time>2017-09-02T12:15:55Z</time>
      </trkpt>
      <trkpt lat="45.118" lon="2.76964">
        <ele>1415</ele>
        <time>2017-09-02T12:15:58Z</time>
      </trkpt>
      <trkpt lat="45.11797" lon="2.76958">
        <ele>1415</ele>
        <time>2017-09-02T12:16:02Z</time>
      </trkpt>
      <trkpt lat="45.11795" lon="2.7695">
        <ele>1415</ele>
        <time>2017-09-02T12:16:06Z</time>
      </trkpt>
      <trkpt lat="45.11794" lon="2.76944">
        <ele>1414</ele>
        <time>2017-09-02T12:16:10Z</time>
      </trkpt>
      <trkpt lat="45.11791" lon="2.76936">
        <ele>1414</ele>
        <time>2017-09-02T12:16:14Z</time>
      </trkpt>
      <trkpt lat="45.1179" lon="2.76929">
        <ele>1414</ele>
        <time>2017-09-02T12:16:17Z</time>
      </trkpt>
      <trkpt lat="45.1179" lon="2.7692">
        <ele>1413</ele>
        <time>2017-09-02T12:16:21Z</time>
      </trkpt>
      <trkpt lat="45.11791" lon="2.76913">
        <ele>1413</ele>
        <time>2017-09-02T12:16:25Z</time>
      </trkpt>
      <trkpt lat="45.11791" lon="2.76904">
        <ele>1412</ele>
        <time>2017-09-02T12:16:29Z</time>
      </trkpt>
      <trkpt lat="45.11791" lon="2.76896">
        <ele>1412</ele>
        <time>2017-09-02T12:16:33Z</time>
      </trkpt>
      <trkpt lat="45.11792" lon="2.7689">
        <ele>1411</ele>
        <time>2017-09-02T12:16:36Z</time>
      </trkpt>
      <trkpt lat="45.11792" lon="2.76882">
        <ele>1411</ele>
        <time>2017-09-02T12:16:40Z</time>
      </trkpt>
      <trkpt lat="45.11793" lon="2.76875">
        <ele>1411</ele>
        <time>2017-09-02T12:16:43Z</time>
      </trkpt>
      <trkpt lat="45.11793" lon="2.76868">
        <ele>1411</ele>
        <time>2017-09-02T12:16:46Z</time>
      </trkpt>
      <trkpt lat="45.11793" lon="2.76861">
        <ele>1410</ele>
        <time>2017-09-02T12:16:49Z</time>
      </trkpt>
      <trkpt lat="45.11796" lon="2.76853">
        <ele>1410</ele>
        <time>2017-09-02T12:16:53Z</time>
      </trkpt>
      <trkpt lat="45.11799" lon="2.76847">
        <ele>1410</ele>
        <time>2017-09-02T12:16:57Z</time>
      </trkpt>
      <trkpt lat="45.11797" lon="2.76839">
        <ele>1409</ele>
        <time>2017-09-02T12:17:01Z</time>
      </trkpt>
      <trkpt lat="45.11797" lon="2.76832">
        <ele>1409</ele>
        <time>2017-09-02T12:17:06Z</time>
      </trkpt>
      <trkpt lat="45.11798" lon="2.76824">
        <ele>1409</ele>
        <time>2017-09-02T12:17:10Z</time>
      </trkpt>
      <trkpt lat="45.11794" lon="2.76818">
        <ele>1408</ele>
        <time>2017-09-02T12:17:14Z</time>
      </trkpt>
      <trkpt lat="45.11789" lon="2.76813">
        <ele>1408</ele>
        <time>2017-09-02T12:17:18Z</time>
      </trkpt>
      <trkpt lat="45.11785" lon="2.76811">
        <ele>1407</ele>
        <time>2017-09-02T12:17:22Z</time>
      </trkpt>
      <trkpt lat="45.11781" lon="2.76807">
        <ele>1407</ele>
        <time>2017-09-02T12:17:25Z</time>
      </trkpt>
      <trkpt lat="45.11776" lon="2.76803">
        <ele>1407</ele>
        <time>2017-09-02T12:17:29Z</time>
      </trkpt>
      <trkpt lat="45.11774" lon="2.76798">
        <ele>1407</ele>
        <time>2017-09-02T12:17:33Z</time>
      </trkpt>
      <trkpt lat="45.11773" lon="2.76791">
        <ele>1407</ele>
        <time>2017-09-02T12:17:36Z</time>
      </trkpt>
      <trkpt lat="45.11772" lon="2.76785">
        <ele>1407</ele>
        <time>2017-09-02T12:17:40Z</time>
      </trkpt>
      <trkpt lat="45.1177" lon="2.76776">
        <ele>1407</ele>
        <time>2017-09-02T12:17:44Z</time>
      </trkpt>
      <trkpt lat="45.11769" lon="2.7677">
        <ele>1407</ele>
        <time>2017-09-02T12:17:47Z</time>
      </trkpt>
      <trkpt lat="45.11767" lon="2.76764">
        <ele>1408</ele>
        <time>2017-09-02T12:17:50Z</time>
      </trkpt>
      <trkpt lat="45.11763" lon="2.76758">
        <ele>1408</ele>
        <time>2017-09-02T12:17:53Z</time>
      </trkpt>
      <trkpt lat="45.1176" lon="2.76753">
        <ele>1408</ele>
        <time>2017-09-02T12:17:56Z</time>
      </trkpt>
      <trkpt lat="45.1176" lon="2.76745">
        <ele>1408</ele>
        <time>2017-09-02T12:18:00Z</time>
      </trkpt>
      <trkpt lat="45.11761" lon="2.76738">
        <ele>1409</ele>
        <time>2017-09-02T12:18:03Z</time>
      </trkpt>
      <trkpt lat="45.11757" lon="2.76732">
        <ele>1409</ele>
        <time>2017-09-02T12:18:08Z</time>
      </trkpt>
      <trkpt lat="45.11759" lon="2.76726">
        <ele>1409</ele>
        <time>2017-09-02T12:18:12Z</time>
      </trkpt>
      <trkpt lat="45.1176" lon="2.76718">
        <ele>1409</ele>
        <time>2017-09-02T12:18:17Z</time>
      </trkpt>
      <trkpt lat="45.11762" lon="2.76711">
        <ele>1409</ele>
        <time>2017-09-02T12:18:21Z</time>
      </trkpt>
      <trkpt lat="45.11763" lon="2.76703">
        <ele>1410</ele>
        <time>2017-09-02T12:18:26Z</time>
      </trkpt>
      <trkpt lat="45.11763" lon="2.76695">
        <ele>1410</ele>
        <time>2017-09-02T12:18:30Z</time>
      </trkpt>
      <trkpt lat="45.11763" lon="2.76687">
        <ele>1410</ele>
        <time>2017-09-02T12:18:34Z</time>
      </trkpt>
      <trkpt lat="45.11763" lon="2.76679">
        <ele>1411</ele>
        <time>2017-09-02T12:18:38Z</time>
      </trkpt>
      <trkpt lat="45.11764" lon="2.76672">
        <ele>1411</ele>
        <time>2017-09-02T12:18:42Z</time>
      </trkpt>
      <trkpt lat="45.11766" lon="2.76667">
        <ele>1411</ele>
        <time>2017-09-02T12:18:46Z</time>
      </trkpt>
      <trkpt lat="45.1177" lon="2.76659">
        <ele>1411</ele>
        <time>2017-09-02T12:18:49Z</time>
      </trkpt>
      <trkpt lat="45.11773" lon="2.76653">
        <ele>1412</ele>
        <time>2017-09-02T12:18:53Z</time>
      </trkpt>
      <trkpt lat="45.11776" lon="2.76646">
        <ele>1412</ele>
        <time>2017-09-02T12:18:57Z</time>
      </trkpt>
      <trkpt lat="45.11776" lon="2.76638">
        <ele>1412</ele>
        <time>2017-09-02T12:19:01Z</time>
      </trkpt>
      <trkpt lat="45.11776" lon="2.76632">
        <ele>1412</ele>
        <time>2017-09-02T12:19:04Z</time>
      </trkpt>
      <trkpt lat="45.11773" lon="2.76624">
        <ele>1412</ele>
        <time>2017-09-02T12:19:08Z</time>
      </trkpt>
      <trkpt lat="45.1177" lon="2.76619">
        <ele>1412</ele>
        <time>2017-09-02T12:19:11Z</time>
      </trkpt>
      <trkpt lat="45.11771" lon="2.7661">
        <ele>1413</ele>
        <time>2017-09-02T12:19:15Z</time>
      </trkpt>
      <trkpt lat="45.11773" lon="2.76604">
        <ele>1412</ele>
        <time>2017-09-02T12:19:19Z</time>
      </trkpt>
      <trkpt lat="45.11776" lon="2.76598">
        <ele>1413</ele>
        <time>2017-09-02T12:19:23Z</time>
      </trkpt>
      <trkpt lat="45.11778" lon="2.76592">
        <ele>1413</ele>
        <time>2017-09-02T12:19:26Z</time>
      </trkpt>
      <trkpt lat="45.11776" lon="2.76584">
        <ele>1413</ele>
        <time>2017-09-02T12:19:31Z</time>
      </trkpt>
      <trkpt lat="45.11777" lon="2.76575">
        <ele>1413</ele>
        <time>2017-09-02T12:19:35Z</time>
      </trkpt>
      <trkpt lat="45.11778" lon="2.76567">
        <ele>1413</ele>
        <time>2017-09-02T12:19:39Z</time>
      </trkpt>
      <trkpt lat="45.11779" lon="2.76559">
        <ele>1413</ele>
        <time>2017-09-02T12:19:43Z</time>
      </trkpt>
      <trkpt lat="45.1178" lon="2.7655">
        <ele>1413</ele>
        <time>2017-09-02T12:19:47Z</time>
      </trkpt>
      <trkpt lat="45.1178" lon="2.76543">
        <ele>1414</ele>
        <time>2017-09-02T12:19:51Z</time>
      </trkpt>
      <trkpt lat="45.11781" lon="2.76536">
        <ele>1414</ele>
        <time>2017-09-02T12:19:54Z</time>
      </trkpt>
      <trkpt lat="45.11782" lon="2.76528">
        <ele>1414</ele>
        <time>2017-09-02T12:19:57Z</time>
      </trkpt>
      <trkpt lat="45.11782" lon="2.76521">
        <ele>1414</ele>
        <time>2017-09-02T12:20:00Z</time>
      </trkpt>
      <trkpt lat="45.11781" lon="2.76515">
        <ele>1415</ele>
        <time>2017-09-02T12:20:04Z</time>
      </trkpt>
      <trkpt lat="45.11785" lon="2.76511">
        <ele>1415</ele>
        <time>2017-09-02T12:20:08Z</time>
      </trkpt>
      <trkpt lat="45.11787" lon="2.76505">
        <ele>1415</ele>
        <time>2017-09-02T12:20:13Z</time>
      </trkpt>
      <trkpt lat="45.11789" lon="2.76497">
        <ele>1415</ele>
        <time>2017-09-02T12:20:18Z</time>
      </trkpt>
      <trkpt lat="45.11788" lon="2.7649">
        <ele>1415</ele>
        <time>2017-09-02T12:20:22Z</time>
      </trkpt>
      <trkpt lat="45.1179" lon="2.76484">
        <ele>1414</ele>
        <time>2017-09-02T12:20:26Z</time>
      </trkpt>
      <trkpt lat="45.11791" lon="2.76475">
        <ele>1413</ele>
        <time>2017-09-02T12:20:30Z</time>
      </trkpt>
      <trkpt lat="45.1179" lon="2.76468">
        <ele>1412</ele>
        <time>2017-09-02T12:20:33Z</time>
      </trkpt>
      <trkpt lat="45.11789" lon="2.76462">
        <ele>1411</ele>
        <time>2017-09-02T12:20:36Z</time>
      </trkpt>
      <trkpt lat="45.11787" lon="2.76456">
        <ele>1410</ele>
        <time>2017-09-02T12:20:40Z</time>
      </trkpt>
      <trkpt lat="45.11787" lon="2.76448">
        <ele>1410</ele>
        <time>2017-09-02T12:20:45Z</time>
      </trkpt>
      <trkpt lat="45.11785" lon="2.76441">
        <ele>1410</ele>
        <time>2017-09-02T12:20:49Z</time>
      </trkpt>
      <trkpt lat="45.11784" lon="2.76434">
        <ele>1410</ele>
        <time>2017-09-02T12:20:53Z</time>
      </trkpt>
      <trkpt lat="45.11783" lon="2.76426">
        <ele>1411</ele>
        <time>2017-09-02T12:20:57Z</time>
      </trkpt>
      <trkpt lat="45.11781" lon="2.76418">
        <ele>1411</ele>
        <time>2017-09-02T12:21:00Z</time>
      </trkpt>
      <trkpt lat="45.1178" lon="2.76411">
        <ele>1411</ele>
        <time>2017-09-02T12:21:04Z</time>
      </trkpt>
      <trkpt lat="45.11776" lon="2.76405">
        <ele>1412</ele>
        <time>2017-09-02T12:21:10Z</time>
      </trkpt>
      <trkpt lat="45.11776" lon="2.76398">
        <ele>1412</ele>
        <time>2017-09-02T12:21:15Z</time>
      </trkpt>
      <trkpt lat="45.11775" lon="2.76391">
        <ele>1413</ele>
        <time>2017-09-02T12:21:18Z</time>
      </trkpt>
      <trkpt lat="45.11772" lon="2.76385">
        <ele>1413</ele>
        <time>2017-09-02T12:21:22Z</time>
      </trkpt>
      <trkpt lat="45.11769" lon="2.76381">
        <ele>1413</ele>
        <time>2017-09-02T12:21:25Z</time>
      </trkpt>
      <trkpt lat="45.11767" lon="2.76374">
        <ele>1414</ele>
        <time>2017-09-02T12:21:30Z</time>
      </trkpt>
      <trkpt lat="45.11767" lon="2.76367">
        <ele>1414</ele>
        <time>2017-09-02T12:21:34Z</time>
      </trkpt>
      <trkpt lat="45.11768" lon="2.7636">
        <ele>1415</ele>
        <time>2017-09-02T12:21:37Z</time>
      </trkpt>
      <trkpt lat="45.11768" lon="2.76354">
        <ele>1415</ele>
        <time>2017-09-02T12:21:40Z</time>
      </trkpt>
      <trkpt lat="45.11768" lon="2.76346">
        <ele>1416</ele>
        <time>2017-09-02T12:21:43Z</time>
      </trkpt>
      <trkpt lat="45.11766" lon="2.76338">
        <ele>1416</ele>
        <time>2017-09-02T12:21:47Z</time>
      </trkpt>
      <trkpt lat="45.11763" lon="2.76331">
        <ele>1415</ele>
        <time>2017-09-02T12:21:51Z</time>
      </trkpt>
      <trkpt lat="45.11762" lon="2.76324">
        <ele>1415</ele>
        <time>2017-09-02T12:21:55Z</time>
      </trkpt>
      <trkpt lat="45.1176" lon="2.76316">
        <ele>1413</ele>
        <time>2017-09-02T12:22:00Z</time>
      </trkpt>
      <trkpt lat="45.11759" lon="2.7631">
        <ele>1412</ele>
        <time>2017-09-02T12:22:03Z</time>
      </trkpt>
      <trkpt lat="45.11756" lon="2.76304">
        <ele>1410</ele>
        <time>2017-09-02T12:22:07Z</time>
      </trkpt>
      <trkpt lat="45.11755" lon="2.76298">
        <ele>1409</ele>
        <time>2017-09-02T12:22:10Z</time>
      </trkpt>
      <trkpt lat="45.11752" lon="2.76293">
        <ele>1407</ele>
        <time>2017-09-02T12:22:13Z</time>
      </trkpt>
      <trkpt lat="45.11751" lon="2.76286">
        <ele>1406</ele>
        <time>2017-09-02T12:22:17Z</time>
      </trkpt>
      <trkpt lat="45.11749" lon="2.7628">
        <ele>1405</ele>
        <time>2017-09-02T12:22:21Z</time>
      </trkpt>
      <trkpt lat="45.11748" lon="2.76273">
        <ele>1404</ele>
        <time>2017-09-02T12:22:26Z</time>
      </trkpt>
      <trkpt lat="45.11746" lon="2.76265">
        <ele>1402</ele>
        <time>2017-09-02T12:22:31Z</time>
      </trkpt>
      <trkpt lat="45.11744" lon="2.76259">
        <ele>1401</ele>
        <time>2017-09-02T12:22:34Z</time>
      </trkpt>
      <trkpt lat="45.11742" lon="2.76252">
        <ele>1400</ele>
        <time>2017-09-02T12:22:38Z</time>
      </trkpt>
      <trkpt lat="45.11739" lon="2.76244">
        <ele>1399</ele>
        <time>2017-09-02T12:22:42Z</time>
      </trkpt>
      <trkpt lat="45.11736" lon="2.76239">
        <ele>1399</ele>
        <time>2017-09-02T12:22:46Z</time>
      </trkpt>
      <trkpt lat="45.11734" lon="2.76232">
        <ele>1398</ele>
        <time>2017-09-02T12:22:50Z</time>
      </trkpt>
      <trkpt lat="45.11731" lon="2.76226">
        <ele>1398</ele>
        <time>2017-09-02T12:22:54Z</time>
      </trkpt>
      <trkpt lat="45.1173" lon="2.76219">
        <ele>1397</ele>
        <time>2017-09-02T12:22:57Z</time>
      </trkpt>
      <trkpt lat="45.11728" lon="2.76212">
        <ele>1397</ele>
        <time>2017-09-02T12:23:00Z</time>
      </trkpt>
      <trkpt lat="45.11726" lon="2.76206">
        <ele>1397</ele>
        <time>2017-09-02T12:23:03Z</time>
      </trkpt>
      <trkpt lat="45.11724" lon="2.76199">
        <ele>1396</ele>
        <time>2017-09-02T12:23:06Z</time>
      </trkpt>
      <trkpt lat="45.11722" lon="2.76192">
        <ele>1396</ele>
        <time>2017-09-02T12:23:09Z</time>
      </trkpt>
      <trkpt lat="45.11721" lon="2.76185">
        <ele>1395</ele>
        <time>2017-09-02T12:23:12Z</time>
      </trkpt>
      <trkpt lat="45.11719" lon="2.76178">
        <ele>1394</ele>
        <time>2017-09-02T12:23:16Z</time>
      </trkpt>
      <trkpt lat="45.11717" lon="2.76172">
        <ele>1392</ele>
        <time>2017-09-02T12:23:20Z</time>
      </trkpt>
      <trkpt lat="45.11715" lon="2.76165">
        <ele>1391</ele>
        <time>2017-09-02T12:23:24Z</time>
      </trkpt>
      <trkpt lat="45.11713" lon="2.76159">
        <ele>1389</ele>
        <time>2017-09-02T12:23:30Z</time>
      </trkpt>
      <trkpt lat="45.11712" lon="2.76151">
        <ele>1387</ele>
        <time>2017-09-02T12:23:35Z</time>
      </trkpt>
      <trkpt lat="45.11711" lon="2.76144">
        <ele>1386</ele>
        <time>2017-09-02T12:23:40Z</time>
      </trkpt>
      <trkpt lat="45.11711" lon="2.76143">
        <ele>1384</ele>
        <time>2017-09-02T12:24:00Z</time>
      </trkpt>
      <trkpt lat="45.11859" lon="2.76399">
        <ele>1312</ele>
        <time>2017-09-02T12:24:06Z</time>
      </trkpt>
      <trkpt lat="45.11884" lon="2.76371">
        <ele>1227</ele>
        <time>2017-09-02T12:24:07Z</time>
      </trkpt>
      <trkpt lat="45.11857" lon="2.76373">
        <ele>1155</ele>
        <time>2017-09-02T12:24:08Z</time>
      </trkpt>
      <trkpt lat="45.11862" lon="2.76386">
        <ele>1081</ele>
        <time>2017-09-02T12:24:09Z</time>
      </trkpt>
      <trkpt lat="45.11929" lon="2.76271">
        <ele>1062</ele>
        <time>2017-09-02T12:24:13Z</time>
      </trkpt>
      <trkpt lat="45.11718" lon="2.76154">
        <ele>1231</ele>
        <time>2017-09-02T12:24:30Z</time>
      </trkpt>
      <trkpt lat="45.11719" lon="2.76147">
        <ele>1308</ele>
        <time>2017-09-02T12:24:34Z</time>
      </trkpt>
      <trkpt lat="45.11718" lon="2.76157">
        <ele>1388</ele>
        <time>2017-09-02T12:24:36Z</time>
      </trkpt>
      <trkpt lat="45.11717" lon="2.76151">
        <ele>1413</ele>
        <time>2017-09-02T12:25:00Z</time>
      </trkpt>
      <trkpt lat="45.11716" lon="2.76143">
        <ele>1414</ele>
        <time>2017-09-02T12:25:06Z</time>
      </trkpt>
      <trkpt lat="45.11715" lon="2.76136">
        <ele>1414</ele>
        <time>2017-09-02T12:25:10Z</time>
      </trkpt>
      <trkpt lat="45.11715" lon="2.76129">
        <ele>1417</ele>
        <time>2017-09-02T12:25:13Z</time>
      </trkpt>
      <trkpt lat="45.11713" lon="2.76122">
        <ele>1418</ele>
        <time>2017-09-02T12:25:17Z</time>
      </trkpt>
      <trkpt lat="45.11713" lon="2.76114">
        <ele>1419</ele>
        <time>2017-09-02T12:25:21Z</time>
      </trkpt>
      <trkpt lat="45.11712" lon="2.76108">
        <ele>1419</ele>
        <time>2017-09-02T12:25:25Z</time>
      </trkpt>
      <trkpt lat="45.11711" lon="2.76101">
        <ele>1419</ele>
        <time>2017-09-02T12:25:29Z</time>
      </trkpt>
      <trkpt lat="45.1171" lon="2.76095">
        <ele>1420</ele>
        <time>2017-09-02T12:25:32Z</time>
      </trkpt>
      <trkpt lat="45.11709" lon="2.76086">
        <ele>1420</ele>
        <time>2017-09-02T12:25:36Z</time>
      </trkpt>
      <trkpt lat="45.11709" lon="2.76078">
        <ele>1420</ele>
        <time>2017-09-02T12:25:40Z</time>
      </trkpt>
      <trkpt lat="45.11708" lon="2.76071">
        <ele>1421</ele>
        <time>2017-09-02T12:25:44Z</time>
      </trkpt>
      <trkpt lat="45.11703" lon="2.76071">
        <ele>1421</ele>
        <time>2017-09-02T12:25:52Z</time>
      </trkpt>
      <trkpt lat="45.11699" lon="2.76072">
        <ele>1421</ele>
        <time>2017-09-02T12:26:18Z</time>
      </trkpt>
      <trkpt lat="45.11709" lon="2.7607">
        <ele>1417</ele>
        <time>2017-09-02T12:26:21Z</time>
      </trkpt>
      <trkpt lat="45.11705" lon="2.76075">
        <ele>1415</ele>
        <time>2017-09-02T12:26:24Z</time>
      </trkpt>
      <trkpt lat="45.11702" lon="2.76078">
        <ele>1414</ele>
        <time>2017-09-02T12:26:49Z</time>
      </trkpt>
      <trkpt lat="45.11715" lon="2.76073">
        <ele>1416</ele>
        <time>2017-09-02T12:27:01Z</time>
      </trkpt>
      <trkpt lat="45.1171" lon="2.76069">
        <ele>1421</ele>
        <time>2017-09-02T12:27:05Z</time>
      </trkpt>
      <trkpt lat="45.11707" lon="2.76064">
        <ele>1423</ele>
        <time>2017-09-02T12:27:07Z</time>
      </trkpt>
      <trkpt lat="45.11705" lon="2.76056">
        <ele>1424</ele>
        <time>2017-09-02T12:27:11Z</time>
      </trkpt>
      <trkpt lat="45.11704" lon="2.76049">
        <ele>1423</ele>
        <time>2017-09-02T12:27:14Z</time>
      </trkpt>
      <trkpt lat="45.11703" lon="2.76042">
        <ele>1423</ele>
        <time>2017-09-02T12:27:19Z</time>
      </trkpt>
      <trkpt lat="45.11705" lon="2.76035">
        <ele>1423</ele>
        <time>2017-09-02T12:27:23Z</time>
      </trkpt>
      <trkpt lat="45.11703" lon="2.76027">
        <ele>1422</ele>
        <time>2017-09-02T12:27:27Z</time>
      </trkpt>
      <trkpt lat="45.11702" lon="2.7602">
        <ele>1421</ele>
        <time>2017-09-02T12:27:31Z</time>
      </trkpt>
      <trkpt lat="45.11702" lon="2.76012">
        <ele>1420</ele>
        <time>2017-09-02T12:27:37Z</time>
      </trkpt>
      <trkpt lat="45.117" lon="2.76006">
        <ele>1419</ele>
        <time>2017-09-02T12:27:42Z</time>
      </trkpt>
      <trkpt lat="45.117" lon="2.75999">
        <ele>1419</ele>
        <time>2017-09-02T12:27:45Z</time>
      </trkpt>
      <trkpt lat="45.11698" lon="2.75991">
        <ele>1419</ele>
        <time>2017-09-02T12:27:49Z</time>
      </trkpt>
      <trkpt lat="45.11696" lon="2.75983">
        <ele>1419</ele>
        <time>2017-09-02T12:27:52Z</time>
      </trkpt>
      <trkpt lat="45.11697" lon="2.75974">
        <ele>1419</ele>
        <time>2017-09-02T12:27:55Z</time>
      </trkpt>
      <trkpt lat="45.11699" lon="2.75966">
        <ele>1419</ele>
        <time>2017-09-02T12:27:58Z</time>
      </trkpt>
      <trkpt lat="45.11701" lon="2.75958">
        <ele>1419</ele>
        <time>2017-09-02T12:28:01Z</time>
      </trkpt>
      <trkpt lat="45.11698" lon="2.75951">
        <ele>1419</ele>
        <time>2017-09-02T12:28:04Z</time>
      </trkpt>
      <trkpt lat="45.11697" lon="2.75944">
        <ele>1419</ele>
        <time>2017-09-02T12:28:08Z</time>
      </trkpt>
      <trkpt lat="45.11696" lon="2.75936">
        <ele>1419</ele>
        <time>2017-09-02T12:28:11Z</time>
      </trkpt>
      <trkpt lat="45.11694" lon="2.75928">
        <ele>1420</ele>
        <time>2017-09-02T12:28:14Z</time>
      </trkpt>
      <trkpt lat="45.11692" lon="2.75921">
        <ele>1420</ele>
        <time>2017-09-02T12:28:18Z</time>
      </trkpt>
      <trkpt lat="45.11689" lon="2.75914">
        <ele>1420</ele>
        <time>2017-09-02T12:28:28Z</time>
      </trkpt>
      <trkpt lat="45.11687" lon="2.75907">
        <ele>1420</ele>
        <time>2017-09-02T12:28:32Z</time>
      </trkpt>
      <trkpt lat="45.11684" lon="2.75903">
        <ele>1421</ele>
        <time>2017-09-02T12:28:37Z</time>
      </trkpt>
      <trkpt lat="45.11681" lon="2.75895">
        <ele>1421</ele>
        <time>2017-09-02T12:28:41Z</time>
      </trkpt>
      <trkpt lat="45.1168" lon="2.75888">
        <ele>1422</ele>
        <time>2017-09-02T12:28:43Z</time>
      </trkpt>
      <trkpt lat="45.1168" lon="2.75881">
        <ele>1422</ele>
        <time>2017-09-02T12:28:48Z</time>
      </trkpt>
      <trkpt lat="45.11679" lon="2.75873">
        <ele>1423</ele>
        <time>2017-09-02T12:28:54Z</time>
      </trkpt>
      <trkpt lat="45.11677" lon="2.75867">
        <ele>1423</ele>
        <time>2017-09-02T12:28:57Z</time>
      </trkpt>
      <trkpt lat="45.11676" lon="2.75859">
        <ele>1423</ele>
        <time>2017-09-02T12:29:01Z</time>
      </trkpt>
      <trkpt lat="45.11677" lon="2.75852">
        <ele>1423</ele>
        <time>2017-09-02T12:29:04Z</time>
      </trkpt>
      <trkpt lat="45.11676" lon="2.75844">
        <ele>1423</ele>
        <time>2017-09-02T12:29:07Z</time>
      </trkpt>
      <trkpt lat="45.11674" lon="2.75836">
        <ele>1424</ele>
        <time>2017-09-02T12:29:11Z</time>
      </trkpt>
      <trkpt lat="45.11673" lon="2.7583">
        <ele>1424</ele>
        <time>2017-09-02T12:29:14Z</time>
      </trkpt>
      <trkpt lat="45.1167" lon="2.75824">
        <ele>1424</ele>
        <time>2017-09-02T12:29:17Z</time>
      </trkpt>
      <trkpt lat="45.11665" lon="2.75819">
        <ele>1425</ele>
        <time>2017-09-02T12:29:20Z</time>
      </trkpt>
      <trkpt lat="45.11663" lon="2.75813">
        <ele>1425</ele>
        <time>2017-09-02T12:29:22Z</time>
      </trkpt>
      <trkpt lat="45.11658" lon="2.75811">
        <ele>1426</ele>
        <time>2017-09-02T12:29:25Z</time>
      </trkpt>
      <trkpt lat="45.11652" lon="2.75807">
        <ele>1426</ele>
        <time>2017-09-02T12:29:28Z</time>
      </trkpt>
      <trkpt lat="45.11646" lon="2.75805">
        <ele>1427</ele>
        <time>2017-09-02T12:29:33Z</time>
      </trkpt>
      <trkpt lat="45.11643" lon="2.758">
        <ele>1427</ele>
        <time>2017-09-02T12:29:37Z</time>
      </trkpt>
      <trkpt lat="45.11641" lon="2.75793">
        <ele>1427</ele>
        <time>2017-09-02T12:29:42Z</time>
      </trkpt>
      <trkpt lat="45.11641" lon="2.75786">
        <ele>1427</ele>
        <time>2017-09-02T12:29:46Z</time>
      </trkpt>
      <trkpt lat="45.11637" lon="2.7578">
        <ele>1428</ele>
        <time>2017-09-02T12:29:51Z</time>
      </trkpt>
      <trkpt lat="45.11633" lon="2.75773">
        <ele>1429</ele>
        <time>2017-09-02T12:29:54Z</time>
      </trkpt>
      <trkpt lat="45.1163" lon="2.75766">
        <ele>1429</ele>
        <time>2017-09-02T12:29:57Z</time>
      </trkpt>
      <trkpt lat="45.11628" lon="2.75758">
        <ele>1429</ele>
        <time>2017-09-02T12:30:02Z</time>
      </trkpt>
      <trkpt lat="45.11624" lon="2.75751">
        <ele>1430</ele>
        <time>2017-09-02T12:30:07Z</time>
      </trkpt>
      <trkpt lat="45.11619" lon="2.7575">
        <ele>1430</ele>
        <time>2017-09-02T12:30:10Z</time>
      </trkpt>
      <trkpt lat="45.11615" lon="2.7575">
        <ele>1430</ele>
        <time>2017-09-02T12:30:12Z</time>
      </trkpt>
      <trkpt lat="45.1161" lon="2.7575">
        <ele>1430</ele>
        <time>2017-09-02T12:30:15Z</time>
      </trkpt>
      <trkpt lat="45.11604" lon="2.75749">
        <ele>1431</ele>
        <time>2017-09-02T12:30:18Z</time>
      </trkpt>
      <trkpt lat="45.11599" lon="2.75746">
        <ele>1432</ele>
        <time>2017-09-02T12:30:20Z</time>
      </trkpt>
      <trkpt lat="45.11596" lon="2.75741">
        <ele>1432</ele>
        <time>2017-09-02T12:30:22Z</time>
      </trkpt>
      <trkpt lat="45.11591" lon="2.75738">
        <ele>1433</ele>
        <time>2017-09-02T12:30:26Z</time>
      </trkpt>
      <trkpt lat="45.11586" lon="2.75737">
        <ele>1433</ele>
        <time>2017-09-02T12:30:30Z</time>
      </trkpt>
      <trkpt lat="45.11584" lon="2.7573">
        <ele>1434</ele>
        <time>2017-09-02T12:30:35Z</time>
      </trkpt>
      <trkpt lat="45.1158" lon="2.75724">
        <ele>1434</ele>
        <time>2017-09-02T12:30:38Z</time>
      </trkpt>
      <trkpt lat="45.11575" lon="2.75723">
        <ele>1434</ele>
        <time>2017-09-02T12:30:41Z</time>
      </trkpt>
      <trkpt lat="45.11572" lon="2.75716">
        <ele>1435</ele>
        <time>2017-09-02T12:30:44Z</time>
      </trkpt>
      <trkpt lat="45.11568" lon="2.75714">
        <ele>1435</ele>
        <time>2017-09-02T12:30:48Z</time>
      </trkpt>
      <trkpt lat="45.11562" lon="2.75714">
        <ele>1436</ele>
        <time>2017-09-02T12:30:51Z</time>
      </trkpt>
      <trkpt lat="45.11558" lon="2.75713">
        <ele>1437</ele>
        <time>2017-09-02T12:30:54Z</time>
      </trkpt>
      <trkpt lat="45.11556" lon="2.75704">
        <ele>1437</ele>
        <time>2017-09-02T12:30:58Z</time>
      </trkpt>
      <trkpt lat="45.11555" lon="2.75697">
        <ele>1437</ele>
        <time>2017-09-02T12:31:01Z</time>
      </trkpt>
      <trkpt lat="45.11549" lon="2.75695">
        <ele>1437</ele>
        <time>2017-09-02T12:31:05Z</time>
      </trkpt>
      <trkpt lat="45.11546" lon="2.75689">
        <ele>1437</ele>
        <time>2017-09-02T12:31:09Z</time>
      </trkpt>
      <trkpt lat="45.11541" lon="2.75683">
        <ele>1438</ele>
        <time>2017-09-02T12:31:13Z</time>
      </trkpt>
      <trkpt lat="45.11538" lon="2.75678">
        <ele>1438</ele>
        <time>2017-09-02T12:31:16Z</time>
      </trkpt>
      <trkpt lat="45.11533" lon="2.75673">
        <ele>1439</ele>
        <time>2017-09-02T12:31:19Z</time>
      </trkpt>
      <trkpt lat="45.11529" lon="2.75667">
        <ele>1440</ele>
        <time>2017-09-02T12:31:22Z</time>
      </trkpt>
      <trkpt lat="45.11525" lon="2.75662">
        <ele>1441</ele>
        <time>2017-09-02T12:31:26Z</time>
      </trkpt>
      <trkpt lat="45.11519" lon="2.75659">
        <ele>1442</ele>
        <time>2017-09-02T12:31:30Z</time>
      </trkpt>
      <trkpt lat="45.11515" lon="2.75656">
        <ele>1442</ele>
        <time>2017-09-02T12:31:33Z</time>
      </trkpt>
      <trkpt lat="45.11512" lon="2.75648">
        <ele>1443</ele>
        <time>2017-09-02T12:31:36Z</time>
      </trkpt>
      <trkpt lat="45.11508" lon="2.75642">
        <ele>1444</ele>
        <time>2017-09-02T12:31:40Z</time>
      </trkpt>
      <trkpt lat="45.11503" lon="2.75638">
        <ele>1445</ele>
        <time>2017-09-02T12:31:43Z</time>
      </trkpt>
      <trkpt lat="45.11499" lon="2.75632">
        <ele>1446</ele>
        <time>2017-09-02T12:31:46Z</time>
      </trkpt>
      <trkpt lat="45.11496" lon="2.75626">
        <ele>1447</ele>
        <time>2017-09-02T12:31:49Z</time>
      </trkpt>
      <trkpt lat="45.11492" lon="2.75622">
        <ele>1447</ele>
        <time>2017-09-02T12:31:53Z</time>
      </trkpt>
      <trkpt lat="45.1149" lon="2.75616">
        <ele>1447</ele>
        <time>2017-09-02T12:31:56Z</time>
      </trkpt>
      <trkpt lat="45.11488" lon="2.75608">
        <ele>1447</ele>
        <time>2017-09-02T12:31:59Z</time>
      </trkpt>
      <trkpt lat="45.11486" lon="2.756">
        <ele>1447</ele>
        <time>2017-09-02T12:32:03Z</time>
      </trkpt>
      <trkpt lat="45.11482" lon="2.75596">
        <ele>1447</ele>
        <time>2017-09-02T12:32:06Z</time>
      </trkpt>
      <trkpt lat="45.11481" lon="2.75589">
        <ele>1447</ele>
        <time>2017-09-02T12:32:12Z</time>
      </trkpt>
      <trkpt lat="45.11478" lon="2.75581">
        <ele>1448</ele>
        <time>2017-09-02T12:32:16Z</time>
      </trkpt>
      <trkpt lat="45.11475" lon="2.75577">
        <ele>1449</ele>
        <time>2017-09-02T12:32:19Z</time>
      </trkpt>
      <trkpt lat="45.11472" lon="2.7557">
        <ele>1450</ele>
        <time>2017-09-02T12:32:23Z</time>
      </trkpt>
      <trkpt lat="45.1147" lon="2.75563">
        <ele>1450</ele>
        <time>2017-09-02T12:32:28Z</time>
      </trkpt>
      <trkpt lat="45.11469" lon="2.75555">
        <ele>1450</ele>
        <time>2017-09-02T12:32:32Z</time>
      </trkpt>
      <trkpt lat="45.11466" lon="2.75549">
        <ele>1450</ele>
        <time>2017-09-02T12:32:36Z</time>
      </trkpt>
      <trkpt lat="45.11466" lon="2.75543">
        <ele>1451</ele>
        <time>2017-09-02T12:32:40Z</time>
      </trkpt>
      <trkpt lat="45.11465" lon="2.75535">
        <ele>1451</ele>
        <time>2017-09-02T12:32:44Z</time>
      </trkpt>
      <trkpt lat="45.11465" lon="2.75528">
        <ele>1452</ele>
        <time>2017-09-02T12:32:49Z</time>
      </trkpt>
      <trkpt lat="45.11461" lon="2.75522">
        <ele>1452</ele>
        <time>2017-09-02T12:32:53Z</time>
      </trkpt>
      <trkpt lat="45.11457" lon="2.75516">
        <ele>1453</ele>
        <time>2017-09-02T12:32:57Z</time>
      </trkpt>
      <trkpt lat="45.11453" lon="2.75511">
        <ele>1454</ele>
        <time>2017-09-02T12:33:01Z</time>
      </trkpt>
      <trkpt lat="45.1145" lon="2.75505">
        <ele>1455</ele>
        <time>2017-09-02T12:33:05Z</time>
      </trkpt>
      <trkpt lat="45.11446" lon="2.75499">
        <ele>1455</ele>
        <time>2017-09-02T12:33:08Z</time>
      </trkpt>
      <trkpt lat="45.11443" lon="2.75493">
        <ele>1455</ele>
        <time>2017-09-02T12:33:11Z</time>
      </trkpt>
      <trkpt lat="45.11438" lon="2.75489">
        <ele>1455</ele>
        <time>2017-09-02T12:33:18Z</time>
      </trkpt>
      <trkpt lat="45.11436" lon="2.75482">
        <ele>1455</ele>
        <time>2017-09-02T12:33:23Z</time>
      </trkpt>
      <trkpt lat="45.11433" lon="2.75476">
        <ele>1454</ele>
        <time>2017-09-02T12:33:27Z</time>
      </trkpt>
      <trkpt lat="45.11428" lon="2.7547">
        <ele>1454</ele>
        <time>2017-09-02T12:33:32Z</time>
      </trkpt>
      <trkpt lat="45.11424" lon="2.75464">
        <ele>1453</ele>
        <time>2017-09-02T12:33:35Z</time>
      </trkpt>
      <trkpt lat="45.11422" lon="2.75459">
        <ele>1453</ele>
        <time>2017-09-02T12:33:38Z</time>
      </trkpt>
      <trkpt lat="45.11417" lon="2.75453">
        <ele>1452</ele>
        <time>2017-09-02T12:33:42Z</time>
      </trkpt>
      <trkpt lat="45.11414" lon="2.75448">
        <ele>1452</ele>
        <time>2017-09-02T12:33:45Z</time>
      </trkpt>
      <trkpt lat="45.11412" lon="2.75442">
        <ele>1452</ele>
        <time>2017-09-02T12:33:48Z</time>
      </trkpt>
      <trkpt lat="45.11409" lon="2.75437">
        <ele>1452</ele>
        <time>2017-09-02T12:33:51Z</time>
      </trkpt>
      <trkpt lat="45.11406" lon="2.75429">
        <ele>1452</ele>
        <time>2017-09-02T12:33:55Z</time>
      </trkpt>
      <trkpt lat="45.11403" lon="2.75422">
        <ele>1452</ele>
        <time>2017-09-02T12:33:59Z</time>
      </trkpt>
      <trkpt lat="45.11402" lon="2.75415">
        <ele>1452</ele>
        <time>2017-09-02T12:34:03Z</time>
      </trkpt>
      <trkpt lat="45.11397" lon="2.75411">
        <ele>1451</ele>
        <time>2017-09-02T12:34:07Z</time>
      </trkpt>
      <trkpt lat="45.11393" lon="2.75406">
        <ele>1451</ele>
        <time>2017-09-02T12:34:10Z</time>
      </trkpt>
      <trkpt lat="45.11389" lon="2.75403">
        <ele>1450</ele>
        <time>2017-09-02T12:34:14Z</time>
      </trkpt>
      <trkpt lat="45.11383" lon="2.75399">
        <ele>1450</ele>
        <time>2017-09-02T12:34:18Z</time>
      </trkpt>
      <trkpt lat="45.11379" lon="2.75395">
        <ele>1449</ele>
        <time>2017-09-02T12:34:22Z</time>
      </trkpt>
      <trkpt lat="45.11375" lon="2.7539">
        <ele>1449</ele>
        <time>2017-09-02T12:34:26Z</time>
      </trkpt>
      <trkpt lat="45.11371" lon="2.75386">
        <ele>1448</ele>
        <time>2017-09-02T12:34:29Z</time>
      </trkpt>
      <trkpt lat="45.11367" lon="2.75381">
        <ele>1448</ele>
        <time>2017-09-02T12:34:33Z</time>
      </trkpt>
      <trkpt lat="45.11363" lon="2.75376">
        <ele>1448</ele>
        <time>2017-09-02T12:34:37Z</time>
      </trkpt>
      <trkpt lat="45.11359" lon="2.75371">
        <ele>1447</ele>
        <time>2017-09-02T12:34:40Z</time>
      </trkpt>
      <trkpt lat="45.11356" lon="2.75366">
        <ele>1447</ele>
        <time>2017-09-02T12:34:44Z</time>
      </trkpt>
      <trkpt lat="45.11352" lon="2.75362">
        <ele>1446</ele>
        <time>2017-09-02T12:34:48Z</time>
      </trkpt>
      <trkpt lat="45.11348" lon="2.75357">
        <ele>1445</ele>
        <time>2017-09-02T12:34:52Z</time>
      </trkpt>
      <trkpt lat="45.11343" lon="2.75354">
        <ele>1444</ele>
        <time>2017-09-02T12:34:55Z</time>
      </trkpt>
      <trkpt lat="45.1134" lon="2.7535">
        <ele>1443</ele>
        <time>2017-09-02T12:34:58Z</time>
      </trkpt>
      <trkpt lat="45.11335" lon="2.75348">
        <ele>1443</ele>
        <time>2017-09-02T12:35:01Z</time>
      </trkpt>
      <trkpt lat="45.1133" lon="2.75344">
        <ele>1442</ele>
        <time>2017-09-02T12:35:05Z</time>
      </trkpt>
      <trkpt lat="45.11325" lon="2.75339">
        <ele>1441</ele>
        <time>2017-09-02T12:35:10Z</time>
      </trkpt>
      <trkpt lat="45.11322" lon="2.75334">
        <ele>1440</ele>
        <time>2017-09-02T12:35:13Z</time>
      </trkpt>
      <trkpt lat="45.11318" lon="2.7533">
        <ele>1439</ele>
        <time>2017-09-02T12:35:16Z</time>
      </trkpt>
      <trkpt lat="45.11314" lon="2.75327">
        <ele>1439</ele>
        <time>2017-09-02T12:35:19Z</time>
      </trkpt>
      <trkpt lat="45.11311" lon="2.75321">
        <ele>1438</ele>
        <time>2017-09-02T12:35:22Z</time>
      </trkpt>
      <trkpt lat="45.11307" lon="2.75316">
        <ele>1438</ele>
        <time>2017-09-02T12:35:26Z</time>
      </trkpt>
      <trkpt lat="45.11303" lon="2.75313">
        <ele>1437</ele>
        <time>2017-09-02T12:35:29Z</time>
      </trkpt>
      <trkpt lat="45.11298" lon="2.75309">
        <ele>1437</ele>
        <time>2017-09-02T12:35:33Z</time>
      </trkpt>
      <trkpt lat="45.11294" lon="2.75305">
        <ele>1436</ele>
        <time>2017-09-02T12:35:36Z</time>
      </trkpt>
      <trkpt lat="45.1129" lon="2.753">
        <ele>1435</ele>
        <time>2017-09-02T12:35:39Z</time>
      </trkpt>
      <trkpt lat="45.11286" lon="2.75296">
        <ele>1435</ele>
        <time>2017-09-02T12:35:43Z</time>
      </trkpt>
      <trkpt lat="45.11281" lon="2.75293">
        <ele>1435</ele>
        <time>2017-09-02T12:35:47Z</time>
      </trkpt>
      <trkpt lat="45.11276" lon="2.75289">
        <ele>1435</ele>
        <time>2017-09-02T12:35:50Z</time>
      </trkpt>
      <trkpt lat="45.11271" lon="2.75284">
        <ele>1434</ele>
        <time>2017-09-02T12:35:54Z</time>
      </trkpt>
      <trkpt lat="45.11267" lon="2.75279">
        <ele>1434</ele>
        <time>2017-09-02T12:35:57Z</time>
      </trkpt>
      <trkpt lat="45.11263" lon="2.75275">
        <ele>1433</ele>
        <time>2017-09-02T12:36:00Z</time>
      </trkpt>
      <trkpt lat="45.11258" lon="2.7527">
        <ele>1433</ele>
        <time>2017-09-02T12:36:04Z</time>
      </trkpt>
      <trkpt lat="45.11255" lon="2.75264">
        <ele>1432</ele>
        <time>2017-09-02T12:36:08Z</time>
      </trkpt>
      <trkpt lat="45.11253" lon="2.75258">
        <ele>1432</ele>
        <time>2017-09-02T12:36:13Z</time>
      </trkpt>
      <trkpt lat="45.11248" lon="2.75254">
        <ele>1431</ele>
        <time>2017-09-02T12:36:17Z</time>
      </trkpt>
      <trkpt lat="45.11243" lon="2.7525">
        <ele>1431</ele>
        <time>2017-09-02T12:36:21Z</time>
      </trkpt>
      <trkpt lat="45.11238" lon="2.75247">
        <ele>1431</ele>
        <time>2017-09-02T12:36:24Z</time>
      </trkpt>
      <trkpt lat="45.11234" lon="2.75244">
        <ele>1431</ele>
        <time>2017-09-02T12:36:27Z</time>
      </trkpt>
      <trkpt lat="45.11229" lon="2.75241">
        <ele>1431</ele>
        <time>2017-09-02T12:36:30Z</time>
      </trkpt>
      <trkpt lat="45.11225" lon="2.75238">
        <ele>1431</ele>
        <time>2017-09-02T12:36:33Z</time>
      </trkpt>
      <trkpt lat="45.1122" lon="2.75234">
        <ele>1431</ele>
        <time>2017-09-02T12:36:38Z</time>
      </trkpt>
      <trkpt lat="45.11215" lon="2.75231">
        <ele>1430</ele>
        <time>2017-09-02T12:36:42Z</time>
      </trkpt>
      <trkpt lat="45.1121" lon="2.75229">
        <ele>1430</ele>
        <time>2017-09-02T12:36:46Z</time>
      </trkpt>
      <trkpt lat="45.11208" lon="2.75229">
        <ele>1430</ele>
        <time>2017-09-02T12:37:10Z</time>
      </trkpt>
      <trkpt lat="45.11211" lon="2.75226">
        <ele>1428</ele>
        <time>2017-09-02T12:37:13Z</time>
      </trkpt>
      <trkpt lat="45.11216" lon="2.75223">
        <ele>1428</ele>
        <time>2017-09-02T12:37:15Z</time>
      </trkpt>
      <trkpt lat="45.11207" lon="2.75224">
        <ele>1428</ele>
        <time>2017-09-02T12:37:16Z</time>
      </trkpt>
      <trkpt lat="45.11203" lon="2.75221">
        <ele>1427</ele>
        <time>2017-09-02T12:37:41Z</time>
      </trkpt>
      <trkpt lat="45.11199" lon="2.7522">
        <ele>1425</ele>
        <time>2017-09-02T12:37:45Z</time>
      </trkpt>
      <trkpt lat="45.11203" lon="2.75221">
        <ele>1426</ele>
        <time>2017-09-02T12:37:47Z</time>
      </trkpt>
      <trkpt lat="45.11198" lon="2.7522">
        <ele>1426</ele>
        <time>2017-09-02T12:37:48Z</time>
      </trkpt>
      <trkpt lat="45.11194" lon="2.75217">
        <ele>1425</ele>
        <time>2017-09-02T12:37:50Z</time>
      </trkpt>
      <trkpt lat="45.1119" lon="2.75212">
        <ele>1425</ele>
        <time>2017-09-02T12:37:54Z</time>
      </trkpt>
      <trkpt lat="45.11186" lon="2.75207">
        <ele>1426</ele>
        <time>2017-09-02T12:37:59Z</time>
      </trkpt>
      <trkpt lat="45.11182" lon="2.75202">
        <ele>1425</ele>
        <time>2017-09-02T12:38:02Z</time>
      </trkpt>
      <trkpt lat="45.11179" lon="2.75197">
        <ele>1425</ele>
        <time>2017-09-02T12:38:05Z</time>
      </trkpt>
      <trkpt lat="45.11175" lon="2.75191">
        <ele>1425</ele>
        <time>2017-09-02T12:38:09Z</time>
      </trkpt>
      <trkpt lat="45.11171" lon="2.75187">
        <ele>1425</ele>
        <time>2017-09-02T12:38:14Z</time>
      </trkpt>
      <trkpt lat="45.11165" lon="2.75187">
        <ele>1424</ele>
        <time>2017-09-02T12:38:18Z</time>
      </trkpt>
      <trkpt lat="45.11161" lon="2.75181">
        <ele>1424</ele>
        <time>2017-09-02T12:38:25Z</time>
      </trkpt>
      <trkpt lat="45.11157" lon="2.75179">
        <ele>1424</ele>
        <time>2017-09-02T12:38:29Z</time>
      </trkpt>
      <trkpt lat="45.11155" lon="2.75172">
        <ele>1423</ele>
        <time>2017-09-02T12:38:33Z</time>
      </trkpt>
      <trkpt lat="45.11153" lon="2.75165">
        <ele>1423</ele>
        <time>2017-09-02T12:38:36Z</time>
      </trkpt>
      <trkpt lat="45.1115" lon="2.75158">
        <ele>1423</ele>
        <time>2017-09-02T12:38:40Z</time>
      </trkpt>
      <trkpt lat="45.11149" lon="2.75151">
        <ele>1423</ele>
        <time>2017-09-02T12:38:43Z</time>
      </trkpt>
      <trkpt lat="45.11147" lon="2.75144">
        <ele>1423</ele>
        <time>2017-09-02T12:38:47Z</time>
      </trkpt>
      <trkpt lat="45.11146" lon="2.75138">
        <ele>1423</ele>
        <time>2017-09-02T12:38:51Z</time>
      </trkpt>
      <trkpt lat="45.11146" lon="2.75131">
        <ele>1423</ele>
        <time>2017-09-02T12:38:55Z</time>
      </trkpt>
      <trkpt lat="45.11145" lon="2.75124">
        <ele>1422</ele>
        <time>2017-09-02T12:38:59Z</time>
      </trkpt>
      <trkpt lat="45.11145" lon="2.75118">
        <ele>1422</ele>
        <time>2017-09-02T12:39:03Z</time>
      </trkpt>
      <trkpt lat="45.11145" lon="2.7511">
        <ele>1422</ele>
        <time>2017-09-02T12:39:07Z</time>
      </trkpt>
      <trkpt lat="45.11145" lon="2.75103">
        <ele>1422</ele>
        <time>2017-09-02T12:39:11Z</time>
      </trkpt>
      <trkpt lat="45.11143" lon="2.75096">
        <ele>1422</ele>
        <time>2017-09-02T12:39:14Z</time>
      </trkpt>
      <trkpt lat="45.11142" lon="2.7509">
        <ele>1422</ele>
        <time>2017-09-02T12:39:17Z</time>
      </trkpt>
      <trkpt lat="45.1114" lon="2.75083">
        <ele>1421</ele>
        <time>2017-09-02T12:39:21Z</time>
      </trkpt>
      <trkpt lat="45.11137" lon="2.75077">
        <ele>1421</ele>
        <time>2017-09-02T12:39:25Z</time>
      </trkpt>
      <trkpt lat="45.11134" lon="2.75071">
        <ele>1421</ele>
        <time>2017-09-02T12:39:28Z</time>
      </trkpt>
      <trkpt lat="45.11129" lon="2.75066">
        <ele>1420</ele>
        <time>2017-09-02T12:39:32Z</time>
      </trkpt>
      <trkpt lat="45.11126" lon="2.75059">
        <ele>1420</ele>
        <time>2017-09-02T12:39:36Z</time>
      </trkpt>
      <trkpt lat="45.11124" lon="2.75053">
        <ele>1420</ele>
        <time>2017-09-02T12:39:39Z</time>
      </trkpt>
      <trkpt lat="45.11123" lon="2.75045">
        <ele>1420</ele>
        <time>2017-09-02T12:39:43Z</time>
      </trkpt>
      <trkpt lat="45.11121" lon="2.75039">
        <ele>1420</ele>
        <time>2017-09-02T12:39:47Z</time>
      </trkpt>
      <trkpt lat="45.11118" lon="2.75033">
        <ele>1419</ele>
        <time>2017-09-02T12:39:51Z</time>
      </trkpt>
      <trkpt lat="45.11115" lon="2.75028">
        <ele>1419</ele>
        <time>2017-09-02T12:39:56Z</time>
      </trkpt>
      <trkpt lat="45.1111" lon="2.75024">
        <ele>1419</ele>
        <time>2017-09-02T12:40:01Z</time>
      </trkpt>
      <trkpt lat="45.11106" lon="2.7502">
        <ele>1419</ele>
        <time>2017-09-02T12:40:06Z</time>
      </trkpt>
      <trkpt lat="45.111" lon="2.75021">
        <ele>1419</ele>
        <time>2017-09-02T12:40:10Z</time>
      </trkpt>
      <trkpt lat="45.11095" lon="2.75021">
        <ele>1419</ele>
        <time>2017-09-02T12:40:14Z</time>
      </trkpt>
      <trkpt lat="45.1109" lon="2.7502">
        <ele>1419</ele>
        <time>2017-09-02T12:40:18Z</time>
      </trkpt>
      <trkpt lat="45.11085" lon="2.75023">
        <ele>1420</ele>
        <time>2017-09-02T12:40:25Z</time>
      </trkpt>
      <trkpt lat="45.11087" lon="2.7502">
        <ele>1420</ele>
        <time>2017-09-02T12:40:51Z</time>
      </trkpt>
      <trkpt lat="45.11085" lon="2.75022">
        <ele>1420</ele>
        <time>2017-09-02T12:40:55Z</time>
      </trkpt>
      <trkpt lat="45.11091" lon="2.7502">
        <ele>1420</ele>
        <time>2017-09-02T12:40:56Z</time>
      </trkpt>
      <trkpt lat="45.11086" lon="2.7502">
        <ele>1420</ele>
        <time>2017-09-02T12:40:58Z</time>
      </trkpt>
      <trkpt lat="45.11081" lon="2.75019">
        <ele>1420</ele>
        <time>2017-09-02T12:41:03Z</time>
      </trkpt>
      <trkpt lat="45.11075" lon="2.75018">
        <ele>1420</ele>
        <time>2017-09-02T12:41:07Z</time>
      </trkpt>
      <trkpt lat="45.1107" lon="2.75018">
        <ele>1420</ele>
        <time>2017-09-02T12:41:11Z</time>
      </trkpt>
      <trkpt lat="45.11066" lon="2.75022">
        <ele>1421</ele>
        <time>2017-09-02T12:41:16Z</time>
      </trkpt>
      <trkpt lat="45.11062" lon="2.75028">
        <ele>1421</ele>
        <time>2017-09-02T12:41:20Z</time>
      </trkpt>
      <trkpt lat="45.11058" lon="2.75035">
        <ele>1421</ele>
        <time>2017-09-02T12:41:25Z</time>
      </trkpt>
      <trkpt lat="45.11057" lon="2.75042">
        <ele>1421</ele>
        <time>2017-09-02T12:41:29Z</time>
      </trkpt>
      <trkpt lat="45.11054" lon="2.75049">
        <ele>1421</ele>
        <time>2017-09-02T12:41:34Z</time>
      </trkpt>
      <trkpt lat="45.11051" lon="2.75055">
        <ele>1422</ele>
        <time>2017-09-02T12:41:41Z</time>
      </trkpt>
      <trkpt lat="45.11048" lon="2.75062">
        <ele>1423</ele>
        <time>2017-09-02T12:41:46Z</time>
      </trkpt>
      <trkpt lat="45.11046" lon="2.75068">
        <ele>1423</ele>
        <time>2017-09-02T12:41:49Z</time>
      </trkpt>
      <trkpt lat="45.11044" lon="2.75074">
        <ele>1424</ele>
        <time>2017-09-02T12:41:55Z</time>
      </trkpt>
      <trkpt lat="45.11043" lon="2.7508">
        <ele>1425</ele>
        <time>2017-09-02T12:42:01Z</time>
      </trkpt>
      <trkpt lat="45.11041" lon="2.75087">
        <ele>1426</ele>
        <time>2017-09-02T12:42:08Z</time>
      </trkpt>
      <trkpt lat="45.1104" lon="2.75093">
        <ele>1427</ele>
        <time>2017-09-02T12:42:14Z</time>
      </trkpt>
      <trkpt lat="45.11037" lon="2.751">
        <ele>1429</ele>
        <time>2017-09-02T12:42:19Z</time>
      </trkpt>
      <trkpt lat="45.11035" lon="2.75107">
        <ele>1430</ele>
        <time>2017-09-02T12:42:24Z</time>
      </trkpt>
      <trkpt lat="45.11033" lon="2.75114">
        <ele>1431</ele>
        <time>2017-09-02T12:42:29Z</time>
      </trkpt>
      <trkpt lat="45.11031" lon="2.75121">
        <ele>1432</ele>
        <time>2017-09-02T12:42:36Z</time>
      </trkpt>
      <trkpt lat="45.1103" lon="2.75127">
        <ele>1433</ele>
        <time>2017-09-02T12:42:40Z</time>
      </trkpt>
      <trkpt lat="45.11028" lon="2.75134">
        <ele>1434</ele>
        <time>2017-09-02T12:42:45Z</time>
      </trkpt>
      <trkpt lat="45.11027" lon="2.75141">
        <ele>1435</ele>
        <time>2017-09-02T12:42:52Z</time>
      </trkpt>
      <trkpt lat="45.11028" lon="2.75147">
        <ele>1436</ele>
        <time>2017-09-02T12:42:56Z</time>
      </trkpt>
      <trkpt lat="45.11027" lon="2.75154">
        <ele>1437</ele>
        <time>2017-09-02T12:43:01Z</time>
      </trkpt>
      <trkpt lat="45.11025" lon="2.75161">
        <ele>1438</ele>
        <time>2017-09-02T12:43:05Z</time>
      </trkpt>
      <trkpt lat="45.11023" lon="2.75168">
        <ele>1438</ele>
        <time>2017-09-02T12:43:09Z</time>
      </trkpt>
      <trkpt lat="45.1102" lon="2.75173">
        <ele>1439</ele>
        <time>2017-09-02T12:43:13Z</time>
      </trkpt>
      <trkpt lat="45.11018" lon="2.7518">
        <ele>1440</ele>
        <time>2017-09-02T12:43:18Z</time>
      </trkpt>
      <trkpt lat="45.11017" lon="2.75186">
        <ele>1441</ele>
        <time>2017-09-02T12:43:22Z</time>
      </trkpt>
      <trkpt lat="45.11017" lon="2.75193">
        <ele>1442</ele>
        <time>2017-09-02T12:43:27Z</time>
      </trkpt>
      <trkpt lat="45.11015" lon="2.75199">
        <ele>1443</ele>
        <time>2017-09-02T12:43:31Z</time>
      </trkpt>
      <trkpt lat="45.11014" lon="2.75206">
        <ele>1444</ele>
        <time>2017-09-02T12:43:36Z</time>
      </trkpt>
      <trkpt lat="45.11011" lon="2.75212">
        <ele>1446</ele>
        <time>2017-09-02T12:43:40Z</time>
      </trkpt>
      <trkpt lat="45.11009" lon="2.75219">
        <ele>1447</ele>
        <time>2017-09-02T12:43:44Z</time>
      </trkpt>
      <trkpt lat="45.11006" lon="2.75225">
        <ele>1447</ele>
        <time>2017-09-02T12:43:48Z</time>
      </trkpt>
      <trkpt lat="45.11003" lon="2.75232">
        <ele>1448</ele>
        <time>2017-09-02T12:43:53Z</time>
      </trkpt>
      <trkpt lat="45.11" lon="2.75237">
        <ele>1448</ele>
        <time>2017-09-02T12:43:57Z</time>
      </trkpt>
      <trkpt lat="45.10998" lon="2.75244">
        <ele>1449</ele>
        <time>2017-09-02T12:44:02Z</time>
      </trkpt>
      <trkpt lat="45.10997" lon="2.75251">
        <ele>1449</ele>
        <time>2017-09-02T12:44:06Z</time>
      </trkpt>
      <trkpt lat="45.10995" lon="2.75258">
        <ele>1450</ele>
        <time>2017-09-02T12:44:10Z</time>
      </trkpt>
      <trkpt lat="45.10994" lon="2.75265">
        <ele>1450</ele>
        <time>2017-09-02T12:44:15Z</time>
      </trkpt>
      <trkpt lat="45.10992" lon="2.75271">
        <ele>1451</ele>
        <time>2017-09-02T12:44:19Z</time>
      </trkpt>
      <trkpt lat="45.10989" lon="2.75276">
        <ele>1452</ele>
        <time>2017-09-02T12:44:23Z</time>
      </trkpt>
      <trkpt lat="45.10986" lon="2.75282">
        <ele>1452</ele>
        <time>2017-09-02T12:44:26Z</time>
      </trkpt>
      <trkpt lat="45.10985" lon="2.75289">
        <ele>1453</ele>
        <time>2017-09-02T12:44:29Z</time>
      </trkpt>
      <trkpt lat="45.10986" lon="2.75296">
        <ele>1453</ele>
        <time>2017-09-02T12:44:33Z</time>
      </trkpt>
      <trkpt lat="45.10986" lon="2.75303">
        <ele>1453</ele>
        <time>2017-09-02T12:44:37Z</time>
      </trkpt>
      <trkpt lat="45.10985" lon="2.75311">
        <ele>1454</ele>
        <time>2017-09-02T12:44:41Z</time>
      </trkpt>
      <trkpt lat="45.10983" lon="2.75318">
        <ele>1454</ele>
        <time>2017-09-02T12:44:45Z</time>
      </trkpt>
      <trkpt lat="45.1098" lon="2.75325">
        <ele>1455</ele>
        <time>2017-09-02T12:44:50Z</time>
      </trkpt>
      <trkpt lat="45.10977" lon="2.7533">
        <ele>1456</ele>
        <time>2017-09-02T12:44:54Z</time>
      </trkpt>
      <trkpt lat="45.10973" lon="2.75334">
        <ele>1456</ele>
        <time>2017-09-02T12:44:59Z</time>
      </trkpt>
      <trkpt lat="45.10969" lon="2.75338">
        <ele>1456</ele>
        <time>2017-09-02T12:45:03Z</time>
      </trkpt>
      <trkpt lat="45.10964" lon="2.75341">
        <ele>1456</ele>
        <time>2017-09-02T12:45:07Z</time>
      </trkpt>
      <trkpt lat="45.1096" lon="2.75345">
        <ele>1456</ele>
        <time>2017-09-02T12:45:11Z</time>
      </trkpt>
      <trkpt lat="45.10955" lon="2.75348">
        <ele>1457</ele>
        <time>2017-09-02T12:45:15Z</time>
      </trkpt>
      <trkpt lat="45.10953" lon="2.75354">
        <ele>1457</ele>
        <time>2017-09-02T12:45:20Z</time>
      </trkpt>
      <trkpt lat="45.10947" lon="2.75356">
        <ele>1458</ele>
        <time>2017-09-02T12:45:25Z</time>
      </trkpt>
      <trkpt lat="45.10943" lon="2.75357">
        <ele>1459</ele>
        <time>2017-09-02T12:45:29Z</time>
      </trkpt>
      <trkpt lat="45.10938" lon="2.75357">
        <ele>1460</ele>
        <time>2017-09-02T12:45:32Z</time>
      </trkpt>
      <trkpt lat="45.10933" lon="2.75357">
        <ele>1460</ele>
        <time>2017-09-02T12:45:37Z</time>
      </trkpt>
      <trkpt lat="45.10928" lon="2.7536">
        <ele>1461</ele>
        <time>2017-09-02T12:45:42Z</time>
      </trkpt>
      <trkpt lat="45.10924" lon="2.75364">
        <ele>1461</ele>
        <time>2017-09-02T12:45:46Z</time>
      </trkpt>
      <trkpt lat="45.10919" lon="2.75365">
        <ele>1461</ele>
        <time>2017-09-02T12:45:51Z</time>
      </trkpt>
      <trkpt lat="45.10915" lon="2.75369">
        <ele>1462</ele>
        <time>2017-09-02T12:45:57Z</time>
      </trkpt>
      <trkpt lat="45.1091" lon="2.75372">
        <ele>1462</ele>
        <time>2017-09-02T12:46:02Z</time>
      </trkpt>
      <trkpt lat="45.10905" lon="2.75374">
        <ele>1463</ele>
        <time>2017-09-02T12:46:08Z</time>
      </trkpt>
      <trkpt lat="45.109" lon="2.75377">
        <ele>1463</ele>
        <time>2017-09-02T12:46:13Z</time>
      </trkpt>
      <trkpt lat="45.10895" lon="2.75378">
        <ele>1464</ele>
        <time>2017-09-02T12:46:19Z</time>
      </trkpt>
      <trkpt lat="45.10891" lon="2.75381">
        <ele>1465</ele>
        <time>2017-09-02T12:46:24Z</time>
      </trkpt>
      <trkpt lat="45.10885" lon="2.75383">
        <ele>1466</ele>
        <time>2017-09-02T12:46:30Z</time>
      </trkpt>
      <trkpt lat="45.1088" lon="2.75383">
        <ele>1467</ele>
        <time>2017-09-02T12:46:34Z</time>
      </trkpt>
      <trkpt lat="45.10874" lon="2.75383">
        <ele>1468</ele>
        <time>2017-09-02T12:46:39Z</time>
      </trkpt>
      <trkpt lat="45.1087" lon="2.75387">
        <ele>1469</ele>
        <time>2017-09-02T12:46:45Z</time>
      </trkpt>
      <trkpt lat="45.10865" lon="2.75389">
        <ele>1470</ele>
        <time>2017-09-02T12:46:51Z</time>
      </trkpt>
      <trkpt lat="45.10861" lon="2.75394">
        <ele>1471</ele>
        <time>2017-09-02T12:46:55Z</time>
      </trkpt>
      <trkpt lat="45.10858" lon="2.754">
        <ele>1472</ele>
        <time>2017-09-02T12:47:00Z</time>
      </trkpt>
      <trkpt lat="45.10855" lon="2.75406">
        <ele>1473</ele>
        <time>2017-09-02T12:47:05Z</time>
      </trkpt>
      <trkpt lat="45.10852" lon="2.75413">
        <ele>1474</ele>
        <time>2017-09-02T12:47:10Z</time>
      </trkpt>
      <trkpt lat="45.10848" lon="2.75417">
        <ele>1476</ele>
        <time>2017-09-02T12:47:13Z</time>
      </trkpt>
      <trkpt lat="45.10846" lon="2.75423">
        <ele>1477</ele>
        <time>2017-09-02T12:47:18Z</time>
      </trkpt>
      <trkpt lat="45.10842" lon="2.75427">
        <ele>1479</ele>
        <time>2017-09-02T12:47:23Z</time>
      </trkpt>
      <trkpt lat="45.10838" lon="2.75432">
        <ele>1480</ele>
        <time>2017-09-02T12:47:28Z</time>
      </trkpt>
      <trkpt lat="45.10833" lon="2.75435">
        <ele>1481</ele>
        <time>2017-09-02T12:47:33Z</time>
      </trkpt>
      <trkpt lat="45.10829" lon="2.75437">
        <ele>1481</ele>
        <time>2017-09-02T12:47:36Z</time>
      </trkpt>
      <trkpt lat="45.10824" lon="2.7544">
        <ele>1482</ele>
        <time>2017-09-02T12:47:40Z</time>
      </trkpt>
      <trkpt lat="45.1082" lon="2.75444">
        <ele>1483</ele>
        <time>2017-09-02T12:47:44Z</time>
      </trkpt>
      <trkpt lat="45.10816" lon="2.75447">
        <ele>1483</ele>
        <time>2017-09-02T12:47:48Z</time>
      </trkpt>
      <trkpt lat="45.10811" lon="2.75446">
        <ele>1484</ele>
        <time>2017-09-02T12:47:52Z</time>
      </trkpt>
      <trkpt lat="45.10806" lon="2.75445">
        <ele>1484</ele>
        <time>2017-09-02T12:47:56Z</time>
      </trkpt>
      <trkpt lat="45.10802" lon="2.75441">
        <ele>1484</ele>
        <time>2017-09-02T12:48:00Z</time>
      </trkpt>
      <trkpt lat="45.108" lon="2.75435">
        <ele>1485</ele>
        <time>2017-09-02T12:48:05Z</time>
      </trkpt>
      <trkpt lat="45.10796" lon="2.75429">
        <ele>1486</ele>
        <time>2017-09-02T12:48:10Z</time>
      </trkpt>
      <trkpt lat="45.10792" lon="2.75425">
        <ele>1486</ele>
        <time>2017-09-02T12:48:15Z</time>
      </trkpt>
      <trkpt lat="45.10791" lon="2.75419">
        <ele>1488</ele>
        <time>2017-09-02T12:48:23Z</time>
      </trkpt>
      <trkpt lat="45.10788" lon="2.75412">
        <ele>1489</ele>
        <time>2017-09-02T12:48:29Z</time>
      </trkpt>
      <trkpt lat="45.10786" lon="2.75406">
        <ele>1490</ele>
        <time>2017-09-02T12:48:36Z</time>
      </trkpt>
      <trkpt lat="45.10783" lon="2.754">
        <ele>1491</ele>
        <time>2017-09-02T12:48:40Z</time>
      </trkpt>
      <trkpt lat="45.10782" lon="2.75394">
        <ele>1492</ele>
        <time>2017-09-02T12:48:44Z</time>
      </trkpt>
      <trkpt lat="45.1078" lon="2.75387">
        <ele>1493</ele>
        <time>2017-09-02T12:48:48Z</time>
      </trkpt>
      <trkpt lat="45.10777" lon="2.75382">
        <ele>1493</ele>
        <time>2017-09-02T12:48:52Z</time>
      </trkpt>
      <trkpt lat="45.10775" lon="2.75375">
        <ele>1493</ele>
        <time>2017-09-02T12:48:56Z</time>
      </trkpt>
      <trkpt lat="45.10772" lon="2.75371">
        <ele>1493</ele>
        <time>2017-09-02T12:49:00Z</time>
      </trkpt>
      <trkpt lat="45.10769" lon="2.75364">
        <ele>1493</ele>
        <time>2017-09-02T12:49:06Z</time>
      </trkpt>
      <trkpt lat="45.10766" lon="2.75359">
        <ele>1494</ele>
        <time>2017-09-02T12:49:10Z</time>
      </trkpt>
      <trkpt lat="45.10763" lon="2.75353">
        <ele>1494</ele>
        <time>2017-09-02T12:49:17Z</time>
      </trkpt>
      <trkpt lat="45.1076" lon="2.75347">
        <ele>1494</ele>
        <time>2017-09-02T12:49:22Z</time>
      </trkpt>
      <trkpt lat="45.10758" lon="2.75341">
        <ele>1496</ele>
        <time>2017-09-02T12:49:29Z</time>
      </trkpt>
      <trkpt lat="45.10755" lon="2.75334">
        <ele>1497</ele>
        <time>2017-09-02T12:49:37Z</time>
      </trkpt>
      <trkpt lat="45.10754" lon="2.75328">
        <ele>1498</ele>
        <time>2017-09-02T12:49:42Z</time>
      </trkpt>
      <trkpt lat="45.10752" lon="2.75321">
        <ele>1499</ele>
        <time>2017-09-02T12:49:49Z</time>
      </trkpt>
      <trkpt lat="45.1075" lon="2.75315">
        <ele>1500</ele>
        <time>2017-09-02T12:49:54Z</time>
      </trkpt>
      <trkpt lat="45.10748" lon="2.75308">
        <ele>1502</ele>
        <time>2017-09-02T12:50:00Z</time>
      </trkpt>
      <trkpt lat="45.10745" lon="2.75302">
        <ele>1503</ele>
        <time>2017-09-02T12:50:04Z</time>
      </trkpt>
      <trkpt lat="45.10743" lon="2.75296">
        <ele>1504</ele>
        <time>2017-09-02T12:50:09Z</time>
      </trkpt>
      <trkpt lat="45.10741" lon="2.75289">
        <ele>1505</ele>
        <time>2017-09-02T12:50:15Z</time>
      </trkpt>
      <trkpt lat="45.1074" lon="2.75282">
        <ele>1506</ele>
        <time>2017-09-02T12:50:19Z</time>
      </trkpt>
      <trkpt lat="45.10737" lon="2.75276">
        <ele>1507</ele>
        <time>2017-09-02T12:50:24Z</time>
      </trkpt>
      <trkpt lat="45.10735" lon="2.75269">
        <ele>1508</ele>
        <time>2017-09-02T12:50:32Z</time>
      </trkpt>
      <trkpt lat="45.10731" lon="2.75262">
        <ele>1509</ele>
        <time>2017-09-02T12:50:38Z</time>
      </trkpt>
      <trkpt lat="45.10729" lon="2.75255">
        <ele>1510</ele>
        <time>2017-09-02T12:50:42Z</time>
      </trkpt>
      <trkpt lat="45.10729" lon="2.75249">
        <ele>1510</ele>
        <time>2017-09-02T12:50:50Z</time>
      </trkpt>
      <trkpt lat="45.10726" lon="2.75243">
        <ele>1511</ele>
        <time>2017-09-02T12:50:57Z</time>
      </trkpt>
      <trkpt lat="45.10725" lon="2.75235">
        <ele>1512</ele>
        <time>2017-09-02T12:51:03Z</time>
      </trkpt>
      <trkpt lat="45.10724" lon="2.75229">
        <ele>1512</ele>
        <time>2017-09-02T12:51:08Z</time>
      </trkpt>
      <trkpt lat="45.1072" lon="2.75224">
        <ele>1513</ele>
        <time>2017-09-02T12:51:12Z</time>
      </trkpt>
      <trkpt lat="45.10717" lon="2.75219">
        <ele>1513</ele>
        <time>2017-09-02T12:51:17Z</time>
      </trkpt>
      <trkpt lat="45.10712" lon="2.75216">
        <ele>1514</ele>
        <time>2017-09-02T12:51:23Z</time>
      </trkpt>
      <trkpt lat="45.10709" lon="2.75211">
        <ele>1514</ele>
        <time>2017-09-02T12:51:27Z</time>
      </trkpt>
      <trkpt lat="45.10706" lon="2.75205">
        <ele>1514</ele>
        <time>2017-09-02T12:51:31Z</time>
      </trkpt>
      <trkpt lat="45.10703" lon="2.75199">
        <ele>1515</ele>
        <time>2017-09-02T12:51:35Z</time>
      </trkpt>
      <trkpt lat="45.10699" lon="2.75194">
        <ele>1515</ele>
        <time>2017-09-02T12:51:42Z</time>
      </trkpt>
      <trkpt lat="45.10696" lon="2.75188">
        <ele>1515</ele>
        <time>2017-09-02T12:51:48Z</time>
      </trkpt>
      <trkpt lat="45.10693" lon="2.75182">
        <ele>1516</ele>
        <time>2017-09-02T12:51:53Z</time>
      </trkpt>
      <trkpt lat="45.10693" lon="2.75175">
        <ele>1517</ele>
        <time>2017-09-02T12:51:59Z</time>
      </trkpt>
      <trkpt lat="45.10693" lon="2.75168">
        <ele>1518</ele>
        <time>2017-09-02T12:52:04Z</time>
      </trkpt>
      <trkpt lat="45.10692" lon="2.75162">
        <ele>1518</ele>
        <time>2017-09-02T12:52:08Z</time>
      </trkpt>
      <trkpt lat="45.1069" lon="2.75155">
        <ele>1519</ele>
        <time>2017-09-02T12:52:13Z</time>
      </trkpt>
      <trkpt lat="45.10685" lon="2.75151">
        <ele>1519</ele>
        <time>2017-09-02T12:52:18Z</time>
      </trkpt>
      <trkpt lat="45.10681" lon="2.75149">
        <ele>1519</ele>
        <time>2017-09-02T12:52:24Z</time>
      </trkpt>
      <trkpt lat="45.10677" lon="2.75147">
        <ele>1520</ele>
        <time>2017-09-02T12:52:29Z</time>
      </trkpt>
      <trkpt lat="45.10672" lon="2.75142">
        <ele>1520</ele>
        <time>2017-09-02T12:52:34Z</time>
      </trkpt>
      <trkpt lat="45.10669" lon="2.75138">
        <ele>1521</ele>
        <time>2017-09-02T12:52:39Z</time>
      </trkpt>
      <trkpt lat="45.10666" lon="2.75133">
        <ele>1521</ele>
        <time>2017-09-02T12:52:44Z</time>
      </trkpt>
      <trkpt lat="45.10664" lon="2.75127">
        <ele>1522</ele>
        <time>2017-09-02T12:52:50Z</time>
      </trkpt>
      <trkpt lat="45.10661" lon="2.75121">
        <ele>1522</ele>
        <time>2017-09-02T12:52:55Z</time>
      </trkpt>
      <trkpt lat="45.10657" lon="2.75117">
        <ele>1523</ele>
        <time>2017-09-02T12:53:00Z</time>
      </trkpt>
      <trkpt lat="45.10653" lon="2.75112">
        <ele>1524</ele>
        <time>2017-09-02T12:53:06Z</time>
      </trkpt>
      <trkpt lat="45.10648" lon="2.75112">
        <ele>1524</ele>
        <time>2017-09-02T12:53:11Z</time>
      </trkpt>
      <trkpt lat="45.10644" lon="2.75109">
        <ele>1526</ele>
        <time>2017-09-02T12:53:17Z</time>
      </trkpt>
      <trkpt lat="45.10638" lon="2.75106">
        <ele>1527</ele>
        <time>2017-09-02T12:53:23Z</time>
      </trkpt>
      <trkpt lat="45.10636" lon="2.751">
        <ele>1529</ele>
        <time>2017-09-02T12:53:26Z</time>
      </trkpt>
      <trkpt lat="45.10633" lon="2.75095">
        <ele>1532</ele>
        <time>2017-09-02T12:53:30Z</time>
      </trkpt>
      <trkpt lat="45.10629" lon="2.7509">
        <ele>1534</ele>
        <time>2017-09-02T12:53:35Z</time>
      </trkpt>
      <trkpt lat="45.10627" lon="2.75084">
        <ele>1536</ele>
        <time>2017-09-02T12:53:40Z</time>
      </trkpt>
      <trkpt lat="45.10624" lon="2.75077">
        <ele>1538</ele>
        <time>2017-09-02T12:53:46Z</time>
      </trkpt>
      <trkpt lat="45.10621" lon="2.75072">
        <ele>1540</ele>
        <time>2017-09-02T12:53:52Z</time>
      </trkpt>
      <trkpt lat="45.10617" lon="2.75066">
        <ele>1541</ele>
        <time>2017-09-02T12:53:57Z</time>
      </trkpt>
      <trkpt lat="45.10614" lon="2.75061">
        <ele>1543</ele>
        <time>2017-09-02T12:54:01Z</time>
      </trkpt>
      <trkpt lat="45.10613" lon="2.75054">
        <ele>1544</ele>
        <time>2017-09-02T12:54:05Z</time>
      </trkpt>
      <trkpt lat="45.10609" lon="2.75049">
        <ele>1546</ele>
        <time>2017-09-02T12:54:11Z</time>
      </trkpt>
      <trkpt lat="45.10605" lon="2.75045">
        <ele>1547</ele>
        <time>2017-09-02T12:54:16Z</time>
      </trkpt>
      <trkpt lat="45.106" lon="2.75041">
        <ele>1549</ele>
        <time>2017-09-02T12:54:21Z</time>
      </trkpt>
      <trkpt lat="45.10596" lon="2.75039">
        <ele>1550</ele>
        <time>2017-09-02T12:54:29Z</time>
      </trkpt>
      <trkpt lat="45.10592" lon="2.75034">
        <ele>1551</ele>
        <time>2017-09-02T12:54:33Z</time>
      </trkpt>
      <trkpt lat="45.1059" lon="2.75028">
        <ele>1552</ele>
        <time>2017-09-02T12:54:37Z</time>
      </trkpt>
      <trkpt lat="45.10587" lon="2.75022">
        <ele>1553</ele>
        <time>2017-09-02T12:54:40Z</time>
      </trkpt>
      <trkpt lat="45.10584" lon="2.75016">
        <ele>1554</ele>
        <time>2017-09-02T12:54:46Z</time>
      </trkpt>
      <trkpt lat="45.1058" lon="2.75009">
        <ele>1555</ele>
        <time>2017-09-02T12:54:51Z</time>
      </trkpt>
      <trkpt lat="45.10577" lon="2.75003">
        <ele>1556</ele>
        <time>2017-09-02T12:54:55Z</time>
      </trkpt>
      <trkpt lat="45.10573" lon="2.74998">
        <ele>1558</ele>
        <time>2017-09-02T12:54:59Z</time>
      </trkpt>
      <trkpt lat="45.10569" lon="2.74994">
        <ele>1559</ele>
        <time>2017-09-02T12:55:03Z</time>
      </trkpt>
      <trkpt lat="45.10565" lon="2.7499">
        <ele>1560</ele>
        <time>2017-09-02T12:55:08Z</time>
      </trkpt>
      <trkpt lat="45.10561" lon="2.74985">
        <ele>1560</ele>
        <time>2017-09-02T12:55:12Z</time>
      </trkpt>
      <trkpt lat="45.10557" lon="2.74981">
        <ele>1561</ele>
        <time>2017-09-02T12:55:16Z</time>
      </trkpt>
      <trkpt lat="45.10553" lon="2.74976">
        <ele>1561</ele>
        <time>2017-09-02T12:55:20Z</time>
      </trkpt>
      <trkpt lat="45.10549" lon="2.74971">
        <ele>1562</ele>
        <time>2017-09-02T12:55:24Z</time>
      </trkpt>
      <trkpt lat="45.10545" lon="2.74966">
        <ele>1562</ele>
        <time>2017-09-02T12:55:27Z</time>
      </trkpt>
      <trkpt lat="45.10541" lon="2.74963">
        <ele>1562</ele>
        <time>2017-09-02T12:55:31Z</time>
      </trkpt>
      <trkpt lat="45.10537" lon="2.74957">
        <ele>1563</ele>
        <time>2017-09-02T12:55:36Z</time>
      </trkpt>
      <trkpt lat="45.10534" lon="2.74951">
        <ele>1563</ele>
        <time>2017-09-02T12:55:40Z</time>
      </trkpt>
      <trkpt lat="45.1053" lon="2.74945">
        <ele>1564</ele>
        <time>2017-09-02T12:55:44Z</time>
      </trkpt>
      <trkpt lat="45.10527" lon="2.74939">
        <ele>1565</ele>
        <time>2017-09-02T12:55:48Z</time>
      </trkpt>
      <trkpt lat="45.10522" lon="2.74935">
        <ele>1566</ele>
        <time>2017-09-02T12:55:53Z</time>
      </trkpt>
      <trkpt lat="45.10517" lon="2.74933">
        <ele>1567</ele>
        <time>2017-09-02T12:55:56Z</time>
      </trkpt>
      <trkpt lat="45.10513" lon="2.7493">
        <ele>1568</ele>
        <time>2017-09-02T12:55:59Z</time>
      </trkpt>
      <trkpt lat="45.10509" lon="2.74925">
        <ele>1569</ele>
        <time>2017-09-02T12:56:04Z</time>
      </trkpt>
      <trkpt lat="45.10505" lon="2.74921">
        <ele>1569</ele>
        <time>2017-09-02T12:56:08Z</time>
      </trkpt>
      <trkpt lat="45.105" lon="2.74918">
        <ele>1571</ele>
        <time>2017-09-02T12:56:13Z</time>
      </trkpt>
      <trkpt lat="45.10495" lon="2.74915">
        <ele>1572</ele>
        <time>2017-09-02T12:56:21Z</time>
      </trkpt>
      <trkpt lat="45.1049" lon="2.74912">
        <ele>1574</ele>
        <time>2017-09-02T12:56:25Z</time>
      </trkpt>
      <trkpt lat="45.10486" lon="2.74907">
        <ele>1575</ele>
        <time>2017-09-02T12:56:30Z</time>
      </trkpt>
      <trkpt lat="45.10482" lon="2.74902">
        <ele>1577</ele>
        <time>2017-09-02T12:56:34Z</time>
      </trkpt>
      <trkpt lat="45.10477" lon="2.74899">
        <ele>1578</ele>
        <time>2017-09-02T12:56:39Z</time>
      </trkpt>
      <trkpt lat="45.10473" lon="2.74896">
        <ele>1579</ele>
        <time>2017-09-02T12:56:43Z</time>
      </trkpt>
      <trkpt lat="45.10468" lon="2.74893">
        <ele>1580</ele>
        <time>2017-09-02T12:56:48Z</time>
      </trkpt>
      <trkpt lat="45.10464" lon="2.74888">
        <ele>1581</ele>
        <time>2017-09-02T12:56:53Z</time>
      </trkpt>
      <trkpt lat="45.1046" lon="2.74884">
        <ele>1582</ele>
        <time>2017-09-02T12:56:59Z</time>
      </trkpt>
      <trkpt lat="45.10456" lon="2.74882">
        <ele>1583</ele>
        <time>2017-09-02T12:57:03Z</time>
      </trkpt>
      <trkpt lat="45.10452" lon="2.74878">
        <ele>1585</ele>
        <time>2017-09-02T12:57:07Z</time>
      </trkpt>
      <trkpt lat="45.10448" lon="2.74874">
        <ele>1586</ele>
        <time>2017-09-02T12:57:11Z</time>
      </trkpt>
      <trkpt lat="45.10443" lon="2.74872">
        <ele>1587</ele>
        <time>2017-09-02T12:57:16Z</time>
      </trkpt>
      <trkpt lat="45.10438" lon="2.74868">
        <ele>1588</ele>
        <time>2017-09-02T12:57:20Z</time>
      </trkpt>
      <trkpt lat="45.10433" lon="2.74865">
        <ele>1589</ele>
        <time>2017-09-02T12:57:25Z</time>
      </trkpt>
      <trkpt lat="45.10428" lon="2.74861">
        <ele>1590</ele>
        <time>2017-09-02T12:57:29Z</time>
      </trkpt>
      <trkpt lat="45.10423" lon="2.74858">
        <ele>1591</ele>
        <time>2017-09-02T12:57:34Z</time>
      </trkpt>
      <trkpt lat="45.10418" lon="2.74853">
        <ele>1593</ele>
        <time>2017-09-02T12:57:37Z</time>
      </trkpt>
      <trkpt lat="45.10413" lon="2.7485">
        <ele>1594</ele>
        <time>2017-09-02T12:57:41Z</time>
      </trkpt>
      <trkpt lat="45.10409" lon="2.74847">
        <ele>1595</ele>
        <time>2017-09-02T12:57:46Z</time>
      </trkpt>
      <trkpt lat="45.10404" lon="2.74846">
        <ele>1596</ele>
        <time>2017-09-02T12:57:50Z</time>
      </trkpt>
      <trkpt lat="45.104" lon="2.74845">
        <ele>1597</ele>
        <time>2017-09-02T12:57:55Z</time>
      </trkpt>
      <trkpt lat="45.10395" lon="2.74843">
        <ele>1598</ele>
        <time>2017-09-02T12:57:58Z</time>
      </trkpt>
      <trkpt lat="45.1039" lon="2.74839">
        <ele>1600</ele>
        <time>2017-09-02T12:58:03Z</time>
      </trkpt>
      <trkpt lat="45.10385" lon="2.74836">
        <ele>1601</ele>
        <time>2017-09-02T12:58:07Z</time>
      </trkpt>
      <trkpt lat="45.10379" lon="2.74832">
        <ele>1602</ele>
        <time>2017-09-02T12:58:12Z</time>
      </trkpt>
      <trkpt lat="45.10375" lon="2.74829">
        <ele>1604</ele>
        <time>2017-09-02T12:58:15Z</time>
      </trkpt>
      <trkpt lat="45.1037" lon="2.74827">
        <ele>1605</ele>
        <time>2017-09-02T12:58:19Z</time>
      </trkpt>
      <trkpt lat="45.10366" lon="2.74824">
        <ele>1606</ele>
        <time>2017-09-02T12:58:23Z</time>
      </trkpt>
      <trkpt lat="45.10362" lon="2.74819">
        <ele>1607</ele>
        <time>2017-09-02T12:58:27Z</time>
      </trkpt>
      <trkpt lat="45.10358" lon="2.74815">
        <ele>1608</ele>
        <time>2017-09-02T12:58:31Z</time>
      </trkpt>
      <trkpt lat="45.10354" lon="2.74812">
        <ele>1609</ele>
        <time>2017-09-02T12:58:34Z</time>
      </trkpt>
      <trkpt lat="45.10349" lon="2.7481">
        <ele>1609</ele>
        <time>2017-09-02T12:58:38Z</time>
      </trkpt>
      <trkpt lat="45.10345" lon="2.74806">
        <ele>1610</ele>
        <time>2017-09-02T12:58:42Z</time>
      </trkpt>
      <trkpt lat="45.1034" lon="2.74803">
        <ele>1611</ele>
        <time>2017-09-02T12:58:46Z</time>
      </trkpt>
      <trkpt lat="45.10334" lon="2.74799">
        <ele>1611</ele>
        <time>2017-09-02T12:58:51Z</time>
      </trkpt>
      <trkpt lat="45.1033" lon="2.74797">
        <ele>1612</ele>
        <time>2017-09-02T12:58:55Z</time>
      </trkpt>
      <trkpt lat="45.10325" lon="2.74796">
        <ele>1614</ele>
        <time>2017-09-02T12:59:00Z</time>
      </trkpt>
      <trkpt lat="45.1032" lon="2.74791">
        <ele>1615</ele>
        <time>2017-09-02T12:59:05Z</time>
      </trkpt>
      <trkpt lat="45.10318" lon="2.74783">
        <ele>1616</ele>
        <time>2017-09-02T12:59:09Z</time>
      </trkpt>
      <trkpt lat="45.10316" lon="2.74778">
        <ele>1617</ele>
        <time>2017-09-02T12:59:12Z</time>
      </trkpt>
      <trkpt lat="45.10315" lon="2.74771">
        <ele>1617</ele>
        <time>2017-09-02T12:59:15Z</time>
      </trkpt>
      <trkpt lat="45.10315" lon="2.74764">
        <ele>1618</ele>
        <time>2017-09-02T12:59:19Z</time>
      </trkpt>
      <trkpt lat="45.10313" lon="2.74757">
        <ele>1618</ele>
        <time>2017-09-02T12:59:23Z</time>
      </trkpt>
      <trkpt lat="45.10313" lon="2.7475">
        <ele>1618</ele>
        <time>2017-09-02T12:59:27Z</time>
      </trkpt>
      <trkpt lat="45.10312" lon="2.74743">
        <ele>1618</ele>
        <time>2017-09-02T12:59:30Z</time>
      </trkpt>
      <trkpt lat="45.10312" lon="2.74736">
        <ele>1618</ele>
        <time>2017-09-02T12:59:34Z</time>
      </trkpt>
      <trkpt lat="45.10313" lon="2.74729">
        <ele>1618</ele>
        <time>2017-09-02T12:59:38Z</time>
      </trkpt>
      <trkpt lat="45.10313" lon="2.74722">
        <ele>1617</ele>
        <time>2017-09-02T12:59:41Z</time>
      </trkpt>
      <trkpt lat="45.10315" lon="2.74715">
        <ele>1617</ele>
        <time>2017-09-02T12:59:45Z</time>
      </trkpt>
      <trkpt lat="45.10316" lon="2.74707">
        <ele>1616</ele>
        <time>2017-09-02T12:59:49Z</time>
      </trkpt>
      <trkpt lat="45.10316" lon="2.747">
        <ele>1616</ele>
        <time>2017-09-02T12:59:53Z</time>
      </trkpt>
      <trkpt lat="45.10313" lon="2.74693">
        <ele>1615</ele>
        <time>2017-09-02T12:59:57Z</time>
      </trkpt>
      <trkpt lat="45.1031" lon="2.74688">
        <ele>1615</ele>
        <time>2017-09-02T13:00:01Z</time>
      </trkpt>
      <trkpt lat="45.10308" lon="2.74681">
        <ele>1615</ele>
        <time>2017-09-02T13:00:05Z</time>
      </trkpt>
      <trkpt lat="45.10306" lon="2.74675">
        <ele>1615</ele>
        <time>2017-09-02T13:00:08Z</time>
      </trkpt>
      <trkpt lat="45.10305" lon="2.74668">
        <ele>1615</ele>
        <time>2017-09-02T13:00:12Z</time>
      </trkpt>
      <trkpt lat="45.10303" lon="2.74662">
        <ele>1615</ele>
        <time>2017-09-02T13:00:15Z</time>
      </trkpt>
      <trkpt lat="45.10299" lon="2.74659">
        <ele>1615</ele>
        <time>2017-09-02T13:00:20Z</time>
      </trkpt>
      <trkpt lat="45.10296" lon="2.74654">
        <ele>1616</ele>
        <time>2017-09-02T13:00:24Z</time>
      </trkpt>
      <trkpt lat="45.10294" lon="2.74647">
        <ele>1616</ele>
        <time>2017-09-02T13:00:29Z</time>
      </trkpt>
      <trkpt lat="45.10291" lon="2.74643">
        <ele>1615</ele>
        <time>2017-09-02T13:00:33Z</time>
      </trkpt>
      <trkpt lat="45.10286" lon="2.74639">
        <ele>1615</ele>
        <time>2017-09-02T13:00:37Z</time>
      </trkpt>
      <trkpt lat="45.10281" lon="2.74636">
        <ele>1615</ele>
        <time>2017-09-02T13:00:42Z</time>
      </trkpt>
      <trkpt lat="45.10276" lon="2.74632">
        <ele>1615</ele>
        <time>2017-09-02T13:00:45Z</time>
      </trkpt>
      <trkpt lat="45.10272" lon="2.74629">
        <ele>1614</ele>
        <time>2017-09-02T13:00:48Z</time>
      </trkpt>
      <trkpt lat="45.10266" lon="2.74626">
        <ele>1614</ele>
        <time>2017-09-02T13:00:52Z</time>
      </trkpt>
      <trkpt lat="45.10261" lon="2.74625">
        <ele>1614</ele>
        <time>2017-09-02T13:00:56Z</time>
      </trkpt>
      <trkpt lat="45.10256" lon="2.7462">
        <ele>1614</ele>
        <time>2017-09-02T13:01:00Z</time>
      </trkpt>
      <trkpt lat="45.10252" lon="2.74616">
        <ele>1614</ele>
        <time>2017-09-02T13:01:04Z</time>
      </trkpt>
      <trkpt lat="45.10249" lon="2.7461">
        <ele>1614</ele>
        <time>2017-09-02T13:01:08Z</time>
      </trkpt>
      <trkpt lat="45.10246" lon="2.74604">
        <ele>1614</ele>
        <time>2017-09-02T13:01:12Z</time>
      </trkpt>
      <trkpt lat="45.10245" lon="2.74597">
        <ele>1614</ele>
        <time>2017-09-02T13:01:15Z</time>
      </trkpt>
      <trkpt lat="45.10243" lon="2.74592">
        <ele>1614</ele>
        <time>2017-09-02T13:01:18Z</time>
      </trkpt>
      <trkpt lat="45.1024" lon="2.74585">
        <ele>1614</ele>
        <time>2017-09-02T13:01:22Z</time>
      </trkpt>
      <trkpt lat="45.10238" lon="2.74577">
        <ele>1614</ele>
        <time>2017-09-02T13:01:26Z</time>
      </trkpt>
      <trkpt lat="45.10236" lon="2.74569">
        <ele>1614</ele>
        <time>2017-09-02T13:01:30Z</time>
      </trkpt>
      <trkpt lat="45.10235" lon="2.74563">
        <ele>1614</ele>
        <time>2017-09-02T13:01:33Z</time>
      </trkpt>
      <trkpt lat="45.10235" lon="2.74556">
        <ele>1615</ele>
        <time>2017-09-02T13:01:36Z</time>
      </trkpt>
      <trkpt lat="45.10235" lon="2.74548">
        <ele>1615</ele>
        <time>2017-09-02T13:01:40Z</time>
      </trkpt>
      <trkpt lat="45.10235" lon="2.74541">
        <ele>1615</ele>
        <time>2017-09-02T13:01:43Z</time>
      </trkpt>
      <trkpt lat="45.10233" lon="2.74534">
        <ele>1616</ele>
        <time>2017-09-02T13:01:48Z</time>
      </trkpt>
      <trkpt lat="45.10233" lon="2.74527">
        <ele>1616</ele>
        <time>2017-09-02T13:01:52Z</time>
      </trkpt>
      <trkpt lat="45.10234" lon="2.74519">
        <ele>1617</ele>
        <time>2017-09-02T13:01:56Z</time>
      </trkpt>
      <trkpt lat="45.10235" lon="2.74512">
        <ele>1618</ele>
        <time>2017-09-02T13:02:00Z</time>
      </trkpt>
      <trkpt lat="45.10235" lon="2.74505">
        <ele>1619</ele>
        <time>2017-09-02T13:02:04Z</time>
      </trkpt>
      <trkpt lat="45.10237" lon="2.74497">
        <ele>1620</ele>
        <time>2017-09-02T13:02:08Z</time>
      </trkpt>
      <trkpt lat="45.10238" lon="2.7449">
        <ele>1621</ele>
        <time>2017-09-02T13:02:13Z</time>
      </trkpt>
      <trkpt lat="45.10239" lon="2.74484">
        <ele>1622</ele>
        <time>2017-09-02T13:02:17Z</time>
      </trkpt>
      <trkpt lat="45.10241" lon="2.74477">
        <ele>1622</ele>
        <time>2017-09-02T13:02:21Z</time>
      </trkpt>
      <trkpt lat="45.10241" lon="2.74469">
        <ele>1623</ele>
        <time>2017-09-02T13:02:25Z</time>
      </trkpt>
      <trkpt lat="45.10241" lon="2.7446">
        <ele>1623</ele>
        <time>2017-09-02T13:02:29Z</time>
      </trkpt>
      <trkpt lat="45.10238" lon="2.74454">
        <ele>1623</ele>
        <time>2017-09-02T13:02:32Z</time>
      </trkpt>
      <trkpt lat="45.10238" lon="2.74447">
        <ele>1623</ele>
        <time>2017-09-02T13:02:36Z</time>
      </trkpt>
      <trkpt lat="45.10235" lon="2.74441">
        <ele>1623</ele>
        <time>2017-09-02T13:02:40Z</time>
      </trkpt>
      <trkpt lat="45.10234" lon="2.74434">
        <ele>1623</ele>
        <time>2017-09-02T13:02:43Z</time>
      </trkpt>
      <trkpt lat="45.10233" lon="2.74427">
        <ele>1623</ele>
        <time>2017-09-02T13:02:46Z</time>
      </trkpt>
      <trkpt lat="45.10233" lon="2.74419">
        <ele>1623</ele>
        <time>2017-09-02T13:02:50Z</time>
      </trkpt>
      <trkpt lat="45.10231" lon="2.74412">
        <ele>1622</ele>
        <time>2017-09-02T13:02:53Z</time>
      </trkpt>
      <trkpt lat="45.10229" lon="2.74404">
        <ele>1622</ele>
        <time>2017-09-02T13:02:57Z</time>
      </trkpt>
      <trkpt lat="45.10227" lon="2.74397">
        <ele>1622</ele>
        <time>2017-09-02T13:03:02Z</time>
      </trkpt>
      <trkpt lat="45.10226" lon="2.74389">
        <ele>1623</ele>
        <time>2017-09-02T13:03:06Z</time>
      </trkpt>
      <trkpt lat="45.10226" lon="2.74383">
        <ele>1623</ele>
        <time>2017-09-02T13:03:09Z</time>
      </trkpt>
      <trkpt lat="45.10224" lon="2.74376">
        <ele>1624</ele>
        <time>2017-09-02T13:03:13Z</time>
      </trkpt>
      <trkpt lat="45.10224" lon="2.74369">
        <ele>1624</ele>
        <time>2017-09-02T13:03:16Z</time>
      </trkpt>
      <trkpt lat="45.10222" lon="2.74361">
        <ele>1624</ele>
        <time>2017-09-02T13:03:20Z</time>
      </trkpt>
      <trkpt lat="45.10221" lon="2.74354">
        <ele>1625</ele>
        <time>2017-09-02T13:03:24Z</time>
      </trkpt>
      <trkpt lat="45.10219" lon="2.74346">
        <ele>1625</ele>
        <time>2017-09-02T13:03:29Z</time>
      </trkpt>
      <trkpt lat="45.10215" lon="2.7434">
        <ele>1625</ele>
        <time>2017-09-02T13:03:32Z</time>
      </trkpt>
      <trkpt lat="45.10213" lon="2.74334">
        <ele>1625</ele>
        <time>2017-09-02T13:03:35Z</time>
      </trkpt>
      <trkpt lat="45.1021" lon="2.74328">
        <ele>1625</ele>
        <time>2017-09-02T13:03:38Z</time>
      </trkpt>
      <trkpt lat="45.10207" lon="2.74321">
        <ele>1625</ele>
        <time>2017-09-02T13:03:43Z</time>
      </trkpt>
      <trkpt lat="45.10205" lon="2.74313">
        <ele>1625</ele>
        <time>2017-09-02T13:03:47Z</time>
      </trkpt>
      <trkpt lat="45.10202" lon="2.74306">
        <ele>1625</ele>
        <time>2017-09-02T13:03:51Z</time>
      </trkpt>
      <trkpt lat="45.10198" lon="2.74301">
        <ele>1625</ele>
        <time>2017-09-02T13:03:54Z</time>
      </trkpt>
      <trkpt lat="45.10195" lon="2.74295">
        <ele>1625</ele>
        <time>2017-09-02T13:03:57Z</time>
      </trkpt>
      <trkpt lat="45.10192" lon="2.74288">
        <ele>1625</ele>
        <time>2017-09-02T13:04:01Z</time>
      </trkpt>
      <trkpt lat="45.10189" lon="2.74281">
        <ele>1625</ele>
        <time>2017-09-02T13:04:04Z</time>
      </trkpt>
      <trkpt lat="45.10185" lon="2.74277">
        <ele>1626</ele>
        <time>2017-09-02T13:04:07Z</time>
      </trkpt>
      <trkpt lat="45.10181" lon="2.74273">
        <ele>1626</ele>
        <time>2017-09-02T13:04:10Z</time>
      </trkpt>
      <trkpt lat="45.10177" lon="2.74269">
        <ele>1627</ele>
        <time>2017-09-02T13:04:13Z</time>
      </trkpt>
      <trkpt lat="45.10173" lon="2.74264">
        <ele>1628</ele>
        <time>2017-09-02T13:04:17Z</time>
      </trkpt>
      <trkpt lat="45.10168" lon="2.7426">
        <ele>1629</ele>
        <time>2017-09-02T13:04:22Z</time>
      </trkpt>
      <trkpt lat="45.10164" lon="2.74254">
        <ele>1629</ele>
        <time>2017-09-02T13:04:26Z</time>
      </trkpt>
      <trkpt lat="45.10161" lon="2.74247">
        <ele>1630</ele>
        <time>2017-09-02T13:04:29Z</time>
      </trkpt>
      <trkpt lat="45.10157" lon="2.74241">
        <ele>1631</ele>
        <time>2017-09-02T13:04:33Z</time>
      </trkpt>
      <trkpt lat="45.10154" lon="2.74235">
        <ele>1631</ele>
        <time>2017-09-02T13:04:36Z</time>
      </trkpt>
      <trkpt lat="45.10151" lon="2.7423">
        <ele>1632</ele>
        <time>2017-09-02T13:04:41Z</time>
      </trkpt>
      <trkpt lat="45.10148" lon="2.74223">
        <ele>1632</ele>
        <time>2017-09-02T13:04:44Z</time>
      </trkpt>
      <trkpt lat="45.10144" lon="2.74218">
        <ele>1632</ele>
        <time>2017-09-02T13:04:47Z</time>
      </trkpt>
      <trkpt lat="45.10141" lon="2.74212">
        <ele>1633</ele>
        <time>2017-09-02T13:04:51Z</time>
      </trkpt>
      <trkpt lat="45.10138" lon="2.74207">
        <ele>1633</ele>
        <time>2017-09-02T13:04:54Z</time>
      </trkpt>
      <trkpt lat="45.10135" lon="2.742">
        <ele>1633</ele>
        <time>2017-09-02T13:04:58Z</time>
      </trkpt>
      <trkpt lat="45.10132" lon="2.74194">
        <ele>1634</ele>
        <time>2017-09-02T13:05:03Z</time>
      </trkpt>
      <trkpt lat="45.10128" lon="2.74188">
        <ele>1634</ele>
        <time>2017-09-02T13:05:08Z</time>
      </trkpt>
      <trkpt lat="45.10124" lon="2.74182">
        <ele>1634</ele>
        <time>2017-09-02T13:05:11Z</time>
      </trkpt>
      <trkpt lat="45.10121" lon="2.74176">
        <ele>1635</ele>
        <time>2017-09-02T13:05:15Z</time>
      </trkpt>
      <trkpt lat="45.10118" lon="2.7417">
        <ele>1635</ele>
        <time>2017-09-02T13:05:19Z</time>
      </trkpt>
      <trkpt lat="45.10115" lon="2.74163">
        <ele>1636</ele>
        <time>2017-09-02T13:05:23Z</time>
      </trkpt>
      <trkpt lat="45.10112" lon="2.74157">
        <ele>1636</ele>
        <time>2017-09-02T13:05:27Z</time>
      </trkpt>
      <trkpt lat="45.10108" lon="2.74151">
        <ele>1637</ele>
        <time>2017-09-02T13:05:31Z</time>
      </trkpt>
      <trkpt lat="45.10104" lon="2.74147">
        <ele>1637</ele>
        <time>2017-09-02T13:05:35Z</time>
      </trkpt>
      <trkpt lat="45.10101" lon="2.7414">
        <ele>1638</ele>
        <time>2017-09-02T13:05:38Z</time>
      </trkpt>
      <trkpt lat="45.10098" lon="2.74136">
        <ele>1638</ele>
        <time>2017-09-02T13:05:42Z</time>
      </trkpt>
      <trkpt lat="45.10095" lon="2.74131">
        <ele>1639</ele>
        <time>2017-09-02T13:05:46Z</time>
      </trkpt>
      <trkpt lat="45.1009" lon="2.74128">
        <ele>1640</ele>
        <time>2017-09-02T13:05:50Z</time>
      </trkpt>
      <trkpt lat="45.10086" lon="2.74124">
        <ele>1641</ele>
        <time>2017-09-02T13:05:54Z</time>
      </trkpt>
      <trkpt lat="45.10082" lon="2.7412">
        <ele>1642</ele>
        <time>2017-09-02T13:05:58Z</time>
      </trkpt>
      <trkpt lat="45.10078" lon="2.74117">
        <ele>1643</ele>
        <time>2017-09-02T13:06:03Z</time>
      </trkpt>
      <trkpt lat="45.10074" lon="2.74114">
        <ele>1645</ele>
        <time>2017-09-02T13:06:07Z</time>
      </trkpt>
      <trkpt lat="45.10068" lon="2.74114">
        <ele>1646</ele>
        <time>2017-09-02T13:06:14Z</time>
      </trkpt>
      <trkpt lat="45.10063" lon="2.74115">
        <ele>1648</ele>
        <time>2017-09-02T13:06:20Z</time>
      </trkpt>
      <trkpt lat="45.10059" lon="2.74112">
        <ele>1649</ele>
        <time>2017-09-02T13:06:24Z</time>
      </trkpt>
      <trkpt lat="45.10054" lon="2.74108">
        <ele>1651</ele>
        <time>2017-09-02T13:06:29Z</time>
      </trkpt>
      <trkpt lat="45.10051" lon="2.74102">
        <ele>1652</ele>
        <time>2017-09-02T13:06:33Z</time>
      </trkpt>
      <trkpt lat="45.10048" lon="2.74098">
        <ele>1653</ele>
        <time>2017-09-02T13:06:36Z</time>
      </trkpt>
      <trkpt lat="45.10044" lon="2.74092">
        <ele>1653</ele>
        <time>2017-09-02T13:06:39Z</time>
      </trkpt>
      <trkpt lat="45.10042" lon="2.74086">
        <ele>1654</ele>
        <time>2017-09-02T13:06:43Z</time>
      </trkpt>
      <trkpt lat="45.10039" lon="2.7408">
        <ele>1654</ele>
        <time>2017-09-02T13:06:48Z</time>
      </trkpt>
      <trkpt lat="45.10036" lon="2.74074">
        <ele>1654</ele>
        <time>2017-09-02T13:06:53Z</time>
      </trkpt>
      <trkpt lat="45.10033" lon="2.74067">
        <ele>1655</ele>
        <time>2017-09-02T13:06:57Z</time>
      </trkpt>
      <trkpt lat="45.1003" lon="2.74062">
        <ele>1656</ele>
        <time>2017-09-02T13:07:01Z</time>
      </trkpt>
      <trkpt lat="45.10026" lon="2.74056">
        <ele>1656</ele>
        <time>2017-09-02T13:07:06Z</time>
      </trkpt>
      <trkpt lat="45.10022" lon="2.74051">
        <ele>1657</ele>
        <time>2017-09-02T13:07:11Z</time>
      </trkpt>
      <trkpt lat="45.10018" lon="2.74046">
        <ele>1658</ele>
        <time>2017-09-02T13:07:15Z</time>
      </trkpt>
      <trkpt lat="45.10015" lon="2.7404">
        <ele>1659</ele>
        <time>2017-09-02T13:07:19Z</time>
      </trkpt>
      <trkpt lat="45.10011" lon="2.74036">
        <ele>1660</ele>
        <time>2017-09-02T13:07:24Z</time>
      </trkpt>
      <trkpt lat="45.10008" lon="2.74031">
        <ele>1661</ele>
        <time>2017-09-02T13:07:29Z</time>
      </trkpt>
      <trkpt lat="45.10005" lon="2.74026">
        <ele>1661</ele>
        <time>2017-09-02T13:07:32Z</time>
      </trkpt>
      <trkpt lat="45.10001" lon="2.74021">
        <ele>1662</ele>
        <time>2017-09-02T13:07:36Z</time>
      </trkpt>
      <trkpt lat="45.09997" lon="2.74019">
        <ele>1663</ele>
        <time>2017-09-02T13:07:40Z</time>
      </trkpt>
      <trkpt lat="45.09992" lon="2.74019">
        <ele>1663</ele>
        <time>2017-09-02T13:07:44Z</time>
      </trkpt>
      <trkpt lat="45.09987" lon="2.74017">
        <ele>1664</ele>
        <time>2017-09-02T13:07:48Z</time>
      </trkpt>
      <trkpt lat="45.09982" lon="2.74016">
        <ele>1666</ele>
        <time>2017-09-02T13:07:51Z</time>
      </trkpt>
      <trkpt lat="45.09977" lon="2.74015">
        <ele>1668</ele>
        <time>2017-09-02T13:07:55Z</time>
      </trkpt>
      <trkpt lat="45.09971" lon="2.74015">
        <ele>1670</ele>
        <time>2017-09-02T13:07:59Z</time>
      </trkpt>
      <trkpt lat="45.09967" lon="2.74015">
        <ele>1672</ele>
        <time>2017-09-02T13:08:03Z</time>
      </trkpt>
      <trkpt lat="45.09961" lon="2.74013">
        <ele>1674</ele>
        <time>2017-09-02T13:08:08Z</time>
      </trkpt>
      <trkpt lat="45.09956" lon="2.74013">
        <ele>1676</ele>
        <time>2017-09-02T13:08:12Z</time>
      </trkpt>
      <trkpt lat="45.09951" lon="2.74011">
        <ele>1677</ele>
        <time>2017-09-02T13:08:17Z</time>
      </trkpt>
      <trkpt lat="45.09945" lon="2.74009">
        <ele>1679</ele>
        <time>2017-09-02T13:08:23Z</time>
      </trkpt>
      <trkpt lat="45.09941" lon="2.74006">
        <ele>1680</ele>
        <time>2017-09-02T13:08:28Z</time>
      </trkpt>
      <trkpt lat="45.09937" lon="2.74005">
        <ele>1682</ele>
        <time>2017-09-02T13:08:31Z</time>
      </trkpt>
      <trkpt lat="45.09932" lon="2.74002">
        <ele>1683</ele>
        <time>2017-09-02T13:08:35Z</time>
      </trkpt>
      <trkpt lat="45.09927" lon="2.74002">
        <ele>1685</ele>
        <time>2017-09-02T13:08:40Z</time>
      </trkpt>
      <trkpt lat="45.09922" lon="2.74004">
        <ele>1687</ele>
        <time>2017-09-02T13:08:46Z</time>
      </trkpt>
      <trkpt lat="45.09921" lon="2.74011">
        <ele>1689</ele>
        <time>2017-09-02T13:08:54Z</time>
      </trkpt>
      <trkpt lat="45.09922" lon="2.74007">
        <ele>1691</ele>
        <time>2017-09-02T13:09:12Z</time>
      </trkpt>
      <trkpt lat="45.09927" lon="2.74007">
        <ele>1694</ele>
        <time>2017-09-02T13:09:14Z</time>
      </trkpt>
      <trkpt lat="45.09926" lon="2.73999">
        <ele>1697</ele>
        <time>2017-09-02T13:09:15Z</time>
      </trkpt>
      <trkpt lat="45.09926" lon="2.73992">
        <ele>1699</ele>
        <time>2017-09-02T13:09:35Z</time>
      </trkpt>
      <trkpt lat="45.09928" lon="2.73986">
        <ele>1700</ele>
        <time>2017-09-02T13:09:45Z</time>
      </trkpt>
      <trkpt lat="45.0994" lon="2.73951">
        <ele>1698</ele>
        <time>2017-09-02T13:13:05Z</time>
      </trkpt>
      <trkpt lat="45.09942" lon="2.73944">
        <ele>1697</ele>
        <time>2017-09-02T13:13:09Z</time>
      </trkpt>
      <trkpt lat="45.09942" lon="2.73937">
        <ele>1697</ele>
        <time>2017-09-02T13:13:13Z</time>
      </trkpt>
      <trkpt lat="45.09942" lon="2.7393">
        <ele>1696</ele>
        <time>2017-09-02T13:13:17Z</time>
      </trkpt>
      <trkpt lat="45.0994" lon="2.73924">
        <ele>1696</ele>
        <time>2017-09-02T13:13:20Z</time>
      </trkpt>
      <trkpt lat="45.09938" lon="2.73917">
        <ele>1695</ele>
        <time>2017-09-02T13:13:24Z</time>
      </trkpt>
      <trkpt lat="45.09937" lon="2.73911">
        <ele>1695</ele>
        <time>2017-09-02T13:13:28Z</time>
      </trkpt>
      <trkpt lat="45.09935" lon="2.73904">
        <ele>1695</ele>
        <time>2017-09-02T13:13:32Z</time>
      </trkpt>
      <trkpt lat="45.09934" lon="2.73897">
        <ele>1695</ele>
        <time>2017-09-02T13:13:36Z</time>
      </trkpt>
      <trkpt lat="45.09932" lon="2.7389">
        <ele>1695</ele>
        <time>2017-09-02T13:13:40Z</time>
      </trkpt>
      <trkpt lat="45.09932" lon="2.73882">
        <ele>1694</ele>
        <time>2017-09-02T13:13:45Z</time>
      </trkpt>
      <trkpt lat="45.09933" lon="2.73875">
        <ele>1694</ele>
        <time>2017-09-02T13:13:49Z</time>
      </trkpt>
      <trkpt lat="45.09935" lon="2.73866">
        <ele>1693</ele>
        <time>2017-09-02T13:13:53Z</time>
      </trkpt>
      <trkpt lat="45.09935" lon="2.73858">
        <ele>1693</ele>
        <time>2017-09-02T13:13:57Z</time>
      </trkpt>
      <trkpt lat="45.09935" lon="2.73851">
        <ele>1692</ele>
        <time>2017-09-02T13:14:01Z</time>
      </trkpt>
      <trkpt lat="45.09935" lon="2.73844">
        <ele>1692</ele>
        <time>2017-09-02T13:14:05Z</time>
      </trkpt>
      <trkpt lat="45.09934" lon="2.73837">
        <ele>1692</ele>
        <time>2017-09-02T13:14:09Z</time>
      </trkpt>
      <trkpt lat="45.09933" lon="2.73829">
        <ele>1691</ele>
        <time>2017-09-02T13:14:13Z</time>
      </trkpt>
      <trkpt lat="45.09931" lon="2.73822">
        <ele>1691</ele>
        <time>2017-09-02T13:14:17Z</time>
      </trkpt>
      <trkpt lat="45.09931" lon="2.73814">
        <ele>1690</ele>
        <time>2017-09-02T13:14:21Z</time>
      </trkpt>
      <trkpt lat="45.09929" lon="2.73806">
        <ele>1690</ele>
        <time>2017-09-02T13:14:25Z</time>
      </trkpt>
      <trkpt lat="45.09929" lon="2.73799">
        <ele>1690</ele>
        <time>2017-09-02T13:14:30Z</time>
      </trkpt>
      <trkpt lat="45.09931" lon="2.73793">
        <ele>1689</ele>
        <time>2017-09-02T13:14:39Z</time>
      </trkpt>
      <trkpt lat="45.09935" lon="2.73789">
        <ele>1689</ele>
        <time>2017-09-02T13:14:47Z</time>
      </trkpt>
      <trkpt lat="45.0994" lon="2.73786">
        <ele>1689</ele>
        <time>2017-09-02T13:14:52Z</time>
      </trkpt>
      <trkpt lat="45.09944" lon="2.7378">
        <ele>1688</ele>
        <time>2017-09-02T13:14:57Z</time>
      </trkpt>
      <trkpt lat="45.09948" lon="2.73774">
        <ele>1688</ele>
        <time>2017-09-02T13:15:01Z</time>
      </trkpt>
      <trkpt lat="45.09952" lon="2.7377">
        <ele>1688</ele>
        <time>2017-09-02T13:15:05Z</time>
      </trkpt>
      <trkpt lat="45.09956" lon="2.73765">
        <ele>1687</ele>
        <time>2017-09-02T13:15:09Z</time>
      </trkpt>
      <trkpt lat="45.0996" lon="2.73761">
        <ele>1686</ele>
        <time>2017-09-02T13:15:13Z</time>
      </trkpt>
      <trkpt lat="45.09963" lon="2.73755">
        <ele>1686</ele>
        <time>2017-09-02T13:15:17Z</time>
      </trkpt>
      <trkpt lat="45.09966" lon="2.73747">
        <ele>1685</ele>
        <time>2017-09-02T13:15:21Z</time>
      </trkpt>
      <trkpt lat="45.09969" lon="2.73741">
        <ele>1683</ele>
        <time>2017-09-02T13:15:25Z</time>
      </trkpt>
      <trkpt lat="45.09973" lon="2.73735">
        <ele>1682</ele>
        <time>2017-09-02T13:15:29Z</time>
      </trkpt>
      <trkpt lat="45.09975" lon="2.73728">
        <ele>1681</ele>
        <time>2017-09-02T13:15:34Z</time>
      </trkpt>
      <trkpt lat="45.09978" lon="2.73722">
        <ele>1680</ele>
        <time>2017-09-02T13:15:38Z</time>
      </trkpt>
      <trkpt lat="45.09981" lon="2.73716">
        <ele>1679</ele>
        <time>2017-09-02T13:15:42Z</time>
      </trkpt>
      <trkpt lat="45.09984" lon="2.7371">
        <ele>1677</ele>
        <time>2017-09-02T13:15:46Z</time>
      </trkpt>
      <trkpt lat="45.09986" lon="2.73704">
        <ele>1676</ele>
        <time>2017-09-02T13:15:49Z</time>
      </trkpt>
      <trkpt lat="45.09988" lon="2.73698">
        <ele>1675</ele>
        <time>2017-09-02T13:15:52Z</time>
      </trkpt>
      <trkpt lat="45.09992" lon="2.73693">
        <ele>1675</ele>
        <time>2017-09-02T13:15:55Z</time>
      </trkpt>
      <trkpt lat="45.09995" lon="2.73689">
        <ele>1674</ele>
        <time>2017-09-02T13:15:59Z</time>
      </trkpt>
      <trkpt lat="45.09998" lon="2.73684">
        <ele>1673</ele>
        <time>2017-09-02T13:16:03Z</time>
      </trkpt>
      <trkpt lat="45.10001" lon="2.73678">
        <ele>1672</ele>
        <time>2017-09-02T13:16:07Z</time>
      </trkpt>
      <trkpt lat="45.10002" lon="2.73669">
        <ele>1670</ele>
        <time>2017-09-02T13:16:11Z</time>
      </trkpt>
      <trkpt lat="45.10003" lon="2.73663">
        <ele>1669</ele>
        <time>2017-09-02T13:16:14Z</time>
      </trkpt>
      <trkpt lat="45.10004" lon="2.73656">
        <ele>1668</ele>
        <time>2017-09-02T13:16:18Z</time>
      </trkpt>
      <trkpt lat="45.10006" lon="2.73648">
        <ele>1666</ele>
        <time>2017-09-02T13:16:22Z</time>
      </trkpt>
      <trkpt lat="45.10007" lon="2.73641">
        <ele>1665</ele>
        <time>2017-09-02T13:16:26Z</time>
      </trkpt>
      <trkpt lat="45.10009" lon="2.73635">
        <ele>1664</ele>
        <time>2017-09-02T13:16:30Z</time>
      </trkpt>
      <trkpt lat="45.10012" lon="2.73628">
        <ele>1663</ele>
        <time>2017-09-02T13:16:34Z</time>
      </trkpt>
      <trkpt lat="45.10016" lon="2.73623">
        <ele>1662</ele>
        <time>2017-09-02T13:16:38Z</time>
      </trkpt>
      <trkpt lat="45.10019" lon="2.73617">
        <ele>1662</ele>
        <time>2017-09-02T13:16:41Z</time>
      </trkpt>
      <trkpt lat="45.10021" lon="2.73611">
        <ele>1661</ele>
        <time>2017-09-02T13:16:44Z</time>
      </trkpt>
      <trkpt lat="45.10024" lon="2.73604">
        <ele>1660</ele>
        <time>2017-09-02T13:16:48Z</time>
      </trkpt>
      <trkpt lat="45.10024" lon="2.73597">
        <ele>1659</ele>
        <time>2017-09-02T13:16:51Z</time>
      </trkpt>
      <trkpt lat="45.10023" lon="2.73589">
        <ele>1658</ele>
        <time>2017-09-02T13:16:55Z</time>
      </trkpt>
      <trkpt lat="45.10022" lon="2.73581">
        <ele>1658</ele>
        <time>2017-09-02T13:16:59Z</time>
      </trkpt>
      <trkpt lat="45.1002" lon="2.73575">
        <ele>1657</ele>
        <time>2017-09-02T13:17:03Z</time>
      </trkpt>
      <trkpt lat="45.1002" lon="2.73567">
        <ele>1656</ele>
        <time>2017-09-02T13:17:08Z</time>
      </trkpt>
      <trkpt lat="45.10019" lon="2.7356">
        <ele>1656</ele>
        <time>2017-09-02T13:17:12Z</time>
      </trkpt>
      <trkpt lat="45.10019" lon="2.73554">
        <ele>1655</ele>
        <time>2017-09-02T13:17:19Z</time>
      </trkpt>
      <trkpt lat="45.10021" lon="2.73547">
        <ele>1655</ele>
        <time>2017-09-02T13:17:23Z</time>
      </trkpt>
      <trkpt lat="45.10021" lon="2.73539">
        <ele>1654</ele>
        <time>2017-09-02T13:17:30Z</time>
      </trkpt>
      <trkpt lat="45.1002" lon="2.73533">
        <ele>1653</ele>
        <time>2017-09-02T13:17:33Z</time>
      </trkpt>
      <trkpt lat="45.1002" lon="2.73526">
        <ele>1652</ele>
        <time>2017-09-02T13:17:37Z</time>
      </trkpt>
      <trkpt lat="45.10022" lon="2.7352">
        <ele>1652</ele>
        <time>2017-09-02T13:17:41Z</time>
      </trkpt>
      <trkpt lat="45.10026" lon="2.73516">
        <ele>1651</ele>
        <time>2017-09-02T13:17:45Z</time>
      </trkpt>
      <trkpt lat="45.10031" lon="2.73512">
        <ele>1650</ele>
        <time>2017-09-02T13:17:51Z</time>
      </trkpt>
      <trkpt lat="45.10035" lon="2.73509">
        <ele>1650</ele>
        <time>2017-09-02T13:17:54Z</time>
      </trkpt>
      <trkpt lat="45.1004" lon="2.73503">
        <ele>1649</ele>
        <time>2017-09-02T13:17:58Z</time>
      </trkpt>
      <trkpt lat="45.10044" lon="2.73498">
        <ele>1648</ele>
        <time>2017-09-02T13:18:02Z</time>
      </trkpt>
      <trkpt lat="45.10046" lon="2.73492">
        <ele>1648</ele>
        <time>2017-09-02T13:18:06Z</time>
      </trkpt>
      <trkpt lat="45.1005" lon="2.73487">
        <ele>1647</ele>
        <time>2017-09-02T13:18:10Z</time>
      </trkpt>
      <trkpt lat="45.10053" lon="2.73482">
        <ele>1646</ele>
        <time>2017-09-02T13:18:15Z</time>
      </trkpt>
      <trkpt lat="45.10056" lon="2.73476">
        <ele>1646</ele>
        <time>2017-09-02T13:18:20Z</time>
      </trkpt>
      <trkpt lat="45.1006" lon="2.73471">
        <ele>1645</ele>
        <time>2017-09-02T13:18:25Z</time>
      </trkpt>
      <trkpt lat="45.10064" lon="2.73466">
        <ele>1645</ele>
        <time>2017-09-02T13:18:28Z</time>
      </trkpt>
      <trkpt lat="45.10066" lon="2.73459">
        <ele>1644</ele>
        <time>2017-09-02T13:18:32Z</time>
      </trkpt>
      <trkpt lat="45.10068" lon="2.73453">
        <ele>1644</ele>
        <time>2017-09-02T13:18:35Z</time>
      </trkpt>
      <trkpt lat="45.10067" lon="2.73446">
        <ele>1643</ele>
        <time>2017-09-02T13:18:39Z</time>
      </trkpt>
      <trkpt lat="45.10068" lon="2.73438">
        <ele>1642</ele>
        <time>2017-09-02T13:18:42Z</time>
      </trkpt>
      <trkpt lat="45.10068" lon="2.73431">
        <ele>1642</ele>
        <time>2017-09-02T13:18:45Z</time>
      </trkpt>
      <trkpt lat="45.10068" lon="2.73425">
        <ele>1641</ele>
        <time>2017-09-02T13:18:49Z</time>
      </trkpt>
      <trkpt lat="45.10067" lon="2.73418">
        <ele>1640</ele>
        <time>2017-09-02T13:18:55Z</time>
      </trkpt>
      <trkpt lat="45.10067" lon="2.73411">
        <ele>1640</ele>
        <time>2017-09-02T13:19:00Z</time>
      </trkpt>
      <trkpt lat="45.10069" lon="2.73405">
        <ele>1640</ele>
        <time>2017-09-02T13:19:04Z</time>
      </trkpt>
      <trkpt lat="45.10069" lon="2.73398">
        <ele>1639</ele>
        <time>2017-09-02T13:19:11Z</time>
      </trkpt>
      <trkpt lat="45.10069" lon="2.7339">
        <ele>1638</ele>
        <time>2017-09-02T13:19:16Z</time>
      </trkpt>
      <trkpt lat="45.10069" lon="2.73384">
        <ele>1637</ele>
        <time>2017-09-02T13:19:22Z</time>
      </trkpt>
      <trkpt lat="45.10069" lon="2.73376">
        <ele>1637</ele>
        <time>2017-09-02T13:19:28Z</time>
      </trkpt>
      <trkpt lat="45.10067" lon="2.73369">
        <ele>1636</ele>
        <time>2017-09-02T13:19:32Z</time>
      </trkpt>
      <trkpt lat="45.10066" lon="2.73362">
        <ele>1636</ele>
        <time>2017-09-02T13:19:36Z</time>
      </trkpt>
      <trkpt lat="45.10066" lon="2.73355">
        <ele>1637</ele>
        <time>2017-09-02T13:19:42Z</time>
      </trkpt>
      <trkpt lat="45.10066" lon="2.73348">
        <ele>1637</ele>
        <time>2017-09-02T13:19:48Z</time>
      </trkpt>
      <trkpt lat="45.10061" lon="2.73346">
        <ele>1637</ele>
        <time>2017-09-02T13:19:52Z</time>
      </trkpt>
      <trkpt lat="45.10059" lon="2.7334">
        <ele>1637</ele>
        <time>2017-09-02T13:19:56Z</time>
      </trkpt>
      <trkpt lat="45.10058" lon="2.73334">
        <ele>1636</ele>
        <time>2017-09-02T13:20:02Z</time>
      </trkpt>
      <trkpt lat="45.10057" lon="2.73327">
        <ele>1636</ele>
        <time>2017-09-02T13:20:07Z</time>
      </trkpt>
      <trkpt lat="45.10058" lon="2.7332">
        <ele>1636</ele>
        <time>2017-09-02T13:20:12Z</time>
      </trkpt>
      <trkpt lat="45.1006" lon="2.73314">
        <ele>1636</ele>
        <time>2017-09-02T13:20:17Z</time>
      </trkpt>
      <trkpt lat="45.10058" lon="2.73306">
        <ele>1635</ele>
        <time>2017-09-02T13:20:22Z</time>
      </trkpt>
      <trkpt lat="45.10059" lon="2.733">
        <ele>1635</ele>
        <time>2017-09-02T13:20:26Z</time>
      </trkpt>
      <trkpt lat="45.1006" lon="2.73292">
        <ele>1635</ele>
        <time>2017-09-02T13:20:31Z</time>
      </trkpt>
      <trkpt lat="45.10063" lon="2.73286">
        <ele>1634</ele>
        <time>2017-09-02T13:20:35Z</time>
      </trkpt>
      <trkpt lat="45.10065" lon="2.73278">
        <ele>1634</ele>
        <time>2017-09-02T13:20:39Z</time>
      </trkpt>
      <trkpt lat="45.10067" lon="2.7327">
        <ele>1633</ele>
        <time>2017-09-02T13:20:43Z</time>
      </trkpt>
      <trkpt lat="45.1007" lon="2.73264">
        <ele>1632</ele>
        <time>2017-09-02T13:20:47Z</time>
      </trkpt>
      <trkpt lat="45.10072" lon="2.73257">
        <ele>1632</ele>
        <time>2017-09-02T13:20:51Z</time>
      </trkpt>
      <trkpt lat="45.10075" lon="2.73251">
        <ele>1631</ele>
        <time>2017-09-02T13:20:55Z</time>
      </trkpt>
      <trkpt lat="45.10077" lon="2.73244">
        <ele>1631</ele>
        <time>2017-09-02T13:20:59Z</time>
      </trkpt>
      <trkpt lat="45.1008" lon="2.73238">
        <ele>1630</ele>
        <time>2017-09-02T13:21:03Z</time>
      </trkpt>
      <trkpt lat="45.10082" lon="2.73232">
        <ele>1629</ele>
        <time>2017-09-02T13:21:07Z</time>
      </trkpt>
      <trkpt lat="45.10084" lon="2.73225">
        <ele>1629</ele>
        <time>2017-09-02T13:21:11Z</time>
      </trkpt>
      <trkpt lat="45.10085" lon="2.73218">
        <ele>1628</ele>
        <time>2017-09-02T13:21:15Z</time>
      </trkpt>
      <trkpt lat="45.10086" lon="2.73212">
        <ele>1628</ele>
        <time>2017-09-02T13:21:19Z</time>
      </trkpt>
      <trkpt lat="45.10087" lon="2.73205">
        <ele>1627</ele>
        <time>2017-09-02T13:21:22Z</time>
      </trkpt>
      <trkpt lat="45.10088" lon="2.73199">
        <ele>1627</ele>
        <time>2017-09-02T13:21:25Z</time>
      </trkpt>
      <trkpt lat="45.1009" lon="2.73193">
        <ele>1626</ele>
        <time>2017-09-02T13:21:28Z</time>
      </trkpt>
      <trkpt lat="45.10091" lon="2.73184">
        <ele>1626</ele>
        <time>2017-09-02T13:21:32Z</time>
      </trkpt>
      <trkpt lat="45.10091" lon="2.73178">
        <ele>1626</ele>
        <time>2017-09-02T13:21:35Z</time>
      </trkpt>
      <trkpt lat="45.10091" lon="2.73171">
        <ele>1626</ele>
        <time>2017-09-02T13:21:38Z</time>
      </trkpt>
      <trkpt lat="45.1009" lon="2.73165">
        <ele>1626</ele>
        <time>2017-09-02T13:21:41Z</time>
      </trkpt>
      <trkpt lat="45.10089" lon="2.73157">
        <ele>1626</ele>
        <time>2017-09-02T13:21:45Z</time>
      </trkpt>
      <trkpt lat="45.10088" lon="2.73151">
        <ele>1626</ele>
        <time>2017-09-02T13:21:48Z</time>
      </trkpt>
      <trkpt lat="45.10088" lon="2.73144">
        <ele>1626</ele>
        <time>2017-09-02T13:21:52Z</time>
      </trkpt>
      <trkpt lat="45.10088" lon="2.73137">
        <ele>1626</ele>
        <time>2017-09-02T13:21:56Z</time>
      </trkpt>
      <trkpt lat="45.10088" lon="2.73128">
        <ele>1625</ele>
        <time>2017-09-02T13:22:00Z</time>
      </trkpt>
      <trkpt lat="45.10088" lon="2.7312">
        <ele>1625</ele>
        <time>2017-09-02T13:22:03Z</time>
      </trkpt>
      <trkpt lat="45.10086" lon="2.73114">
        <ele>1624</ele>
        <time>2017-09-02T13:22:07Z</time>
      </trkpt>
      <trkpt lat="45.10086" lon="2.73106">
        <ele>1624</ele>
        <time>2017-09-02T13:22:11Z</time>
      </trkpt>
      <trkpt lat="45.10085" lon="2.73098">
        <ele>1623</ele>
        <time>2017-09-02T13:22:16Z</time>
      </trkpt>
      <trkpt lat="45.10083" lon="2.73091">
        <ele>1623</ele>
        <time>2017-09-02T13:22:19Z</time>
      </trkpt>
      <trkpt lat="45.10084" lon="2.73083">
        <ele>1623</ele>
        <time>2017-09-02T13:22:23Z</time>
      </trkpt>
      <trkpt lat="45.10084" lon="2.73076">
        <ele>1622</ele>
        <time>2017-09-02T13:22:27Z</time>
      </trkpt>
      <trkpt lat="45.10085" lon="2.73069">
        <ele>1621</ele>
        <time>2017-09-02T13:22:31Z</time>
      </trkpt>
      <trkpt lat="45.10085" lon="2.73062">
        <ele>1620</ele>
        <time>2017-09-02T13:22:35Z</time>
      </trkpt>
      <trkpt lat="45.10084" lon="2.73054">
        <ele>1620</ele>
        <time>2017-09-02T13:22:39Z</time>
      </trkpt>
      <trkpt lat="45.10084" lon="2.73048">
        <ele>1619</ele>
        <time>2017-09-02T13:22:42Z</time>
      </trkpt>
      <trkpt lat="45.10082" lon="2.73041">
        <ele>1618</ele>
        <time>2017-09-02T13:22:49Z</time>
      </trkpt>
      <trkpt lat="45.10079" lon="2.73035">
        <ele>1617</ele>
        <time>2017-09-02T13:22:54Z</time>
      </trkpt>
      <trkpt lat="45.10077" lon="2.73029">
        <ele>1617</ele>
        <time>2017-09-02T13:22:58Z</time>
      </trkpt>
      <trkpt lat="45.10074" lon="2.73023">
        <ele>1616</ele>
        <time>2017-09-02T13:23:03Z</time>
      </trkpt>
      <trkpt lat="45.10071" lon="2.73017">
        <ele>1615</ele>
        <time>2017-09-02T13:23:07Z</time>
      </trkpt>
      <trkpt lat="45.10068" lon="2.73012">
        <ele>1615</ele>
        <time>2017-09-02T13:23:10Z</time>
      </trkpt>
      <trkpt lat="45.10065" lon="2.73007">
        <ele>1615</ele>
        <time>2017-09-02T13:23:14Z</time>
      </trkpt>
      <trkpt lat="45.10061" lon="2.73002">
        <ele>1615</ele>
        <time>2017-09-02T13:23:18Z</time>
      </trkpt>
      <trkpt lat="45.10058" lon="2.72997">
        <ele>1615</ele>
        <time>2017-09-02T13:23:21Z</time>
      </trkpt>
      <trkpt lat="45.10053" lon="2.72992">
        <ele>1615</ele>
        <time>2017-09-02T13:23:24Z</time>
      </trkpt>
      <trkpt lat="45.10051" lon="2.72987">
        <ele>1614</ele>
        <time>2017-09-02T13:23:28Z</time>
      </trkpt>
      <trkpt lat="45.10046" lon="2.7298">
        <ele>1614</ele>
        <time>2017-09-02T13:23:33Z</time>
      </trkpt>
      <trkpt lat="45.10043" lon="2.72975">
        <ele>1614</ele>
        <time>2017-09-02T13:23:36Z</time>
      </trkpt>
      <trkpt lat="45.10039" lon="2.7297">
        <ele>1614</ele>
        <time>2017-09-02T13:23:39Z</time>
      </trkpt>
      <trkpt lat="45.10035" lon="2.72965">
        <ele>1614</ele>
        <time>2017-09-02T13:23:43Z</time>
      </trkpt>
      <trkpt lat="45.1003" lon="2.7296">
        <ele>1614</ele>
        <time>2017-09-02T13:23:47Z</time>
      </trkpt>
      <trkpt lat="45.10025" lon="2.72956">
        <ele>1614</ele>
        <time>2017-09-02T13:23:51Z</time>
      </trkpt>
      <trkpt lat="45.10021" lon="2.72952">
        <ele>1614</ele>
        <time>2017-09-02T13:23:54Z</time>
      </trkpt>
      <trkpt lat="45.10017" lon="2.72948">
        <ele>1614</ele>
        <time>2017-09-02T13:23:58Z</time>
      </trkpt>
      <trkpt lat="45.10012" lon="2.72943">
        <ele>1614</ele>
        <time>2017-09-02T13:24:03Z</time>
      </trkpt>
      <trkpt lat="45.10008" lon="2.72939">
        <ele>1614</ele>
        <time>2017-09-02T13:24:07Z</time>
      </trkpt>
      <trkpt lat="45.10003" lon="2.72934">
        <ele>1614</ele>
        <time>2017-09-02T13:24:11Z</time>
      </trkpt>
      <trkpt lat="45.1" lon="2.72929">
        <ele>1614</ele>
        <time>2017-09-02T13:24:15Z</time>
      </trkpt>
      <trkpt lat="45.09996" lon="2.72924">
        <ele>1615</ele>
        <time>2017-09-02T13:24:20Z</time>
      </trkpt>
      <trkpt lat="45.09993" lon="2.72919">
        <ele>1615</ele>
        <time>2017-09-02T13:24:24Z</time>
      </trkpt>
      <trkpt lat="45.0999" lon="2.72916">
        <ele>1615</ele>
        <time>2017-09-02T13:24:27Z</time>
      </trkpt>
      <trkpt lat="45.09986" lon="2.72912">
        <ele>1616</ele>
        <time>2017-09-02T13:24:31Z</time>
      </trkpt>
      <trkpt lat="45.09981" lon="2.72908">
        <ele>1616</ele>
        <time>2017-09-02T13:24:36Z</time>
      </trkpt>
      <trkpt lat="45.09977" lon="2.72905">
        <ele>1616</ele>
        <time>2017-09-02T13:24:39Z</time>
      </trkpt>
      <trkpt lat="45.09973" lon="2.72901">
        <ele>1616</ele>
        <time>2017-09-02T13:24:42Z</time>
      </trkpt>
      <trkpt lat="45.0997" lon="2.72895">
        <ele>1616</ele>
        <time>2017-09-02T13:24:46Z</time>
      </trkpt>
      <trkpt lat="45.09967" lon="2.72889">
        <ele>1616</ele>
        <time>2017-09-02T13:24:49Z</time>
      </trkpt>
      <trkpt lat="45.09963" lon="2.72885">
        <ele>1617</ele>
        <time>2017-09-02T13:24:53Z</time>
      </trkpt>
      <trkpt lat="45.09961" lon="2.72878">
        <ele>1617</ele>
        <time>2017-09-02T13:24:58Z</time>
      </trkpt>
      <trkpt lat="45.0996" lon="2.7287">
        <ele>1617</ele>
        <time>2017-09-02T13:25:02Z</time>
      </trkpt>
      <trkpt lat="45.09959" lon="2.72863">
        <ele>1616</ele>
        <time>2017-09-02T13:25:06Z</time>
      </trkpt>
      <trkpt lat="45.09957" lon="2.72857">
        <ele>1616</ele>
        <time>2017-09-02T13:25:10Z</time>
      </trkpt>
      <trkpt lat="45.09953" lon="2.72851">
        <ele>1615</ele>
        <time>2017-09-02T13:25:14Z</time>
      </trkpt>
      <trkpt lat="45.09951" lon="2.72846">
        <ele>1615</ele>
        <time>2017-09-02T13:25:17Z</time>
      </trkpt>
      <trkpt lat="45.09949" lon="2.72839">
        <ele>1615</ele>
        <time>2017-09-02T13:25:21Z</time>
      </trkpt>
      <trkpt lat="45.09946" lon="2.72833">
        <ele>1616</ele>
        <time>2017-09-02T13:25:26Z</time>
      </trkpt>
      <trkpt lat="45.09944" lon="2.72827">
        <ele>1616</ele>
        <time>2017-09-02T13:25:30Z</time>
      </trkpt>
      <trkpt lat="45.09942" lon="2.72819">
        <ele>1616</ele>
        <time>2017-09-02T13:25:34Z</time>
      </trkpt>
      <trkpt lat="45.09939" lon="2.72813">
        <ele>1617</ele>
        <time>2017-09-02T13:25:37Z</time>
      </trkpt>
      <trkpt lat="45.09936" lon="2.72808">
        <ele>1617</ele>
        <time>2017-09-02T13:25:40Z</time>
      </trkpt>
      <trkpt lat="45.09937" lon="2.72803">
        <ele>1618</ele>
        <time>2017-09-02T13:26:00Z</time>
      </trkpt>
      <trkpt lat="45.09939" lon="2.72809">
        <ele>1617</ele>
        <time>2017-09-02T13:26:02Z</time>
      </trkpt>
      <trkpt lat="45.09937" lon="2.72802">
        <ele>1619</ele>
        <time>2017-09-02T13:26:04Z</time>
      </trkpt>
      <trkpt lat="45.09935" lon="2.72796">
        <ele>1620</ele>
        <time>2017-09-02T13:26:31Z</time>
      </trkpt>
      <trkpt lat="45.09932" lon="2.72789">
        <ele>1620</ele>
        <time>2017-09-02T13:26:35Z</time>
      </trkpt>
      <trkpt lat="45.09933" lon="2.72782">
        <ele>1620</ele>
        <time>2017-09-02T13:26:40Z</time>
      </trkpt>
      <trkpt lat="45.09936" lon="2.72776">
        <ele>1622</ele>
        <time>2017-09-02T13:26:44Z</time>
      </trkpt>
      <trkpt lat="45.0994" lon="2.72771">
        <ele>1620</ele>
        <time>2017-09-02T13:26:50Z</time>
      </trkpt>
      <trkpt lat="45.09944" lon="2.72767">
        <ele>1619</ele>
        <time>2017-09-02T13:26:55Z</time>
      </trkpt>
      <trkpt lat="45.09948" lon="2.72762">
        <ele>1619</ele>
        <time>2017-09-02T13:26:59Z</time>
      </trkpt>
      <trkpt lat="45.09952" lon="2.72759">
        <ele>1619</ele>
        <time>2017-09-02T13:27:04Z</time>
      </trkpt>
      <trkpt lat="45.09955" lon="2.72754">
        <ele>1619</ele>
        <time>2017-09-02T13:27:08Z</time>
      </trkpt>
      <trkpt lat="45.09957" lon="2.72747">
        <ele>1619</ele>
        <time>2017-09-02T13:27:13Z</time>
      </trkpt>
      <trkpt lat="45.09959" lon="2.7274">
        <ele>1618</ele>
        <time>2017-09-02T13:27:18Z</time>
      </trkpt>
      <trkpt lat="45.09963" lon="2.72734">
        <ele>1617</ele>
        <time>2017-09-02T13:27:24Z</time>
      </trkpt>
      <trkpt lat="45.09964" lon="2.72728">
        <ele>1616</ele>
        <time>2017-09-02T13:27:33Z</time>
      </trkpt>
      <trkpt lat="45.09968" lon="2.72723">
        <ele>1614</ele>
        <time>2017-09-02T13:27:38Z</time>
      </trkpt>
      <trkpt lat="45.09971" lon="2.72716">
        <ele>1613</ele>
        <time>2017-09-02T13:27:43Z</time>
      </trkpt>
      <trkpt lat="45.09974" lon="2.72712">
        <ele>1612</ele>
        <time>2017-09-02T13:27:47Z</time>
      </trkpt>
      <trkpt lat="45.09977" lon="2.72706">
        <ele>1612</ele>
        <time>2017-09-02T13:27:51Z</time>
      </trkpt>
      <trkpt lat="45.09978" lon="2.727">
        <ele>1611</ele>
        <time>2017-09-02T13:27:56Z</time>
      </trkpt>
      <trkpt lat="45.09982" lon="2.72696">
        <ele>1610</ele>
        <time>2017-09-02T13:28:02Z</time>
      </trkpt>
      <trkpt lat="45.09986" lon="2.7269">
        <ele>1610</ele>
        <time>2017-09-02T13:28:07Z</time>
      </trkpt>
      <trkpt lat="45.09988" lon="2.72683">
        <ele>1609</ele>
        <time>2017-09-02T13:28:12Z</time>
      </trkpt>
      <trkpt lat="45.09988" lon="2.72676">
        <ele>1608</ele>
        <time>2017-09-02T13:28:19Z</time>
      </trkpt>
      <trkpt lat="45.0999" lon="2.72669">
        <ele>1607</ele>
        <time>2017-09-02T13:28:24Z</time>
      </trkpt>
      <trkpt lat="45.09992" lon="2.72662">
        <ele>1606</ele>
        <time>2017-09-02T13:28:30Z</time>
      </trkpt>
      <trkpt lat="45.09993" lon="2.72655">
        <ele>1604</ele>
        <time>2017-09-02T13:28:35Z</time>
      </trkpt>
      <trkpt lat="45.09994" lon="2.72648">
        <ele>1603</ele>
        <time>2017-09-02T13:28:40Z</time>
      </trkpt>
      <trkpt lat="45.09996" lon="2.72642">
        <ele>1601</ele>
        <time>2017-09-02T13:28:45Z</time>
      </trkpt>
      <trkpt lat="45.09998" lon="2.72635">
        <ele>1600</ele>
        <time>2017-09-02T13:28:50Z</time>
      </trkpt>
      <trkpt lat="45.1" lon="2.72629">
        <ele>1598</ele>
        <time>2017-09-02T13:28:56Z</time>
      </trkpt>
      <trkpt lat="45.10003" lon="2.72623">
        <ele>1596</ele>
        <time>2017-09-02T13:29:01Z</time>
      </trkpt>
      <trkpt lat="45.10004" lon="2.72617">
        <ele>1594</ele>
        <time>2017-09-02T13:29:05Z</time>
      </trkpt>
      <trkpt lat="45.10006" lon="2.7261">
        <ele>1592</ele>
        <time>2017-09-02T13:29:10Z</time>
      </trkpt>
      <trkpt lat="45.10005" lon="2.72604">
        <ele>1591</ele>
        <time>2017-09-02T13:29:14Z</time>
      </trkpt>
      <trkpt lat="45.10004" lon="2.72597">
        <ele>1590</ele>
        <time>2017-09-02T13:29:18Z</time>
      </trkpt>
      <trkpt lat="45.10003" lon="2.72591">
        <ele>1590</ele>
        <time>2017-09-02T13:29:23Z</time>
      </trkpt>
      <trkpt lat="45.10001" lon="2.72585">
        <ele>1589</ele>
        <time>2017-09-02T13:29:29Z</time>
      </trkpt>
      <trkpt lat="45.10001" lon="2.72578">
        <ele>1589</ele>
        <time>2017-09-02T13:29:33Z</time>
      </trkpt>
      <trkpt lat="45.10001" lon="2.7257">
        <ele>1589</ele>
        <time>2017-09-02T13:29:38Z</time>
      </trkpt>
      <trkpt lat="45.1" lon="2.72563">
        <ele>1588</ele>
        <time>2017-09-02T13:29:42Z</time>
      </trkpt>
      <trkpt lat="45.09997" lon="2.72556">
        <ele>1587</ele>
        <time>2017-09-02T13:29:46Z</time>
      </trkpt>
      <trkpt lat="45.09995" lon="2.72549">
        <ele>1587</ele>
        <time>2017-09-02T13:29:50Z</time>
      </trkpt>
      <trkpt lat="45.09992" lon="2.72543">
        <ele>1586</ele>
        <time>2017-09-02T13:29:54Z</time>
      </trkpt>
      <trkpt lat="45.09988" lon="2.7254">
        <ele>1586</ele>
        <time>2017-09-02T13:29:59Z</time>
      </trkpt>
      <trkpt lat="45.09987" lon="2.72533">
        <ele>1585</ele>
        <time>2017-09-02T13:30:04Z</time>
      </trkpt>
      <trkpt lat="45.09985" lon="2.72527">
        <ele>1584</ele>
        <time>2017-09-02T13:30:08Z</time>
      </trkpt>
      <trkpt lat="45.09984" lon="2.7252">
        <ele>1584</ele>
        <time>2017-09-02T13:30:12Z</time>
      </trkpt>
      <trkpt lat="45.0998" lon="2.72516">
        <ele>1583</ele>
        <time>2017-09-02T13:30:17Z</time>
      </trkpt>
      <trkpt lat="45.09978" lon="2.7251">
        <ele>1582</ele>
        <time>2017-09-02T13:30:23Z</time>
      </trkpt>
      <trkpt lat="45.09976" lon="2.72503">
        <ele>1581</ele>
        <time>2017-09-02T13:30:27Z</time>
      </trkpt>
      <trkpt lat="45.09974" lon="2.72497">
        <ele>1579</ele>
        <time>2017-09-02T13:30:33Z</time>
      </trkpt>
      <trkpt lat="45.09971" lon="2.72492">
        <ele>1578</ele>
        <time>2017-09-02T13:30:40Z</time>
      </trkpt>
      <trkpt lat="45.09967" lon="2.72488">
        <ele>1577</ele>
        <time>2017-09-02T13:30:46Z</time>
      </trkpt>
      <trkpt lat="45.09965" lon="2.72481">
        <ele>1575</ele>
        <time>2017-09-02T13:30:53Z</time>
      </trkpt>
      <trkpt lat="45.09963" lon="2.72475">
        <ele>1574</ele>
        <time>2017-09-02T13:30:59Z</time>
      </trkpt>
      <trkpt lat="45.0996" lon="2.72467">
        <ele>1573</ele>
        <time>2017-09-02T13:31:11Z</time>
      </trkpt>
      <trkpt lat="45.09958" lon="2.72462">
        <ele>1572</ele>
        <time>2017-09-02T13:31:15Z</time>
      </trkpt>
      <trkpt lat="45.09956" lon="2.72455">
        <ele>1571</ele>
        <time>2017-09-02T13:31:20Z</time>
      </trkpt>
      <trkpt lat="45.09953" lon="2.7245">
        <ele>1570</ele>
        <time>2017-09-02T13:31:23Z</time>
      </trkpt>
      <trkpt lat="45.0995" lon="2.72444">
        <ele>1569</ele>
        <time>2017-09-02T13:31:27Z</time>
      </trkpt>
      <trkpt lat="45.09946" lon="2.72439">
        <ele>1569</ele>
        <time>2017-09-02T13:31:32Z</time>
      </trkpt>
      <trkpt lat="45.09945" lon="2.72432">
        <ele>1569</ele>
        <time>2017-09-02T13:31:37Z</time>
      </trkpt>
      <trkpt lat="45.09942" lon="2.72426">
        <ele>1568</ele>
        <time>2017-09-02T13:31:41Z</time>
      </trkpt>
      <trkpt lat="45.09941" lon="2.7242">
        <ele>1567</ele>
        <time>2017-09-02T13:31:45Z</time>
      </trkpt>
      <trkpt lat="45.09942" lon="2.72413">
        <ele>1566</ele>
        <time>2017-09-02T13:31:51Z</time>
      </trkpt>
      <trkpt lat="45.0994" lon="2.72407">
        <ele>1565</ele>
        <time>2017-09-02T13:31:56Z</time>
      </trkpt>
      <trkpt lat="45.09938" lon="2.724">
        <ele>1564</ele>
        <time>2017-09-02T13:32:01Z</time>
      </trkpt>
      <trkpt lat="45.09938" lon="2.72393">
        <ele>1562</ele>
        <time>2017-09-02T13:32:08Z</time>
      </trkpt>
      <trkpt lat="45.09936" lon="2.72387">
        <ele>1560</ele>
        <time>2017-09-02T13:32:14Z</time>
      </trkpt>
      <trkpt lat="45.09933" lon="2.72381">
        <ele>1559</ele>
        <time>2017-09-02T13:32:20Z</time>
      </trkpt>
      <trkpt lat="45.09933" lon="2.72374">
        <ele>1559</ele>
        <time>2017-09-02T13:32:26Z</time>
      </trkpt>
      <trkpt lat="45.0993" lon="2.72368">
        <ele>1558</ele>
        <time>2017-09-02T13:32:32Z</time>
      </trkpt>
      <trkpt lat="45.09926" lon="2.72361">
        <ele>1557</ele>
        <time>2017-09-02T13:32:37Z</time>
      </trkpt>
      <trkpt lat="45.09923" lon="2.72355">
        <ele>1557</ele>
        <time>2017-09-02T13:32:41Z</time>
      </trkpt>
      <trkpt lat="45.09921" lon="2.72348">
        <ele>1555</ele>
        <time>2017-09-02T13:32:46Z</time>
      </trkpt>
      <trkpt lat="45.09919" lon="2.72342">
        <ele>1554</ele>
        <time>2017-09-02T13:32:50Z</time>
      </trkpt>
      <trkpt lat="45.09917" lon="2.72336">
        <ele>1553</ele>
        <time>2017-09-02T13:32:56Z</time>
      </trkpt>
      <trkpt lat="45.09914" lon="2.72329">
        <ele>1552</ele>
        <time>2017-09-02T13:33:00Z</time>
      </trkpt>
      <trkpt lat="45.09913" lon="2.72322">
        <ele>1551</ele>
        <time>2017-09-02T13:33:05Z</time>
      </trkpt>
      <trkpt lat="45.09913" lon="2.72314">
        <ele>1550</ele>
        <time>2017-09-02T13:33:10Z</time>
      </trkpt>
      <trkpt lat="45.09911" lon="2.72309">
        <ele>1549</ele>
        <time>2017-09-02T13:33:13Z</time>
      </trkpt>
      <trkpt lat="45.09909" lon="2.72301">
        <ele>1548</ele>
        <time>2017-09-02T13:33:18Z</time>
      </trkpt>
      <trkpt lat="45.09905" lon="2.72296">
        <ele>1547</ele>
        <time>2017-09-02T13:33:22Z</time>
      </trkpt>
      <trkpt lat="45.09901" lon="2.72293">
        <ele>1546</ele>
        <time>2017-09-02T13:33:26Z</time>
      </trkpt>
      <trkpt lat="45.09897" lon="2.72287">
        <ele>1546</ele>
        <time>2017-09-02T13:33:32Z</time>
      </trkpt>
      <trkpt lat="45.09894" lon="2.72281">
        <ele>1545</ele>
        <time>2017-09-02T13:33:38Z</time>
      </trkpt>
      <trkpt lat="45.09889" lon="2.72279">
        <ele>1544</ele>
        <time>2017-09-02T13:33:45Z</time>
      </trkpt>
      <trkpt lat="45.09885" lon="2.72274">
        <ele>1543</ele>
        <time>2017-09-02T13:33:49Z</time>
      </trkpt>
      <trkpt lat="45.09882" lon="2.72268">
        <ele>1543</ele>
        <time>2017-09-02T13:33:54Z</time>
      </trkpt>
      <trkpt lat="45.09878" lon="2.72262">
        <ele>1542</ele>
        <time>2017-09-02T13:33:58Z</time>
      </trkpt>
      <trkpt lat="45.09875" lon="2.72257">
        <ele>1542</ele>
        <time>2017-09-02T13:34:04Z</time>
      </trkpt>
      <trkpt lat="45.0987" lon="2.72254">
        <ele>1542</ele>
        <time>2017-09-02T13:34:09Z</time>
      </trkpt>
      <trkpt lat="45.09866" lon="2.72249">
        <ele>1542</ele>
        <time>2017-09-02T13:34:13Z</time>
      </trkpt>
      <trkpt lat="45.09863" lon="2.72243">
        <ele>1542</ele>
        <time>2017-09-02T13:34:18Z</time>
      </trkpt>
      <trkpt lat="45.09858" lon="2.72238">
        <ele>1541</ele>
        <time>2017-09-02T13:34:22Z</time>
      </trkpt>
      <trkpt lat="45.09856" lon="2.72232">
        <ele>1541</ele>
        <time>2017-09-02T13:34:28Z</time>
      </trkpt>
      <trkpt lat="45.09854" lon="2.72225">
        <ele>1541</ele>
        <time>2017-09-02T13:34:33Z</time>
      </trkpt>
      <trkpt lat="45.09852" lon="2.72219">
        <ele>1540</ele>
        <time>2017-09-02T13:34:37Z</time>
      </trkpt>
      <trkpt lat="45.09851" lon="2.72212">
        <ele>1540</ele>
        <time>2017-09-02T13:34:42Z</time>
      </trkpt>
      <trkpt lat="45.09851" lon="2.72205">
        <ele>1540</ele>
        <time>2017-09-02T13:34:46Z</time>
      </trkpt>
      <trkpt lat="45.0985" lon="2.72197">
        <ele>1539</ele>
        <time>2017-09-02T13:34:50Z</time>
      </trkpt>
      <trkpt lat="45.09848" lon="2.7219">
        <ele>1539</ele>
        <time>2017-09-02T13:34:55Z</time>
      </trkpt>
      <trkpt lat="45.09845" lon="2.72185">
        <ele>1538</ele>
        <time>2017-09-02T13:34:59Z</time>
      </trkpt>
      <trkpt lat="45.09844" lon="2.72178">
        <ele>1537</ele>
        <time>2017-09-02T13:35:03Z</time>
      </trkpt>
      <trkpt lat="45.09843" lon="2.72171">
        <ele>1537</ele>
        <time>2017-09-02T13:35:07Z</time>
      </trkpt>
      <trkpt lat="45.09843" lon="2.72163">
        <ele>1536</ele>
        <time>2017-09-02T13:35:10Z</time>
      </trkpt>
      <trkpt lat="45.09843" lon="2.72156">
        <ele>1536</ele>
        <time>2017-09-02T13:35:14Z</time>
      </trkpt>
      <trkpt lat="45.09843" lon="2.7215">
        <ele>1535</ele>
        <time>2017-09-02T13:35:18Z</time>
      </trkpt>
      <trkpt lat="45.09843" lon="2.72143">
        <ele>1534</ele>
        <time>2017-09-02T13:35:22Z</time>
      </trkpt>
      <trkpt lat="45.0984" lon="2.72136">
        <ele>1534</ele>
        <time>2017-09-02T13:35:26Z</time>
      </trkpt>
      <trkpt lat="45.09839" lon="2.7213">
        <ele>1533</ele>
        <time>2017-09-02T13:35:30Z</time>
      </trkpt>
      <trkpt lat="45.09835" lon="2.72124">
        <ele>1532</ele>
        <time>2017-09-02T13:35:34Z</time>
      </trkpt>
      <trkpt lat="45.09833" lon="2.72118">
        <ele>1532</ele>
        <time>2017-09-02T13:35:38Z</time>
      </trkpt>
      <trkpt lat="45.09831" lon="2.72111">
        <ele>1531</ele>
        <time>2017-09-02T13:35:42Z</time>
      </trkpt>
      <trkpt lat="45.09826" lon="2.72109">
        <ele>1531</ele>
        <time>2017-09-02T13:35:46Z</time>
      </trkpt>
      <trkpt lat="45.09822" lon="2.72104">
        <ele>1530</ele>
        <time>2017-09-02T13:35:50Z</time>
      </trkpt>
      <trkpt lat="45.09819" lon="2.721">
        <ele>1530</ele>
        <time>2017-09-02T13:35:53Z</time>
      </trkpt>
      <trkpt lat="45.09816" lon="2.72094">
        <ele>1531</ele>
        <time>2017-09-02T13:35:59Z</time>
      </trkpt>
      <trkpt lat="45.09815" lon="2.72087">
        <ele>1531</ele>
        <time>2017-09-02T13:36:03Z</time>
      </trkpt>
      <trkpt lat="45.09812" lon="2.72082">
        <ele>1531</ele>
        <time>2017-09-02T13:36:06Z</time>
      </trkpt>
      <trkpt lat="45.09811" lon="2.72075">
        <ele>1531</ele>
        <time>2017-09-02T13:36:10Z</time>
      </trkpt>
      <trkpt lat="45.09809" lon="2.72068">
        <ele>1531</ele>
        <time>2017-09-02T13:36:15Z</time>
      </trkpt>
      <trkpt lat="45.09808" lon="2.7206">
        <ele>1531</ele>
        <time>2017-09-02T13:36:19Z</time>
      </trkpt>
      <trkpt lat="45.09808" lon="2.72053">
        <ele>1530</ele>
        <time>2017-09-02T13:36:23Z</time>
      </trkpt>
      <trkpt lat="45.09809" lon="2.72046">
        <ele>1530</ele>
        <time>2017-09-02T13:36:29Z</time>
      </trkpt>
      <trkpt lat="45.0981" lon="2.72039">
        <ele>1529</ele>
        <time>2017-09-02T13:36:35Z</time>
      </trkpt>
      <trkpt lat="45.09809" lon="2.72032">
        <ele>1529</ele>
        <time>2017-09-02T13:36:41Z</time>
      </trkpt>
      <trkpt lat="45.09809" lon="2.72025">
        <ele>1528</ele>
        <time>2017-09-02T13:36:46Z</time>
      </trkpt>
      <trkpt lat="45.09809" lon="2.72018">
        <ele>1528</ele>
        <time>2017-09-02T13:36:50Z</time>
      </trkpt>
      <trkpt lat="45.09808" lon="2.7201">
        <ele>1528</ele>
        <time>2017-09-02T13:36:55Z</time>
      </trkpt>
      <trkpt lat="45.09809" lon="2.72003">
        <ele>1527</ele>
        <time>2017-09-02T13:37:00Z</time>
      </trkpt>
      <trkpt lat="45.09805" lon="2.71997">
        <ele>1527</ele>
        <time>2017-09-02T13:37:05Z</time>
      </trkpt>
      <trkpt lat="45.09802" lon="2.71993">
        <ele>1527</ele>
        <time>2017-09-02T13:37:09Z</time>
      </trkpt>
      <trkpt lat="45.09797" lon="2.71992">
        <ele>1526</ele>
        <time>2017-09-02T13:37:13Z</time>
      </trkpt>
      <trkpt lat="45.09791" lon="2.71992">
        <ele>1526</ele>
        <time>2017-09-02T13:37:18Z</time>
      </trkpt>
      <trkpt lat="45.09787" lon="2.71989">
        <ele>1525</ele>
        <time>2017-09-02T13:37:22Z</time>
      </trkpt>
      <trkpt lat="45.09782" lon="2.71988">
        <ele>1525</ele>
        <time>2017-09-02T13:37:27Z</time>
      </trkpt>
      <trkpt lat="45.09778" lon="2.71984">
        <ele>1524</ele>
        <time>2017-09-02T13:37:30Z</time>
      </trkpt>
      <trkpt lat="45.09773" lon="2.71982">
        <ele>1524</ele>
        <time>2017-09-02T13:37:34Z</time>
      </trkpt>
      <trkpt lat="45.09768" lon="2.7198">
        <ele>1524</ele>
        <time>2017-09-02T13:37:38Z</time>
      </trkpt>
      <trkpt lat="45.09764" lon="2.71976">
        <ele>1524</ele>
        <time>2017-09-02T13:37:42Z</time>
      </trkpt>
      <trkpt lat="45.09759" lon="2.71973">
        <ele>1524</ele>
        <time>2017-09-02T13:37:48Z</time>
      </trkpt>
      <trkpt lat="45.09755" lon="2.7197">
        <ele>1524</ele>
        <time>2017-09-02T13:38:00Z</time>
      </trkpt>
      <trkpt lat="45.09751" lon="2.71968">
        <ele>1524</ele>
        <time>2017-09-02T13:38:06Z</time>
      </trkpt>
      <trkpt lat="45.09746" lon="2.71964">
        <ele>1524</ele>
        <time>2017-09-02T13:38:14Z</time>
      </trkpt>
      <trkpt lat="45.09742" lon="2.7196">
        <ele>1524</ele>
        <time>2017-09-02T13:38:19Z</time>
      </trkpt>
      <trkpt lat="45.09739" lon="2.71955">
        <ele>1525</ele>
        <time>2017-09-02T13:38:24Z</time>
      </trkpt>
      <trkpt lat="45.09734" lon="2.71951">
        <ele>1525</ele>
        <time>2017-09-02T13:38:29Z</time>
      </trkpt>
      <trkpt lat="45.09729" lon="2.71948">
        <ele>1525</ele>
        <time>2017-09-02T13:38:33Z</time>
      </trkpt>
      <trkpt lat="45.09724" lon="2.71946">
        <ele>1525</ele>
        <time>2017-09-02T13:38:37Z</time>
      </trkpt>
      <trkpt lat="45.09721" lon="2.71942">
        <ele>1526</ele>
        <time>2017-09-02T13:38:42Z</time>
      </trkpt>
      <trkpt lat="45.09717" lon="2.71938">
        <ele>1526</ele>
        <time>2017-09-02T13:38:46Z</time>
      </trkpt>
      <trkpt lat="45.09713" lon="2.71933">
        <ele>1526</ele>
        <time>2017-09-02T13:38:51Z</time>
      </trkpt>
      <trkpt lat="45.0971" lon="2.71929">
        <ele>1527</ele>
        <time>2017-09-02T13:38:55Z</time>
      </trkpt>
      <trkpt lat="45.09707" lon="2.71924">
        <ele>1527</ele>
        <time>2017-09-02T13:39:01Z</time>
      </trkpt>
      <trkpt lat="45.09702" lon="2.71919">
        <ele>1527</ele>
        <time>2017-09-02T13:39:06Z</time>
      </trkpt>
      <trkpt lat="45.09698" lon="2.71914">
        <ele>1528</ele>
        <time>2017-09-02T13:39:10Z</time>
      </trkpt>
      <trkpt lat="45.09695" lon="2.71909">
        <ele>1528</ele>
        <time>2017-09-02T13:39:14Z</time>
      </trkpt>
      <trkpt lat="45.09692" lon="2.71903">
        <ele>1528</ele>
        <time>2017-09-02T13:39:20Z</time>
      </trkpt>
      <trkpt lat="45.09688" lon="2.71896">
        <ele>1529</ele>
        <time>2017-09-02T13:39:26Z</time>
      </trkpt>
      <trkpt lat="45.09683" lon="2.71893">
        <ele>1529</ele>
        <time>2017-09-02T13:39:31Z</time>
      </trkpt>
      <trkpt lat="45.09678" lon="2.71891">
        <ele>1529</ele>
        <time>2017-09-02T13:39:36Z</time>
      </trkpt>
      <trkpt lat="45.09674" lon="2.71889">
        <ele>1530</ele>
        <time>2017-09-02T13:39:41Z</time>
      </trkpt>
      <trkpt lat="45.09671" lon="2.71884">
        <ele>1530</ele>
        <time>2017-09-02T13:39:46Z</time>
      </trkpt>
      <trkpt lat="45.09666" lon="2.71882">
        <ele>1530</ele>
        <time>2017-09-02T13:39:52Z</time>
      </trkpt>
      <trkpt lat="45.09661" lon="2.71882">
        <ele>1531</ele>
        <time>2017-09-02T13:39:56Z</time>
      </trkpt>
      <trkpt lat="45.09657" lon="2.71881">
        <ele>1531</ele>
        <time>2017-09-02T13:40:02Z</time>
      </trkpt>
      <trkpt lat="45.09652" lon="2.71879">
        <ele>1532</ele>
        <time>2017-09-02T13:40:08Z</time>
      </trkpt>
      <trkpt lat="45.09647" lon="2.71876">
        <ele>1534</ele>
        <time>2017-09-02T13:40:12Z</time>
      </trkpt>
      <trkpt lat="45.09644" lon="2.71871">
        <ele>1535</ele>
        <time>2017-09-02T13:40:18Z</time>
      </trkpt>
      <trkpt lat="45.0964" lon="2.71868">
        <ele>1536</ele>
        <time>2017-09-02T13:40:22Z</time>
      </trkpt>
      <trkpt lat="45.09636" lon="2.71865">
        <ele>1537</ele>
        <time>2017-09-02T13:40:27Z</time>
      </trkpt>
      <trkpt lat="45.0963" lon="2.71862">
        <ele>1538</ele>
        <time>2017-09-02T13:40:33Z</time>
      </trkpt>
      <trkpt lat="45.09626" lon="2.71859">
        <ele>1538</ele>
        <time>2017-09-02T13:40:37Z</time>
      </trkpt>
      <trkpt lat="45.09621" lon="2.71858">
        <ele>1539</ele>
        <time>2017-09-02T13:40:41Z</time>
      </trkpt>
      <trkpt lat="45.09617" lon="2.71853">
        <ele>1539</ele>
        <time>2017-09-02T13:40:46Z</time>
      </trkpt>
      <trkpt lat="45.09613" lon="2.71848">
        <ele>1540</ele>
        <time>2017-09-02T13:40:51Z</time>
      </trkpt>
      <trkpt lat="45.0961" lon="2.71843">
        <ele>1540</ele>
        <time>2017-09-02T13:40:56Z</time>
      </trkpt>
      <trkpt lat="45.09605" lon="2.71839">
        <ele>1540</ele>
        <time>2017-09-02T13:41:01Z</time>
      </trkpt>
      <trkpt lat="45.09601" lon="2.71835">
        <ele>1541</ele>
        <time>2017-09-02T13:41:06Z</time>
      </trkpt>
      <trkpt lat="45.09597" lon="2.7183">
        <ele>1541</ele>
        <time>2017-09-02T13:41:12Z</time>
      </trkpt>
      <trkpt lat="45.09594" lon="2.71823">
        <ele>1542</ele>
        <time>2017-09-02T13:41:16Z</time>
      </trkpt>
      <trkpt lat="45.09591" lon="2.71817">
        <ele>1542</ele>
        <time>2017-09-02T13:41:22Z</time>
      </trkpt>
      <trkpt lat="45.09589" lon="2.71809">
        <ele>1543</ele>
        <time>2017-09-02T13:41:37Z</time>
      </trkpt>
      <trkpt lat="45.09586" lon="2.71802">
        <ele>1544</ele>
        <time>2017-09-02T13:41:43Z</time>
      </trkpt>
      <trkpt lat="45.09583" lon="2.71797">
        <ele>1544</ele>
        <time>2017-09-02T13:41:47Z</time>
      </trkpt>
      <trkpt lat="45.09581" lon="2.7179">
        <ele>1545</ele>
        <time>2017-09-02T13:41:52Z</time>
      </trkpt>
      <trkpt lat="45.09576" lon="2.71786">
        <ele>1546</ele>
        <time>2017-09-02T13:41:56Z</time>
      </trkpt>
      <trkpt lat="45.09572" lon="2.71781">
        <ele>1546</ele>
        <time>2017-09-02T13:42:00Z</time>
      </trkpt>
      <trkpt lat="45.09567" lon="2.71778">
        <ele>1547</ele>
        <time>2017-09-02T13:42:05Z</time>
      </trkpt>
      <trkpt lat="45.09562" lon="2.71776">
        <ele>1547</ele>
        <time>2017-09-02T13:42:09Z</time>
      </trkpt>
      <trkpt lat="45.09557" lon="2.71772">
        <ele>1547</ele>
        <time>2017-09-02T13:42:14Z</time>
      </trkpt>
      <trkpt lat="45.09553" lon="2.71768">
        <ele>1546</ele>
        <time>2017-09-02T13:42:18Z</time>
      </trkpt>
      <trkpt lat="45.09547" lon="2.71767">
        <ele>1546</ele>
        <time>2017-09-02T13:42:22Z</time>
      </trkpt>
      <trkpt lat="45.09542" lon="2.71766">
        <ele>1545</ele>
        <time>2017-09-02T13:42:26Z</time>
      </trkpt>
      <trkpt lat="45.09536" lon="2.71767">
        <ele>1545</ele>
        <time>2017-09-02T13:42:30Z</time>
      </trkpt>
      <trkpt lat="45.09531" lon="2.71767">
        <ele>1544</ele>
        <time>2017-09-02T13:42:34Z</time>
      </trkpt>
      <trkpt lat="45.09525" lon="2.71767">
        <ele>1544</ele>
        <time>2017-09-02T13:42:38Z</time>
      </trkpt>
      <trkpt lat="45.09521" lon="2.71768">
        <ele>1543</ele>
        <time>2017-09-02T13:42:42Z</time>
      </trkpt>
      <trkpt lat="45.09515" lon="2.71768">
        <ele>1543</ele>
        <time>2017-09-02T13:42:46Z</time>
      </trkpt>
      <trkpt lat="45.0951" lon="2.71771">
        <ele>1543</ele>
        <time>2017-09-02T13:42:50Z</time>
      </trkpt>
      <trkpt lat="45.09504" lon="2.7177">
        <ele>1543</ele>
        <time>2017-09-02T13:42:54Z</time>
      </trkpt>
      <trkpt lat="45.09499" lon="2.71768">
        <ele>1542</ele>
        <time>2017-09-02T13:42:57Z</time>
      </trkpt>
      <trkpt lat="45.09494" lon="2.71769">
        <ele>1542</ele>
        <time>2017-09-02T13:43:01Z</time>
      </trkpt>
      <trkpt lat="45.09488" lon="2.71768">
        <ele>1542</ele>
        <time>2017-09-02T13:43:06Z</time>
      </trkpt>
      <trkpt lat="45.09483" lon="2.71764">
        <ele>1542</ele>
        <time>2017-09-02T13:43:10Z</time>
      </trkpt>
      <trkpt lat="45.09478" lon="2.71763">
        <ele>1541</ele>
        <time>2017-09-02T13:43:14Z</time>
      </trkpt>
      <trkpt lat="45.09472" lon="2.71763">
        <ele>1541</ele>
        <time>2017-09-02T13:43:18Z</time>
      </trkpt>
      <trkpt lat="45.09467" lon="2.71761">
        <ele>1541</ele>
        <time>2017-09-02T13:43:22Z</time>
      </trkpt>
      <trkpt lat="45.09462" lon="2.71759">
        <ele>1541</ele>
        <time>2017-09-02T13:43:28Z</time>
      </trkpt>
      <trkpt lat="45.09457" lon="2.71756">
        <ele>1541</ele>
        <time>2017-09-02T13:43:33Z</time>
      </trkpt>
      <trkpt lat="45.09453" lon="2.71754">
        <ele>1541</ele>
        <time>2017-09-02T13:43:37Z</time>
      </trkpt>
      <trkpt lat="45.09447" lon="2.71753">
        <ele>1541</ele>
        <time>2017-09-02T13:43:42Z</time>
      </trkpt>
      <trkpt lat="45.09443" lon="2.71751">
        <ele>1541</ele>
        <time>2017-09-02T13:43:47Z</time>
      </trkpt>
      <trkpt lat="45.09438" lon="2.71748">
        <ele>1542</ele>
        <time>2017-09-02T13:43:51Z</time>
      </trkpt>
      <trkpt lat="45.09433" lon="2.71746">
        <ele>1542</ele>
        <time>2017-09-02T13:43:55Z</time>
      </trkpt>
      <trkpt lat="45.09427" lon="2.71744">
        <ele>1542</ele>
        <time>2017-09-02T13:44:01Z</time>
      </trkpt>
      <trkpt lat="45.09422" lon="2.71743">
        <ele>1542</ele>
        <time>2017-09-02T13:44:05Z</time>
      </trkpt>
      <trkpt lat="45.09417" lon="2.71741">
        <ele>1542</ele>
        <time>2017-09-02T13:44:08Z</time>
      </trkpt>
      <trkpt lat="45.09412" lon="2.7174">
        <ele>1542</ele>
        <time>2017-09-02T13:44:12Z</time>
      </trkpt>
      <trkpt lat="45.09407" lon="2.71737">
        <ele>1542</ele>
        <time>2017-09-02T13:44:16Z</time>
      </trkpt>
      <trkpt lat="45.09403" lon="2.71736">
        <ele>1541</ele>
        <time>2017-09-02T13:44:19Z</time>
      </trkpt>
      <trkpt lat="45.09398" lon="2.71733">
        <ele>1541</ele>
        <time>2017-09-02T13:44:23Z</time>
      </trkpt>
      <trkpt lat="45.09394" lon="2.71731">
        <ele>1541</ele>
        <time>2017-09-02T13:44:27Z</time>
      </trkpt>
      <trkpt lat="45.09388" lon="2.71727">
        <ele>1540</ele>
        <time>2017-09-02T13:44:31Z</time>
      </trkpt>
      <trkpt lat="45.09383" lon="2.71725">
        <ele>1540</ele>
        <time>2017-09-02T13:44:35Z</time>
      </trkpt>
      <trkpt lat="45.09379" lon="2.71722">
        <ele>1539</ele>
        <time>2017-09-02T13:44:38Z</time>
      </trkpt>
      <trkpt lat="45.09372" lon="2.71721">
        <ele>1539</ele>
        <time>2017-09-02T13:44:42Z</time>
      </trkpt>
      <trkpt lat="45.09367" lon="2.71719">
        <ele>1539</ele>
        <time>2017-09-02T13:44:46Z</time>
      </trkpt>
      <trkpt lat="45.09361" lon="2.71717">
        <ele>1539</ele>
        <time>2017-09-02T13:44:50Z</time>
      </trkpt>
      <trkpt lat="45.09356" lon="2.71716">
        <ele>1539</ele>
        <time>2017-09-02T13:44:54Z</time>
      </trkpt>
      <trkpt lat="45.09351" lon="2.71714">
        <ele>1539</ele>
        <time>2017-09-02T13:44:58Z</time>
      </trkpt>
      <trkpt lat="45.09346" lon="2.71713">
        <ele>1539</ele>
        <time>2017-09-02T13:45:01Z</time>
      </trkpt>
      <trkpt lat="45.09341" lon="2.7171">
        <ele>1539</ele>
        <time>2017-09-02T13:45:05Z</time>
      </trkpt>
      <trkpt lat="45.09337" lon="2.71708">
        <ele>1539</ele>
        <time>2017-09-02T13:45:09Z</time>
      </trkpt>
      <trkpt lat="45.09332" lon="2.71707">
        <ele>1539</ele>
        <time>2017-09-02T13:45:13Z</time>
      </trkpt>
      <trkpt lat="45.09326" lon="2.71702">
        <ele>1538</ele>
        <time>2017-09-02T13:45:17Z</time>
      </trkpt>
      <trkpt lat="45.09322" lon="2.71699">
        <ele>1538</ele>
        <time>2017-09-02T13:45:20Z</time>
      </trkpt>
      <trkpt lat="45.09317" lon="2.71696">
        <ele>1539</ele>
        <time>2017-09-02T13:45:25Z</time>
      </trkpt>
      <trkpt lat="45.09312" lon="2.71692">
        <ele>1539</ele>
        <time>2017-09-02T13:45:30Z</time>
      </trkpt>
      <trkpt lat="45.09308" lon="2.71689">
        <ele>1539</ele>
        <time>2017-09-02T13:45:34Z</time>
      </trkpt>
      <trkpt lat="45.09303" lon="2.71684">
        <ele>1540</ele>
        <time>2017-09-02T13:45:39Z</time>
      </trkpt>
      <trkpt lat="45.093" lon="2.71681">
        <ele>1540</ele>
        <time>2017-09-02T13:45:43Z</time>
      </trkpt>
      <trkpt lat="45.09294" lon="2.71682">
        <ele>1540</ele>
        <time>2017-09-02T13:45:50Z</time>
      </trkpt>
      <trkpt lat="45.09289" lon="2.71682">
        <ele>1539</ele>
        <time>2017-09-02T13:45:57Z</time>
      </trkpt>
      <trkpt lat="45.09284" lon="2.71682">
        <ele>1539</ele>
        <time>2017-09-02T13:46:02Z</time>
      </trkpt>
      <trkpt lat="45.09279" lon="2.7168">
        <ele>1539</ele>
        <time>2017-09-02T13:46:07Z</time>
      </trkpt>
      <trkpt lat="45.09274" lon="2.71679">
        <ele>1539</ele>
        <time>2017-09-02T13:46:11Z</time>
      </trkpt>
      <trkpt lat="45.09269" lon="2.71679">
        <ele>1538</ele>
        <time>2017-09-02T13:46:15Z</time>
      </trkpt>
      <trkpt lat="45.09264" lon="2.71677">
        <ele>1538</ele>
        <time>2017-09-02T13:46:19Z</time>
      </trkpt>
      <trkpt lat="45.09259" lon="2.71676">
        <ele>1537</ele>
        <time>2017-09-02T13:46:23Z</time>
      </trkpt>
      <trkpt lat="45.09255" lon="2.71675">
        <ele>1536</ele>
        <time>2017-09-02T13:46:27Z</time>
      </trkpt>
      <trkpt lat="45.0925" lon="2.71672">
        <ele>1535</ele>
        <time>2017-09-02T13:46:31Z</time>
      </trkpt>
      <trkpt lat="45.09246" lon="2.71671">
        <ele>1534</ele>
        <time>2017-09-02T13:46:34Z</time>
      </trkpt>
      <trkpt lat="45.09241" lon="2.7167">
        <ele>1533</ele>
        <time>2017-09-02T13:46:38Z</time>
      </trkpt>
      <trkpt lat="45.09236" lon="2.71671">
        <ele>1533</ele>
        <time>2017-09-02T13:46:42Z</time>
      </trkpt>
      <trkpt lat="45.0923" lon="2.71671">
        <ele>1532</ele>
        <time>2017-09-02T13:46:47Z</time>
      </trkpt>
      <trkpt lat="45.09226" lon="2.71675">
        <ele>1531</ele>
        <time>2017-09-02T13:46:51Z</time>
      </trkpt>
      <trkpt lat="45.09222" lon="2.71678">
        <ele>1530</ele>
        <time>2017-09-02T13:46:55Z</time>
      </trkpt>
      <trkpt lat="45.09217" lon="2.7168">
        <ele>1530</ele>
        <time>2017-09-02T13:46:59Z</time>
      </trkpt>
      <trkpt lat="45.09213" lon="2.71682">
        <ele>1529</ele>
        <time>2017-09-02T13:47:03Z</time>
      </trkpt>
      <trkpt lat="45.09208" lon="2.71683">
        <ele>1528</ele>
        <time>2017-09-02T13:47:07Z</time>
      </trkpt>
      <trkpt lat="45.09203" lon="2.71684">
        <ele>1528</ele>
        <time>2017-09-02T13:47:12Z</time>
      </trkpt>
      <trkpt lat="45.09197" lon="2.71685">
        <ele>1527</ele>
        <time>2017-09-02T13:47:16Z</time>
      </trkpt>
      <trkpt lat="45.09192" lon="2.71688">
        <ele>1527</ele>
        <time>2017-09-02T13:47:21Z</time>
      </trkpt>
      <trkpt lat="45.09187" lon="2.71692">
        <ele>1526</ele>
        <time>2017-09-02T13:47:26Z</time>
      </trkpt>
      <trkpt lat="45.09183" lon="2.71695">
        <ele>1525</ele>
        <time>2017-09-02T13:47:30Z</time>
      </trkpt>
      <trkpt lat="45.0918" lon="2.71699">
        <ele>1525</ele>
        <time>2017-09-02T13:47:34Z</time>
      </trkpt>
      <trkpt lat="45.09175" lon="2.717">
        <ele>1524</ele>
        <time>2017-09-02T13:47:39Z</time>
      </trkpt>
      <trkpt lat="45.09169" lon="2.717">
        <ele>1524</ele>
        <time>2017-09-02T13:47:44Z</time>
      </trkpt>
      <trkpt lat="45.09164" lon="2.717">
        <ele>1524</ele>
        <time>2017-09-02T13:47:49Z</time>
      </trkpt>
      <trkpt lat="45.09159" lon="2.71701">
        <ele>1524</ele>
        <time>2017-09-02T13:47:53Z</time>
      </trkpt>
      <trkpt lat="45.09154" lon="2.71702">
        <ele>1524</ele>
        <time>2017-09-02T13:47:58Z</time>
      </trkpt>
      <trkpt lat="45.09149" lon="2.71704">
        <ele>1524</ele>
        <time>2017-09-02T13:48:02Z</time>
      </trkpt>
      <trkpt lat="45.09144" lon="2.71705">
        <ele>1524</ele>
        <time>2017-09-02T13:48:06Z</time>
      </trkpt>
      <trkpt lat="45.09139" lon="2.71705">
        <ele>1523</ele>
        <time>2017-09-02T13:48:11Z</time>
      </trkpt>
      <trkpt lat="45.09134" lon="2.71705">
        <ele>1523</ele>
        <time>2017-09-02T13:48:15Z</time>
      </trkpt>
      <trkpt lat="45.0913" lon="2.71704">
        <ele>1523</ele>
        <time>2017-09-02T13:48:19Z</time>
      </trkpt>
      <trkpt lat="45.09124" lon="2.71705">
        <ele>1523</ele>
        <time>2017-09-02T13:48:24Z</time>
      </trkpt>
      <trkpt lat="45.0912" lon="2.71704">
        <ele>1522</ele>
        <time>2017-09-02T13:48:28Z</time>
      </trkpt>
      <trkpt lat="45.09115" lon="2.71705">
        <ele>1522</ele>
        <time>2017-09-02T13:48:33Z</time>
      </trkpt>
      <trkpt lat="45.09109" lon="2.71706">
        <ele>1521</ele>
        <time>2017-09-02T13:48:37Z</time>
      </trkpt>
      <trkpt lat="45.09104" lon="2.71708">
        <ele>1520</ele>
        <time>2017-09-02T13:48:43Z</time>
      </trkpt>
      <trkpt lat="45.09098" lon="2.71709">
        <ele>1519</ele>
        <time>2017-09-02T13:48:47Z</time>
      </trkpt>
      <trkpt lat="45.09094" lon="2.7171">
        <ele>1518</ele>
        <time>2017-09-02T13:48:52Z</time>
      </trkpt>
      <trkpt lat="45.09092" lon="2.71717">
        <ele>1517</ele>
        <time>2017-09-02T13:48:57Z</time>
      </trkpt>
      <trkpt lat="45.09087" lon="2.71721">
        <ele>1516</ele>
        <time>2017-09-02T13:49:01Z</time>
      </trkpt>
      <trkpt lat="45.09082" lon="2.71723">
        <ele>1516</ele>
        <time>2017-09-02T13:49:06Z</time>
      </trkpt>
      <trkpt lat="45.09079" lon="2.71729">
        <ele>1515</ele>
        <time>2017-09-02T13:49:11Z</time>
      </trkpt>
      <trkpt lat="45.09074" lon="2.71735">
        <ele>1515</ele>
        <time>2017-09-02T13:49:16Z</time>
      </trkpt>
      <trkpt lat="45.09071" lon="2.7174">
        <ele>1514</ele>
        <time>2017-09-02T13:49:21Z</time>
      </trkpt>
      <trkpt lat="45.09069" lon="2.71746">
        <ele>1514</ele>
        <time>2017-09-02T13:49:26Z</time>
      </trkpt>
      <trkpt lat="45.09066" lon="2.71751">
        <ele>1513</ele>
        <time>2017-09-02T13:49:31Z</time>
      </trkpt>
      <trkpt lat="45.09064" lon="2.71758">
        <ele>1512</ele>
        <time>2017-09-02T13:49:35Z</time>
      </trkpt>
      <trkpt lat="45.09059" lon="2.71761">
        <ele>1512</ele>
        <time>2017-09-02T13:49:39Z</time>
      </trkpt>
      <trkpt lat="45.09055" lon="2.71764">
        <ele>1512</ele>
        <time>2017-09-02T13:49:43Z</time>
      </trkpt>
      <trkpt lat="45.09052" lon="2.71768">
        <ele>1511</ele>
        <time>2017-09-02T13:49:47Z</time>
      </trkpt>
      <trkpt lat="45.09048" lon="2.71774">
        <ele>1511</ele>
        <time>2017-09-02T13:49:51Z</time>
      </trkpt>
      <trkpt lat="45.09045" lon="2.71781">
        <ele>1510</ele>
        <time>2017-09-02T13:49:55Z</time>
      </trkpt>
      <trkpt lat="45.09043" lon="2.71788">
        <ele>1508</ele>
        <time>2017-09-02T13:49:59Z</time>
      </trkpt>
      <trkpt lat="45.09041" lon="2.71794">
        <ele>1507</ele>
        <time>2017-09-02T13:50:03Z</time>
      </trkpt>
      <trkpt lat="45.09039" lon="2.71801">
        <ele>1506</ele>
        <time>2017-09-02T13:50:06Z</time>
      </trkpt>
      <trkpt lat="45.09037" lon="2.71808">
        <ele>1505</ele>
        <time>2017-09-02T13:50:10Z</time>
      </trkpt>
      <trkpt lat="45.09035" lon="2.71813">
        <ele>1504</ele>
        <time>2017-09-02T13:50:15Z</time>
      </trkpt>
      <trkpt lat="45.09032" lon="2.7182">
        <ele>1504</ele>
        <time>2017-09-02T13:50:20Z</time>
      </trkpt>
      <trkpt lat="45.09031" lon="2.71827">
        <ele>1504</ele>
        <time>2017-09-02T13:50:24Z</time>
      </trkpt>
      <trkpt lat="45.09028" lon="2.71834">
        <ele>1504</ele>
        <time>2017-09-02T13:50:28Z</time>
      </trkpt>
      <trkpt lat="45.09026" lon="2.71841">
        <ele>1503</ele>
        <time>2017-09-02T13:50:32Z</time>
      </trkpt>
      <trkpt lat="45.09023" lon="2.71846">
        <ele>1503</ele>
        <time>2017-09-02T13:50:36Z</time>
      </trkpt>
      <trkpt lat="45.09023" lon="2.71853">
        <ele>1502</ele>
        <time>2017-09-02T13:50:42Z</time>
      </trkpt>
      <trkpt lat="45.09023" lon="2.7186">
        <ele>1501</ele>
        <time>2017-09-02T13:50:46Z</time>
      </trkpt>
      <trkpt lat="45.09024" lon="2.71867">
        <ele>1501</ele>
        <time>2017-09-02T13:50:51Z</time>
      </trkpt>
      <trkpt lat="45.09025" lon="2.71875">
        <ele>1500</ele>
        <time>2017-09-02T13:50:57Z</time>
      </trkpt>
      <trkpt lat="45.09026" lon="2.71883">
        <ele>1500</ele>
        <time>2017-09-02T13:51:02Z</time>
      </trkpt>
      <trkpt lat="45.09027" lon="2.7189">
        <ele>1499</ele>
        <time>2017-09-02T13:51:06Z</time>
      </trkpt>
      <trkpt lat="45.09027" lon="2.71896">
        <ele>1499</ele>
        <time>2017-09-02T13:51:11Z</time>
      </trkpt>
      <trkpt lat="45.09026" lon="2.71903">
        <ele>1498</ele>
        <time>2017-09-02T13:51:16Z</time>
      </trkpt>
      <trkpt lat="45.09024" lon="2.71909">
        <ele>1497</ele>
        <time>2017-09-02T13:51:21Z</time>
      </trkpt>
      <trkpt lat="45.09023" lon="2.71916">
        <ele>1497</ele>
        <time>2017-09-02T13:51:26Z</time>
      </trkpt>
      <trkpt lat="45.09021" lon="2.71923">
        <ele>1496</ele>
        <time>2017-09-02T13:51:31Z</time>
      </trkpt>
      <trkpt lat="45.09019" lon="2.71929">
        <ele>1496</ele>
        <time>2017-09-02T13:51:36Z</time>
      </trkpt>
      <trkpt lat="45.09017" lon="2.71935">
        <ele>1495</ele>
        <time>2017-09-02T13:51:40Z</time>
      </trkpt>
      <trkpt lat="45.09014" lon="2.71941">
        <ele>1494</ele>
        <time>2017-09-02T13:51:46Z</time>
      </trkpt>
      <trkpt lat="45.0901" lon="2.71945">
        <ele>1493</ele>
        <time>2017-09-02T13:51:50Z</time>
      </trkpt>
      <trkpt lat="45.09007" lon="2.71951">
        <ele>1492</ele>
        <time>2017-09-02T13:51:54Z</time>
      </trkpt>
      <trkpt lat="45.09005" lon="2.71958">
        <ele>1491</ele>
        <time>2017-09-02T13:51:57Z</time>
      </trkpt>
      <trkpt lat="45.09003" lon="2.71964">
        <ele>1490</ele>
        <time>2017-09-02T13:52:01Z</time>
      </trkpt>
      <trkpt lat="45.08999" lon="2.71967">
        <ele>1490</ele>
        <time>2017-09-02T13:52:06Z</time>
      </trkpt>
      <trkpt lat="45.08995" lon="2.71973">
        <ele>1489</ele>
        <time>2017-09-02T13:52:11Z</time>
      </trkpt>
      <trkpt lat="45.08993" lon="2.71978">
        <ele>1488</ele>
        <time>2017-09-02T13:52:16Z</time>
      </trkpt>
      <trkpt lat="45.0899" lon="2.71984">
        <ele>1488</ele>
        <time>2017-09-02T13:52:20Z</time>
      </trkpt>
      <trkpt lat="45.08986" lon="2.71987">
        <ele>1487</ele>
        <time>2017-09-02T13:52:24Z</time>
      </trkpt>
      <trkpt lat="45.08982" lon="2.71993">
        <ele>1486</ele>
        <time>2017-09-02T13:52:29Z</time>
      </trkpt>
      <trkpt lat="45.08979" lon="2.71998">
        <ele>1485</ele>
        <time>2017-09-02T13:52:33Z</time>
      </trkpt>
      <trkpt lat="45.08974" lon="2.72001">
        <ele>1484</ele>
        <time>2017-09-02T13:52:38Z</time>
      </trkpt>
      <trkpt lat="45.0897" lon="2.72005">
        <ele>1484</ele>
        <time>2017-09-02T13:52:42Z</time>
      </trkpt>
      <trkpt lat="45.08966" lon="2.72011">
        <ele>1483</ele>
        <time>2017-09-02T13:52:46Z</time>
      </trkpt>
      <trkpt lat="45.08964" lon="2.72017">
        <ele>1483</ele>
        <time>2017-09-02T13:52:50Z</time>
      </trkpt>
      <trkpt lat="45.08963" lon="2.72024">
        <ele>1482</ele>
        <time>2017-09-02T13:52:55Z</time>
      </trkpt>
      <trkpt lat="45.08962" lon="2.7203">
        <ele>1481</ele>
        <time>2017-09-02T13:53:00Z</time>
      </trkpt>
      <trkpt lat="45.0896" lon="2.72037">
        <ele>1480</ele>
        <time>2017-09-02T13:53:03Z</time>
      </trkpt>
      <trkpt lat="45.08957" lon="2.72043">
        <ele>1480</ele>
        <time>2017-09-02T13:53:07Z</time>
      </trkpt>
      <trkpt lat="45.08956" lon="2.7205">
        <ele>1479</ele>
        <time>2017-09-02T13:53:11Z</time>
      </trkpt>
      <trkpt lat="45.08954" lon="2.72057">
        <ele>1478</ele>
        <time>2017-09-02T13:53:16Z</time>
      </trkpt>
      <trkpt lat="45.08951" lon="2.72062">
        <ele>1478</ele>
        <time>2017-09-02T13:53:20Z</time>
      </trkpt>
      <trkpt lat="45.08947" lon="2.72068">
        <ele>1477</ele>
        <time>2017-09-02T13:53:24Z</time>
      </trkpt>
      <trkpt lat="45.08945" lon="2.72074">
        <ele>1476</ele>
        <time>2017-09-02T13:53:28Z</time>
      </trkpt>
      <trkpt lat="45.08944" lon="2.72081">
        <ele>1475</ele>
        <time>2017-09-02T13:53:33Z</time>
      </trkpt>
      <trkpt lat="45.08945" lon="2.72088">
        <ele>1475</ele>
        <time>2017-09-02T13:53:36Z</time>
      </trkpt>
      <trkpt lat="45.08944" lon="2.72095">
        <ele>1475</ele>
        <time>2017-09-02T13:53:40Z</time>
      </trkpt>
      <trkpt lat="45.08945" lon="2.72102">
        <ele>1475</ele>
        <time>2017-09-02T13:53:43Z</time>
      </trkpt>
      <trkpt lat="45.08945" lon="2.72109">
        <ele>1474</ele>
        <time>2017-09-02T13:53:46Z</time>
      </trkpt>
      <trkpt lat="45.08944" lon="2.72116">
        <ele>1474</ele>
        <time>2017-09-02T13:53:50Z</time>
      </trkpt>
      <trkpt lat="45.08944" lon="2.72122">
        <ele>1473</ele>
        <time>2017-09-02T13:53:55Z</time>
      </trkpt>
      <trkpt lat="45.08945" lon="2.72129">
        <ele>1472</ele>
        <time>2017-09-02T13:54:00Z</time>
      </trkpt>
      <trkpt lat="45.08945" lon="2.72135">
        <ele>1471</ele>
        <time>2017-09-02T13:54:05Z</time>
      </trkpt>
      <trkpt lat="45.08942" lon="2.72144">
        <ele>1470</ele>
        <time>2017-09-02T13:54:10Z</time>
      </trkpt>
      <trkpt lat="45.08943" lon="2.72151">
        <ele>1469</ele>
        <time>2017-09-02T13:54:13Z</time>
      </trkpt>
      <trkpt lat="45.08941" lon="2.72158">
        <ele>1468</ele>
        <time>2017-09-02T13:54:17Z</time>
      </trkpt>
      <trkpt lat="45.08941" lon="2.72165">
        <ele>1467</ele>
        <time>2017-09-02T13:54:20Z</time>
      </trkpt>
      <trkpt lat="45.08939" lon="2.72171">
        <ele>1467</ele>
        <time>2017-09-02T13:54:24Z</time>
      </trkpt>
      <trkpt lat="45.08936" lon="2.72179">
        <ele>1466</ele>
        <time>2017-09-02T13:54:29Z</time>
      </trkpt>
      <trkpt lat="45.08934" lon="2.72186">
        <ele>1465</ele>
        <time>2017-09-02T13:54:33Z</time>
      </trkpt>
      <trkpt lat="45.08937" lon="2.72194">
        <ele>1463</ele>
        <time>2017-09-02T13:54:37Z</time>
      </trkpt>
      <trkpt lat="45.08937" lon="2.72201">
        <ele>1462</ele>
        <time>2017-09-02T13:54:41Z</time>
      </trkpt>
      <trkpt lat="45.08937" lon="2.72208">
        <ele>1461</ele>
        <time>2017-09-02T13:54:45Z</time>
      </trkpt>
      <trkpt lat="45.08938" lon="2.72216">
        <ele>1459</ele>
        <time>2017-09-02T13:54:49Z</time>
      </trkpt>
      <trkpt lat="45.08938" lon="2.72224">
        <ele>1458</ele>
        <time>2017-09-02T13:54:53Z</time>
      </trkpt>
      <trkpt lat="45.08937" lon="2.7223">
        <ele>1457</ele>
        <time>2017-09-02T13:55:00Z</time>
      </trkpt>
      <trkpt lat="45.08932" lon="2.72232">
        <ele>1456</ele>
        <time>2017-09-02T13:55:06Z</time>
      </trkpt>
      <trkpt lat="45.08928" lon="2.72235">
        <ele>1455</ele>
        <time>2017-09-02T13:55:10Z</time>
      </trkpt>
      <trkpt lat="45.08924" lon="2.72239">
        <ele>1454</ele>
        <time>2017-09-02T13:55:14Z</time>
      </trkpt>
      <trkpt lat="45.0892" lon="2.72243">
        <ele>1453</ele>
        <time>2017-09-02T13:55:18Z</time>
      </trkpt>
      <trkpt lat="45.08917" lon="2.72248">
        <ele>1453</ele>
        <time>2017-09-02T13:55:22Z</time>
      </trkpt>
      <trkpt lat="45.08912" lon="2.72253">
        <ele>1453</ele>
        <time>2017-09-02T13:55:26Z</time>
      </trkpt>
      <trkpt lat="45.08908" lon="2.72257">
        <ele>1453</ele>
        <time>2017-09-02T13:55:30Z</time>
      </trkpt>
      <trkpt lat="45.08903" lon="2.72261">
        <ele>1452</ele>
        <time>2017-09-02T13:55:34Z</time>
      </trkpt>
      <trkpt lat="45.08899" lon="2.72265">
        <ele>1452</ele>
        <time>2017-09-02T13:55:38Z</time>
      </trkpt>
      <trkpt lat="45.08894" lon="2.72269">
        <ele>1452</ele>
        <time>2017-09-02T13:55:43Z</time>
      </trkpt>
      <trkpt lat="45.08889" lon="2.7227">
        <ele>1451</ele>
        <time>2017-09-02T13:55:49Z</time>
      </trkpt>
      <trkpt lat="45.08884" lon="2.72272">
        <ele>1451</ele>
        <time>2017-09-02T13:55:53Z</time>
      </trkpt>
      <trkpt lat="45.08879" lon="2.72274">
        <ele>1450</ele>
        <time>2017-09-02T13:55:57Z</time>
      </trkpt>
      <trkpt lat="45.08874" lon="2.72277">
        <ele>1450</ele>
        <time>2017-09-02T13:56:02Z</time>
      </trkpt>
      <trkpt lat="45.0887" lon="2.72281">
        <ele>1449</ele>
        <time>2017-09-02T13:56:06Z</time>
      </trkpt>
      <trkpt lat="45.08866" lon="2.72286">
        <ele>1449</ele>
        <time>2017-09-02T13:56:11Z</time>
      </trkpt>
      <trkpt lat="45.08862" lon="2.72292">
        <ele>1448</ele>
        <time>2017-09-02T13:56:16Z</time>
      </trkpt>
      <trkpt lat="45.08858" lon="2.72295">
        <ele>1446</ele>
        <time>2017-09-02T13:56:20Z</time>
      </trkpt>
      <trkpt lat="45.08856" lon="2.72302">
        <ele>1445</ele>
        <time>2017-09-02T13:56:25Z</time>
      </trkpt>
      <trkpt lat="45.08855" lon="2.72309">
        <ele>1444</ele>
        <time>2017-09-02T13:56:29Z</time>
      </trkpt>
      <trkpt lat="45.08851" lon="2.72315">
        <ele>1443</ele>
        <time>2017-09-02T13:56:34Z</time>
      </trkpt>
      <trkpt lat="45.08847" lon="2.72317">
        <ele>1442</ele>
        <time>2017-09-02T13:56:39Z</time>
      </trkpt>
      <trkpt lat="45.08842" lon="2.72321">
        <ele>1442</ele>
        <time>2017-09-02T13:56:45Z</time>
      </trkpt>
      <trkpt lat="45.08838" lon="2.72326">
        <ele>1441</ele>
        <time>2017-09-02T13:56:50Z</time>
      </trkpt>
      <trkpt lat="45.08835" lon="2.72331">
        <ele>1439</ele>
        <time>2017-09-02T13:56:54Z</time>
      </trkpt>
      <trkpt lat="45.08831" lon="2.72336">
        <ele>1438</ele>
        <time>2017-09-02T13:56:59Z</time>
      </trkpt>
      <trkpt lat="45.08827" lon="2.7234">
        <ele>1437</ele>
        <time>2017-09-02T13:57:03Z</time>
      </trkpt>
      <trkpt lat="45.08823" lon="2.72345">
        <ele>1436</ele>
        <time>2017-09-02T13:57:07Z</time>
      </trkpt>
      <trkpt lat="45.08819" lon="2.72349">
        <ele>1434</ele>
        <time>2017-09-02T13:57:11Z</time>
      </trkpt>
      <trkpt lat="45.08816" lon="2.72355">
        <ele>1433</ele>
        <time>2017-09-02T13:57:15Z</time>
      </trkpt>
      <trkpt lat="45.08812" lon="2.72358">
        <ele>1432</ele>
        <time>2017-09-02T13:57:19Z</time>
      </trkpt>
      <trkpt lat="45.08807" lon="2.72363">
        <ele>1431</ele>
        <time>2017-09-02T13:57:23Z</time>
      </trkpt>
      <trkpt lat="45.08804" lon="2.72367">
        <ele>1430</ele>
        <time>2017-09-02T13:57:27Z</time>
      </trkpt>
      <trkpt lat="45.08801" lon="2.72371">
        <ele>1429</ele>
        <time>2017-09-02T13:57:32Z</time>
      </trkpt>
      <trkpt lat="45.08799" lon="2.72379">
        <ele>1428</ele>
        <time>2017-09-02T13:57:36Z</time>
      </trkpt>
      <trkpt lat="45.08797" lon="2.72385">
        <ele>1428</ele>
        <time>2017-09-02T13:57:40Z</time>
      </trkpt>
      <trkpt lat="45.08795" lon="2.72391">
        <ele>1427</ele>
        <time>2017-09-02T13:57:43Z</time>
      </trkpt>
      <trkpt lat="45.08791" lon="2.72397">
        <ele>1426</ele>
        <time>2017-09-02T13:57:47Z</time>
      </trkpt>
      <trkpt lat="45.08788" lon="2.72403">
        <ele>1425</ele>
        <time>2017-09-02T13:57:52Z</time>
      </trkpt>
      <trkpt lat="45.08786" lon="2.72409">
        <ele>1425</ele>
        <time>2017-09-02T13:57:55Z</time>
      </trkpt>
      <trkpt lat="45.08781" lon="2.72412">
        <ele>1424</ele>
        <time>2017-09-02T13:57:59Z</time>
      </trkpt>
      <trkpt lat="45.08777" lon="2.72418">
        <ele>1423</ele>
        <time>2017-09-02T13:58:03Z</time>
      </trkpt>
      <trkpt lat="45.08774" lon="2.72424">
        <ele>1422</ele>
        <time>2017-09-02T13:58:07Z</time>
      </trkpt>
      <trkpt lat="45.0877" lon="2.72427">
        <ele>1421</ele>
        <time>2017-09-02T13:58:11Z</time>
      </trkpt>
      <trkpt lat="45.08768" lon="2.72435">
        <ele>1421</ele>
        <time>2017-09-02T13:58:14Z</time>
      </trkpt>
      <trkpt lat="45.08766" lon="2.72442">
        <ele>1420</ele>
        <time>2017-09-02T13:58:17Z</time>
      </trkpt>
      <trkpt lat="45.08764" lon="2.72449">
        <ele>1419</ele>
        <time>2017-09-02T13:58:22Z</time>
      </trkpt>
      <trkpt lat="45.08761" lon="2.72454">
        <ele>1419</ele>
        <time>2017-09-02T13:58:27Z</time>
      </trkpt>
      <trkpt lat="45.0876" lon="2.72461">
        <ele>1418</ele>
        <time>2017-09-02T13:58:30Z</time>
      </trkpt>
      <trkpt lat="45.08758" lon="2.72469">
        <ele>1417</ele>
        <time>2017-09-02T13:58:34Z</time>
      </trkpt>
      <trkpt lat="45.08758" lon="2.72477">
        <ele>1417</ele>
        <time>2017-09-02T13:58:38Z</time>
      </trkpt>
      <trkpt lat="45.08759" lon="2.72484">
        <ele>1417</ele>
        <time>2017-09-02T13:58:42Z</time>
      </trkpt>
      <trkpt lat="45.08759" lon="2.72493">
        <ele>1416</ele>
        <time>2017-09-02T13:58:46Z</time>
      </trkpt>
      <trkpt lat="45.08759" lon="2.725">
        <ele>1416</ele>
        <time>2017-09-02T13:58:49Z</time>
      </trkpt>
      <trkpt lat="45.08758" lon="2.72507">
        <ele>1416</ele>
        <time>2017-09-02T13:58:54Z</time>
      </trkpt>
      <trkpt lat="45.08758" lon="2.72513">
        <ele>1415</ele>
        <time>2017-09-02T13:58:58Z</time>
      </trkpt>
      <trkpt lat="45.08758" lon="2.7252">
        <ele>1415</ele>
        <time>2017-09-02T13:59:02Z</time>
      </trkpt>
      <trkpt lat="45.08758" lon="2.72527">
        <ele>1415</ele>
        <time>2017-09-02T13:59:06Z</time>
      </trkpt>
      <trkpt lat="45.08757" lon="2.72535">
        <ele>1414</ele>
        <time>2017-09-02T13:59:10Z</time>
      </trkpt>
      <trkpt lat="45.08756" lon="2.72542">
        <ele>1414</ele>
        <time>2017-09-02T13:59:14Z</time>
      </trkpt>
      <trkpt lat="45.08754" lon="2.72551">
        <ele>1413</ele>
        <time>2017-09-02T13:59:19Z</time>
      </trkpt>
      <trkpt lat="45.0875" lon="2.72554">
        <ele>1413</ele>
        <time>2017-09-02T13:59:24Z</time>
      </trkpt>
      <trkpt lat="45.08747" lon="2.72558">
        <ele>1413</ele>
        <time>2017-09-02T13:59:29Z</time>
      </trkpt>
      <trkpt lat="45.08743" lon="2.72562">
        <ele>1412</ele>
        <time>2017-09-02T13:59:34Z</time>
      </trkpt>
      <trkpt lat="45.08739" lon="2.72566">
        <ele>1411</ele>
        <time>2017-09-02T13:59:39Z</time>
      </trkpt>
      <trkpt lat="45.08733" lon="2.72569">
        <ele>1410</ele>
        <time>2017-09-02T13:59:45Z</time>
      </trkpt>
      <trkpt lat="45.08729" lon="2.72572">
        <ele>1409</ele>
        <time>2017-09-02T13:59:51Z</time>
      </trkpt>
      <trkpt lat="45.08724" lon="2.72575">
        <ele>1407</ele>
        <time>2017-09-02T13:59:56Z</time>
      </trkpt>
      <trkpt lat="45.0872" lon="2.72578">
        <ele>1406</ele>
        <time>2017-09-02T14:00:00Z</time>
      </trkpt>
      <trkpt lat="45.08715" lon="2.72581">
        <ele>1405</ele>
        <time>2017-09-02T14:00:04Z</time>
      </trkpt>
      <trkpt lat="45.08711" lon="2.72586">
        <ele>1403</ele>
        <time>2017-09-02T14:00:08Z</time>
      </trkpt>
      <trkpt lat="45.08709" lon="2.72592">
        <ele>1402</ele>
        <time>2017-09-02T14:00:13Z</time>
      </trkpt>
      <trkpt lat="45.08708" lon="2.72599">
        <ele>1401</ele>
        <time>2017-09-02T14:00:17Z</time>
      </trkpt>
      <trkpt lat="45.08706" lon="2.72606">
        <ele>1400</ele>
        <time>2017-09-02T14:00:23Z</time>
      </trkpt>
      <trkpt lat="45.08703" lon="2.72612">
        <ele>1399</ele>
        <time>2017-09-02T14:00:27Z</time>
      </trkpt>
      <trkpt lat="45.08701" lon="2.72618">
        <ele>1398</ele>
        <time>2017-09-02T14:00:31Z</time>
      </trkpt>
      <trkpt lat="45.08699" lon="2.72625">
        <ele>1397</ele>
        <time>2017-09-02T14:00:36Z</time>
      </trkpt>
      <trkpt lat="45.08698" lon="2.72631">
        <ele>1396</ele>
        <time>2017-09-02T14:00:40Z</time>
      </trkpt>
      <trkpt lat="45.08694" lon="2.72638">
        <ele>1395</ele>
        <time>2017-09-02T14:00:44Z</time>
      </trkpt>
      <trkpt lat="45.08693" lon="2.72645">
        <ele>1394</ele>
        <time>2017-09-02T14:00:48Z</time>
      </trkpt>
      <trkpt lat="45.08691" lon="2.72652">
        <ele>1393</ele>
        <time>2017-09-02T14:00:53Z</time>
      </trkpt>
      <trkpt lat="45.08689" lon="2.72659">
        <ele>1392</ele>
        <time>2017-09-02T14:00:59Z</time>
      </trkpt>
      <trkpt lat="45.08688" lon="2.72666">
        <ele>1391</ele>
        <time>2017-09-02T14:01:02Z</time>
      </trkpt>
      <trkpt lat="45.08685" lon="2.72672">
        <ele>1390</ele>
        <time>2017-09-02T14:01:06Z</time>
      </trkpt>
      <trkpt lat="45.08683" lon="2.72678">
        <ele>1390</ele>
        <time>2017-09-02T14:01:09Z</time>
      </trkpt>
      <trkpt lat="45.08682" lon="2.72686">
        <ele>1389</ele>
        <time>2017-09-02T14:01:13Z</time>
      </trkpt>
      <trkpt lat="45.08682" lon="2.72694">
        <ele>1388</ele>
        <time>2017-09-02T14:01:17Z</time>
      </trkpt>
      <trkpt lat="45.08682" lon="2.727">
        <ele>1387</ele>
        <time>2017-09-02T14:01:20Z</time>
      </trkpt>
      <trkpt lat="45.08681" lon="2.72708">
        <ele>1386</ele>
        <time>2017-09-02T14:01:25Z</time>
      </trkpt>
      <trkpt lat="45.08681" lon="2.72716">
        <ele>1386</ele>
        <time>2017-09-02T14:01:29Z</time>
      </trkpt>
      <trkpt lat="45.08682" lon="2.72724">
        <ele>1385</ele>
        <time>2017-09-02T14:01:33Z</time>
      </trkpt>
      <trkpt lat="45.08683" lon="2.72731">
        <ele>1385</ele>
        <time>2017-09-02T14:01:37Z</time>
      </trkpt>
      <trkpt lat="45.08683" lon="2.72737">
        <ele>1384</ele>
        <time>2017-09-02T14:01:41Z</time>
      </trkpt>
      <trkpt lat="45.08682" lon="2.72744">
        <ele>1384</ele>
        <time>2017-09-02T14:01:45Z</time>
      </trkpt>
      <trkpt lat="45.0868" lon="2.7275">
        <ele>1383</ele>
        <time>2017-09-02T14:01:49Z</time>
      </trkpt>
      <trkpt lat="45.08681" lon="2.72757">
        <ele>1383</ele>
        <time>2017-09-02T14:01:53Z</time>
      </trkpt>
      <trkpt lat="45.08682" lon="2.72763">
        <ele>1383</ele>
        <time>2017-09-02T14:01:57Z</time>
      </trkpt>
      <trkpt lat="45.08682" lon="2.7277">
        <ele>1382</ele>
        <time>2017-09-02T14:02:01Z</time>
      </trkpt>
      <trkpt lat="45.08681" lon="2.72776">
        <ele>1382</ele>
        <time>2017-09-02T14:02:04Z</time>
      </trkpt>
      <trkpt lat="45.08683" lon="2.72783">
        <ele>1381</ele>
        <time>2017-09-02T14:02:09Z</time>
      </trkpt>
      <trkpt lat="45.08683" lon="2.7279">
        <ele>1381</ele>
        <time>2017-09-02T14:02:12Z</time>
      </trkpt>
      <trkpt lat="45.08684" lon="2.72796">
        <ele>1381</ele>
        <time>2017-09-02T14:02:16Z</time>
      </trkpt>
      <trkpt lat="45.08686" lon="2.72803">
        <ele>1380</ele>
        <time>2017-09-02T14:02:20Z</time>
      </trkpt>
      <trkpt lat="45.08687" lon="2.7281">
        <ele>1379</ele>
        <time>2017-09-02T14:02:24Z</time>
      </trkpt>
      <trkpt lat="45.08689" lon="2.72817">
        <ele>1378</ele>
        <time>2017-09-02T14:02:31Z</time>
      </trkpt>
      <trkpt lat="45.0869" lon="2.72823">
        <ele>1377</ele>
        <time>2017-09-02T14:02:36Z</time>
      </trkpt>
      <trkpt lat="45.08692" lon="2.72829">
        <ele>1376</ele>
        <time>2017-09-02T14:02:40Z</time>
      </trkpt>
      <trkpt lat="45.08694" lon="2.72836">
        <ele>1375</ele>
        <time>2017-09-02T14:02:44Z</time>
      </trkpt>
      <trkpt lat="45.08696" lon="2.72843">
        <ele>1374</ele>
        <time>2017-09-02T14:02:48Z</time>
      </trkpt>
      <trkpt lat="45.08698" lon="2.72851">
        <ele>1373</ele>
        <time>2017-09-02T14:02:53Z</time>
      </trkpt>
      <trkpt lat="45.08699" lon="2.72858">
        <ele>1372</ele>
        <time>2017-09-02T14:02:59Z</time>
      </trkpt>
      <trkpt lat="45.08698" lon="2.72866">
        <ele>1372</ele>
        <time>2017-09-02T14:03:03Z</time>
      </trkpt>
      <trkpt lat="45.08698" lon="2.72873">
        <ele>1371</ele>
        <time>2017-09-02T14:03:06Z</time>
      </trkpt>
      <trkpt lat="45.08699" lon="2.72881">
        <ele>1370</ele>
        <time>2017-09-02T14:03:10Z</time>
      </trkpt>
      <trkpt lat="45.087" lon="2.72888">
        <ele>1370</ele>
        <time>2017-09-02T14:03:15Z</time>
      </trkpt>
      <trkpt lat="45.08702" lon="2.72895">
        <ele>1369</ele>
        <time>2017-09-02T14:03:18Z</time>
      </trkpt>
      <trkpt lat="45.08701" lon="2.72904">
        <ele>1369</ele>
        <time>2017-09-02T14:03:22Z</time>
      </trkpt>
      <trkpt lat="45.08701" lon="2.72911">
        <ele>1368</ele>
        <time>2017-09-02T14:03:26Z</time>
      </trkpt>
      <trkpt lat="45.08702" lon="2.72918">
        <ele>1367</ele>
        <time>2017-09-02T14:03:30Z</time>
      </trkpt>
      <trkpt lat="45.08701" lon="2.72927">
        <ele>1366</ele>
        <time>2017-09-02T14:03:35Z</time>
      </trkpt>
      <trkpt lat="45.08701" lon="2.72933">
        <ele>1366</ele>
        <time>2017-09-02T14:03:38Z</time>
      </trkpt>
      <trkpt lat="45.08702" lon="2.72941">
        <ele>1365</ele>
        <time>2017-09-02T14:03:42Z</time>
      </trkpt>
      <trkpt lat="45.08702" lon="2.72948">
        <ele>1364</ele>
        <time>2017-09-02T14:03:46Z</time>
      </trkpt>
      <trkpt lat="45.08702" lon="2.72956">
        <ele>1363</ele>
        <time>2017-09-02T14:03:49Z</time>
      </trkpt>
      <trkpt lat="45.08703" lon="2.72963">
        <ele>1363</ele>
        <time>2017-09-02T14:03:53Z</time>
      </trkpt>
      <trkpt lat="45.08703" lon="2.7297">
        <ele>1362</ele>
        <time>2017-09-02T14:03:57Z</time>
      </trkpt>
      <trkpt lat="45.08704" lon="2.72977">
        <ele>1362</ele>
        <time>2017-09-02T14:04:01Z</time>
      </trkpt>
      <trkpt lat="45.08704" lon="2.72985">
        <ele>1361</ele>
        <time>2017-09-02T14:04:04Z</time>
      </trkpt>
      <trkpt lat="45.08704" lon="2.72992">
        <ele>1361</ele>
        <time>2017-09-02T14:04:08Z</time>
      </trkpt>
      <trkpt lat="45.08701" lon="2.72999">
        <ele>1361</ele>
        <time>2017-09-02T14:04:13Z</time>
      </trkpt>
      <trkpt lat="45.08699" lon="2.73005">
        <ele>1360</ele>
        <time>2017-09-02T14:04:17Z</time>
      </trkpt>
      <trkpt lat="45.08697" lon="2.73012">
        <ele>1360</ele>
        <time>2017-09-02T14:04:21Z</time>
      </trkpt>
      <trkpt lat="45.08693" lon="2.73016">
        <ele>1359</ele>
        <time>2017-09-02T14:04:25Z</time>
      </trkpt>
      <trkpt lat="45.08691" lon="2.73023">
        <ele>1359</ele>
        <time>2017-09-02T14:04:28Z</time>
      </trkpt>
      <trkpt lat="45.0869" lon="2.7303">
        <ele>1358</ele>
        <time>2017-09-02T14:04:32Z</time>
      </trkpt>
      <trkpt lat="45.08688" lon="2.73037">
        <ele>1357</ele>
        <time>2017-09-02T14:04:35Z</time>
      </trkpt>
      <trkpt lat="45.08686" lon="2.73044">
        <ele>1356</ele>
        <time>2017-09-02T14:04:39Z</time>
      </trkpt>
      <trkpt lat="45.08686" lon="2.73051">
        <ele>1355</ele>
        <time>2017-09-02T14:04:43Z</time>
      </trkpt>
      <trkpt lat="45.08685" lon="2.73058">
        <ele>1355</ele>
        <time>2017-09-02T14:04:47Z</time>
      </trkpt>
      <trkpt lat="45.08683" lon="2.73064">
        <ele>1354</ele>
        <time>2017-09-02T14:04:50Z</time>
      </trkpt>
      <trkpt lat="45.08682" lon="2.7307">
        <ele>1354</ele>
        <time>2017-09-02T14:04:53Z</time>
      </trkpt>
      <trkpt lat="45.08678" lon="2.73076">
        <ele>1354</ele>
        <time>2017-09-02T14:04:57Z</time>
      </trkpt>
      <trkpt lat="45.08675" lon="2.73081">
        <ele>1354</ele>
        <time>2017-09-02T14:05:02Z</time>
      </trkpt>
      <trkpt lat="45.08673" lon="2.73086">
        <ele>1353</ele>
        <time>2017-09-02T14:05:06Z</time>
      </trkpt>
      <trkpt lat="45.0867" lon="2.73091">
        <ele>1353</ele>
        <time>2017-09-02T14:05:09Z</time>
      </trkpt>
      <trkpt lat="45.08668" lon="2.73098">
        <ele>1352</ele>
        <time>2017-09-02T14:05:12Z</time>
      </trkpt>
      <trkpt lat="45.08665" lon="2.73103">
        <ele>1352</ele>
        <time>2017-09-02T14:05:16Z</time>
      </trkpt>
      <trkpt lat="45.08664" lon="2.73109">
        <ele>1351</ele>
        <time>2017-09-02T14:05:19Z</time>
      </trkpt>
      <trkpt lat="45.08662" lon="2.73116">
        <ele>1351</ele>
        <time>2017-09-02T14:05:22Z</time>
      </trkpt>
      <trkpt lat="45.0866" lon="2.73123">
        <ele>1350</ele>
        <time>2017-09-02T14:05:27Z</time>
      </trkpt>
      <trkpt lat="45.08659" lon="2.7313">
        <ele>1350</ele>
        <time>2017-09-02T14:05:31Z</time>
      </trkpt>
      <trkpt lat="45.08656" lon="2.73136">
        <ele>1349</ele>
        <time>2017-09-02T14:05:36Z</time>
      </trkpt>
      <trkpt lat="45.08654" lon="2.73143">
        <ele>1348</ele>
        <time>2017-09-02T14:05:41Z</time>
      </trkpt>
      <trkpt lat="45.08653" lon="2.7315">
        <ele>1348</ele>
        <time>2017-09-02T14:05:46Z</time>
      </trkpt>
      <trkpt lat="45.08653" lon="2.73158">
        <ele>1347</ele>
        <time>2017-09-02T14:05:51Z</time>
      </trkpt>
      <trkpt lat="45.08651" lon="2.73164">
        <ele>1347</ele>
        <time>2017-09-02T14:05:55Z</time>
      </trkpt>
      <trkpt lat="45.08648" lon="2.7317">
        <ele>1346</ele>
        <time>2017-09-02T14:06:00Z</time>
      </trkpt>
      <trkpt lat="45.08645" lon="2.73176">
        <ele>1345</ele>
        <time>2017-09-02T14:06:04Z</time>
      </trkpt>
      <trkpt lat="45.08641" lon="2.7318">
        <ele>1343</ele>
        <time>2017-09-02T14:06:10Z</time>
      </trkpt>
      <trkpt lat="45.08637" lon="2.73185">
        <ele>1342</ele>
        <time>2017-09-02T14:06:15Z</time>
      </trkpt>
      <trkpt lat="45.08633" lon="2.7319">
        <ele>1340</ele>
        <time>2017-09-02T14:06:20Z</time>
      </trkpt>
      <trkpt lat="45.08629" lon="2.73194">
        <ele>1339</ele>
        <time>2017-09-02T14:06:24Z</time>
      </trkpt>
      <trkpt lat="45.08626" lon="2.732">
        <ele>1337</ele>
        <time>2017-09-02T14:06:29Z</time>
      </trkpt>
      <trkpt lat="45.08623" lon="2.73207">
        <ele>1336</ele>
        <time>2017-09-02T14:06:34Z</time>
      </trkpt>
      <trkpt lat="45.0862" lon="2.73212">
        <ele>1335</ele>
        <time>2017-09-02T14:06:39Z</time>
      </trkpt>
      <trkpt lat="45.08616" lon="2.73216">
        <ele>1334</ele>
        <time>2017-09-02T14:06:43Z</time>
      </trkpt>
      <trkpt lat="45.08615" lon="2.73223">
        <ele>1332</ele>
        <time>2017-09-02T14:06:47Z</time>
      </trkpt>
      <trkpt lat="45.08613" lon="2.73229">
        <ele>1331</ele>
        <time>2017-09-02T14:06:52Z</time>
      </trkpt>
      <trkpt lat="45.08611" lon="2.73235">
        <ele>1330</ele>
        <time>2017-09-02T14:06:56Z</time>
      </trkpt>
      <trkpt lat="45.08607" lon="2.73239">
        <ele>1328</ele>
        <time>2017-09-02T14:07:02Z</time>
      </trkpt>
      <trkpt lat="45.08603" lon="2.73242">
        <ele>1326</ele>
        <time>2017-09-02T14:07:07Z</time>
      </trkpt>
      <trkpt lat="45.08601" lon="2.73248">
        <ele>1325</ele>
        <time>2017-09-02T14:07:10Z</time>
      </trkpt>
      <trkpt lat="45.08599" lon="2.73254">
        <ele>1323</ele>
        <time>2017-09-02T14:07:13Z</time>
      </trkpt>
      <trkpt lat="45.08599" lon="2.73261">
        <ele>1322</ele>
        <time>2017-09-02T14:07:17Z</time>
      </trkpt>
      <trkpt lat="45.08598" lon="2.73268">
        <ele>1321</ele>
        <time>2017-09-02T14:07:21Z</time>
      </trkpt>
      <trkpt lat="45.08597" lon="2.73276">
        <ele>1319</ele>
        <time>2017-09-02T14:07:26Z</time>
      </trkpt>
      <trkpt lat="45.08596" lon="2.73283">
        <ele>1318</ele>
        <time>2017-09-02T14:07:31Z</time>
      </trkpt>
      <trkpt lat="45.08595" lon="2.7329">
        <ele>1317</ele>
        <time>2017-09-02T14:07:35Z</time>
      </trkpt>
      <trkpt lat="45.08595" lon="2.73297">
        <ele>1315</ele>
        <time>2017-09-02T14:07:40Z</time>
      </trkpt>
      <trkpt lat="45.08593" lon="2.73304">
        <ele>1315</ele>
        <time>2017-09-02T14:07:44Z</time>
      </trkpt>
      <trkpt lat="45.0859" lon="2.73311">
        <ele>1314</ele>
        <time>2017-09-02T14:07:52Z</time>
      </trkpt>
      <trkpt lat="45.08588" lon="2.73317">
        <ele>1313</ele>
        <time>2017-09-02T14:07:55Z</time>
      </trkpt>
      <trkpt lat="45.08586" lon="2.73324">
        <ele>1312</ele>
        <time>2017-09-02T14:07:58Z</time>
      </trkpt>
      <trkpt lat="45.08584" lon="2.73329">
        <ele>1311</ele>
        <time>2017-09-02T14:08:02Z</time>
      </trkpt>
      <trkpt lat="45.08581" lon="2.73334">
        <ele>1310</ele>
        <time>2017-09-02T14:08:05Z</time>
      </trkpt>
      <trkpt lat="45.08577" lon="2.73339">
        <ele>1309</ele>
        <time>2017-09-02T14:08:08Z</time>
      </trkpt>
      <trkpt lat="45.08575" lon="2.73344">
        <ele>1308</ele>
        <time>2017-09-02T14:08:12Z</time>
      </trkpt>
      <trkpt lat="45.08572" lon="2.7335">
        <ele>1307</ele>
        <time>2017-09-02T14:08:16Z</time>
      </trkpt>
      <trkpt lat="45.08568" lon="2.73356">
        <ele>1306</ele>
        <time>2017-09-02T14:08:21Z</time>
      </trkpt>
      <trkpt lat="45.08566" lon="2.73363">
        <ele>1305</ele>
        <time>2017-09-02T14:08:24Z</time>
      </trkpt>
      <trkpt lat="45.08564" lon="2.73371">
        <ele>1305</ele>
        <time>2017-09-02T14:08:28Z</time>
      </trkpt>
      <trkpt lat="45.08563" lon="2.73377">
        <ele>1304</ele>
        <time>2017-09-02T14:08:31Z</time>
      </trkpt>
      <trkpt lat="45.08562" lon="2.73384">
        <ele>1303</ele>
        <time>2017-09-02T14:08:35Z</time>
      </trkpt>
      <trkpt lat="45.0856" lon="2.73391">
        <ele>1302</ele>
        <time>2017-09-02T14:08:40Z</time>
      </trkpt>
      <trkpt lat="45.08558" lon="2.73397">
        <ele>1301</ele>
        <time>2017-09-02T14:08:43Z</time>
      </trkpt>
      <trkpt lat="45.08555" lon="2.73403">
        <ele>1300</ele>
        <time>2017-09-02T14:08:46Z</time>
      </trkpt>
      <trkpt lat="45.08553" lon="2.7341">
        <ele>1298</ele>
        <time>2017-09-02T14:08:50Z</time>
      </trkpt>
      <trkpt lat="45.08551" lon="2.73416">
        <ele>1297</ele>
        <time>2017-09-02T14:08:53Z</time>
      </trkpt>
      <trkpt lat="45.08549" lon="2.73422">
        <ele>1297</ele>
        <time>2017-09-02T14:08:57Z</time>
      </trkpt>
      <trkpt lat="45.08545" lon="2.73429">
        <ele>1296</ele>
        <time>2017-09-02T14:09:01Z</time>
      </trkpt>
      <trkpt lat="45.08543" lon="2.73435">
        <ele>1295</ele>
        <time>2017-09-02T14:09:05Z</time>
      </trkpt>
      <trkpt lat="45.08542" lon="2.73443">
        <ele>1294</ele>
        <time>2017-09-02T14:09:09Z</time>
      </trkpt>
      <trkpt lat="45.0854" lon="2.73451">
        <ele>1293</ele>
        <time>2017-09-02T14:09:13Z</time>
      </trkpt>
      <trkpt lat="45.08538" lon="2.73457">
        <ele>1292</ele>
        <time>2017-09-02T14:09:16Z</time>
      </trkpt>
      <trkpt lat="45.08537" lon="2.73465">
        <ele>1292</ele>
        <time>2017-09-02T14:09:20Z</time>
      </trkpt>
      <trkpt lat="45.08536" lon="2.73473">
        <ele>1291</ele>
        <time>2017-09-02T14:09:24Z</time>
      </trkpt>
      <trkpt lat="45.08535" lon="2.73481">
        <ele>1291</ele>
        <time>2017-09-02T14:09:28Z</time>
      </trkpt>
      <trkpt lat="45.08535" lon="2.73488">
        <ele>1290</ele>
        <time>2017-09-02T14:09:32Z</time>
      </trkpt>
      <trkpt lat="45.08535" lon="2.73495">
        <ele>1289</ele>
        <time>2017-09-02T14:09:35Z</time>
      </trkpt>
      <trkpt lat="45.08535" lon="2.73502">
        <ele>1288</ele>
        <time>2017-09-02T14:09:39Z</time>
      </trkpt>
      <trkpt lat="45.08534" lon="2.73509">
        <ele>1287</ele>
        <time>2017-09-02T14:09:43Z</time>
      </trkpt>
      <trkpt lat="45.08532" lon="2.73516">
        <ele>1287</ele>
        <time>2017-09-02T14:09:47Z</time>
      </trkpt>
      <trkpt lat="45.0853" lon="2.73522">
        <ele>1286</ele>
        <time>2017-09-02T14:09:50Z</time>
      </trkpt>
      <trkpt lat="45.08529" lon="2.73529">
        <ele>1286</ele>
        <time>2017-09-02T14:09:53Z</time>
      </trkpt>
      <trkpt lat="45.08527" lon="2.73536">
        <ele>1286</ele>
        <time>2017-09-02T14:09:57Z</time>
      </trkpt>
      <trkpt lat="45.08525" lon="2.73543">
        <ele>1286</ele>
        <time>2017-09-02T14:10:01Z</time>
      </trkpt>
      <trkpt lat="45.08522" lon="2.73549">
        <ele>1286</ele>
        <time>2017-09-02T14:10:04Z</time>
      </trkpt>
      <trkpt lat="45.0852" lon="2.73555">
        <ele>1286</ele>
        <time>2017-09-02T14:10:07Z</time>
      </trkpt>
      <trkpt lat="45.08518" lon="2.73561">
        <ele>1286</ele>
        <time>2017-09-02T14:10:10Z</time>
      </trkpt>
      <trkpt lat="45.08515" lon="2.73568">
        <ele>1285</ele>
        <time>2017-09-02T14:10:14Z</time>
      </trkpt>
      <trkpt lat="45.08513" lon="2.73574">
        <ele>1285</ele>
        <time>2017-09-02T14:10:17Z</time>
      </trkpt>
      <trkpt lat="45.0851" lon="2.73579">
        <ele>1284</ele>
        <time>2017-09-02T14:10:20Z</time>
      </trkpt>
      <trkpt lat="45.08508" lon="2.73586">
        <ele>1284</ele>
        <time>2017-09-02T14:10:24Z</time>
      </trkpt>
      <trkpt lat="45.08507" lon="2.73593">
        <ele>1283</ele>
        <time>2017-09-02T14:10:28Z</time>
      </trkpt>
      <trkpt lat="45.08506" lon="2.736">
        <ele>1282</ele>
        <time>2017-09-02T14:10:31Z</time>
      </trkpt>
      <trkpt lat="45.08505" lon="2.73607">
        <ele>1282</ele>
        <time>2017-09-02T14:10:34Z</time>
      </trkpt>
      <trkpt lat="45.08507" lon="2.73613">
        <ele>1281</ele>
        <time>2017-09-02T14:10:37Z</time>
      </trkpt>
      <trkpt lat="45.08509" lon="2.7362">
        <ele>1281</ele>
        <time>2017-09-02T14:10:40Z</time>
      </trkpt>
      <trkpt lat="45.08511" lon="2.73627">
        <ele>1280</ele>
        <time>2017-09-02T14:10:44Z</time>
      </trkpt>
      <trkpt lat="45.08515" lon="2.73634">
        <ele>1280</ele>
        <time>2017-09-02T14:10:47Z</time>
      </trkpt>
      <trkpt lat="45.08516" lon="2.73641">
        <ele>1280</ele>
        <time>2017-09-02T14:10:50Z</time>
      </trkpt>
      <trkpt lat="45.08516" lon="2.73648">
        <ele>1280</ele>
        <time>2017-09-02T14:10:54Z</time>
      </trkpt>
      <trkpt lat="45.08518" lon="2.73654">
        <ele>1280</ele>
        <time>2017-09-02T14:10:58Z</time>
      </trkpt>
      <trkpt lat="45.08521" lon="2.7366">
        <ele>1280</ele>
        <time>2017-09-02T14:11:01Z</time>
      </trkpt>
      <trkpt lat="45.08524" lon="2.73667">
        <ele>1280</ele>
        <time>2017-09-02T14:11:05Z</time>
      </trkpt>
      <trkpt lat="45.08527" lon="2.73672">
        <ele>1279</ele>
        <time>2017-09-02T14:11:10Z</time>
      </trkpt>
      <trkpt lat="45.0853" lon="2.73677">
        <ele>1278</ele>
        <time>2017-09-02T14:11:13Z</time>
      </trkpt>
      <trkpt lat="45.08533" lon="2.73683">
        <ele>1277</ele>
        <time>2017-09-02T14:11:16Z</time>
      </trkpt>
      <trkpt lat="45.08535" lon="2.7369">
        <ele>1277</ele>
        <time>2017-09-02T14:11:19Z</time>
      </trkpt>
      <trkpt lat="45.08537" lon="2.73697">
        <ele>1276</ele>
        <time>2017-09-02T14:11:23Z</time>
      </trkpt>
      <trkpt lat="45.08537" lon="2.73705">
        <ele>1276</ele>
        <time>2017-09-02T14:11:27Z</time>
      </trkpt>
      <trkpt lat="45.08537" lon="2.73712">
        <ele>1276</ele>
        <time>2017-09-02T14:11:31Z</time>
      </trkpt>
      <trkpt lat="45.08538" lon="2.7372">
        <ele>1276</ele>
        <time>2017-09-02T14:11:35Z</time>
      </trkpt>
      <trkpt lat="45.08537" lon="2.73728">
        <ele>1276</ele>
        <time>2017-09-02T14:11:40Z</time>
      </trkpt>
      <trkpt lat="45.08536" lon="2.73736">
        <ele>1276</ele>
        <time>2017-09-02T14:11:44Z</time>
      </trkpt>
      <trkpt lat="45.08536" lon="2.73743">
        <ele>1276</ele>
        <time>2017-09-02T14:11:47Z</time>
      </trkpt>
      <trkpt lat="45.08537" lon="2.7375">
        <ele>1276</ele>
        <time>2017-09-02T14:11:50Z</time>
      </trkpt>
      <trkpt lat="45.08538" lon="2.73757">
        <ele>1275</ele>
        <time>2017-09-02T14:11:53Z</time>
      </trkpt>
      <trkpt lat="45.08538" lon="2.73765">
        <ele>1275</ele>
        <time>2017-09-02T14:11:57Z</time>
      </trkpt>
      <trkpt lat="45.08539" lon="2.73771">
        <ele>1275</ele>
        <time>2017-09-02T14:12:00Z</time>
      </trkpt>
      <trkpt lat="45.08539" lon="2.73779">
        <ele>1275</ele>
        <time>2017-09-02T14:12:05Z</time>
      </trkpt>
      <trkpt lat="45.08539" lon="2.73785">
        <ele>1275</ele>
        <time>2017-09-02T14:12:08Z</time>
      </trkpt>
      <trkpt lat="45.08538" lon="2.73792">
        <ele>1275</ele>
        <time>2017-09-02T14:12:12Z</time>
      </trkpt>
      <trkpt lat="45.08539" lon="2.73799">
        <ele>1275</ele>
        <time>2017-09-02T14:12:15Z</time>
      </trkpt>
      <trkpt lat="45.08536" lon="2.73805">
        <ele>1274</ele>
        <time>2017-09-02T14:12:19Z</time>
      </trkpt>
      <trkpt lat="45.08536" lon="2.73812">
        <ele>1274</ele>
        <time>2017-09-02T14:12:23Z</time>
      </trkpt>
      <trkpt lat="45.08538" lon="2.73819">
        <ele>1274</ele>
        <time>2017-09-02T14:12:27Z</time>
      </trkpt>
      <trkpt lat="45.0854" lon="2.73826">
        <ele>1274</ele>
        <time>2017-09-02T14:12:31Z</time>
      </trkpt>
      <trkpt lat="45.08544" lon="2.73833">
        <ele>1274</ele>
        <time>2017-09-02T14:12:35Z</time>
      </trkpt>
      <trkpt lat="45.08548" lon="2.73837">
        <ele>1274</ele>
        <time>2017-09-02T14:12:38Z</time>
      </trkpt>
      <trkpt lat="45.08551" lon="2.73843">
        <ele>1273</ele>
        <time>2017-09-02T14:12:41Z</time>
      </trkpt>
      <trkpt lat="45.08554" lon="2.7385">
        <ele>1273</ele>
        <time>2017-09-02T14:12:46Z</time>
      </trkpt>
      <trkpt lat="45.08556" lon="2.73855">
        <ele>1272</ele>
        <time>2017-09-02T14:12:50Z</time>
      </trkpt>
      <trkpt lat="45.0856" lon="2.7386">
        <ele>1271</ele>
        <time>2017-09-02T14:12:53Z</time>
      </trkpt>
      <trkpt lat="45.08561" lon="2.73866">
        <ele>1270</ele>
        <time>2017-09-02T14:12:56Z</time>
      </trkpt>
      <trkpt lat="45.08564" lon="2.73871">
        <ele>1269</ele>
        <time>2017-09-02T14:13:00Z</time>
      </trkpt>
      <trkpt lat="45.08567" lon="2.73877">
        <ele>1268</ele>
        <time>2017-09-02T14:13:05Z</time>
      </trkpt>
      <trkpt lat="45.08568" lon="2.73884">
        <ele>1267</ele>
        <time>2017-09-02T14:13:09Z</time>
      </trkpt>
      <trkpt lat="45.08567" lon="2.73891">
        <ele>1266</ele>
        <time>2017-09-02T14:13:13Z</time>
      </trkpt>
      <trkpt lat="45.08566" lon="2.739">
        <ele>1265</ele>
        <time>2017-09-02T14:13:18Z</time>
      </trkpt>
      <trkpt lat="45.08566" lon="2.73908">
        <ele>1264</ele>
        <time>2017-09-02T14:13:23Z</time>
      </trkpt>
      <trkpt lat="45.08566" lon="2.73915">
        <ele>1263</ele>
        <time>2017-09-02T14:13:27Z</time>
      </trkpt>
      <trkpt lat="45.08567" lon="2.73922">
        <ele>1263</ele>
        <time>2017-09-02T14:13:31Z</time>
      </trkpt>
      <trkpt lat="45.08567" lon="2.73928">
        <ele>1263</ele>
        <time>2017-09-02T14:13:35Z</time>
      </trkpt>
      <trkpt lat="45.08566" lon="2.73934">
        <ele>1262</ele>
        <time>2017-09-02T14:13:39Z</time>
      </trkpt>
      <trkpt lat="45.08564" lon="2.73941">
        <ele>1262</ele>
        <time>2017-09-02T14:13:43Z</time>
      </trkpt>
      <trkpt lat="45.08565" lon="2.73948">
        <ele>1262</ele>
        <time>2017-09-02T14:13:47Z</time>
      </trkpt>
      <trkpt lat="45.08566" lon="2.73954">
        <ele>1261</ele>
        <time>2017-09-02T14:13:50Z</time>
      </trkpt>
      <trkpt lat="45.08567" lon="2.73961">
        <ele>1260</ele>
        <time>2017-09-02T14:13:53Z</time>
      </trkpt>
      <trkpt lat="45.08569" lon="2.73967">
        <ele>1260</ele>
        <time>2017-09-02T14:13:58Z</time>
      </trkpt>
      <trkpt lat="45.08567" lon="2.73973">
        <ele>1260</ele>
        <time>2017-09-02T14:14:03Z</time>
      </trkpt>
      <trkpt lat="45.08567" lon="2.7398">
        <ele>1259</ele>
        <time>2017-09-02T14:14:06Z</time>
      </trkpt>
      <trkpt lat="45.08564" lon="2.73986">
        <ele>1259</ele>
        <time>2017-09-02T14:14:12Z</time>
      </trkpt>
      <trkpt lat="45.08561" lon="2.73992">
        <ele>1259</ele>
        <time>2017-09-02T14:14:24Z</time>
      </trkpt>
      <trkpt lat="45.08559" lon="2.73998">
        <ele>1259</ele>
        <time>2017-09-02T14:14:31Z</time>
      </trkpt>
      <trkpt lat="45.08556" lon="2.74003">
        <ele>1259</ele>
        <time>2017-09-02T14:14:38Z</time>
      </trkpt>
      <trkpt lat="45.08554" lon="2.7401">
        <ele>1258</ele>
        <time>2017-09-02T14:14:43Z</time>
      </trkpt>
      <trkpt lat="45.0855" lon="2.74015">
        <ele>1258</ele>
        <time>2017-09-02T14:14:47Z</time>
      </trkpt>
      <trkpt lat="45.08547" lon="2.74021">
        <ele>1258</ele>
        <time>2017-09-02T14:14:52Z</time>
      </trkpt>
      <trkpt lat="45.08546" lon="2.7403">
        <ele>1257</ele>
        <time>2017-09-02T14:14:57Z</time>
      </trkpt>
      <trkpt lat="45.08547" lon="2.74037">
        <ele>1257</ele>
        <time>2017-09-02T14:15:00Z</time>
      </trkpt>
      <trkpt lat="45.08549" lon="2.74044">
        <ele>1256</ele>
        <time>2017-09-02T14:15:03Z</time>
      </trkpt>
      <trkpt lat="45.08548" lon="2.74051">
        <ele>1256</ele>
        <time>2017-09-02T14:15:07Z</time>
      </trkpt>
      <trkpt lat="45.08546" lon="2.74058">
        <ele>1256</ele>
        <time>2017-09-02T14:15:12Z</time>
      </trkpt>
      <trkpt lat="45.08545" lon="2.74064">
        <ele>1255</ele>
        <time>2017-09-02T14:15:16Z</time>
      </trkpt>
      <trkpt lat="45.08546" lon="2.74071">
        <ele>1255</ele>
        <time>2017-09-02T14:15:20Z</time>
      </trkpt>
      <trkpt lat="45.08544" lon="2.74077">
        <ele>1255</ele>
        <time>2017-09-02T14:15:24Z</time>
      </trkpt>
      <trkpt lat="45.08546" lon="2.74084">
        <ele>1255</ele>
        <time>2017-09-02T14:15:27Z</time>
      </trkpt>
      <trkpt lat="45.08545" lon="2.74091">
        <ele>1255</ele>
        <time>2017-09-02T14:15:30Z</time>
      </trkpt>
      <trkpt lat="45.08542" lon="2.74098">
        <ele>1254</ele>
        <time>2017-09-02T14:15:35Z</time>
      </trkpt>
      <trkpt lat="45.08541" lon="2.74107">
        <ele>1254</ele>
        <time>2017-09-02T14:15:40Z</time>
      </trkpt>
      <trkpt lat="45.08542" lon="2.74114">
        <ele>1254</ele>
        <time>2017-09-02T14:15:43Z</time>
      </trkpt>
      <trkpt lat="45.08543" lon="2.74121">
        <ele>1254</ele>
        <time>2017-09-02T14:15:46Z</time>
      </trkpt>
      <trkpt lat="45.08543" lon="2.74128">
        <ele>1254</ele>
        <time>2017-09-02T14:15:51Z</time>
      </trkpt>
      <trkpt lat="45.08542" lon="2.74136">
        <ele>1254</ele>
        <time>2017-09-02T14:15:54Z</time>
      </trkpt>
      <trkpt lat="45.08539" lon="2.74142">
        <ele>1253</ele>
        <time>2017-09-02T14:15:57Z</time>
      </trkpt>
      <trkpt lat="45.08537" lon="2.74147">
        <ele>1253</ele>
        <time>2017-09-02T14:15:59Z</time>
      </trkpt>
      <trkpt lat="45.08539" lon="2.74154">
        <ele>1253</ele>
        <time>2017-09-02T14:16:03Z</time>
      </trkpt>
      <trkpt lat="45.0854" lon="2.74161">
        <ele>1253</ele>
        <time>2017-09-02T14:16:06Z</time>
      </trkpt>
      <trkpt lat="45.0854" lon="2.74168">
        <ele>1253</ele>
        <time>2017-09-02T14:16:10Z</time>
      </trkpt>
      <trkpt lat="45.08538" lon="2.74177">
        <ele>1253</ele>
        <time>2017-09-02T14:16:14Z</time>
      </trkpt>
      <trkpt lat="45.08538" lon="2.74184">
        <ele>1253</ele>
        <time>2017-09-02T14:16:17Z</time>
      </trkpt>
      <trkpt lat="45.08539" lon="2.7419">
        <ele>1253</ele>
        <time>2017-09-02T14:16:19Z</time>
      </trkpt>
      <trkpt lat="45.08539" lon="2.74199">
        <ele>1253</ele>
        <time>2017-09-02T14:16:23Z</time>
      </trkpt>
      <trkpt lat="45.08537" lon="2.74206">
        <ele>1253</ele>
        <time>2017-09-02T14:16:27Z</time>
      </trkpt>
      <trkpt lat="45.08536" lon="2.74212">
        <ele>1253</ele>
        <time>2017-09-02T14:16:30Z</time>
      </trkpt>
      <trkpt lat="45.08538" lon="2.74219">
        <ele>1253</ele>
        <time>2017-09-02T14:16:35Z</time>
      </trkpt>
      <trkpt lat="45.08537" lon="2.74226">
        <ele>1253</ele>
        <time>2017-09-02T14:16:40Z</time>
      </trkpt>
      <trkpt lat="45.08536" lon="2.74233">
        <ele>1254</ele>
        <time>2017-09-02T14:16:43Z</time>
      </trkpt>
      <trkpt lat="45.08532" lon="2.7424">
        <ele>1254</ele>
        <time>2017-09-02T14:16:46Z</time>
      </trkpt>
      <trkpt lat="45.08532" lon="2.74247">
        <ele>1255</ele>
        <time>2017-09-02T14:16:50Z</time>
      </trkpt>
      <trkpt lat="45.08533" lon="2.74254">
        <ele>1256</ele>
        <time>2017-09-02T14:16:53Z</time>
      </trkpt>
      <trkpt lat="45.0853" lon="2.7426">
        <ele>1256</ele>
        <time>2017-09-02T14:16:56Z</time>
      </trkpt>
      <trkpt lat="45.08526" lon="2.74265">
        <ele>1256</ele>
        <time>2017-09-02T14:17:00Z</time>
      </trkpt>
      <trkpt lat="45.08526" lon="2.74272">
        <ele>1257</ele>
        <time>2017-09-02T14:17:04Z</time>
      </trkpt>
      <trkpt lat="45.08523" lon="2.7428">
        <ele>1257</ele>
        <time>2017-09-02T14:17:07Z</time>
      </trkpt>
      <trkpt lat="45.08521" lon="2.74288">
        <ele>1258</ele>
        <time>2017-09-02T14:17:10Z</time>
      </trkpt>
      <trkpt lat="45.08523" lon="2.74295">
        <ele>1258</ele>
        <time>2017-09-02T14:17:14Z</time>
      </trkpt>
      <trkpt lat="45.08523" lon="2.74302">
        <ele>1258</ele>
        <time>2017-09-02T14:17:18Z</time>
      </trkpt>
      <trkpt lat="45.0852" lon="2.74308">
        <ele>1258</ele>
        <time>2017-09-02T14:17:22Z</time>
      </trkpt>
      <trkpt lat="45.08518" lon="2.74315">
        <ele>1258</ele>
        <time>2017-09-02T14:17:26Z</time>
      </trkpt>
      <trkpt lat="45.08516" lon="2.74323">
        <ele>1258</ele>
        <time>2017-09-02T14:17:30Z</time>
      </trkpt>
      <trkpt lat="45.08513" lon="2.74329">
        <ele>1258</ele>
        <time>2017-09-02T14:17:34Z</time>
      </trkpt>
      <trkpt lat="45.08512" lon="2.74336">
        <ele>1258</ele>
        <time>2017-09-02T14:17:38Z</time>
      </trkpt>
      <trkpt lat="45.08513" lon="2.74342">
        <ele>1258</ele>
        <time>2017-09-02T14:17:42Z</time>
      </trkpt>
      <trkpt lat="45.08511" lon="2.7435">
        <ele>1259</ele>
        <time>2017-09-02T14:17:45Z</time>
      </trkpt>
      <trkpt lat="45.08509" lon="2.74356">
        <ele>1259</ele>
        <time>2017-09-02T14:17:49Z</time>
      </trkpt>
      <trkpt lat="45.08506" lon="2.74362">
        <ele>1259</ele>
        <time>2017-09-02T14:17:54Z</time>
      </trkpt>
      <trkpt lat="45.08503" lon="2.74369">
        <ele>1259</ele>
        <time>2017-09-02T14:17:57Z</time>
      </trkpt>
      <trkpt lat="45.085" lon="2.74376">
        <ele>1259</ele>
        <time>2017-09-02T14:18:00Z</time>
      </trkpt>
      <trkpt lat="45.08501" lon="2.74382">
        <ele>1259</ele>
        <time>2017-09-02T14:18:04Z</time>
      </trkpt>
      <trkpt lat="45.08501" lon="2.7439">
        <ele>1259</ele>
        <time>2017-09-02T14:18:07Z</time>
      </trkpt>
      <trkpt lat="45.08501" lon="2.74396">
        <ele>1259</ele>
        <time>2017-09-02T14:18:10Z</time>
      </trkpt>
      <trkpt lat="45.08501" lon="2.74403">
        <ele>1259</ele>
        <time>2017-09-02T14:18:13Z</time>
      </trkpt>
      <trkpt lat="45.08502" lon="2.74411">
        <ele>1259</ele>
        <time>2017-09-02T14:18:18Z</time>
      </trkpt>
      <trkpt lat="45.08502" lon="2.7442">
        <ele>1259</ele>
        <time>2017-09-02T14:18:22Z</time>
      </trkpt>
      <trkpt lat="45.08501" lon="2.74427">
        <ele>1259</ele>
        <time>2017-09-02T14:18:25Z</time>
      </trkpt>
      <trkpt lat="45.08498" lon="2.74435">
        <ele>1258</ele>
        <time>2017-09-02T14:18:29Z</time>
      </trkpt>
      <trkpt lat="45.08496" lon="2.74442">
        <ele>1258</ele>
        <time>2017-09-02T14:18:32Z</time>
      </trkpt>
      <trkpt lat="45.08497" lon="2.7445">
        <ele>1258</ele>
        <time>2017-09-02T14:18:35Z</time>
      </trkpt>
      <trkpt lat="45.08498" lon="2.74457">
        <ele>1259</ele>
        <time>2017-09-02T14:18:38Z</time>
      </trkpt>
      <trkpt lat="45.08499" lon="2.74464">
        <ele>1259</ele>
        <time>2017-09-02T14:18:41Z</time>
      </trkpt>
      <trkpt lat="45.085" lon="2.74471">
        <ele>1259</ele>
        <time>2017-09-02T14:18:45Z</time>
      </trkpt>
      <trkpt lat="45.08498" lon="2.74477">
        <ele>1260</ele>
        <time>2017-09-02T14:18:48Z</time>
      </trkpt>
      <trkpt lat="45.08498" lon="2.74484">
        <ele>1260</ele>
        <time>2017-09-02T14:18:51Z</time>
      </trkpt>
      <trkpt lat="45.08497" lon="2.74492">
        <ele>1260</ele>
        <time>2017-09-02T14:18:54Z</time>
      </trkpt>
      <trkpt lat="45.08496" lon="2.74499">
        <ele>1261</ele>
        <time>2017-09-02T14:18:57Z</time>
      </trkpt>
      <trkpt lat="45.08498" lon="2.74505">
        <ele>1261</ele>
        <time>2017-09-02T14:19:02Z</time>
      </trkpt>
      <trkpt lat="45.08498" lon="2.74512">
        <ele>1261</ele>
        <time>2017-09-02T14:19:06Z</time>
      </trkpt>
      <trkpt lat="45.08498" lon="2.74519">
        <ele>1261</ele>
        <time>2017-09-02T14:19:09Z</time>
      </trkpt>
      <trkpt lat="45.085" lon="2.74526">
        <ele>1261</ele>
        <time>2017-09-02T14:19:13Z</time>
      </trkpt>
      <trkpt lat="45.08503" lon="2.74533">
        <ele>1261</ele>
        <time>2017-09-02T14:19:16Z</time>
      </trkpt>
      <trkpt lat="45.08504" lon="2.7454">
        <ele>1261</ele>
        <time>2017-09-02T14:19:19Z</time>
      </trkpt>
      <trkpt lat="45.08503" lon="2.74546">
        <ele>1261</ele>
        <time>2017-09-02T14:19:22Z</time>
      </trkpt>
      <trkpt lat="45.08504" lon="2.74553">
        <ele>1261</ele>
        <time>2017-09-02T14:19:26Z</time>
      </trkpt>
      <trkpt lat="45.08504" lon="2.74561">
        <ele>1261</ele>
        <time>2017-09-02T14:19:30Z</time>
      </trkpt>
      <trkpt lat="45.08505" lon="2.74568">
        <ele>1262</ele>
        <time>2017-09-02T14:19:34Z</time>
      </trkpt>
      <trkpt lat="45.08506" lon="2.74574">
        <ele>1262</ele>
        <time>2017-09-02T14:19:38Z</time>
      </trkpt>
      <trkpt lat="45.08506" lon="2.74581">
        <ele>1262</ele>
        <time>2017-09-02T14:19:42Z</time>
      </trkpt>
      <trkpt lat="45.08505" lon="2.74589">
        <ele>1262</ele>
        <time>2017-09-02T14:19:47Z</time>
      </trkpt>
      <trkpt lat="45.08503" lon="2.74595">
        <ele>1263</ele>
        <time>2017-09-02T14:19:51Z</time>
      </trkpt>
      <trkpt lat="45.08502" lon="2.74601">
        <ele>1263</ele>
        <time>2017-09-02T14:19:56Z</time>
      </trkpt>
      <trkpt lat="45.08495" lon="2.74605">
        <ele>1263</ele>
        <time>2017-09-02T14:20:00Z</time>
      </trkpt>
      <trkpt lat="45.0849" lon="2.7461">
        <ele>1264</ele>
        <time>2017-09-02T14:20:06Z</time>
      </trkpt>
      <trkpt lat="45.08488" lon="2.74615">
        <ele>1264</ele>
        <time>2017-09-02T14:20:09Z</time>
      </trkpt>
      <trkpt lat="45.08486" lon="2.74621">
        <ele>1264</ele>
        <time>2017-09-02T14:20:12Z</time>
      </trkpt>
      <trkpt lat="45.08482" lon="2.74627">
        <ele>1265</ele>
        <time>2017-09-02T14:20:15Z</time>
      </trkpt>
      <trkpt lat="45.08479" lon="2.74632">
        <ele>1265</ele>
        <time>2017-09-02T14:20:19Z</time>
      </trkpt>
      <trkpt lat="45.08473" lon="2.74633">
        <ele>1265</ele>
        <time>2017-09-02T14:20:24Z</time>
      </trkpt>
      <trkpt lat="45.08468" lon="2.74629">
        <ele>1266</ele>
        <time>2017-09-02T14:20:29Z</time>
      </trkpt>
      <trkpt lat="45.08463" lon="2.74628">
        <ele>1267</ele>
        <time>2017-09-02T14:20:34Z</time>
      </trkpt>
      <trkpt lat="45.08458" lon="2.74627">
        <ele>1269</ele>
        <time>2017-09-02T14:20:41Z</time>
      </trkpt>
      <trkpt lat="45.08453" lon="2.74626">
        <ele>1269</ele>
        <time>2017-09-02T14:20:45Z</time>
      </trkpt>
      <trkpt lat="45.08447" lon="2.74626">
        <ele>1270</ele>
        <time>2017-09-02T14:20:49Z</time>
      </trkpt>
      <trkpt lat="45.08442" lon="2.74625">
        <ele>1271</ele>
        <time>2017-09-02T14:20:54Z</time>
      </trkpt>
      <trkpt lat="45.08437" lon="2.74622">
        <ele>1272</ele>
        <time>2017-09-02T14:20:58Z</time>
      </trkpt>
      <trkpt lat="45.08432" lon="2.74622">
        <ele>1272</ele>
        <time>2017-09-02T14:21:01Z</time>
      </trkpt>
      <trkpt lat="45.08427" lon="2.74622">
        <ele>1273</ele>
        <time>2017-09-02T14:21:05Z</time>
      </trkpt>
      <trkpt lat="45.08423" lon="2.74622">
        <ele>1273</ele>
        <time>2017-09-02T14:21:08Z</time>
      </trkpt>
      <trkpt lat="45.08417" lon="2.74617">
        <ele>1274</ele>
        <time>2017-09-02T14:21:12Z</time>
      </trkpt>
      <trkpt lat="45.08412" lon="2.74616">
        <ele>1273</ele>
        <time>2017-09-02T14:21:15Z</time>
      </trkpt>
      <trkpt lat="45.08406" lon="2.74614">
        <ele>1273</ele>
        <time>2017-09-02T14:21:18Z</time>
      </trkpt>
      <trkpt lat="45.08401" lon="2.74611">
        <ele>1273</ele>
        <time>2017-09-02T14:21:22Z</time>
      </trkpt>
      <trkpt lat="45.08397" lon="2.74607">
        <ele>1273</ele>
        <time>2017-09-02T14:21:27Z</time>
      </trkpt>
      <trkpt lat="45.08392" lon="2.74608">
        <ele>1273</ele>
        <time>2017-09-02T14:21:31Z</time>
      </trkpt>
      <trkpt lat="45.08386" lon="2.74608">
        <ele>1273</ele>
        <time>2017-09-02T14:21:35Z</time>
      </trkpt>
      <trkpt lat="45.08381" lon="2.7461">
        <ele>1274</ele>
        <time>2017-09-02T14:21:39Z</time>
      </trkpt>
      <trkpt lat="45.08376" lon="2.74611">
        <ele>1274</ele>
        <time>2017-09-02T14:21:43Z</time>
      </trkpt>
      <trkpt lat="45.08371" lon="2.74613">
        <ele>1273</ele>
        <time>2017-09-02T14:21:47Z</time>
      </trkpt>
      <trkpt lat="45.08367" lon="2.74616">
        <ele>1273</ele>
        <time>2017-09-02T14:21:51Z</time>
      </trkpt>
      <trkpt lat="45.08362" lon="2.74619">
        <ele>1273</ele>
        <time>2017-09-02T14:21:55Z</time>
      </trkpt>
      <trkpt lat="45.08357" lon="2.74624">
        <ele>1272</ele>
        <time>2017-09-02T14:22:00Z</time>
      </trkpt>
      <trkpt lat="45.08352" lon="2.74628">
        <ele>1272</ele>
        <time>2017-09-02T14:22:04Z</time>
      </trkpt>
      <trkpt lat="45.08348" lon="2.74628">
        <ele>1271</ele>
        <time>2017-09-02T14:22:07Z</time>
      </trkpt>
      <trkpt lat="45.08342" lon="2.74632">
        <ele>1271</ele>
        <time>2017-09-02T14:22:12Z</time>
      </trkpt>
      <trkpt lat="45.08338" lon="2.74635">
        <ele>1270</ele>
        <time>2017-09-02T14:22:15Z</time>
      </trkpt>
      <trkpt lat="45.08334" lon="2.74639">
        <ele>1270</ele>
        <time>2017-09-02T14:22:18Z</time>
      </trkpt>
      <trkpt lat="45.0833" lon="2.74641">
        <ele>1269</ele>
        <time>2017-09-02T14:22:21Z</time>
      </trkpt>
      <trkpt lat="45.08326" lon="2.74645">
        <ele>1268</ele>
        <time>2017-09-02T14:22:25Z</time>
      </trkpt>
      <trkpt lat="45.08321" lon="2.74648">
        <ele>1268</ele>
        <time>2017-09-02T14:22:30Z</time>
      </trkpt>
      <trkpt lat="45.08317" lon="2.74651">
        <ele>1268</ele>
        <time>2017-09-02T14:22:34Z</time>
      </trkpt>
      <trkpt lat="45.08313" lon="2.74654">
        <ele>1267</ele>
        <time>2017-09-02T14:22:39Z</time>
      </trkpt>
      <trkpt lat="45.08308" lon="2.74657">
        <ele>1267</ele>
        <time>2017-09-02T14:22:43Z</time>
      </trkpt>
      <trkpt lat="45.08304" lon="2.7466">
        <ele>1266</ele>
        <time>2017-09-02T14:22:47Z</time>
      </trkpt>
      <trkpt lat="45.083" lon="2.74664">
        <ele>1266</ele>
        <time>2017-09-02T14:22:51Z</time>
      </trkpt>
      <trkpt lat="45.08295" lon="2.74668">
        <ele>1265</ele>
        <time>2017-09-02T14:22:55Z</time>
      </trkpt>
      <trkpt lat="45.0829" lon="2.7467">
        <ele>1265</ele>
        <time>2017-09-02T14:22:59Z</time>
      </trkpt>
      <trkpt lat="45.08286" lon="2.74673">
        <ele>1264</ele>
        <time>2017-09-02T14:23:03Z</time>
      </trkpt>
      <trkpt lat="45.08281" lon="2.74675">
        <ele>1264</ele>
        <time>2017-09-02T14:23:07Z</time>
      </trkpt>
      <trkpt lat="45.08276" lon="2.74677">
        <ele>1263</ele>
        <time>2017-09-02T14:23:10Z</time>
      </trkpt>
      <trkpt lat="45.08272" lon="2.74681">
        <ele>1263</ele>
        <time>2017-09-02T14:23:13Z</time>
      </trkpt>
      <trkpt lat="45.08267" lon="2.74681">
        <ele>1263</ele>
        <time>2017-09-02T14:23:18Z</time>
      </trkpt>
      <trkpt lat="45.08262" lon="2.74681">
        <ele>1263</ele>
        <time>2017-09-02T14:23:23Z</time>
      </trkpt>
      <trkpt lat="45.08256" lon="2.74685">
        <ele>1263</ele>
        <time>2017-09-02T14:23:28Z</time>
      </trkpt>
      <trkpt lat="45.08252" lon="2.7469">
        <ele>1262</ele>
        <time>2017-09-02T14:23:32Z</time>
      </trkpt>
      <trkpt lat="45.08247" lon="2.74692">
        <ele>1262</ele>
        <time>2017-09-02T14:23:36Z</time>
      </trkpt>
      <trkpt lat="45.08242" lon="2.74694">
        <ele>1262</ele>
        <time>2017-09-02T14:23:41Z</time>
      </trkpt>
      <trkpt lat="45.08238" lon="2.74698">
        <ele>1262</ele>
        <time>2017-09-02T14:23:44Z</time>
      </trkpt>
      <trkpt lat="45.08234" lon="2.747">
        <ele>1262</ele>
        <time>2017-09-02T14:23:55Z</time>
      </trkpt>
      <trkpt lat="45.08231" lon="2.74707">
        <ele>1261</ele>
        <time>2017-09-02T14:24:00Z</time>
      </trkpt>
      <trkpt lat="45.08227" lon="2.7471">
        <ele>1260</ele>
        <time>2017-09-02T14:24:11Z</time>
      </trkpt>
      <trkpt lat="45.08224" lon="2.74704">
        <ele>1259</ele>
        <time>2017-09-02T14:24:17Z</time>
      </trkpt>
      <trkpt lat="45.08219" lon="2.74705">
        <ele>1257</ele>
        <time>2017-09-02T14:24:21Z</time>
      </trkpt>
      <trkpt lat="45.08214" lon="2.74707">
        <ele>1256</ele>
        <time>2017-09-02T14:24:26Z</time>
      </trkpt>
      <trkpt lat="45.08209" lon="2.74706">
        <ele>1254</ele>
        <time>2017-09-02T14:24:30Z</time>
      </trkpt>
      <trkpt lat="45.08204" lon="2.74705">
        <ele>1253</ele>
        <time>2017-09-02T14:24:35Z</time>
      </trkpt>
      <trkpt lat="45.08199" lon="2.74702">
        <ele>1252</ele>
        <time>2017-09-02T14:24:40Z</time>
      </trkpt>
      <trkpt lat="45.08195" lon="2.74698">
        <ele>1251</ele>
        <time>2017-09-02T14:24:46Z</time>
      </trkpt>
      <trkpt lat="45.08191" lon="2.74694">
        <ele>1250</ele>
        <time>2017-09-02T14:24:51Z</time>
      </trkpt>
      <trkpt lat="45.08186" lon="2.7469">
        <ele>1250</ele>
        <time>2017-09-02T14:24:56Z</time>
      </trkpt>
      <trkpt lat="45.08182" lon="2.74688">
        <ele>1249</ele>
        <time>2017-09-02T14:25:00Z</time>
      </trkpt>
      <trkpt lat="45.08178" lon="2.74686">
        <ele>1248</ele>
        <time>2017-09-02T14:25:04Z</time>
      </trkpt>
      <trkpt lat="45.08172" lon="2.74684">
        <ele>1248</ele>
        <time>2017-09-02T14:25:09Z</time>
      </trkpt>
      <trkpt lat="45.08167" lon="2.74683">
        <ele>1248</ele>
        <time>2017-09-02T14:25:13Z</time>
      </trkpt>
    </trkseg>
  </trk>
</gpx>